<?xml version="1.0" encoding="UTF-8" standalone="no" ?>
<gpx xmlns="http://www.topografix.com/GPX/1/1" xmlns:xsi="http://www.w3.org/2001/XMLSchema-instance" xsi:schemaLocation="http://www.topografix.com/GPX/1/1 http://www.topografix.com/GPX/1/1/gpx.xsd" version="1.1" creator="VisuGPX - https://www.visugpx.com">
  <metadata>
    <name>chateauneuf 2</name>
  </metadata>
  <trk>
    <name><![CDATA[Y]]></name>
    <extensions>
      <line xmlns="http://www.topografix.com/GPX/gpx_style/0/2">
        <color>0000FF</color>
        <width>4</width>
      </line>
    </extensions>
    <trkseg>
      <trkpt lat="46.89173" lon="-1.85637">
        <ele>24</ele>
        <time>2019-10-03T17:22:29Z</time>
      </trkpt>
      <trkpt lat="46.89174" lon="-1.85638">
        <ele>25</ele>
        <time>2019-10-03T17:22:58Z</time>
      </trkpt>
      <trkpt lat="46.89174" lon="-1.85638">
        <ele>25</ele>
        <time>2019-10-03T17:22:59Z</time>
      </trkpt>
      <trkpt lat="46.89173" lon="-1.85639">
        <ele>25</ele>
        <time>2019-10-03T17:23:28Z</time>
      </trkpt>
      <trkpt lat="46.89173" lon="-1.85639">
        <ele>25</ele>
        <time>2019-10-03T17:23:29Z</time>
      </trkpt>
      <trkpt lat="46.89171" lon="-1.85638">
        <ele>25</ele>
        <time>2019-10-03T17:23:58Z</time>
      </trkpt>
      <trkpt lat="46.89171" lon="-1.85638">
        <ele>25</ele>
        <time>2019-10-03T17:23:59Z</time>
      </trkpt>
      <trkpt lat="46.89176" lon="-1.85633">
        <ele>25</ele>
        <time>2019-10-03T17:24:27Z</time>
      </trkpt>
      <trkpt lat="46.8918" lon="-1.85636">
        <ele>25</ele>
        <time>2019-10-03T17:24:34Z</time>
      </trkpt>
      <trkpt lat="46.89185" lon="-1.85634">
        <ele>25</ele>
        <time>2019-10-03T17:24:57Z</time>
      </trkpt>
      <trkpt lat="46.8919" lon="-1.85639">
        <ele>25</ele>
        <time>2019-10-03T17:25:01Z</time>
      </trkpt>
      <trkpt lat="46.89195" lon="-1.85645">
        <ele>25</ele>
        <time>2019-10-03T17:25:03Z</time>
      </trkpt>
      <trkpt lat="46.89199" lon="-1.85649">
        <ele>25</ele>
        <time>2019-10-03T17:25:04Z</time>
      </trkpt>
      <trkpt lat="46.89203" lon="-1.85653">
        <ele>25</ele>
        <time>2019-10-03T17:25:05Z</time>
      </trkpt>
      <trkpt lat="46.8921" lon="-1.8566">
        <ele>25</ele>
        <time>2019-10-03T17:25:07Z</time>
      </trkpt>
      <trkpt lat="46.89213" lon="-1.8567">
        <ele>25</ele>
        <time>2019-10-03T17:25:09Z</time>
      </trkpt>
      <trkpt lat="46.89211" lon="-1.85676">
        <ele>25</ele>
        <time>2019-10-03T17:25:10Z</time>
      </trkpt>
      <trkpt lat="46.89208" lon="-1.85683">
        <ele>25</ele>
        <time>2019-10-03T17:25:11Z</time>
      </trkpt>
      <trkpt lat="46.89204" lon="-1.8569">
        <ele>25</ele>
        <time>2019-10-03T17:25:12Z</time>
      </trkpt>
      <trkpt lat="46.89201" lon="-1.85698">
        <ele>25</ele>
        <time>2019-10-03T17:25:13Z</time>
      </trkpt>
      <trkpt lat="46.89197" lon="-1.85706">
        <ele>25</ele>
        <time>2019-10-03T17:25:14Z</time>
      </trkpt>
      <trkpt lat="46.89193" lon="-1.85713">
        <ele>25</ele>
        <time>2019-10-03T17:25:15Z</time>
      </trkpt>
      <trkpt lat="46.8919" lon="-1.85721">
        <ele>25</ele>
        <time>2019-10-03T17:25:16Z</time>
      </trkpt>
      <trkpt lat="46.89188" lon="-1.85728">
        <ele>25</ele>
        <time>2019-10-03T17:25:17Z</time>
      </trkpt>
      <trkpt lat="46.89185" lon="-1.85736">
        <ele>25</ele>
        <time>2019-10-03T17:25:18Z</time>
      </trkpt>
      <trkpt lat="46.89181" lon="-1.85743">
        <ele>25</ele>
        <time>2019-10-03T17:25:19Z</time>
      </trkpt>
      <trkpt lat="46.89178" lon="-1.85752">
        <ele>25</ele>
        <time>2019-10-03T17:25:20Z</time>
      </trkpt>
      <trkpt lat="46.89175" lon="-1.8576">
        <ele>25</ele>
        <time>2019-10-03T17:25:21Z</time>
      </trkpt>
      <trkpt lat="46.89172" lon="-1.85768">
        <ele>25</ele>
        <time>2019-10-03T17:25:22Z</time>
      </trkpt>
      <trkpt lat="46.89168" lon="-1.85776">
        <ele>25</ele>
        <time>2019-10-03T17:25:23Z</time>
      </trkpt>
      <trkpt lat="46.89165" lon="-1.85785">
        <ele>25</ele>
        <time>2019-10-03T17:25:24Z</time>
      </trkpt>
      <trkpt lat="46.89162" lon="-1.85793">
        <ele>25</ele>
        <time>2019-10-03T17:25:25Z</time>
      </trkpt>
      <trkpt lat="46.89159" lon="-1.85801">
        <ele>25</ele>
        <time>2019-10-03T17:25:26Z</time>
      </trkpt>
      <trkpt lat="46.89156" lon="-1.85809">
        <ele>25</ele>
        <time>2019-10-03T17:25:27Z</time>
      </trkpt>
      <trkpt lat="46.89154" lon="-1.85817">
        <ele>25</ele>
        <time>2019-10-03T17:25:28Z</time>
      </trkpt>
      <trkpt lat="46.89151" lon="-1.85825">
        <ele>25</ele>
        <time>2019-10-03T17:25:29Z</time>
      </trkpt>
      <trkpt lat="46.89147" lon="-1.85833">
        <ele>25</ele>
        <time>2019-10-03T17:25:30Z</time>
      </trkpt>
      <trkpt lat="46.89143" lon="-1.85841">
        <ele>25</ele>
        <time>2019-10-03T17:25:31Z</time>
      </trkpt>
      <trkpt lat="46.8914" lon="-1.85849">
        <ele>25</ele>
        <time>2019-10-03T17:25:32Z</time>
      </trkpt>
      <trkpt lat="46.89136" lon="-1.85857">
        <ele>25</ele>
        <time>2019-10-03T17:25:33Z</time>
      </trkpt>
      <trkpt lat="46.89132" lon="-1.85865">
        <ele>25</ele>
        <time>2019-10-03T17:25:34Z</time>
      </trkpt>
      <trkpt lat="46.89127" lon="-1.85872">
        <ele>25</ele>
        <time>2019-10-03T17:25:35Z</time>
      </trkpt>
      <trkpt lat="46.89122" lon="-1.85877">
        <ele>24</ele>
        <time>2019-10-03T17:25:36Z</time>
      </trkpt>
      <trkpt lat="46.89116" lon="-1.8588">
        <ele>24</ele>
        <time>2019-10-03T17:25:37Z</time>
      </trkpt>
      <trkpt lat="46.89109" lon="-1.85882">
        <ele>24</ele>
        <time>2019-10-03T17:25:38Z</time>
      </trkpt>
      <trkpt lat="46.89103" lon="-1.85884">
        <ele>24</ele>
        <time>2019-10-03T17:25:39Z</time>
      </trkpt>
      <trkpt lat="46.89098" lon="-1.85886">
        <ele>24</ele>
        <time>2019-10-03T17:25:40Z</time>
      </trkpt>
      <trkpt lat="46.89092" lon="-1.85887">
        <ele>24</ele>
        <time>2019-10-03T17:25:41Z</time>
      </trkpt>
      <trkpt lat="46.89086" lon="-1.85888">
        <ele>24</ele>
        <time>2019-10-03T17:25:42Z</time>
      </trkpt>
      <trkpt lat="46.89081" lon="-1.85888">
        <ele>24</ele>
        <time>2019-10-03T17:25:43Z</time>
      </trkpt>
      <trkpt lat="46.89076" lon="-1.85888">
        <ele>24</ele>
        <time>2019-10-03T17:25:44Z</time>
      </trkpt>
      <trkpt lat="46.89072" lon="-1.85889">
        <ele>24</ele>
        <time>2019-10-03T17:25:45Z</time>
      </trkpt>
      <trkpt lat="46.89067" lon="-1.85891">
        <ele>24</ele>
        <time>2019-10-03T17:25:46Z</time>
      </trkpt>
      <trkpt lat="46.89062" lon="-1.85891">
        <ele>24</ele>
        <time>2019-10-03T17:25:47Z</time>
      </trkpt>
      <trkpt lat="46.89057" lon="-1.85891">
        <ele>24</ele>
        <time>2019-10-03T17:25:48Z</time>
      </trkpt>
      <trkpt lat="46.89053" lon="-1.8589">
        <ele>24</ele>
        <time>2019-10-03T17:25:49Z</time>
      </trkpt>
      <trkpt lat="46.89043" lon="-1.85891">
        <ele>24</ele>
        <time>2019-10-03T17:25:51Z</time>
      </trkpt>
      <trkpt lat="46.89039" lon="-1.85891">
        <ele>23</ele>
        <time>2019-10-03T17:25:52Z</time>
      </trkpt>
      <trkpt lat="46.89034" lon="-1.85892">
        <ele>23</ele>
        <time>2019-10-03T17:25:53Z</time>
      </trkpt>
      <trkpt lat="46.89029" lon="-1.85892">
        <ele>23</ele>
        <time>2019-10-03T17:25:54Z</time>
      </trkpt>
      <trkpt lat="46.89024" lon="-1.85892">
        <ele>23</ele>
        <time>2019-10-03T17:25:55Z</time>
      </trkpt>
      <trkpt lat="46.89018" lon="-1.85894">
        <ele>23</ele>
        <time>2019-10-03T17:25:56Z</time>
      </trkpt>
      <trkpt lat="46.89012" lon="-1.85896">
        <ele>22</ele>
        <time>2019-10-03T17:25:57Z</time>
      </trkpt>
      <trkpt lat="46.89006" lon="-1.85898">
        <ele>22</ele>
        <time>2019-10-03T17:25:58Z</time>
      </trkpt>
      <trkpt lat="46.89001" lon="-1.85902">
        <ele>22</ele>
        <time>2019-10-03T17:25:59Z</time>
      </trkpt>
      <trkpt lat="46.88996" lon="-1.85907">
        <ele>23</ele>
        <time>2019-10-03T17:26:00Z</time>
      </trkpt>
      <trkpt lat="46.88992" lon="-1.85913">
        <ele>23</ele>
        <time>2019-10-03T17:26:01Z</time>
      </trkpt>
      <trkpt lat="46.88989" lon="-1.85919">
        <ele>23</ele>
        <time>2019-10-03T17:26:02Z</time>
      </trkpt>
      <trkpt lat="46.88986" lon="-1.85927">
        <ele>23</ele>
        <time>2019-10-03T17:26:03Z</time>
      </trkpt>
      <trkpt lat="46.88983" lon="-1.85935">
        <ele>23</ele>
        <time>2019-10-03T17:26:04Z</time>
      </trkpt>
      <trkpt lat="46.88981" lon="-1.85943">
        <ele>23</ele>
        <time>2019-10-03T17:26:05Z</time>
      </trkpt>
      <trkpt lat="46.88979" lon="-1.85951">
        <ele>23</ele>
        <time>2019-10-03T17:26:06Z</time>
      </trkpt>
      <trkpt lat="46.88978" lon="-1.85958">
        <ele>24</ele>
        <time>2019-10-03T17:26:07Z</time>
      </trkpt>
      <trkpt lat="46.88977" lon="-1.85966">
        <ele>24</ele>
        <time>2019-10-03T17:26:08Z</time>
      </trkpt>
      <trkpt lat="46.88975" lon="-1.85973">
        <ele>24</ele>
        <time>2019-10-03T17:26:09Z</time>
      </trkpt>
      <trkpt lat="46.88974" lon="-1.85981">
        <ele>24</ele>
        <time>2019-10-03T17:26:10Z</time>
      </trkpt>
      <trkpt lat="46.88972" lon="-1.85988">
        <ele>24</ele>
        <time>2019-10-03T17:26:11Z</time>
      </trkpt>
      <trkpt lat="46.8897" lon="-1.85996">
        <ele>24</ele>
        <time>2019-10-03T17:26:12Z</time>
      </trkpt>
      <trkpt lat="46.88968" lon="-1.86004">
        <ele>24</ele>
        <time>2019-10-03T17:26:13Z</time>
      </trkpt>
      <trkpt lat="46.88966" lon="-1.86011">
        <ele>24</ele>
        <time>2019-10-03T17:26:14Z</time>
      </trkpt>
      <trkpt lat="46.88965" lon="-1.86019">
        <ele>24</ele>
        <time>2019-10-03T17:26:15Z</time>
      </trkpt>
      <trkpt lat="46.88964" lon="-1.86027">
        <ele>24</ele>
        <time>2019-10-03T17:26:16Z</time>
      </trkpt>
      <trkpt lat="46.88962" lon="-1.86034">
        <ele>24</ele>
        <time>2019-10-03T17:26:17Z</time>
      </trkpt>
      <trkpt lat="46.88961" lon="-1.86041">
        <ele>24</ele>
        <time>2019-10-03T17:26:18Z</time>
      </trkpt>
      <trkpt lat="46.8896" lon="-1.86049">
        <ele>24</ele>
        <time>2019-10-03T17:26:19Z</time>
      </trkpt>
      <trkpt lat="46.88958" lon="-1.86057">
        <ele>24</ele>
        <time>2019-10-03T17:26:20Z</time>
      </trkpt>
      <trkpt lat="46.88957" lon="-1.86064">
        <ele>24</ele>
        <time>2019-10-03T17:26:21Z</time>
      </trkpt>
      <trkpt lat="46.88955" lon="-1.86071">
        <ele>24</ele>
        <time>2019-10-03T17:26:22Z</time>
      </trkpt>
      <trkpt lat="46.88953" lon="-1.86078">
        <ele>24</ele>
        <time>2019-10-03T17:26:23Z</time>
      </trkpt>
      <trkpt lat="46.8895" lon="-1.86085">
        <ele>24</ele>
        <time>2019-10-03T17:26:24Z</time>
      </trkpt>
      <trkpt lat="46.88946" lon="-1.8609">
        <ele>24</ele>
        <time>2019-10-03T17:26:25Z</time>
      </trkpt>
      <trkpt lat="46.88941" lon="-1.86094">
        <ele>24</ele>
        <time>2019-10-03T17:26:26Z</time>
      </trkpt>
      <trkpt lat="46.88936" lon="-1.86096">
        <ele>24</ele>
        <time>2019-10-03T17:26:27Z</time>
      </trkpt>
      <trkpt lat="46.88931" lon="-1.86098">
        <ele>24</ele>
        <time>2019-10-03T17:26:28Z</time>
      </trkpt>
      <trkpt lat="46.88926" lon="-1.86099">
        <ele>24</ele>
        <time>2019-10-03T17:26:29Z</time>
      </trkpt>
      <trkpt lat="46.88921" lon="-1.86097">
        <ele>24</ele>
        <time>2019-10-03T17:26:30Z</time>
      </trkpt>
      <trkpt lat="46.88915" lon="-1.86095">
        <ele>24</ele>
        <time>2019-10-03T17:26:31Z</time>
      </trkpt>
      <trkpt lat="46.88909" lon="-1.86094">
        <ele>24</ele>
        <time>2019-10-03T17:26:32Z</time>
      </trkpt>
      <trkpt lat="46.88903" lon="-1.86092">
        <ele>24</ele>
        <time>2019-10-03T17:26:33Z</time>
      </trkpt>
      <trkpt lat="46.88897" lon="-1.86089">
        <ele>24</ele>
        <time>2019-10-03T17:26:34Z</time>
      </trkpt>
      <trkpt lat="46.88892" lon="-1.86087">
        <ele>24</ele>
        <time>2019-10-03T17:26:35Z</time>
      </trkpt>
      <trkpt lat="46.88886" lon="-1.86085">
        <ele>24</ele>
        <time>2019-10-03T17:26:36Z</time>
      </trkpt>
      <trkpt lat="46.88881" lon="-1.86084">
        <ele>24</ele>
        <time>2019-10-03T17:26:37Z</time>
      </trkpt>
      <trkpt lat="46.88875" lon="-1.86082">
        <ele>24</ele>
        <time>2019-10-03T17:26:38Z</time>
      </trkpt>
      <trkpt lat="46.88869" lon="-1.86079">
        <ele>24</ele>
        <time>2019-10-03T17:26:39Z</time>
      </trkpt>
      <trkpt lat="46.88863" lon="-1.86077">
        <ele>24</ele>
        <time>2019-10-03T17:26:40Z</time>
      </trkpt>
      <trkpt lat="46.88857" lon="-1.86074">
        <ele>24</ele>
        <time>2019-10-03T17:26:41Z</time>
      </trkpt>
      <trkpt lat="46.88851" lon="-1.86072">
        <ele>24</ele>
        <time>2019-10-03T17:26:42Z</time>
      </trkpt>
      <trkpt lat="46.88845" lon="-1.8607">
        <ele>24</ele>
        <time>2019-10-03T17:26:43Z</time>
      </trkpt>
      <trkpt lat="46.88839" lon="-1.86068">
        <ele>24</ele>
        <time>2019-10-03T17:26:44Z</time>
      </trkpt>
      <trkpt lat="46.88834" lon="-1.86066">
        <ele>23</ele>
        <time>2019-10-03T17:26:45Z</time>
      </trkpt>
      <trkpt lat="46.88828" lon="-1.86064">
        <ele>23</ele>
        <time>2019-10-03T17:26:46Z</time>
      </trkpt>
      <trkpt lat="46.88822" lon="-1.86062">
        <ele>23</ele>
        <time>2019-10-03T17:26:47Z</time>
      </trkpt>
      <trkpt lat="46.88816" lon="-1.8606">
        <ele>23</ele>
        <time>2019-10-03T17:26:48Z</time>
      </trkpt>
      <trkpt lat="46.8881" lon="-1.86058">
        <ele>23</ele>
        <time>2019-10-03T17:26:49Z</time>
      </trkpt>
      <trkpt lat="46.88804" lon="-1.86057">
        <ele>23</ele>
        <time>2019-10-03T17:26:50Z</time>
      </trkpt>
      <trkpt lat="46.88799" lon="-1.86055">
        <ele>23</ele>
        <time>2019-10-03T17:26:51Z</time>
      </trkpt>
      <trkpt lat="46.88792" lon="-1.86053">
        <ele>23</ele>
        <time>2019-10-03T17:26:52Z</time>
      </trkpt>
      <trkpt lat="46.88787" lon="-1.8605">
        <ele>23</ele>
        <time>2019-10-03T17:26:53Z</time>
      </trkpt>
      <trkpt lat="46.88781" lon="-1.86048">
        <ele>23</ele>
        <time>2019-10-03T17:26:54Z</time>
      </trkpt>
      <trkpt lat="46.88775" lon="-1.86045">
        <ele>23</ele>
        <time>2019-10-03T17:26:55Z</time>
      </trkpt>
      <trkpt lat="46.88769" lon="-1.86042">
        <ele>23</ele>
        <time>2019-10-03T17:26:56Z</time>
      </trkpt>
      <trkpt lat="46.88763" lon="-1.8604">
        <ele>23</ele>
        <time>2019-10-03T17:26:57Z</time>
      </trkpt>
      <trkpt lat="46.88758" lon="-1.86037">
        <ele>23</ele>
        <time>2019-10-03T17:26:58Z</time>
      </trkpt>
      <trkpt lat="46.88752" lon="-1.86035">
        <ele>23</ele>
        <time>2019-10-03T17:26:59Z</time>
      </trkpt>
      <trkpt lat="46.88746" lon="-1.86033">
        <ele>23</ele>
        <time>2019-10-03T17:27:00Z</time>
      </trkpt>
      <trkpt lat="46.8874" lon="-1.86031">
        <ele>23</ele>
        <time>2019-10-03T17:27:01Z</time>
      </trkpt>
      <trkpt lat="46.88734" lon="-1.86029">
        <ele>23</ele>
        <time>2019-10-03T17:27:02Z</time>
      </trkpt>
      <trkpt lat="46.88728" lon="-1.86027">
        <ele>23</ele>
        <time>2019-10-03T17:27:03Z</time>
      </trkpt>
      <trkpt lat="46.88722" lon="-1.86026">
        <ele>23</ele>
        <time>2019-10-03T17:27:04Z</time>
      </trkpt>
      <trkpt lat="46.88716" lon="-1.86025">
        <ele>23</ele>
        <time>2019-10-03T17:27:05Z</time>
      </trkpt>
      <trkpt lat="46.8871" lon="-1.86024">
        <ele>23</ele>
        <time>2019-10-03T17:27:06Z</time>
      </trkpt>
      <trkpt lat="46.88704" lon="-1.86022">
        <ele>23</ele>
        <time>2019-10-03T17:27:07Z</time>
      </trkpt>
      <trkpt lat="46.88698" lon="-1.86021">
        <ele>23</ele>
        <time>2019-10-03T17:27:08Z</time>
      </trkpt>
      <trkpt lat="46.88692" lon="-1.86021">
        <ele>23</ele>
        <time>2019-10-03T17:27:09Z</time>
      </trkpt>
      <trkpt lat="46.88686" lon="-1.86021">
        <ele>23</ele>
        <time>2019-10-03T17:27:10Z</time>
      </trkpt>
      <trkpt lat="46.8868" lon="-1.8602">
        <ele>23</ele>
        <time>2019-10-03T17:27:11Z</time>
      </trkpt>
      <trkpt lat="46.88675" lon="-1.8602">
        <ele>23</ele>
        <time>2019-10-03T17:27:12Z</time>
      </trkpt>
      <trkpt lat="46.8867" lon="-1.8602">
        <ele>23</ele>
        <time>2019-10-03T17:27:13Z</time>
      </trkpt>
      <trkpt lat="46.88664" lon="-1.8602">
        <ele>23</ele>
        <time>2019-10-03T17:27:14Z</time>
      </trkpt>
      <trkpt lat="46.88659" lon="-1.86021">
        <ele>23</ele>
        <time>2019-10-03T17:27:15Z</time>
      </trkpt>
      <trkpt lat="46.88654" lon="-1.86026">
        <ele>23</ele>
        <time>2019-10-03T17:27:16Z</time>
      </trkpt>
      <trkpt lat="46.88651" lon="-1.86033">
        <ele>23</ele>
        <time>2019-10-03T17:27:17Z</time>
      </trkpt>
      <trkpt lat="46.8865" lon="-1.8604">
        <ele>23</ele>
        <time>2019-10-03T17:27:18Z</time>
      </trkpt>
      <trkpt lat="46.8865" lon="-1.86048">
        <ele>23</ele>
        <time>2019-10-03T17:27:19Z</time>
      </trkpt>
      <trkpt lat="46.8865" lon="-1.86057">
        <ele>23</ele>
        <time>2019-10-03T17:27:20Z</time>
      </trkpt>
      <trkpt lat="46.8865" lon="-1.86065">
        <ele>23</ele>
        <time>2019-10-03T17:27:21Z</time>
      </trkpt>
      <trkpt lat="46.8865" lon="-1.86073">
        <ele>23</ele>
        <time>2019-10-03T17:27:22Z</time>
      </trkpt>
      <trkpt lat="46.88651" lon="-1.86081">
        <ele>23</ele>
        <time>2019-10-03T17:27:23Z</time>
      </trkpt>
      <trkpt lat="46.88651" lon="-1.8609">
        <ele>23</ele>
        <time>2019-10-03T17:27:24Z</time>
      </trkpt>
      <trkpt lat="46.8865" lon="-1.86099">
        <ele>22</ele>
        <time>2019-10-03T17:27:25Z</time>
      </trkpt>
      <trkpt lat="46.88649" lon="-1.86108">
        <ele>22</ele>
        <time>2019-10-03T17:27:26Z</time>
      </trkpt>
      <trkpt lat="46.88648" lon="-1.86117">
        <ele>22</ele>
        <time>2019-10-03T17:27:27Z</time>
      </trkpt>
      <trkpt lat="46.88647" lon="-1.86126">
        <ele>22</ele>
        <time>2019-10-03T17:27:28Z</time>
      </trkpt>
      <trkpt lat="46.88646" lon="-1.86136">
        <ele>22</ele>
        <time>2019-10-03T17:27:29Z</time>
      </trkpt>
      <trkpt lat="46.88646" lon="-1.86145">
        <ele>22</ele>
        <time>2019-10-03T17:27:30Z</time>
      </trkpt>
      <trkpt lat="46.88645" lon="-1.86154">
        <ele>22</ele>
        <time>2019-10-03T17:27:31Z</time>
      </trkpt>
      <trkpt lat="46.88644" lon="-1.86163">
        <ele>22</ele>
        <time>2019-10-03T17:27:32Z</time>
      </trkpt>
      <trkpt lat="46.88643" lon="-1.86173">
        <ele>22</ele>
        <time>2019-10-03T17:27:33Z</time>
      </trkpt>
      <trkpt lat="46.88642" lon="-1.86182">
        <ele>22</ele>
        <time>2019-10-03T17:27:34Z</time>
      </trkpt>
      <trkpt lat="46.88641" lon="-1.86191">
        <ele>22</ele>
        <time>2019-10-03T17:27:35Z</time>
      </trkpt>
      <trkpt lat="46.8864" lon="-1.862">
        <ele>22</ele>
        <time>2019-10-03T17:27:36Z</time>
      </trkpt>
      <trkpt lat="46.88639" lon="-1.86209">
        <ele>22</ele>
        <time>2019-10-03T17:27:37Z</time>
      </trkpt>
      <trkpt lat="46.88638" lon="-1.86218">
        <ele>21</ele>
        <time>2019-10-03T17:27:38Z</time>
      </trkpt>
      <trkpt lat="46.88637" lon="-1.86226">
        <ele>21</ele>
        <time>2019-10-03T17:27:39Z</time>
      </trkpt>
      <trkpt lat="46.88636" lon="-1.86234">
        <ele>21</ele>
        <time>2019-10-03T17:27:40Z</time>
      </trkpt>
      <trkpt lat="46.88635" lon="-1.86243">
        <ele>21</ele>
        <time>2019-10-03T17:27:41Z</time>
      </trkpt>
      <trkpt lat="46.88634" lon="-1.86252">
        <ele>21</ele>
        <time>2019-10-03T17:27:42Z</time>
      </trkpt>
      <trkpt lat="46.88633" lon="-1.86261">
        <ele>21</ele>
        <time>2019-10-03T17:27:43Z</time>
      </trkpt>
      <trkpt lat="46.88633" lon="-1.86269">
        <ele>21</ele>
        <time>2019-10-03T17:27:44Z</time>
      </trkpt>
      <trkpt lat="46.88632" lon="-1.86278">
        <ele>21</ele>
        <time>2019-10-03T17:27:45Z</time>
      </trkpt>
      <trkpt lat="46.88631" lon="-1.86287">
        <ele>21</ele>
        <time>2019-10-03T17:27:46Z</time>
      </trkpt>
      <trkpt lat="46.88631" lon="-1.86297">
        <ele>21</ele>
        <time>2019-10-03T17:27:47Z</time>
      </trkpt>
      <trkpt lat="46.8863" lon="-1.86307">
        <ele>21</ele>
        <time>2019-10-03T17:27:48Z</time>
      </trkpt>
      <trkpt lat="46.8863" lon="-1.86317">
        <ele>21</ele>
        <time>2019-10-03T17:27:49Z</time>
      </trkpt>
      <trkpt lat="46.88628" lon="-1.86326">
        <ele>21</ele>
        <time>2019-10-03T17:27:50Z</time>
      </trkpt>
      <trkpt lat="46.88628" lon="-1.86335">
        <ele>21</ele>
        <time>2019-10-03T17:27:51Z</time>
      </trkpt>
      <trkpt lat="46.88627" lon="-1.86344">
        <ele>21</ele>
        <time>2019-10-03T17:27:52Z</time>
      </trkpt>
      <trkpt lat="46.88626" lon="-1.86354">
        <ele>21</ele>
        <time>2019-10-03T17:27:53Z</time>
      </trkpt>
      <trkpt lat="46.88625" lon="-1.86363">
        <ele>20</ele>
        <time>2019-10-03T17:27:54Z</time>
      </trkpt>
      <trkpt lat="46.88624" lon="-1.86372">
        <ele>20</ele>
        <time>2019-10-03T17:27:55Z</time>
      </trkpt>
      <trkpt lat="46.88622" lon="-1.8638">
        <ele>20</ele>
        <time>2019-10-03T17:27:56Z</time>
      </trkpt>
      <trkpt lat="46.88621" lon="-1.86389">
        <ele>20</ele>
        <time>2019-10-03T17:27:57Z</time>
      </trkpt>
      <trkpt lat="46.88621" lon="-1.86398">
        <ele>20</ele>
        <time>2019-10-03T17:27:58Z</time>
      </trkpt>
      <trkpt lat="46.8862" lon="-1.86408">
        <ele>20</ele>
        <time>2019-10-03T17:27:59Z</time>
      </trkpt>
      <trkpt lat="46.88619" lon="-1.86417">
        <ele>20</ele>
        <time>2019-10-03T17:28:00Z</time>
      </trkpt>
      <trkpt lat="46.88618" lon="-1.86426">
        <ele>20</ele>
        <time>2019-10-03T17:28:01Z</time>
      </trkpt>
      <trkpt lat="46.88618" lon="-1.86436">
        <ele>20</ele>
        <time>2019-10-03T17:28:02Z</time>
      </trkpt>
      <trkpt lat="46.88617" lon="-1.86445">
        <ele>20</ele>
        <time>2019-10-03T17:28:03Z</time>
      </trkpt>
      <trkpt lat="46.88617" lon="-1.86454">
        <ele>20</ele>
        <time>2019-10-03T17:28:04Z</time>
      </trkpt>
      <trkpt lat="46.88618" lon="-1.86464">
        <ele>19</ele>
        <time>2019-10-03T17:28:05Z</time>
      </trkpt>
      <trkpt lat="46.88619" lon="-1.86473">
        <ele>19</ele>
        <time>2019-10-03T17:28:06Z</time>
      </trkpt>
      <trkpt lat="46.8862" lon="-1.86482">
        <ele>19</ele>
        <time>2019-10-03T17:28:07Z</time>
      </trkpt>
      <trkpt lat="46.88621" lon="-1.86491">
        <ele>19</ele>
        <time>2019-10-03T17:28:08Z</time>
      </trkpt>
      <trkpt lat="46.88622" lon="-1.865">
        <ele>19</ele>
        <time>2019-10-03T17:28:09Z</time>
      </trkpt>
      <trkpt lat="46.88623" lon="-1.8651">
        <ele>19</ele>
        <time>2019-10-03T17:28:10Z</time>
      </trkpt>
      <trkpt lat="46.88624" lon="-1.86519">
        <ele>19</ele>
        <time>2019-10-03T17:28:11Z</time>
      </trkpt>
      <trkpt lat="46.88624" lon="-1.86528">
        <ele>19</ele>
        <time>2019-10-03T17:28:12Z</time>
      </trkpt>
      <trkpt lat="46.88625" lon="-1.86537">
        <ele>18</ele>
        <time>2019-10-03T17:28:13Z</time>
      </trkpt>
      <trkpt lat="46.88625" lon="-1.86547">
        <ele>18</ele>
        <time>2019-10-03T17:28:14Z</time>
      </trkpt>
      <trkpt lat="46.88627" lon="-1.86556">
        <ele>18</ele>
        <time>2019-10-03T17:28:15Z</time>
      </trkpt>
      <trkpt lat="46.88627" lon="-1.86565">
        <ele>18</ele>
        <time>2019-10-03T17:28:16Z</time>
      </trkpt>
      <trkpt lat="46.88628" lon="-1.86574">
        <ele>18</ele>
        <time>2019-10-03T17:28:17Z</time>
      </trkpt>
      <trkpt lat="46.88628" lon="-1.86582">
        <ele>18</ele>
        <time>2019-10-03T17:28:18Z</time>
      </trkpt>
      <trkpt lat="46.88629" lon="-1.86591">
        <ele>18</ele>
        <time>2019-10-03T17:28:19Z</time>
      </trkpt>
      <trkpt lat="46.8863" lon="-1.86599">
        <ele>18</ele>
        <time>2019-10-03T17:28:20Z</time>
      </trkpt>
      <trkpt lat="46.88631" lon="-1.86607">
        <ele>17</ele>
        <time>2019-10-03T17:28:21Z</time>
      </trkpt>
      <trkpt lat="46.88631" lon="-1.86614">
        <ele>17</ele>
        <time>2019-10-03T17:28:22Z</time>
      </trkpt>
      <trkpt lat="46.8863" lon="-1.86621">
        <ele>17</ele>
        <time>2019-10-03T17:28:23Z</time>
      </trkpt>
      <trkpt lat="46.88627" lon="-1.86626">
        <ele>17</ele>
        <time>2019-10-03T17:28:24Z</time>
      </trkpt>
      <trkpt lat="46.8862" lon="-1.86627">
        <ele>17</ele>
        <time>2019-10-03T17:28:25Z</time>
      </trkpt>
      <trkpt lat="46.88615" lon="-1.86626">
        <ele>17</ele>
        <time>2019-10-03T17:28:26Z</time>
      </trkpt>
      <trkpt lat="46.88609" lon="-1.86624">
        <ele>16</ele>
        <time>2019-10-03T17:28:27Z</time>
      </trkpt>
      <trkpt lat="46.88603" lon="-1.86621">
        <ele>16</ele>
        <time>2019-10-03T17:28:28Z</time>
      </trkpt>
      <trkpt lat="46.88597" lon="-1.86618">
        <ele>16</ele>
        <time>2019-10-03T17:28:29Z</time>
      </trkpt>
      <trkpt lat="46.88591" lon="-1.86616">
        <ele>16</ele>
        <time>2019-10-03T17:28:30Z</time>
      </trkpt>
      <trkpt lat="46.88585" lon="-1.86613">
        <ele>16</ele>
        <time>2019-10-03T17:28:31Z</time>
      </trkpt>
      <trkpt lat="46.88579" lon="-1.8661">
        <ele>16</ele>
        <time>2019-10-03T17:28:32Z</time>
      </trkpt>
      <trkpt lat="46.88573" lon="-1.86607">
        <ele>15</ele>
        <time>2019-10-03T17:28:33Z</time>
      </trkpt>
      <trkpt lat="46.88567" lon="-1.86604">
        <ele>15</ele>
        <time>2019-10-03T17:28:34Z</time>
      </trkpt>
      <trkpt lat="46.88561" lon="-1.86601">
        <ele>15</ele>
        <time>2019-10-03T17:28:35Z</time>
      </trkpt>
      <trkpt lat="46.88555" lon="-1.86599">
        <ele>15</ele>
        <time>2019-10-03T17:28:36Z</time>
      </trkpt>
      <trkpt lat="46.88549" lon="-1.86596">
        <ele>15</ele>
        <time>2019-10-03T17:28:37Z</time>
      </trkpt>
      <trkpt lat="46.88543" lon="-1.86593">
        <ele>15</ele>
        <time>2019-10-03T17:28:38Z</time>
      </trkpt>
      <trkpt lat="46.88537" lon="-1.8659">
        <ele>15</ele>
        <time>2019-10-03T17:28:39Z</time>
      </trkpt>
      <trkpt lat="46.88532" lon="-1.86587">
        <ele>15</ele>
        <time>2019-10-03T17:28:40Z</time>
      </trkpt>
      <trkpt lat="46.88526" lon="-1.86584">
        <ele>15</ele>
        <time>2019-10-03T17:28:41Z</time>
      </trkpt>
      <trkpt lat="46.8852" lon="-1.86581">
        <ele>15</ele>
        <time>2019-10-03T17:28:42Z</time>
      </trkpt>
      <trkpt lat="46.88514" lon="-1.86579">
        <ele>15</ele>
        <time>2019-10-03T17:28:43Z</time>
      </trkpt>
      <trkpt lat="46.88508" lon="-1.86576">
        <ele>15</ele>
        <time>2019-10-03T17:28:44Z</time>
      </trkpt>
      <trkpt lat="46.88502" lon="-1.86575">
        <ele>16</ele>
        <time>2019-10-03T17:28:45Z</time>
      </trkpt>
      <trkpt lat="46.88496" lon="-1.86576">
        <ele>16</ele>
        <time>2019-10-03T17:28:46Z</time>
      </trkpt>
      <trkpt lat="46.88491" lon="-1.8658">
        <ele>16</ele>
        <time>2019-10-03T17:28:47Z</time>
      </trkpt>
      <trkpt lat="46.88487" lon="-1.86587">
        <ele>16</ele>
        <time>2019-10-03T17:28:48Z</time>
      </trkpt>
      <trkpt lat="46.88483" lon="-1.86596">
        <ele>16</ele>
        <time>2019-10-03T17:28:49Z</time>
      </trkpt>
      <trkpt lat="46.88481" lon="-1.86605">
        <ele>16</ele>
        <time>2019-10-03T17:28:50Z</time>
      </trkpt>
      <trkpt lat="46.8848" lon="-1.86615">
        <ele>16</ele>
        <time>2019-10-03T17:28:51Z</time>
      </trkpt>
      <trkpt lat="46.88479" lon="-1.86624">
        <ele>16</ele>
        <time>2019-10-03T17:28:52Z</time>
      </trkpt>
      <trkpt lat="46.88477" lon="-1.86634">
        <ele>16</ele>
        <time>2019-10-03T17:28:53Z</time>
      </trkpt>
      <trkpt lat="46.88476" lon="-1.86643">
        <ele>16</ele>
        <time>2019-10-03T17:28:54Z</time>
      </trkpt>
      <trkpt lat="46.88475" lon="-1.86652">
        <ele>16</ele>
        <time>2019-10-03T17:28:55Z</time>
      </trkpt>
      <trkpt lat="46.88473" lon="-1.86661">
        <ele>16</ele>
        <time>2019-10-03T17:28:56Z</time>
      </trkpt>
      <trkpt lat="46.88472" lon="-1.8667">
        <ele>16</ele>
        <time>2019-10-03T17:28:57Z</time>
      </trkpt>
      <trkpt lat="46.88471" lon="-1.86679">
        <ele>16</ele>
        <time>2019-10-03T17:28:58Z</time>
      </trkpt>
      <trkpt lat="46.8847" lon="-1.86689">
        <ele>16</ele>
        <time>2019-10-03T17:28:59Z</time>
      </trkpt>
      <trkpt lat="46.88469" lon="-1.86698">
        <ele>16</ele>
        <time>2019-10-03T17:29:00Z</time>
      </trkpt>
      <trkpt lat="46.88467" lon="-1.86706">
        <ele>16</ele>
        <time>2019-10-03T17:29:01Z</time>
      </trkpt>
      <trkpt lat="46.88466" lon="-1.86715">
        <ele>16</ele>
        <time>2019-10-03T17:29:02Z</time>
      </trkpt>
      <trkpt lat="46.88465" lon="-1.86724">
        <ele>16</ele>
        <time>2019-10-03T17:29:03Z</time>
      </trkpt>
      <trkpt lat="46.88464" lon="-1.86732">
        <ele>16</ele>
        <time>2019-10-03T17:29:04Z</time>
      </trkpt>
      <trkpt lat="46.88462" lon="-1.8674">
        <ele>16</ele>
        <time>2019-10-03T17:29:05Z</time>
      </trkpt>
      <trkpt lat="46.88461" lon="-1.86748">
        <ele>16</ele>
        <time>2019-10-03T17:29:06Z</time>
      </trkpt>
      <trkpt lat="46.8846" lon="-1.86755">
        <ele>16</ele>
        <time>2019-10-03T17:29:07Z</time>
      </trkpt>
      <trkpt lat="46.88459" lon="-1.86763">
        <ele>16</ele>
        <time>2019-10-03T17:29:08Z</time>
      </trkpt>
      <trkpt lat="46.88458" lon="-1.8677">
        <ele>16</ele>
        <time>2019-10-03T17:29:09Z</time>
      </trkpt>
      <trkpt lat="46.88457" lon="-1.86778">
        <ele>15</ele>
        <time>2019-10-03T17:29:10Z</time>
      </trkpt>
      <trkpt lat="46.88456" lon="-1.86786">
        <ele>15</ele>
        <time>2019-10-03T17:29:11Z</time>
      </trkpt>
      <trkpt lat="46.88455" lon="-1.86793">
        <ele>15</ele>
        <time>2019-10-03T17:29:12Z</time>
      </trkpt>
      <trkpt lat="46.88454" lon="-1.86801">
        <ele>15</ele>
        <time>2019-10-03T17:29:13Z</time>
      </trkpt>
      <trkpt lat="46.88453" lon="-1.86808">
        <ele>15</ele>
        <time>2019-10-03T17:29:14Z</time>
      </trkpt>
      <trkpt lat="46.88452" lon="-1.86817">
        <ele>15</ele>
        <time>2019-10-03T17:29:15Z</time>
      </trkpt>
      <trkpt lat="46.88451" lon="-1.86825">
        <ele>15</ele>
        <time>2019-10-03T17:29:16Z</time>
      </trkpt>
      <trkpt lat="46.8845" lon="-1.86833">
        <ele>15</ele>
        <time>2019-10-03T17:29:17Z</time>
      </trkpt>
      <trkpt lat="46.88448" lon="-1.86842">
        <ele>15</ele>
        <time>2019-10-03T17:29:18Z</time>
      </trkpt>
      <trkpt lat="46.88447" lon="-1.8685">
        <ele>15</ele>
        <time>2019-10-03T17:29:19Z</time>
      </trkpt>
      <trkpt lat="46.88446" lon="-1.86858">
        <ele>15</ele>
        <time>2019-10-03T17:29:20Z</time>
      </trkpt>
      <trkpt lat="46.88445" lon="-1.86867">
        <ele>15</ele>
        <time>2019-10-03T17:29:21Z</time>
      </trkpt>
      <trkpt lat="46.88443" lon="-1.86875">
        <ele>15</ele>
        <time>2019-10-03T17:29:22Z</time>
      </trkpt>
      <trkpt lat="46.88442" lon="-1.86883">
        <ele>15</ele>
        <time>2019-10-03T17:29:23Z</time>
      </trkpt>
      <trkpt lat="46.8844" lon="-1.86891">
        <ele>15</ele>
        <time>2019-10-03T17:29:24Z</time>
      </trkpt>
      <trkpt lat="46.88439" lon="-1.86899">
        <ele>15</ele>
        <time>2019-10-03T17:29:25Z</time>
      </trkpt>
      <trkpt lat="46.88438" lon="-1.86907">
        <ele>15</ele>
        <time>2019-10-03T17:29:26Z</time>
      </trkpt>
      <trkpt lat="46.88437" lon="-1.86915">
        <ele>15</ele>
        <time>2019-10-03T17:29:27Z</time>
      </trkpt>
      <trkpt lat="46.88435" lon="-1.86923">
        <ele>15</ele>
        <time>2019-10-03T17:29:28Z</time>
      </trkpt>
      <trkpt lat="46.88434" lon="-1.86931">
        <ele>15</ele>
        <time>2019-10-03T17:29:29Z</time>
      </trkpt>
      <trkpt lat="46.88433" lon="-1.86939">
        <ele>15</ele>
        <time>2019-10-03T17:29:30Z</time>
      </trkpt>
      <trkpt lat="46.88431" lon="-1.86947">
        <ele>15</ele>
        <time>2019-10-03T17:29:31Z</time>
      </trkpt>
      <trkpt lat="46.8843" lon="-1.86955">
        <ele>15</ele>
        <time>2019-10-03T17:29:32Z</time>
      </trkpt>
      <trkpt lat="46.88429" lon="-1.86963">
        <ele>15</ele>
        <time>2019-10-03T17:29:33Z</time>
      </trkpt>
      <trkpt lat="46.88428" lon="-1.86971">
        <ele>15</ele>
        <time>2019-10-03T17:29:34Z</time>
      </trkpt>
      <trkpt lat="46.88427" lon="-1.86979">
        <ele>15</ele>
        <time>2019-10-03T17:29:35Z</time>
      </trkpt>
      <trkpt lat="46.88425" lon="-1.86987">
        <ele>15</ele>
        <time>2019-10-03T17:29:36Z</time>
      </trkpt>
      <trkpt lat="46.88423" lon="-1.86995">
        <ele>15</ele>
        <time>2019-10-03T17:29:37Z</time>
      </trkpt>
      <trkpt lat="46.88422" lon="-1.87003">
        <ele>15</ele>
        <time>2019-10-03T17:29:38Z</time>
      </trkpt>
      <trkpt lat="46.88421" lon="-1.87011">
        <ele>15</ele>
        <time>2019-10-03T17:29:39Z</time>
      </trkpt>
      <trkpt lat="46.88419" lon="-1.87019">
        <ele>15</ele>
        <time>2019-10-03T17:29:40Z</time>
      </trkpt>
      <trkpt lat="46.88419" lon="-1.87027">
        <ele>15</ele>
        <time>2019-10-03T17:29:41Z</time>
      </trkpt>
      <trkpt lat="46.88417" lon="-1.87035">
        <ele>15</ele>
        <time>2019-10-03T17:29:42Z</time>
      </trkpt>
      <trkpt lat="46.88416" lon="-1.87043">
        <ele>15</ele>
        <time>2019-10-03T17:29:43Z</time>
      </trkpt>
      <trkpt lat="46.88414" lon="-1.8705">
        <ele>15</ele>
        <time>2019-10-03T17:29:44Z</time>
      </trkpt>
      <trkpt lat="46.88413" lon="-1.87058">
        <ele>15</ele>
        <time>2019-10-03T17:29:45Z</time>
      </trkpt>
      <trkpt lat="46.88412" lon="-1.87066">
        <ele>15</ele>
        <time>2019-10-03T17:29:46Z</time>
      </trkpt>
      <trkpt lat="46.88411" lon="-1.87074">
        <ele>15</ele>
        <time>2019-10-03T17:29:47Z</time>
      </trkpt>
      <trkpt lat="46.8841" lon="-1.87082">
        <ele>15</ele>
        <time>2019-10-03T17:29:48Z</time>
      </trkpt>
      <trkpt lat="46.88409" lon="-1.87089">
        <ele>15</ele>
        <time>2019-10-03T17:29:49Z</time>
      </trkpt>
      <trkpt lat="46.88407" lon="-1.87097">
        <ele>15</ele>
        <time>2019-10-03T17:29:50Z</time>
      </trkpt>
      <trkpt lat="46.88406" lon="-1.87105">
        <ele>15</ele>
        <time>2019-10-03T17:29:51Z</time>
      </trkpt>
      <trkpt lat="46.88405" lon="-1.87113">
        <ele>15</ele>
        <time>2019-10-03T17:29:52Z</time>
      </trkpt>
      <trkpt lat="46.88404" lon="-1.8712">
        <ele>15</ele>
        <time>2019-10-03T17:29:53Z</time>
      </trkpt>
      <trkpt lat="46.88403" lon="-1.87127">
        <ele>15</ele>
        <time>2019-10-03T17:29:54Z</time>
      </trkpt>
      <trkpt lat="46.88402" lon="-1.87135">
        <ele>15</ele>
        <time>2019-10-03T17:29:55Z</time>
      </trkpt>
      <trkpt lat="46.88401" lon="-1.87142">
        <ele>15</ele>
        <time>2019-10-03T17:29:56Z</time>
      </trkpt>
      <trkpt lat="46.88401" lon="-1.8715">
        <ele>14</ele>
        <time>2019-10-03T17:29:57Z</time>
      </trkpt>
      <trkpt lat="46.884" lon="-1.87158">
        <ele>14</ele>
        <time>2019-10-03T17:29:58Z</time>
      </trkpt>
      <trkpt lat="46.88398" lon="-1.87165">
        <ele>14</ele>
        <time>2019-10-03T17:29:59Z</time>
      </trkpt>
      <trkpt lat="46.88397" lon="-1.87172">
        <ele>14</ele>
        <time>2019-10-03T17:30:00Z</time>
      </trkpt>
      <trkpt lat="46.88396" lon="-1.8718">
        <ele>14</ele>
        <time>2019-10-03T17:30:01Z</time>
      </trkpt>
      <trkpt lat="46.88395" lon="-1.87187">
        <ele>14</ele>
        <time>2019-10-03T17:30:02Z</time>
      </trkpt>
      <trkpt lat="46.88394" lon="-1.87195">
        <ele>14</ele>
        <time>2019-10-03T17:30:03Z</time>
      </trkpt>
      <trkpt lat="46.88393" lon="-1.87202">
        <ele>14</ele>
        <time>2019-10-03T17:30:04Z</time>
      </trkpt>
      <trkpt lat="46.88393" lon="-1.8721">
        <ele>14</ele>
        <time>2019-10-03T17:30:05Z</time>
      </trkpt>
      <trkpt lat="46.88393" lon="-1.87218">
        <ele>14</ele>
        <time>2019-10-03T17:30:06Z</time>
      </trkpt>
      <trkpt lat="46.88395" lon="-1.87226">
        <ele>14</ele>
        <time>2019-10-03T17:30:07Z</time>
      </trkpt>
      <trkpt lat="46.88397" lon="-1.87233">
        <ele>14</ele>
        <time>2019-10-03T17:30:08Z</time>
      </trkpt>
      <trkpt lat="46.884" lon="-1.87239">
        <ele>14</ele>
        <time>2019-10-03T17:30:09Z</time>
      </trkpt>
      <trkpt lat="46.88404" lon="-1.87244">
        <ele>14</ele>
        <time>2019-10-03T17:30:10Z</time>
      </trkpt>
      <trkpt lat="46.88408" lon="-1.87249">
        <ele>14</ele>
        <time>2019-10-03T17:30:11Z</time>
      </trkpt>
      <trkpt lat="46.88413" lon="-1.87253">
        <ele>14</ele>
        <time>2019-10-03T17:30:12Z</time>
      </trkpt>
      <trkpt lat="46.88417" lon="-1.87258">
        <ele>14</ele>
        <time>2019-10-03T17:30:13Z</time>
      </trkpt>
      <trkpt lat="46.88419" lon="-1.87265">
        <ele>13</ele>
        <time>2019-10-03T17:30:14Z</time>
      </trkpt>
      <trkpt lat="46.88419" lon="-1.87272">
        <ele>13</ele>
        <time>2019-10-03T17:30:15Z</time>
      </trkpt>
      <trkpt lat="46.88419" lon="-1.8728">
        <ele>13</ele>
        <time>2019-10-03T17:30:16Z</time>
      </trkpt>
      <trkpt lat="46.88419" lon="-1.87287">
        <ele>13</ele>
        <time>2019-10-03T17:30:17Z</time>
      </trkpt>
      <trkpt lat="46.88417" lon="-1.87294">
        <ele>13</ele>
        <time>2019-10-03T17:30:18Z</time>
      </trkpt>
      <trkpt lat="46.88414" lon="-1.87302">
        <ele>13</ele>
        <time>2019-10-03T17:30:19Z</time>
      </trkpt>
      <trkpt lat="46.88412" lon="-1.87309">
        <ele>13</ele>
        <time>2019-10-03T17:30:20Z</time>
      </trkpt>
      <trkpt lat="46.88411" lon="-1.87316">
        <ele>13</ele>
        <time>2019-10-03T17:30:21Z</time>
      </trkpt>
      <trkpt lat="46.88408" lon="-1.87329">
        <ele>13</ele>
        <time>2019-10-03T17:30:23Z</time>
      </trkpt>
      <trkpt lat="46.88406" lon="-1.87336">
        <ele>13</ele>
        <time>2019-10-03T17:30:24Z</time>
      </trkpt>
      <trkpt lat="46.88404" lon="-1.87345">
        <ele>13</ele>
        <time>2019-10-03T17:30:25Z</time>
      </trkpt>
      <trkpt lat="46.88402" lon="-1.87352">
        <ele>13</ele>
        <time>2019-10-03T17:30:26Z</time>
      </trkpt>
      <trkpt lat="46.884" lon="-1.87359">
        <ele>13</ele>
        <time>2019-10-03T17:30:27Z</time>
      </trkpt>
      <trkpt lat="46.88399" lon="-1.87366">
        <ele>13</ele>
        <time>2019-10-03T17:30:28Z</time>
      </trkpt>
      <trkpt lat="46.88397" lon="-1.87374">
        <ele>13</ele>
        <time>2019-10-03T17:30:29Z</time>
      </trkpt>
      <trkpt lat="46.88395" lon="-1.87381">
        <ele>13</ele>
        <time>2019-10-03T17:30:30Z</time>
      </trkpt>
      <trkpt lat="46.88393" lon="-1.8739">
        <ele>13</ele>
        <time>2019-10-03T17:30:31Z</time>
      </trkpt>
      <trkpt lat="46.88392" lon="-1.87397">
        <ele>13</ele>
        <time>2019-10-03T17:30:32Z</time>
      </trkpt>
      <trkpt lat="46.88389" lon="-1.87406">
        <ele>13</ele>
        <time>2019-10-03T17:30:33Z</time>
      </trkpt>
      <trkpt lat="46.88386" lon="-1.87416">
        <ele>13</ele>
        <time>2019-10-03T17:30:34Z</time>
      </trkpt>
      <trkpt lat="46.88384" lon="-1.87425">
        <ele>13</ele>
        <time>2019-10-03T17:30:35Z</time>
      </trkpt>
      <trkpt lat="46.88381" lon="-1.87433">
        <ele>13</ele>
        <time>2019-10-03T17:30:36Z</time>
      </trkpt>
      <trkpt lat="46.88378" lon="-1.87441">
        <ele>13</ele>
        <time>2019-10-03T17:30:37Z</time>
      </trkpt>
      <trkpt lat="46.88376" lon="-1.87449">
        <ele>13</ele>
        <time>2019-10-03T17:30:38Z</time>
      </trkpt>
      <trkpt lat="46.88374" lon="-1.87457">
        <ele>13</ele>
        <time>2019-10-03T17:30:39Z</time>
      </trkpt>
      <trkpt lat="46.88372" lon="-1.87465">
        <ele>13</ele>
        <time>2019-10-03T17:30:40Z</time>
      </trkpt>
      <trkpt lat="46.88369" lon="-1.87473">
        <ele>13</ele>
        <time>2019-10-03T17:30:41Z</time>
      </trkpt>
      <trkpt lat="46.88367" lon="-1.87481">
        <ele>13</ele>
        <time>2019-10-03T17:30:42Z</time>
      </trkpt>
      <trkpt lat="46.88364" lon="-1.87489">
        <ele>13</ele>
        <time>2019-10-03T17:30:43Z</time>
      </trkpt>
      <trkpt lat="46.88361" lon="-1.87497">
        <ele>13</ele>
        <time>2019-10-03T17:30:44Z</time>
      </trkpt>
      <trkpt lat="46.88359" lon="-1.87504">
        <ele>14</ele>
        <time>2019-10-03T17:30:45Z</time>
      </trkpt>
      <trkpt lat="46.88356" lon="-1.87511">
        <ele>14</ele>
        <time>2019-10-03T17:30:46Z</time>
      </trkpt>
      <trkpt lat="46.88354" lon="-1.87519">
        <ele>14</ele>
        <time>2019-10-03T17:30:47Z</time>
      </trkpt>
      <trkpt lat="46.88352" lon="-1.87527">
        <ele>14</ele>
        <time>2019-10-03T17:30:48Z</time>
      </trkpt>
      <trkpt lat="46.8835" lon="-1.87535">
        <ele>14</ele>
        <time>2019-10-03T17:30:49Z</time>
      </trkpt>
      <trkpt lat="46.88347" lon="-1.87543">
        <ele>14</ele>
        <time>2019-10-03T17:30:50Z</time>
      </trkpt>
      <trkpt lat="46.88345" lon="-1.8755">
        <ele>14</ele>
        <time>2019-10-03T17:30:51Z</time>
      </trkpt>
      <trkpt lat="46.88343" lon="-1.87558">
        <ele>14</ele>
        <time>2019-10-03T17:30:52Z</time>
      </trkpt>
      <trkpt lat="46.8834" lon="-1.87566">
        <ele>14</ele>
        <time>2019-10-03T17:30:53Z</time>
      </trkpt>
      <trkpt lat="46.88338" lon="-1.87574">
        <ele>14</ele>
        <time>2019-10-03T17:30:54Z</time>
      </trkpt>
      <trkpt lat="46.88336" lon="-1.87581">
        <ele>14</ele>
        <time>2019-10-03T17:30:55Z</time>
      </trkpt>
      <trkpt lat="46.88334" lon="-1.87589">
        <ele>14</ele>
        <time>2019-10-03T17:30:56Z</time>
      </trkpt>
      <trkpt lat="46.88331" lon="-1.87597">
        <ele>14</ele>
        <time>2019-10-03T17:30:57Z</time>
      </trkpt>
      <trkpt lat="46.88329" lon="-1.87604">
        <ele>14</ele>
        <time>2019-10-03T17:30:58Z</time>
      </trkpt>
      <trkpt lat="46.88327" lon="-1.87612">
        <ele>14</ele>
        <time>2019-10-03T17:30:59Z</time>
      </trkpt>
      <trkpt lat="46.88325" lon="-1.8762">
        <ele>14</ele>
        <time>2019-10-03T17:31:00Z</time>
      </trkpt>
      <trkpt lat="46.88322" lon="-1.87627">
        <ele>14</ele>
        <time>2019-10-03T17:31:01Z</time>
      </trkpt>
      <trkpt lat="46.8832" lon="-1.87635">
        <ele>14</ele>
        <time>2019-10-03T17:31:02Z</time>
      </trkpt>
      <trkpt lat="46.88318" lon="-1.87642">
        <ele>14</ele>
        <time>2019-10-03T17:31:03Z</time>
      </trkpt>
      <trkpt lat="46.88316" lon="-1.8765">
        <ele>14</ele>
        <time>2019-10-03T17:31:04Z</time>
      </trkpt>
      <trkpt lat="46.88313" lon="-1.87657">
        <ele>14</ele>
        <time>2019-10-03T17:31:05Z</time>
      </trkpt>
      <trkpt lat="46.88311" lon="-1.87665">
        <ele>14</ele>
        <time>2019-10-03T17:31:06Z</time>
      </trkpt>
      <trkpt lat="46.88309" lon="-1.87672">
        <ele>14</ele>
        <time>2019-10-03T17:31:07Z</time>
      </trkpt>
      <trkpt lat="46.88308" lon="-1.87679">
        <ele>14</ele>
        <time>2019-10-03T17:31:08Z</time>
      </trkpt>
      <trkpt lat="46.88306" lon="-1.87686">
        <ele>14</ele>
        <time>2019-10-03T17:31:09Z</time>
      </trkpt>
      <trkpt lat="46.88304" lon="-1.87692">
        <ele>14</ele>
        <time>2019-10-03T17:31:10Z</time>
      </trkpt>
      <trkpt lat="46.88302" lon="-1.87699">
        <ele>14</ele>
        <time>2019-10-03T17:31:11Z</time>
      </trkpt>
      <trkpt lat="46.883" lon="-1.87706">
        <ele>14</ele>
        <time>2019-10-03T17:31:12Z</time>
      </trkpt>
      <trkpt lat="46.88298" lon="-1.87714">
        <ele>14</ele>
        <time>2019-10-03T17:31:13Z</time>
      </trkpt>
      <trkpt lat="46.88296" lon="-1.87722">
        <ele>14</ele>
        <time>2019-10-03T17:31:14Z</time>
      </trkpt>
      <trkpt lat="46.88294" lon="-1.8773">
        <ele>14</ele>
        <time>2019-10-03T17:31:15Z</time>
      </trkpt>
      <trkpt lat="46.88292" lon="-1.87737">
        <ele>14</ele>
        <time>2019-10-03T17:31:16Z</time>
      </trkpt>
      <trkpt lat="46.88289" lon="-1.87749">
        <ele>14</ele>
        <time>2019-10-03T17:31:18Z</time>
      </trkpt>
      <trkpt lat="46.88287" lon="-1.87757">
        <ele>14</ele>
        <time>2019-10-03T17:31:19Z</time>
      </trkpt>
      <trkpt lat="46.88285" lon="-1.87764">
        <ele>14</ele>
        <time>2019-10-03T17:31:20Z</time>
      </trkpt>
      <trkpt lat="46.88282" lon="-1.87772">
        <ele>14</ele>
        <time>2019-10-03T17:31:21Z</time>
      </trkpt>
      <trkpt lat="46.88281" lon="-1.87778">
        <ele>14</ele>
        <time>2019-10-03T17:31:22Z</time>
      </trkpt>
      <trkpt lat="46.88282" lon="-1.87785">
        <ele>14</ele>
        <time>2019-10-03T17:31:23Z</time>
      </trkpt>
      <trkpt lat="46.88283" lon="-1.87793">
        <ele>14</ele>
        <time>2019-10-03T17:31:24Z</time>
      </trkpt>
      <trkpt lat="46.88286" lon="-1.878">
        <ele>14</ele>
        <time>2019-10-03T17:31:25Z</time>
      </trkpt>
      <trkpt lat="46.8829" lon="-1.87805">
        <ele>14</ele>
        <time>2019-10-03T17:31:26Z</time>
      </trkpt>
      <trkpt lat="46.88294" lon="-1.8781">
        <ele>14</ele>
        <time>2019-10-03T17:31:27Z</time>
      </trkpt>
      <trkpt lat="46.88297" lon="-1.87814">
        <ele>14</ele>
        <time>2019-10-03T17:31:28Z</time>
      </trkpt>
      <trkpt lat="46.88302" lon="-1.87818">
        <ele>14</ele>
        <time>2019-10-03T17:31:29Z</time>
      </trkpt>
      <trkpt lat="46.88306" lon="-1.87823">
        <ele>14</ele>
        <time>2019-10-03T17:31:30Z</time>
      </trkpt>
      <trkpt lat="46.8831" lon="-1.87828">
        <ele>14</ele>
        <time>2019-10-03T17:31:31Z</time>
      </trkpt>
      <trkpt lat="46.88312" lon="-1.87834">
        <ele>14</ele>
        <time>2019-10-03T17:31:32Z</time>
      </trkpt>
      <trkpt lat="46.88313" lon="-1.87841">
        <ele>14</ele>
        <time>2019-10-03T17:31:33Z</time>
      </trkpt>
      <trkpt lat="46.88309" lon="-1.87852">
        <ele>14</ele>
        <time>2019-10-03T17:31:35Z</time>
      </trkpt>
      <trkpt lat="46.88306" lon="-1.87857">
        <ele>14</ele>
        <time>2019-10-03T17:31:36Z</time>
      </trkpt>
      <trkpt lat="46.883" lon="-1.87866">
        <ele>14</ele>
        <time>2019-10-03T17:31:38Z</time>
      </trkpt>
      <trkpt lat="46.88294" lon="-1.87876">
        <ele>14</ele>
        <time>2019-10-03T17:31:40Z</time>
      </trkpt>
      <trkpt lat="46.8829" lon="-1.87882">
        <ele>14</ele>
        <time>2019-10-03T17:31:41Z</time>
      </trkpt>
      <trkpt lat="46.88287" lon="-1.87887">
        <ele>14</ele>
        <time>2019-10-03T17:31:42Z</time>
      </trkpt>
      <trkpt lat="46.88283" lon="-1.87894">
        <ele>14</ele>
        <time>2019-10-03T17:31:43Z</time>
      </trkpt>
      <trkpt lat="46.8828" lon="-1.87899">
        <ele>14</ele>
        <time>2019-10-03T17:31:44Z</time>
      </trkpt>
      <trkpt lat="46.88276" lon="-1.87905">
        <ele>14</ele>
        <time>2019-10-03T17:31:45Z</time>
      </trkpt>
      <trkpt lat="46.88272" lon="-1.8791">
        <ele>14</ele>
        <time>2019-10-03T17:31:46Z</time>
      </trkpt>
      <trkpt lat="46.88268" lon="-1.87916">
        <ele>14</ele>
        <time>2019-10-03T17:31:47Z</time>
      </trkpt>
      <trkpt lat="46.88265" lon="-1.87922">
        <ele>14</ele>
        <time>2019-10-03T17:31:48Z</time>
      </trkpt>
      <trkpt lat="46.88261" lon="-1.87927">
        <ele>14</ele>
        <time>2019-10-03T17:31:49Z</time>
      </trkpt>
      <trkpt lat="46.88257" lon="-1.87932">
        <ele>14</ele>
        <time>2019-10-03T17:31:50Z</time>
      </trkpt>
      <trkpt lat="46.88253" lon="-1.87937">
        <ele>14</ele>
        <time>2019-10-03T17:31:51Z</time>
      </trkpt>
      <trkpt lat="46.88249" lon="-1.87942">
        <ele>14</ele>
        <time>2019-10-03T17:31:52Z</time>
      </trkpt>
      <trkpt lat="46.88246" lon="-1.87947">
        <ele>14</ele>
        <time>2019-10-03T17:31:53Z</time>
      </trkpt>
      <trkpt lat="46.88243" lon="-1.87953">
        <ele>14</ele>
        <time>2019-10-03T17:31:54Z</time>
      </trkpt>
      <trkpt lat="46.88239" lon="-1.87958">
        <ele>14</ele>
        <time>2019-10-03T17:31:55Z</time>
      </trkpt>
      <trkpt lat="46.88236" lon="-1.87964">
        <ele>14</ele>
        <time>2019-10-03T17:31:56Z</time>
      </trkpt>
      <trkpt lat="46.88231" lon="-1.87971">
        <ele>14</ele>
        <time>2019-10-03T17:31:57Z</time>
      </trkpt>
      <trkpt lat="46.88227" lon="-1.87978">
        <ele>14</ele>
        <time>2019-10-03T17:31:58Z</time>
      </trkpt>
      <trkpt lat="46.88222" lon="-1.87985">
        <ele>14</ele>
        <time>2019-10-03T17:31:59Z</time>
      </trkpt>
      <trkpt lat="46.88217" lon="-1.87992">
        <ele>14</ele>
        <time>2019-10-03T17:32:00Z</time>
      </trkpt>
      <trkpt lat="46.88212" lon="-1.87999">
        <ele>14</ele>
        <time>2019-10-03T17:32:01Z</time>
      </trkpt>
      <trkpt lat="46.88207" lon="-1.88006">
        <ele>14</ele>
        <time>2019-10-03T17:32:02Z</time>
      </trkpt>
      <trkpt lat="46.88203" lon="-1.88012">
        <ele>14</ele>
        <time>2019-10-03T17:32:03Z</time>
      </trkpt>
      <trkpt lat="46.88199" lon="-1.88019">
        <ele>15</ele>
        <time>2019-10-03T17:32:04Z</time>
      </trkpt>
      <trkpt lat="46.88195" lon="-1.88025">
        <ele>15</ele>
        <time>2019-10-03T17:32:05Z</time>
      </trkpt>
      <trkpt lat="46.88192" lon="-1.88031">
        <ele>15</ele>
        <time>2019-10-03T17:32:06Z</time>
      </trkpt>
      <trkpt lat="46.8819" lon="-1.88039">
        <ele>15</ele>
        <time>2019-10-03T17:32:07Z</time>
      </trkpt>
      <trkpt lat="46.88188" lon="-1.88047">
        <ele>15</ele>
        <time>2019-10-03T17:32:08Z</time>
      </trkpt>
      <trkpt lat="46.88187" lon="-1.88056">
        <ele>15</ele>
        <time>2019-10-03T17:32:09Z</time>
      </trkpt>
      <trkpt lat="46.88186" lon="-1.88065">
        <ele>15</ele>
        <time>2019-10-03T17:32:10Z</time>
      </trkpt>
      <trkpt lat="46.88186" lon="-1.88074">
        <ele>15</ele>
        <time>2019-10-03T17:32:11Z</time>
      </trkpt>
      <trkpt lat="46.88187" lon="-1.88082">
        <ele>15</ele>
        <time>2019-10-03T17:32:12Z</time>
      </trkpt>
      <trkpt lat="46.88188" lon="-1.88089">
        <ele>15</ele>
        <time>2019-10-03T17:32:13Z</time>
      </trkpt>
      <trkpt lat="46.88189" lon="-1.88097">
        <ele>15</ele>
        <time>2019-10-03T17:32:14Z</time>
      </trkpt>
      <trkpt lat="46.8819" lon="-1.88104">
        <ele>15</ele>
        <time>2019-10-03T17:32:15Z</time>
      </trkpt>
      <trkpt lat="46.88191" lon="-1.88111">
        <ele>15</ele>
        <time>2019-10-03T17:32:16Z</time>
      </trkpt>
      <trkpt lat="46.88193" lon="-1.88119">
        <ele>15</ele>
        <time>2019-10-03T17:32:17Z</time>
      </trkpt>
      <trkpt lat="46.88194" lon="-1.88126">
        <ele>15</ele>
        <time>2019-10-03T17:32:18Z</time>
      </trkpt>
      <trkpt lat="46.88196" lon="-1.88134">
        <ele>15</ele>
        <time>2019-10-03T17:32:19Z</time>
      </trkpt>
      <trkpt lat="46.88197" lon="-1.88142">
        <ele>15</ele>
        <time>2019-10-03T17:32:20Z</time>
      </trkpt>
      <trkpt lat="46.88199" lon="-1.8815">
        <ele>15</ele>
        <time>2019-10-03T17:32:21Z</time>
      </trkpt>
      <trkpt lat="46.882" lon="-1.88158">
        <ele>15</ele>
        <time>2019-10-03T17:32:22Z</time>
      </trkpt>
      <trkpt lat="46.882" lon="-1.88167">
        <ele>15</ele>
        <time>2019-10-03T17:32:23Z</time>
      </trkpt>
      <trkpt lat="46.88202" lon="-1.88175">
        <ele>15</ele>
        <time>2019-10-03T17:32:24Z</time>
      </trkpt>
      <trkpt lat="46.88203" lon="-1.88183">
        <ele>15</ele>
        <time>2019-10-03T17:32:25Z</time>
      </trkpt>
      <trkpt lat="46.88204" lon="-1.8819">
        <ele>15</ele>
        <time>2019-10-03T17:32:26Z</time>
      </trkpt>
      <trkpt lat="46.88205" lon="-1.88197">
        <ele>15</ele>
        <time>2019-10-03T17:32:27Z</time>
      </trkpt>
      <trkpt lat="46.88206" lon="-1.88204">
        <ele>15</ele>
        <time>2019-10-03T17:32:28Z</time>
      </trkpt>
      <trkpt lat="46.88207" lon="-1.88212">
        <ele>15</ele>
        <time>2019-10-03T17:32:29Z</time>
      </trkpt>
      <trkpt lat="46.88208" lon="-1.8822">
        <ele>15</ele>
        <time>2019-10-03T17:32:30Z</time>
      </trkpt>
      <trkpt lat="46.8821" lon="-1.88228">
        <ele>15</ele>
        <time>2019-10-03T17:32:31Z</time>
      </trkpt>
      <trkpt lat="46.88212" lon="-1.88236">
        <ele>15</ele>
        <time>2019-10-03T17:32:32Z</time>
      </trkpt>
      <trkpt lat="46.88213" lon="-1.88244">
        <ele>15</ele>
        <time>2019-10-03T17:32:33Z</time>
      </trkpt>
      <trkpt lat="46.88215" lon="-1.88252">
        <ele>15</ele>
        <time>2019-10-03T17:32:34Z</time>
      </trkpt>
      <trkpt lat="46.88218" lon="-1.88259">
        <ele>15</ele>
        <time>2019-10-03T17:32:35Z</time>
      </trkpt>
      <trkpt lat="46.8822" lon="-1.88266">
        <ele>15</ele>
        <time>2019-10-03T17:32:36Z</time>
      </trkpt>
      <trkpt lat="46.88221" lon="-1.88273">
        <ele>15</ele>
        <time>2019-10-03T17:32:37Z</time>
      </trkpt>
      <trkpt lat="46.88224" lon="-1.88281">
        <ele>15</ele>
        <time>2019-10-03T17:32:38Z</time>
      </trkpt>
      <trkpt lat="46.88226" lon="-1.88288">
        <ele>15</ele>
        <time>2019-10-03T17:32:39Z</time>
      </trkpt>
      <trkpt lat="46.88229" lon="-1.88294">
        <ele>15</ele>
        <time>2019-10-03T17:32:40Z</time>
      </trkpt>
      <trkpt lat="46.88231" lon="-1.88301">
        <ele>15</ele>
        <time>2019-10-03T17:32:41Z</time>
      </trkpt>
      <trkpt lat="46.88232" lon="-1.88308">
        <ele>15</ele>
        <time>2019-10-03T17:32:42Z</time>
      </trkpt>
      <trkpt lat="46.88235" lon="-1.88316">
        <ele>15</ele>
        <time>2019-10-03T17:32:43Z</time>
      </trkpt>
      <trkpt lat="46.88237" lon="-1.88323">
        <ele>15</ele>
        <time>2019-10-03T17:32:44Z</time>
      </trkpt>
      <trkpt lat="46.88239" lon="-1.8833">
        <ele>15</ele>
        <time>2019-10-03T17:32:45Z</time>
      </trkpt>
      <trkpt lat="46.8824" lon="-1.88338">
        <ele>15</ele>
        <time>2019-10-03T17:32:46Z</time>
      </trkpt>
      <trkpt lat="46.88242" lon="-1.88345">
        <ele>15</ele>
        <time>2019-10-03T17:32:47Z</time>
      </trkpt>
      <trkpt lat="46.88243" lon="-1.88353">
        <ele>15</ele>
        <time>2019-10-03T17:32:48Z</time>
      </trkpt>
      <trkpt lat="46.88244" lon="-1.88361">
        <ele>15</ele>
        <time>2019-10-03T17:32:49Z</time>
      </trkpt>
      <trkpt lat="46.88245" lon="-1.88369">
        <ele>15</ele>
        <time>2019-10-03T17:32:50Z</time>
      </trkpt>
      <trkpt lat="46.88245" lon="-1.88377">
        <ele>15</ele>
        <time>2019-10-03T17:32:51Z</time>
      </trkpt>
      <trkpt lat="46.88246" lon="-1.88385">
        <ele>15</ele>
        <time>2019-10-03T17:32:52Z</time>
      </trkpt>
      <trkpt lat="46.88247" lon="-1.88392">
        <ele>15</ele>
        <time>2019-10-03T17:32:53Z</time>
      </trkpt>
      <trkpt lat="46.88248" lon="-1.88399">
        <ele>15</ele>
        <time>2019-10-03T17:32:54Z</time>
      </trkpt>
      <trkpt lat="46.88248" lon="-1.88407">
        <ele>15</ele>
        <time>2019-10-03T17:32:55Z</time>
      </trkpt>
      <trkpt lat="46.88248" lon="-1.88416">
        <ele>15</ele>
        <time>2019-10-03T17:32:56Z</time>
      </trkpt>
      <trkpt lat="46.88248" lon="-1.88425">
        <ele>15</ele>
        <time>2019-10-03T17:32:57Z</time>
      </trkpt>
      <trkpt lat="46.88249" lon="-1.88433">
        <ele>15</ele>
        <time>2019-10-03T17:32:58Z</time>
      </trkpt>
      <trkpt lat="46.88249" lon="-1.8844">
        <ele>15</ele>
        <time>2019-10-03T17:32:59Z</time>
      </trkpt>
      <trkpt lat="46.8825" lon="-1.88448">
        <ele>15</ele>
        <time>2019-10-03T17:33:00Z</time>
      </trkpt>
      <trkpt lat="46.8825" lon="-1.88455">
        <ele>15</ele>
        <time>2019-10-03T17:33:01Z</time>
      </trkpt>
      <trkpt lat="46.8825" lon="-1.88463">
        <ele>15</ele>
        <time>2019-10-03T17:33:02Z</time>
      </trkpt>
      <trkpt lat="46.8825" lon="-1.8847">
        <ele>15</ele>
        <time>2019-10-03T17:33:03Z</time>
      </trkpt>
      <trkpt lat="46.8825" lon="-1.88477">
        <ele>15</ele>
        <time>2019-10-03T17:33:04Z</time>
      </trkpt>
      <trkpt lat="46.88251" lon="-1.88484">
        <ele>15</ele>
        <time>2019-10-03T17:33:05Z</time>
      </trkpt>
      <trkpt lat="46.8825" lon="-1.88493">
        <ele>15</ele>
        <time>2019-10-03T17:33:06Z</time>
      </trkpt>
      <trkpt lat="46.8825" lon="-1.88501">
        <ele>15</ele>
        <time>2019-10-03T17:33:07Z</time>
      </trkpt>
      <trkpt lat="46.88249" lon="-1.88511">
        <ele>15</ele>
        <time>2019-10-03T17:33:08Z</time>
      </trkpt>
      <trkpt lat="46.88247" lon="-1.8852">
        <ele>15</ele>
        <time>2019-10-03T17:33:09Z</time>
      </trkpt>
      <trkpt lat="46.88246" lon="-1.88528">
        <ele>15</ele>
        <time>2019-10-03T17:33:10Z</time>
      </trkpt>
      <trkpt lat="46.88245" lon="-1.88536">
        <ele>15</ele>
        <time>2019-10-03T17:33:11Z</time>
      </trkpt>
      <trkpt lat="46.88245" lon="-1.88543">
        <ele>15</ele>
        <time>2019-10-03T17:33:12Z</time>
      </trkpt>
      <trkpt lat="46.88245" lon="-1.8855">
        <ele>15</ele>
        <time>2019-10-03T17:33:13Z</time>
      </trkpt>
      <trkpt lat="46.88244" lon="-1.88557">
        <ele>15</ele>
        <time>2019-10-03T17:33:14Z</time>
      </trkpt>
      <trkpt lat="46.88244" lon="-1.88564">
        <ele>15</ele>
        <time>2019-10-03T17:33:15Z</time>
      </trkpt>
      <trkpt lat="46.88243" lon="-1.88574">
        <ele>15</ele>
        <time>2019-10-03T17:33:17Z</time>
      </trkpt>
      <trkpt lat="46.88244" lon="-1.88581">
        <ele>15</ele>
        <time>2019-10-03T17:33:33Z</time>
      </trkpt>
      <trkpt lat="46.88246" lon="-1.88588">
        <ele>15</ele>
        <time>2019-10-03T17:33:37Z</time>
      </trkpt>
      <trkpt lat="46.88247" lon="-1.88598">
        <ele>15</ele>
        <time>2019-10-03T17:33:39Z</time>
      </trkpt>
      <trkpt lat="46.88247" lon="-1.88605">
        <ele>15</ele>
        <time>2019-10-03T17:33:40Z</time>
      </trkpt>
      <trkpt lat="46.88247" lon="-1.88613">
        <ele>15</ele>
        <time>2019-10-03T17:33:41Z</time>
      </trkpt>
      <trkpt lat="46.88248" lon="-1.88621">
        <ele>15</ele>
        <time>2019-10-03T17:33:42Z</time>
      </trkpt>
      <trkpt lat="46.88249" lon="-1.88629">
        <ele>15</ele>
        <time>2019-10-03T17:33:43Z</time>
      </trkpt>
      <trkpt lat="46.8825" lon="-1.88638">
        <ele>15</ele>
        <time>2019-10-03T17:33:44Z</time>
      </trkpt>
      <trkpt lat="46.88251" lon="-1.88648">
        <ele>15</ele>
        <time>2019-10-03T17:33:45Z</time>
      </trkpt>
      <trkpt lat="46.88252" lon="-1.88657">
        <ele>15</ele>
        <time>2019-10-03T17:33:46Z</time>
      </trkpt>
      <trkpt lat="46.88252" lon="-1.88668">
        <ele>15</ele>
        <time>2019-10-03T17:33:47Z</time>
      </trkpt>
      <trkpt lat="46.88252" lon="-1.88677">
        <ele>15</ele>
        <time>2019-10-03T17:33:48Z</time>
      </trkpt>
      <trkpt lat="46.88252" lon="-1.88687">
        <ele>15</ele>
        <time>2019-10-03T17:33:49Z</time>
      </trkpt>
      <trkpt lat="46.88252" lon="-1.88697">
        <ele>15</ele>
        <time>2019-10-03T17:33:50Z</time>
      </trkpt>
      <trkpt lat="46.88251" lon="-1.88706">
        <ele>15</ele>
        <time>2019-10-03T17:33:51Z</time>
      </trkpt>
      <trkpt lat="46.88251" lon="-1.88716">
        <ele>15</ele>
        <time>2019-10-03T17:33:52Z</time>
      </trkpt>
      <trkpt lat="46.8825" lon="-1.88725">
        <ele>15</ele>
        <time>2019-10-03T17:33:53Z</time>
      </trkpt>
      <trkpt lat="46.88249" lon="-1.88735">
        <ele>15</ele>
        <time>2019-10-03T17:33:54Z</time>
      </trkpt>
      <trkpt lat="46.88248" lon="-1.88744">
        <ele>15</ele>
        <time>2019-10-03T17:33:55Z</time>
      </trkpt>
      <trkpt lat="46.88247" lon="-1.88753">
        <ele>15</ele>
        <time>2019-10-03T17:33:56Z</time>
      </trkpt>
      <trkpt lat="46.88245" lon="-1.88762">
        <ele>15</ele>
        <time>2019-10-03T17:33:57Z</time>
      </trkpt>
      <trkpt lat="46.88243" lon="-1.88771">
        <ele>15</ele>
        <time>2019-10-03T17:33:58Z</time>
      </trkpt>
      <trkpt lat="46.88241" lon="-1.8878">
        <ele>14</ele>
        <time>2019-10-03T17:33:59Z</time>
      </trkpt>
      <trkpt lat="46.88237" lon="-1.88788">
        <ele>14</ele>
        <time>2019-10-03T17:34:00Z</time>
      </trkpt>
      <trkpt lat="46.88235" lon="-1.88796">
        <ele>14</ele>
        <time>2019-10-03T17:34:01Z</time>
      </trkpt>
      <trkpt lat="46.88231" lon="-1.88803">
        <ele>14</ele>
        <time>2019-10-03T17:34:02Z</time>
      </trkpt>
      <trkpt lat="46.88228" lon="-1.8881">
        <ele>14</ele>
        <time>2019-10-03T17:34:03Z</time>
      </trkpt>
      <trkpt lat="46.88224" lon="-1.88817">
        <ele>14</ele>
        <time>2019-10-03T17:34:04Z</time>
      </trkpt>
      <trkpt lat="46.8822" lon="-1.88822">
        <ele>14</ele>
        <time>2019-10-03T17:34:05Z</time>
      </trkpt>
      <trkpt lat="46.88216" lon="-1.88826">
        <ele>14</ele>
        <time>2019-10-03T17:34:06Z</time>
      </trkpt>
      <trkpt lat="46.88211" lon="-1.88828">
        <ele>14</ele>
        <time>2019-10-03T17:34:07Z</time>
      </trkpt>
      <trkpt lat="46.88207" lon="-1.88829">
        <ele>14</ele>
        <time>2019-10-03T17:34:08Z</time>
      </trkpt>
      <trkpt lat="46.882" lon="-1.8884">
        <ele>14</ele>
        <time>2019-10-03T17:34:10Z</time>
      </trkpt>
      <trkpt lat="46.88199" lon="-1.88846">
        <ele>14</ele>
        <time>2019-10-03T17:34:11Z</time>
      </trkpt>
      <trkpt lat="46.88197" lon="-1.88853">
        <ele>14</ele>
        <time>2019-10-03T17:34:12Z</time>
      </trkpt>
      <trkpt lat="46.88195" lon="-1.8886">
        <ele>13</ele>
        <time>2019-10-03T17:34:13Z</time>
      </trkpt>
      <trkpt lat="46.88192" lon="-1.88866">
        <ele>13</ele>
        <time>2019-10-03T17:34:14Z</time>
      </trkpt>
      <trkpt lat="46.88188" lon="-1.88873">
        <ele>13</ele>
        <time>2019-10-03T17:34:15Z</time>
      </trkpt>
      <trkpt lat="46.88185" lon="-1.88879">
        <ele>13</ele>
        <time>2019-10-03T17:34:16Z</time>
      </trkpt>
      <trkpt lat="46.88181" lon="-1.88886">
        <ele>13</ele>
        <time>2019-10-03T17:34:17Z</time>
      </trkpt>
      <trkpt lat="46.88177" lon="-1.88892">
        <ele>13</ele>
        <time>2019-10-03T17:34:18Z</time>
      </trkpt>
      <trkpt lat="46.88174" lon="-1.88899">
        <ele>13</ele>
        <time>2019-10-03T17:34:19Z</time>
      </trkpt>
      <trkpt lat="46.88171" lon="-1.88907">
        <ele>13</ele>
        <time>2019-10-03T17:34:20Z</time>
      </trkpt>
      <trkpt lat="46.88167" lon="-1.88915">
        <ele>13</ele>
        <time>2019-10-03T17:34:21Z</time>
      </trkpt>
      <trkpt lat="46.88165" lon="-1.88923">
        <ele>12</ele>
        <time>2019-10-03T17:34:22Z</time>
      </trkpt>
      <trkpt lat="46.88162" lon="-1.88931">
        <ele>12</ele>
        <time>2019-10-03T17:34:23Z</time>
      </trkpt>
      <trkpt lat="46.88159" lon="-1.88938">
        <ele>12</ele>
        <time>2019-10-03T17:34:24Z</time>
      </trkpt>
      <trkpt lat="46.88157" lon="-1.88946">
        <ele>12</ele>
        <time>2019-10-03T17:34:25Z</time>
      </trkpt>
      <trkpt lat="46.88155" lon="-1.88954">
        <ele>12</ele>
        <time>2019-10-03T17:34:26Z</time>
      </trkpt>
      <trkpt lat="46.88153" lon="-1.88963">
        <ele>12</ele>
        <time>2019-10-03T17:34:27Z</time>
      </trkpt>
      <trkpt lat="46.88152" lon="-1.88971">
        <ele>12</ele>
        <time>2019-10-03T17:34:28Z</time>
      </trkpt>
      <trkpt lat="46.8815" lon="-1.88979">
        <ele>12</ele>
        <time>2019-10-03T17:34:29Z</time>
      </trkpt>
      <trkpt lat="46.88149" lon="-1.88987">
        <ele>12</ele>
        <time>2019-10-03T17:34:30Z</time>
      </trkpt>
      <trkpt lat="46.88147" lon="-1.88995">
        <ele>12</ele>
        <time>2019-10-03T17:34:31Z</time>
      </trkpt>
      <trkpt lat="46.88145" lon="-1.89002">
        <ele>12</ele>
        <time>2019-10-03T17:34:32Z</time>
      </trkpt>
      <trkpt lat="46.88143" lon="-1.8901">
        <ele>12</ele>
        <time>2019-10-03T17:34:33Z</time>
      </trkpt>
      <trkpt lat="46.88141" lon="-1.89018">
        <ele>12</ele>
        <time>2019-10-03T17:34:34Z</time>
      </trkpt>
      <trkpt lat="46.8814" lon="-1.89025">
        <ele>12</ele>
        <time>2019-10-03T17:34:35Z</time>
      </trkpt>
      <trkpt lat="46.88138" lon="-1.89032">
        <ele>12</ele>
        <time>2019-10-03T17:34:36Z</time>
      </trkpt>
      <trkpt lat="46.88136" lon="-1.8904">
        <ele>12</ele>
        <time>2019-10-03T17:34:37Z</time>
      </trkpt>
      <trkpt lat="46.88134" lon="-1.89048">
        <ele>11</ele>
        <time>2019-10-03T17:34:38Z</time>
      </trkpt>
      <trkpt lat="46.88133" lon="-1.89055">
        <ele>11</ele>
        <time>2019-10-03T17:34:39Z</time>
      </trkpt>
      <trkpt lat="46.88131" lon="-1.89063">
        <ele>11</ele>
        <time>2019-10-03T17:34:40Z</time>
      </trkpt>
      <trkpt lat="46.88129" lon="-1.8907">
        <ele>11</ele>
        <time>2019-10-03T17:34:41Z</time>
      </trkpt>
      <trkpt lat="46.88127" lon="-1.89078">
        <ele>11</ele>
        <time>2019-10-03T17:34:42Z</time>
      </trkpt>
      <trkpt lat="46.88125" lon="-1.89085">
        <ele>11</ele>
        <time>2019-10-03T17:34:43Z</time>
      </trkpt>
      <trkpt lat="46.88123" lon="-1.89093">
        <ele>12</ele>
        <time>2019-10-03T17:34:44Z</time>
      </trkpt>
      <trkpt lat="46.88121" lon="-1.891">
        <ele>12</ele>
        <time>2019-10-03T17:34:45Z</time>
      </trkpt>
      <trkpt lat="46.88119" lon="-1.89108">
        <ele>12</ele>
        <time>2019-10-03T17:34:46Z</time>
      </trkpt>
      <trkpt lat="46.88117" lon="-1.89115">
        <ele>12</ele>
        <time>2019-10-03T17:34:47Z</time>
      </trkpt>
      <trkpt lat="46.88115" lon="-1.89123">
        <ele>12</ele>
        <time>2019-10-03T17:34:48Z</time>
      </trkpt>
      <trkpt lat="46.88113" lon="-1.89131">
        <ele>12</ele>
        <time>2019-10-03T17:34:49Z</time>
      </trkpt>
      <trkpt lat="46.88112" lon="-1.89139">
        <ele>12</ele>
        <time>2019-10-03T17:34:50Z</time>
      </trkpt>
      <trkpt lat="46.8811" lon="-1.89147">
        <ele>12</ele>
        <time>2019-10-03T17:34:51Z</time>
      </trkpt>
      <trkpt lat="46.88108" lon="-1.89155">
        <ele>11</ele>
        <time>2019-10-03T17:34:52Z</time>
      </trkpt>
      <trkpt lat="46.88107" lon="-1.89163">
        <ele>11</ele>
        <time>2019-10-03T17:34:53Z</time>
      </trkpt>
      <trkpt lat="46.88106" lon="-1.89171">
        <ele>11</ele>
        <time>2019-10-03T17:34:54Z</time>
      </trkpt>
      <trkpt lat="46.88105" lon="-1.8918">
        <ele>11</ele>
        <time>2019-10-03T17:34:55Z</time>
      </trkpt>
      <trkpt lat="46.88104" lon="-1.89188">
        <ele>11</ele>
        <time>2019-10-03T17:34:56Z</time>
      </trkpt>
      <trkpt lat="46.88102" lon="-1.89197">
        <ele>11</ele>
        <time>2019-10-03T17:34:57Z</time>
      </trkpt>
      <trkpt lat="46.88101" lon="-1.89205">
        <ele>11</ele>
        <time>2019-10-03T17:34:58Z</time>
      </trkpt>
      <trkpt lat="46.881" lon="-1.89214">
        <ele>11</ele>
        <time>2019-10-03T17:34:59Z</time>
      </trkpt>
      <trkpt lat="46.881" lon="-1.89222">
        <ele>11</ele>
        <time>2019-10-03T17:35:00Z</time>
      </trkpt>
      <trkpt lat="46.88099" lon="-1.89231">
        <ele>11</ele>
        <time>2019-10-03T17:35:01Z</time>
      </trkpt>
      <trkpt lat="46.88098" lon="-1.89239">
        <ele>11</ele>
        <time>2019-10-03T17:35:02Z</time>
      </trkpt>
      <trkpt lat="46.88097" lon="-1.89246">
        <ele>11</ele>
        <time>2019-10-03T17:35:03Z</time>
      </trkpt>
      <trkpt lat="46.88097" lon="-1.89254">
        <ele>11</ele>
        <time>2019-10-03T17:35:04Z</time>
      </trkpt>
      <trkpt lat="46.88096" lon="-1.89261">
        <ele>11</ele>
        <time>2019-10-03T17:35:05Z</time>
      </trkpt>
      <trkpt lat="46.88094" lon="-1.8927">
        <ele>11</ele>
        <time>2019-10-03T17:35:06Z</time>
      </trkpt>
      <trkpt lat="46.88094" lon="-1.89278">
        <ele>11</ele>
        <time>2019-10-03T17:35:07Z</time>
      </trkpt>
      <trkpt lat="46.88092" lon="-1.89286">
        <ele>11</ele>
        <time>2019-10-03T17:35:08Z</time>
      </trkpt>
      <trkpt lat="46.88092" lon="-1.89295">
        <ele>11</ele>
        <time>2019-10-03T17:35:09Z</time>
      </trkpt>
      <trkpt lat="46.8809" lon="-1.89303">
        <ele>11</ele>
        <time>2019-10-03T17:35:10Z</time>
      </trkpt>
      <trkpt lat="46.88089" lon="-1.89311">
        <ele>11</ele>
        <time>2019-10-03T17:35:11Z</time>
      </trkpt>
      <trkpt lat="46.88088" lon="-1.8932">
        <ele>11</ele>
        <time>2019-10-03T17:35:12Z</time>
      </trkpt>
      <trkpt lat="46.88087" lon="-1.89327">
        <ele>11</ele>
        <time>2019-10-03T17:35:13Z</time>
      </trkpt>
      <trkpt lat="46.88085" lon="-1.89335">
        <ele>11</ele>
        <time>2019-10-03T17:35:14Z</time>
      </trkpt>
      <trkpt lat="46.88084" lon="-1.89343">
        <ele>11</ele>
        <time>2019-10-03T17:35:15Z</time>
      </trkpt>
      <trkpt lat="46.88083" lon="-1.89351">
        <ele>11</ele>
        <time>2019-10-03T17:35:16Z</time>
      </trkpt>
      <trkpt lat="46.88082" lon="-1.89359">
        <ele>11</ele>
        <time>2019-10-03T17:35:17Z</time>
      </trkpt>
      <trkpt lat="46.8808" lon="-1.89367">
        <ele>11</ele>
        <time>2019-10-03T17:35:18Z</time>
      </trkpt>
      <trkpt lat="46.88079" lon="-1.89375">
        <ele>11</ele>
        <time>2019-10-03T17:35:19Z</time>
      </trkpt>
      <trkpt lat="46.88078" lon="-1.89382">
        <ele>11</ele>
        <time>2019-10-03T17:35:20Z</time>
      </trkpt>
      <trkpt lat="46.88076" lon="-1.89391">
        <ele>11</ele>
        <time>2019-10-03T17:35:21Z</time>
      </trkpt>
      <trkpt lat="46.88075" lon="-1.89399">
        <ele>11</ele>
        <time>2019-10-03T17:35:22Z</time>
      </trkpt>
      <trkpt lat="46.88074" lon="-1.89407">
        <ele>11</ele>
        <time>2019-10-03T17:35:23Z</time>
      </trkpt>
      <trkpt lat="46.88073" lon="-1.89415">
        <ele>11</ele>
        <time>2019-10-03T17:35:24Z</time>
      </trkpt>
      <trkpt lat="46.88072" lon="-1.89423">
        <ele>11</ele>
        <time>2019-10-03T17:35:25Z</time>
      </trkpt>
      <trkpt lat="46.88071" lon="-1.89432">
        <ele>11</ele>
        <time>2019-10-03T17:35:26Z</time>
      </trkpt>
      <trkpt lat="46.8807" lon="-1.89441">
        <ele>11</ele>
        <time>2019-10-03T17:35:27Z</time>
      </trkpt>
      <trkpt lat="46.88069" lon="-1.89449">
        <ele>11</ele>
        <time>2019-10-03T17:35:28Z</time>
      </trkpt>
      <trkpt lat="46.88068" lon="-1.89458">
        <ele>11</ele>
        <time>2019-10-03T17:35:29Z</time>
      </trkpt>
      <trkpt lat="46.88066" lon="-1.89466">
        <ele>11</ele>
        <time>2019-10-03T17:35:30Z</time>
      </trkpt>
      <trkpt lat="46.88065" lon="-1.89475">
        <ele>11</ele>
        <time>2019-10-03T17:35:31Z</time>
      </trkpt>
      <trkpt lat="46.88063" lon="-1.89483">
        <ele>11</ele>
        <time>2019-10-03T17:35:32Z</time>
      </trkpt>
      <trkpt lat="46.88062" lon="-1.89491">
        <ele>11</ele>
        <time>2019-10-03T17:35:33Z</time>
      </trkpt>
      <trkpt lat="46.88061" lon="-1.895">
        <ele>11</ele>
        <time>2019-10-03T17:35:34Z</time>
      </trkpt>
      <trkpt lat="46.8806" lon="-1.89508">
        <ele>11</ele>
        <time>2019-10-03T17:35:35Z</time>
      </trkpt>
      <trkpt lat="46.88059" lon="-1.89516">
        <ele>11</ele>
        <time>2019-10-03T17:35:36Z</time>
      </trkpt>
      <trkpt lat="46.88059" lon="-1.89524">
        <ele>11</ele>
        <time>2019-10-03T17:35:37Z</time>
      </trkpt>
      <trkpt lat="46.88058" lon="-1.89531">
        <ele>11</ele>
        <time>2019-10-03T17:35:38Z</time>
      </trkpt>
      <trkpt lat="46.88056" lon="-1.89539">
        <ele>11</ele>
        <time>2019-10-03T17:35:39Z</time>
      </trkpt>
      <trkpt lat="46.88055" lon="-1.89548">
        <ele>11</ele>
        <time>2019-10-03T17:35:40Z</time>
      </trkpt>
      <trkpt lat="46.88054" lon="-1.89556">
        <ele>11</ele>
        <time>2019-10-03T17:35:41Z</time>
      </trkpt>
      <trkpt lat="46.88052" lon="-1.89565">
        <ele>11</ele>
        <time>2019-10-03T17:35:42Z</time>
      </trkpt>
      <trkpt lat="46.88051" lon="-1.89573">
        <ele>11</ele>
        <time>2019-10-03T17:35:43Z</time>
      </trkpt>
      <trkpt lat="46.8805" lon="-1.89582">
        <ele>11</ele>
        <time>2019-10-03T17:35:44Z</time>
      </trkpt>
      <trkpt lat="46.88049" lon="-1.8959">
        <ele>11</ele>
        <time>2019-10-03T17:35:45Z</time>
      </trkpt>
      <trkpt lat="46.88048" lon="-1.89598">
        <ele>11</ele>
        <time>2019-10-03T17:35:46Z</time>
      </trkpt>
      <trkpt lat="46.88047" lon="-1.89606">
        <ele>11</ele>
        <time>2019-10-03T17:35:47Z</time>
      </trkpt>
      <trkpt lat="46.88047" lon="-1.89614">
        <ele>11</ele>
        <time>2019-10-03T17:35:48Z</time>
      </trkpt>
      <trkpt lat="46.88046" lon="-1.89623">
        <ele>12</ele>
        <time>2019-10-03T17:35:49Z</time>
      </trkpt>
      <trkpt lat="46.88046" lon="-1.89631">
        <ele>12</ele>
        <time>2019-10-03T17:35:50Z</time>
      </trkpt>
      <trkpt lat="46.88045" lon="-1.8964">
        <ele>12</ele>
        <time>2019-10-03T17:35:51Z</time>
      </trkpt>
      <trkpt lat="46.88044" lon="-1.89649">
        <ele>12</ele>
        <time>2019-10-03T17:35:52Z</time>
      </trkpt>
      <trkpt lat="46.88043" lon="-1.89657">
        <ele>12</ele>
        <time>2019-10-03T17:35:53Z</time>
      </trkpt>
      <trkpt lat="46.88044" lon="-1.89666">
        <ele>12</ele>
        <time>2019-10-03T17:35:54Z</time>
      </trkpt>
      <trkpt lat="46.88044" lon="-1.89674">
        <ele>12</ele>
        <time>2019-10-03T17:35:55Z</time>
      </trkpt>
      <trkpt lat="46.88044" lon="-1.89682">
        <ele>12</ele>
        <time>2019-10-03T17:35:56Z</time>
      </trkpt>
      <trkpt lat="46.88046" lon="-1.8969">
        <ele>12</ele>
        <time>2019-10-03T17:35:57Z</time>
      </trkpt>
      <trkpt lat="46.88046" lon="-1.89697">
        <ele>12</ele>
        <time>2019-10-03T17:35:58Z</time>
      </trkpt>
      <trkpt lat="46.88049" lon="-1.89704">
        <ele>12</ele>
        <time>2019-10-03T17:35:59Z</time>
      </trkpt>
      <trkpt lat="46.8805" lon="-1.89711">
        <ele>12</ele>
        <time>2019-10-03T17:36:00Z</time>
      </trkpt>
      <trkpt lat="46.88051" lon="-1.89719">
        <ele>12</ele>
        <time>2019-10-03T17:36:01Z</time>
      </trkpt>
      <trkpt lat="46.88052" lon="-1.89726">
        <ele>12</ele>
        <time>2019-10-03T17:36:02Z</time>
      </trkpt>
      <trkpt lat="46.88053" lon="-1.89733">
        <ele>12</ele>
        <time>2019-10-03T17:36:03Z</time>
      </trkpt>
      <trkpt lat="46.88055" lon="-1.89741">
        <ele>12</ele>
        <time>2019-10-03T17:36:05Z</time>
      </trkpt>
      <trkpt lat="46.8806" lon="-1.89747">
        <ele>12</ele>
        <time>2019-10-03T17:36:08Z</time>
      </trkpt>
      <trkpt lat="46.88062" lon="-1.89755">
        <ele>12</ele>
        <time>2019-10-03T17:36:10Z</time>
      </trkpt>
      <trkpt lat="46.88065" lon="-1.89761">
        <ele>12</ele>
        <time>2019-10-03T17:36:11Z</time>
      </trkpt>
      <trkpt lat="46.88068" lon="-1.89765">
        <ele>12</ele>
        <time>2019-10-03T17:36:12Z</time>
      </trkpt>
      <trkpt lat="46.88072" lon="-1.8977">
        <ele>12</ele>
        <time>2019-10-03T17:36:13Z</time>
      </trkpt>
      <trkpt lat="46.88076" lon="-1.89774">
        <ele>12</ele>
        <time>2019-10-03T17:36:14Z</time>
      </trkpt>
      <trkpt lat="46.88081" lon="-1.89778">
        <ele>12</ele>
        <time>2019-10-03T17:36:15Z</time>
      </trkpt>
      <trkpt lat="46.88085" lon="-1.89781">
        <ele>12</ele>
        <time>2019-10-03T17:36:16Z</time>
      </trkpt>
      <trkpt lat="46.88089" lon="-1.89785">
        <ele>12</ele>
        <time>2019-10-03T17:36:17Z</time>
      </trkpt>
      <trkpt lat="46.88094" lon="-1.89788">
        <ele>12</ele>
        <time>2019-10-03T17:36:18Z</time>
      </trkpt>
      <trkpt lat="46.88098" lon="-1.89792">
        <ele>13</ele>
        <time>2019-10-03T17:36:19Z</time>
      </trkpt>
      <trkpt lat="46.88102" lon="-1.89797">
        <ele>13</ele>
        <time>2019-10-03T17:36:20Z</time>
      </trkpt>
      <trkpt lat="46.88107" lon="-1.89801">
        <ele>13</ele>
        <time>2019-10-03T17:36:21Z</time>
      </trkpt>
      <trkpt lat="46.88111" lon="-1.89805">
        <ele>13</ele>
        <time>2019-10-03T17:36:22Z</time>
      </trkpt>
      <trkpt lat="46.88116" lon="-1.89809">
        <ele>13</ele>
        <time>2019-10-03T17:36:23Z</time>
      </trkpt>
      <trkpt lat="46.8812" lon="-1.89812">
        <ele>13</ele>
        <time>2019-10-03T17:36:24Z</time>
      </trkpt>
      <trkpt lat="46.88125" lon="-1.89816">
        <ele>13</ele>
        <time>2019-10-03T17:36:25Z</time>
      </trkpt>
      <trkpt lat="46.8813" lon="-1.89819">
        <ele>13</ele>
        <time>2019-10-03T17:36:26Z</time>
      </trkpt>
      <trkpt lat="46.88134" lon="-1.89823">
        <ele>13</ele>
        <time>2019-10-03T17:36:27Z</time>
      </trkpt>
      <trkpt lat="46.88139" lon="-1.89826">
        <ele>13</ele>
        <time>2019-10-03T17:36:28Z</time>
      </trkpt>
      <trkpt lat="46.88145" lon="-1.89828">
        <ele>13</ele>
        <time>2019-10-03T17:36:29Z</time>
      </trkpt>
      <trkpt lat="46.8815" lon="-1.8983">
        <ele>13</ele>
        <time>2019-10-03T17:36:30Z</time>
      </trkpt>
      <trkpt lat="46.88155" lon="-1.89832">
        <ele>13</ele>
        <time>2019-10-03T17:36:31Z</time>
      </trkpt>
      <trkpt lat="46.8816" lon="-1.89833">
        <ele>13</ele>
        <time>2019-10-03T17:36:32Z</time>
      </trkpt>
      <trkpt lat="46.88165" lon="-1.89833">
        <ele>13</ele>
        <time>2019-10-03T17:36:33Z</time>
      </trkpt>
      <trkpt lat="46.88171" lon="-1.89833">
        <ele>13</ele>
        <time>2019-10-03T17:36:34Z</time>
      </trkpt>
      <trkpt lat="46.88176" lon="-1.89833">
        <ele>13</ele>
        <time>2019-10-03T17:36:35Z</time>
      </trkpt>
      <trkpt lat="46.88181" lon="-1.89834">
        <ele>13</ele>
        <time>2019-10-03T17:36:36Z</time>
      </trkpt>
      <trkpt lat="46.88186" lon="-1.89834">
        <ele>13</ele>
        <time>2019-10-03T17:36:37Z</time>
      </trkpt>
      <trkpt lat="46.88192" lon="-1.89835">
        <ele>13</ele>
        <time>2019-10-03T17:36:38Z</time>
      </trkpt>
      <trkpt lat="46.88197" lon="-1.89835">
        <ele>13</ele>
        <time>2019-10-03T17:36:39Z</time>
      </trkpt>
      <trkpt lat="46.88202" lon="-1.89836">
        <ele>13</ele>
        <time>2019-10-03T17:36:40Z</time>
      </trkpt>
      <trkpt lat="46.88207" lon="-1.89837">
        <ele>13</ele>
        <time>2019-10-03T17:36:41Z</time>
      </trkpt>
      <trkpt lat="46.88213" lon="-1.89839">
        <ele>13</ele>
        <time>2019-10-03T17:36:42Z</time>
      </trkpt>
      <trkpt lat="46.88218" lon="-1.89841">
        <ele>13</ele>
        <time>2019-10-03T17:36:43Z</time>
      </trkpt>
      <trkpt lat="46.88224" lon="-1.89843">
        <ele>13</ele>
        <time>2019-10-03T17:36:44Z</time>
      </trkpt>
      <trkpt lat="46.88229" lon="-1.89845">
        <ele>13</ele>
        <time>2019-10-03T17:36:45Z</time>
      </trkpt>
      <trkpt lat="46.88235" lon="-1.89848">
        <ele>13</ele>
        <time>2019-10-03T17:36:46Z</time>
      </trkpt>
      <trkpt lat="46.8824" lon="-1.8985">
        <ele>13</ele>
        <time>2019-10-03T17:36:47Z</time>
      </trkpt>
      <trkpt lat="46.88246" lon="-1.89852">
        <ele>13</ele>
        <time>2019-10-03T17:36:48Z</time>
      </trkpt>
      <trkpt lat="46.88252" lon="-1.89855">
        <ele>13</ele>
        <time>2019-10-03T17:36:49Z</time>
      </trkpt>
      <trkpt lat="46.88257" lon="-1.89857">
        <ele>13</ele>
        <time>2019-10-03T17:36:50Z</time>
      </trkpt>
      <trkpt lat="46.88263" lon="-1.89859">
        <ele>13</ele>
        <time>2019-10-03T17:36:51Z</time>
      </trkpt>
      <trkpt lat="46.88268" lon="-1.89862">
        <ele>13</ele>
        <time>2019-10-03T17:36:52Z</time>
      </trkpt>
      <trkpt lat="46.88273" lon="-1.89864">
        <ele>13</ele>
        <time>2019-10-03T17:36:53Z</time>
      </trkpt>
      <trkpt lat="46.88278" lon="-1.89867">
        <ele>13</ele>
        <time>2019-10-03T17:36:54Z</time>
      </trkpt>
      <trkpt lat="46.88283" lon="-1.8987">
        <ele>13</ele>
        <time>2019-10-03T17:36:55Z</time>
      </trkpt>
      <trkpt lat="46.88289" lon="-1.89873">
        <ele>13</ele>
        <time>2019-10-03T17:36:56Z</time>
      </trkpt>
      <trkpt lat="46.88293" lon="-1.89876">
        <ele>13</ele>
        <time>2019-10-03T17:36:57Z</time>
      </trkpt>
      <trkpt lat="46.88298" lon="-1.89879">
        <ele>13</ele>
        <time>2019-10-03T17:36:58Z</time>
      </trkpt>
      <trkpt lat="46.88303" lon="-1.89882">
        <ele>13</ele>
        <time>2019-10-03T17:36:59Z</time>
      </trkpt>
      <trkpt lat="46.88307" lon="-1.89886">
        <ele>13</ele>
        <time>2019-10-03T17:37:00Z</time>
      </trkpt>
      <trkpt lat="46.8831" lon="-1.89891">
        <ele>13</ele>
        <time>2019-10-03T17:37:01Z</time>
      </trkpt>
      <trkpt lat="46.8831" lon="-1.89898">
        <ele>13</ele>
        <time>2019-10-03T17:37:02Z</time>
      </trkpt>
      <trkpt lat="46.88308" lon="-1.89904">
        <ele>13</ele>
        <time>2019-10-03T17:37:03Z</time>
      </trkpt>
      <trkpt lat="46.88305" lon="-1.8991">
        <ele>13</ele>
        <time>2019-10-03T17:37:04Z</time>
      </trkpt>
      <trkpt lat="46.88302" lon="-1.89915">
        <ele>13</ele>
        <time>2019-10-03T17:37:05Z</time>
      </trkpt>
      <trkpt lat="46.88299" lon="-1.89921">
        <ele>13</ele>
        <time>2019-10-03T17:37:06Z</time>
      </trkpt>
      <trkpt lat="46.88296" lon="-1.89926">
        <ele>13</ele>
        <time>2019-10-03T17:37:07Z</time>
      </trkpt>
      <trkpt lat="46.88293" lon="-1.89931">
        <ele>13</ele>
        <time>2019-10-03T17:37:08Z</time>
      </trkpt>
      <trkpt lat="46.88289" lon="-1.89937">
        <ele>13</ele>
        <time>2019-10-03T17:37:09Z</time>
      </trkpt>
      <trkpt lat="46.88286" lon="-1.89942">
        <ele>13</ele>
        <time>2019-10-03T17:37:10Z</time>
      </trkpt>
      <trkpt lat="46.88283" lon="-1.89947">
        <ele>13</ele>
        <time>2019-10-03T17:37:11Z</time>
      </trkpt>
      <trkpt lat="46.8828" lon="-1.89951">
        <ele>13</ele>
        <time>2019-10-03T17:37:12Z</time>
      </trkpt>
      <trkpt lat="46.88276" lon="-1.89956">
        <ele>13</ele>
        <time>2019-10-03T17:37:13Z</time>
      </trkpt>
      <trkpt lat="46.88272" lon="-1.89961">
        <ele>13</ele>
        <time>2019-10-03T17:37:14Z</time>
      </trkpt>
      <trkpt lat="46.88268" lon="-1.89966">
        <ele>13</ele>
        <time>2019-10-03T17:37:15Z</time>
      </trkpt>
      <trkpt lat="46.88263" lon="-1.89972">
        <ele>13</ele>
        <time>2019-10-03T17:37:16Z</time>
      </trkpt>
      <trkpt lat="46.88259" lon="-1.89977">
        <ele>13</ele>
        <time>2019-10-03T17:37:17Z</time>
      </trkpt>
      <trkpt lat="46.88255" lon="-1.89982">
        <ele>13</ele>
        <time>2019-10-03T17:37:18Z</time>
      </trkpt>
      <trkpt lat="46.88251" lon="-1.89987">
        <ele>13</ele>
        <time>2019-10-03T17:37:19Z</time>
      </trkpt>
      <trkpt lat="46.88246" lon="-1.89992">
        <ele>13</ele>
        <time>2019-10-03T17:37:20Z</time>
      </trkpt>
      <trkpt lat="46.88242" lon="-1.89998">
        <ele>13</ele>
        <time>2019-10-03T17:37:21Z</time>
      </trkpt>
      <trkpt lat="46.88238" lon="-1.90003">
        <ele>13</ele>
        <time>2019-10-03T17:37:22Z</time>
      </trkpt>
      <trkpt lat="46.88234" lon="-1.90008">
        <ele>13</ele>
        <time>2019-10-03T17:37:23Z</time>
      </trkpt>
      <trkpt lat="46.8823" lon="-1.90013">
        <ele>13</ele>
        <time>2019-10-03T17:37:24Z</time>
      </trkpt>
      <trkpt lat="46.88226" lon="-1.90019">
        <ele>13</ele>
        <time>2019-10-03T17:37:25Z</time>
      </trkpt>
      <trkpt lat="46.88223" lon="-1.90025">
        <ele>13</ele>
        <time>2019-10-03T17:37:26Z</time>
      </trkpt>
      <trkpt lat="46.88223" lon="-1.90032">
        <ele>13</ele>
        <time>2019-10-03T17:37:27Z</time>
      </trkpt>
      <trkpt lat="46.88224" lon="-1.90039">
        <ele>13</ele>
        <time>2019-10-03T17:37:28Z</time>
      </trkpt>
      <trkpt lat="46.88227" lon="-1.90046">
        <ele>13</ele>
        <time>2019-10-03T17:37:29Z</time>
      </trkpt>
      <trkpt lat="46.88231" lon="-1.90053">
        <ele>13</ele>
        <time>2019-10-03T17:37:30Z</time>
      </trkpt>
      <trkpt lat="46.88234" lon="-1.90059">
        <ele>13</ele>
        <time>2019-10-03T17:37:31Z</time>
      </trkpt>
      <trkpt lat="46.88237" lon="-1.90066">
        <ele>13</ele>
        <time>2019-10-03T17:37:32Z</time>
      </trkpt>
      <trkpt lat="46.8824" lon="-1.90073">
        <ele>13</ele>
        <time>2019-10-03T17:37:33Z</time>
      </trkpt>
      <trkpt lat="46.88243" lon="-1.9008">
        <ele>13</ele>
        <time>2019-10-03T17:37:34Z</time>
      </trkpt>
      <trkpt lat="46.88245" lon="-1.90087">
        <ele>13</ele>
        <time>2019-10-03T17:37:35Z</time>
      </trkpt>
      <trkpt lat="46.88249" lon="-1.90094">
        <ele>13</ele>
        <time>2019-10-03T17:37:36Z</time>
      </trkpt>
      <trkpt lat="46.88252" lon="-1.901">
        <ele>13</ele>
        <time>2019-10-03T17:37:37Z</time>
      </trkpt>
      <trkpt lat="46.88255" lon="-1.90107">
        <ele>13</ele>
        <time>2019-10-03T17:37:38Z</time>
      </trkpt>
      <trkpt lat="46.88258" lon="-1.90114">
        <ele>13</ele>
        <time>2019-10-03T17:37:39Z</time>
      </trkpt>
      <trkpt lat="46.88262" lon="-1.9012">
        <ele>13</ele>
        <time>2019-10-03T17:37:40Z</time>
      </trkpt>
      <trkpt lat="46.88265" lon="-1.90127">
        <ele>13</ele>
        <time>2019-10-03T17:37:41Z</time>
      </trkpt>
      <trkpt lat="46.88269" lon="-1.90133">
        <ele>13</ele>
        <time>2019-10-03T17:37:42Z</time>
      </trkpt>
      <trkpt lat="46.88273" lon="-1.9014">
        <ele>13</ele>
        <time>2019-10-03T17:37:43Z</time>
      </trkpt>
      <trkpt lat="46.88276" lon="-1.90146">
        <ele>13</ele>
        <time>2019-10-03T17:37:44Z</time>
      </trkpt>
      <trkpt lat="46.88281" lon="-1.90151">
        <ele>13</ele>
        <time>2019-10-03T17:37:45Z</time>
      </trkpt>
      <trkpt lat="46.88285" lon="-1.90157">
        <ele>13</ele>
        <time>2019-10-03T17:37:46Z</time>
      </trkpt>
      <trkpt lat="46.88289" lon="-1.90163">
        <ele>13</ele>
        <time>2019-10-03T17:37:47Z</time>
      </trkpt>
      <trkpt lat="46.88293" lon="-1.90169">
        <ele>13</ele>
        <time>2019-10-03T17:37:48Z</time>
      </trkpt>
      <trkpt lat="46.88297" lon="-1.90174">
        <ele>13</ele>
        <time>2019-10-03T17:37:49Z</time>
      </trkpt>
      <trkpt lat="46.883" lon="-1.9018">
        <ele>13</ele>
        <time>2019-10-03T17:37:50Z</time>
      </trkpt>
      <trkpt lat="46.88304" lon="-1.90185">
        <ele>13</ele>
        <time>2019-10-03T17:37:51Z</time>
      </trkpt>
      <trkpt lat="46.88307" lon="-1.90192">
        <ele>13</ele>
        <time>2019-10-03T17:37:52Z</time>
      </trkpt>
      <trkpt lat="46.8831" lon="-1.90198">
        <ele>13</ele>
        <time>2019-10-03T17:37:53Z</time>
      </trkpt>
      <trkpt lat="46.88312" lon="-1.90205">
        <ele>13</ele>
        <time>2019-10-03T17:37:54Z</time>
      </trkpt>
      <trkpt lat="46.88314" lon="-1.90212">
        <ele>13</ele>
        <time>2019-10-03T17:37:55Z</time>
      </trkpt>
      <trkpt lat="46.88316" lon="-1.90219">
        <ele>13</ele>
        <time>2019-10-03T17:37:56Z</time>
      </trkpt>
      <trkpt lat="46.88318" lon="-1.90226">
        <ele>13</ele>
        <time>2019-10-03T17:37:57Z</time>
      </trkpt>
      <trkpt lat="46.88319" lon="-1.90234">
        <ele>13</ele>
        <time>2019-10-03T17:37:58Z</time>
      </trkpt>
      <trkpt lat="46.88321" lon="-1.90241">
        <ele>13</ele>
        <time>2019-10-03T17:37:59Z</time>
      </trkpt>
      <trkpt lat="46.88321" lon="-1.90248">
        <ele>13</ele>
        <time>2019-10-03T17:38:00Z</time>
      </trkpt>
      <trkpt lat="46.88322" lon="-1.90256">
        <ele>13</ele>
        <time>2019-10-03T17:38:01Z</time>
      </trkpt>
      <trkpt lat="46.88324" lon="-1.90263">
        <ele>13</ele>
        <time>2019-10-03T17:38:02Z</time>
      </trkpt>
      <trkpt lat="46.88324" lon="-1.90271">
        <ele>13</ele>
        <time>2019-10-03T17:38:03Z</time>
      </trkpt>
      <trkpt lat="46.88326" lon="-1.90279">
        <ele>13</ele>
        <time>2019-10-03T17:38:04Z</time>
      </trkpt>
      <trkpt lat="46.88327" lon="-1.90287">
        <ele>13</ele>
        <time>2019-10-03T17:38:05Z</time>
      </trkpt>
      <trkpt lat="46.88328" lon="-1.90294">
        <ele>13</ele>
        <time>2019-10-03T17:38:06Z</time>
      </trkpt>
      <trkpt lat="46.88329" lon="-1.90302">
        <ele>13</ele>
        <time>2019-10-03T17:38:07Z</time>
      </trkpt>
      <trkpt lat="46.88331" lon="-1.9031">
        <ele>13</ele>
        <time>2019-10-03T17:38:08Z</time>
      </trkpt>
      <trkpt lat="46.88331" lon="-1.90318">
        <ele>13</ele>
        <time>2019-10-03T17:38:09Z</time>
      </trkpt>
      <trkpt lat="46.88332" lon="-1.90326">
        <ele>13</ele>
        <time>2019-10-03T17:38:10Z</time>
      </trkpt>
      <trkpt lat="46.88333" lon="-1.90334">
        <ele>13</ele>
        <time>2019-10-03T17:38:11Z</time>
      </trkpt>
      <trkpt lat="46.88334" lon="-1.90341">
        <ele>13</ele>
        <time>2019-10-03T17:38:12Z</time>
      </trkpt>
      <trkpt lat="46.88334" lon="-1.90348">
        <ele>13</ele>
        <time>2019-10-03T17:38:13Z</time>
      </trkpt>
      <trkpt lat="46.88335" lon="-1.90356">
        <ele>13</ele>
        <time>2019-10-03T17:38:14Z</time>
      </trkpt>
      <trkpt lat="46.88337" lon="-1.90363">
        <ele>13</ele>
        <time>2019-10-03T17:38:15Z</time>
      </trkpt>
      <trkpt lat="46.88338" lon="-1.90371">
        <ele>13</ele>
        <time>2019-10-03T17:38:16Z</time>
      </trkpt>
      <trkpt lat="46.88339" lon="-1.90378">
        <ele>13</ele>
        <time>2019-10-03T17:38:17Z</time>
      </trkpt>
      <trkpt lat="46.8834" lon="-1.90385">
        <ele>13</ele>
        <time>2019-10-03T17:38:18Z</time>
      </trkpt>
      <trkpt lat="46.88342" lon="-1.90392">
        <ele>13</ele>
        <time>2019-10-03T17:38:19Z</time>
      </trkpt>
      <trkpt lat="46.88343" lon="-1.904">
        <ele>13</ele>
        <time>2019-10-03T17:38:20Z</time>
      </trkpt>
      <trkpt lat="46.88345" lon="-1.90406">
        <ele>13</ele>
        <time>2019-10-03T17:38:21Z</time>
      </trkpt>
      <trkpt lat="46.88347" lon="-1.90413">
        <ele>13</ele>
        <time>2019-10-03T17:38:22Z</time>
      </trkpt>
      <trkpt lat="46.88348" lon="-1.9042">
        <ele>13</ele>
        <time>2019-10-03T17:38:23Z</time>
      </trkpt>
      <trkpt lat="46.8835" lon="-1.90427">
        <ele>13</ele>
        <time>2019-10-03T17:38:24Z</time>
      </trkpt>
      <trkpt lat="46.88351" lon="-1.90433">
        <ele>13</ele>
        <time>2019-10-03T17:38:25Z</time>
      </trkpt>
      <trkpt lat="46.88353" lon="-1.9044">
        <ele>13</ele>
        <time>2019-10-03T17:38:26Z</time>
      </trkpt>
      <trkpt lat="46.88355" lon="-1.90451">
        <ele>13</ele>
        <time>2019-10-03T17:38:28Z</time>
      </trkpt>
      <trkpt lat="46.88358" lon="-1.90464">
        <ele>13</ele>
        <time>2019-10-03T17:38:30Z</time>
      </trkpt>
      <trkpt lat="46.88359" lon="-1.90471">
        <ele>13</ele>
        <time>2019-10-03T17:38:31Z</time>
      </trkpt>
      <trkpt lat="46.8836" lon="-1.90478">
        <ele>13</ele>
        <time>2019-10-03T17:38:32Z</time>
      </trkpt>
      <trkpt lat="46.8836" lon="-1.90484">
        <ele>12</ele>
        <time>2019-10-03T17:38:33Z</time>
      </trkpt>
      <trkpt lat="46.88361" lon="-1.90492">
        <ele>12</ele>
        <time>2019-10-03T17:38:34Z</time>
      </trkpt>
      <trkpt lat="46.88362" lon="-1.90499">
        <ele>12</ele>
        <time>2019-10-03T17:38:35Z</time>
      </trkpt>
      <trkpt lat="46.88363" lon="-1.90505">
        <ele>12</ele>
        <time>2019-10-03T17:38:36Z</time>
      </trkpt>
      <trkpt lat="46.88363" lon="-1.90512">
        <ele>12</ele>
        <time>2019-10-03T17:38:37Z</time>
      </trkpt>
      <trkpt lat="46.88364" lon="-1.90519">
        <ele>12</ele>
        <time>2019-10-03T17:38:38Z</time>
      </trkpt>
      <trkpt lat="46.88366" lon="-1.90531">
        <ele>12</ele>
        <time>2019-10-03T17:38:40Z</time>
      </trkpt>
      <trkpt lat="46.88369" lon="-1.90544">
        <ele>12</ele>
        <time>2019-10-03T17:38:42Z</time>
      </trkpt>
      <trkpt lat="46.88369" lon="-1.90551">
        <ele>12</ele>
        <time>2019-10-03T17:38:43Z</time>
      </trkpt>
      <trkpt lat="46.8837" lon="-1.90558">
        <ele>12</ele>
        <time>2019-10-03T17:38:44Z</time>
      </trkpt>
      <trkpt lat="46.88371" lon="-1.90565">
        <ele>12</ele>
        <time>2019-10-03T17:38:45Z</time>
      </trkpt>
      <trkpt lat="46.88372" lon="-1.90578">
        <ele>12</ele>
        <time>2019-10-03T17:38:47Z</time>
      </trkpt>
      <trkpt lat="46.88374" lon="-1.90591">
        <ele>12</ele>
        <time>2019-10-03T17:38:49Z</time>
      </trkpt>
      <trkpt lat="46.88375" lon="-1.90597">
        <ele>12</ele>
        <time>2019-10-03T17:38:50Z</time>
      </trkpt>
      <trkpt lat="46.88375" lon="-1.90604">
        <ele>12</ele>
        <time>2019-10-03T17:38:51Z</time>
      </trkpt>
      <trkpt lat="46.88376" lon="-1.90611">
        <ele>12</ele>
        <time>2019-10-03T17:38:52Z</time>
      </trkpt>
      <trkpt lat="46.88377" lon="-1.90617">
        <ele>12</ele>
        <time>2019-10-03T17:38:53Z</time>
      </trkpt>
      <trkpt lat="46.88379" lon="-1.9063">
        <ele>12</ele>
        <time>2019-10-03T17:38:55Z</time>
      </trkpt>
      <trkpt lat="46.8838" lon="-1.90637">
        <ele>12</ele>
        <time>2019-10-03T17:38:56Z</time>
      </trkpt>
      <trkpt lat="46.8838" lon="-1.90644">
        <ele>12</ele>
        <time>2019-10-03T17:38:57Z</time>
      </trkpt>
      <trkpt lat="46.88382" lon="-1.90657">
        <ele>12</ele>
        <time>2019-10-03T17:38:59Z</time>
      </trkpt>
      <trkpt lat="46.88382" lon="-1.90664">
        <ele>12</ele>
        <time>2019-10-03T17:39:00Z</time>
      </trkpt>
      <trkpt lat="46.88383" lon="-1.90671">
        <ele>12</ele>
        <time>2019-10-03T17:39:01Z</time>
      </trkpt>
      <trkpt lat="46.88385" lon="-1.90683">
        <ele>12</ele>
        <time>2019-10-03T17:39:03Z</time>
      </trkpt>
      <trkpt lat="46.88387" lon="-1.9069">
        <ele>12</ele>
        <time>2019-10-03T17:39:04Z</time>
      </trkpt>
      <trkpt lat="46.88389" lon="-1.90702">
        <ele>13</ele>
        <time>2019-10-03T17:39:06Z</time>
      </trkpt>
      <trkpt lat="46.88391" lon="-1.90715">
        <ele>13</ele>
        <time>2019-10-03T17:39:08Z</time>
      </trkpt>
      <trkpt lat="46.88393" lon="-1.90727">
        <ele>13</ele>
        <time>2019-10-03T17:39:10Z</time>
      </trkpt>
      <trkpt lat="46.88395" lon="-1.90739">
        <ele>13</ele>
        <time>2019-10-03T17:39:12Z</time>
      </trkpt>
      <trkpt lat="46.88397" lon="-1.90746">
        <ele>13</ele>
        <time>2019-10-03T17:39:13Z</time>
      </trkpt>
      <trkpt lat="46.88399" lon="-1.90759">
        <ele>13</ele>
        <time>2019-10-03T17:39:15Z</time>
      </trkpt>
      <trkpt lat="46.88401" lon="-1.90771">
        <ele>13</ele>
        <time>2019-10-03T17:39:17Z</time>
      </trkpt>
      <trkpt lat="46.88404" lon="-1.90783">
        <ele>13</ele>
        <time>2019-10-03T17:39:19Z</time>
      </trkpt>
      <trkpt lat="46.88407" lon="-1.90795">
        <ele>13</ele>
        <time>2019-10-03T17:39:21Z</time>
      </trkpt>
      <trkpt lat="46.8841" lon="-1.90807">
        <ele>13</ele>
        <time>2019-10-03T17:39:23Z</time>
      </trkpt>
      <trkpt lat="46.88414" lon="-1.90818">
        <ele>13</ele>
        <time>2019-10-03T17:39:25Z</time>
      </trkpt>
      <trkpt lat="46.88417" lon="-1.9083">
        <ele>13</ele>
        <time>2019-10-03T17:39:27Z</time>
      </trkpt>
      <trkpt lat="46.88421" lon="-1.90842">
        <ele>13</ele>
        <time>2019-10-03T17:39:29Z</time>
      </trkpt>
      <trkpt lat="46.88422" lon="-1.90848">
        <ele>13</ele>
        <time>2019-10-03T17:39:30Z</time>
      </trkpt>
      <trkpt lat="46.88424" lon="-1.90854">
        <ele>13</ele>
        <time>2019-10-03T17:39:31Z</time>
      </trkpt>
      <trkpt lat="46.88427" lon="-1.90866">
        <ele>13</ele>
        <time>2019-10-03T17:39:33Z</time>
      </trkpt>
      <trkpt lat="46.88429" lon="-1.90873">
        <ele>13</ele>
        <time>2019-10-03T17:39:34Z</time>
      </trkpt>
      <trkpt lat="46.88432" lon="-1.90885">
        <ele>13</ele>
        <time>2019-10-03T17:39:36Z</time>
      </trkpt>
      <trkpt lat="46.88436" lon="-1.90897">
        <ele>13</ele>
        <time>2019-10-03T17:39:38Z</time>
      </trkpt>
      <trkpt lat="46.88438" lon="-1.90909">
        <ele>13</ele>
        <time>2019-10-03T17:39:40Z</time>
      </trkpt>
      <trkpt lat="46.88438" lon="-1.90921">
        <ele>13</ele>
        <time>2019-10-03T17:39:42Z</time>
      </trkpt>
      <trkpt lat="46.88438" lon="-1.90934">
        <ele>13</ele>
        <time>2019-10-03T17:39:44Z</time>
      </trkpt>
      <trkpt lat="46.88437" lon="-1.90946">
        <ele>13</ele>
        <time>2019-10-03T17:39:46Z</time>
      </trkpt>
      <trkpt lat="46.88437" lon="-1.90958">
        <ele>13</ele>
        <time>2019-10-03T17:39:48Z</time>
      </trkpt>
      <trkpt lat="46.88436" lon="-1.9097">
        <ele>13</ele>
        <time>2019-10-03T17:39:50Z</time>
      </trkpt>
      <trkpt lat="46.88436" lon="-1.90981">
        <ele>12</ele>
        <time>2019-10-03T17:39:52Z</time>
      </trkpt>
      <trkpt lat="46.88435" lon="-1.90992">
        <ele>12</ele>
        <time>2019-10-03T17:39:54Z</time>
      </trkpt>
      <trkpt lat="46.88434" lon="-1.91004">
        <ele>12</ele>
        <time>2019-10-03T17:39:56Z</time>
      </trkpt>
      <trkpt lat="46.88434" lon="-1.91015">
        <ele>12</ele>
        <time>2019-10-03T17:39:58Z</time>
      </trkpt>
      <trkpt lat="46.88434" lon="-1.91026">
        <ele>12</ele>
        <time>2019-10-03T17:40:00Z</time>
      </trkpt>
      <trkpt lat="46.88435" lon="-1.91036">
        <ele>12</ele>
        <time>2019-10-03T17:40:02Z</time>
      </trkpt>
      <trkpt lat="46.88435" lon="-1.91048">
        <ele>12</ele>
        <time>2019-10-03T17:40:04Z</time>
      </trkpt>
      <trkpt lat="46.88435" lon="-1.9106">
        <ele>13</ele>
        <time>2019-10-03T17:40:06Z</time>
      </trkpt>
      <trkpt lat="46.88436" lon="-1.91072">
        <ele>13</ele>
        <time>2019-10-03T17:40:08Z</time>
      </trkpt>
      <trkpt lat="46.88437" lon="-1.91084">
        <ele>13</ele>
        <time>2019-10-03T17:40:10Z</time>
      </trkpt>
      <trkpt lat="46.8844" lon="-1.91096">
        <ele>13</ele>
        <time>2019-10-03T17:40:12Z</time>
      </trkpt>
      <trkpt lat="46.88441" lon="-1.91108">
        <ele>13</ele>
        <time>2019-10-03T17:40:14Z</time>
      </trkpt>
      <trkpt lat="46.88443" lon="-1.91119">
        <ele>13</ele>
        <time>2019-10-03T17:40:16Z</time>
      </trkpt>
      <trkpt lat="46.88445" lon="-1.91131">
        <ele>13</ele>
        <time>2019-10-03T17:40:18Z</time>
      </trkpt>
      <trkpt lat="46.88447" lon="-1.91141">
        <ele>13</ele>
        <time>2019-10-03T17:40:20Z</time>
      </trkpt>
      <trkpt lat="46.88449" lon="-1.91151">
        <ele>13</ele>
        <time>2019-10-03T17:40:22Z</time>
      </trkpt>
      <trkpt lat="46.88451" lon="-1.91161">
        <ele>13</ele>
        <time>2019-10-03T17:40:24Z</time>
      </trkpt>
      <trkpt lat="46.88454" lon="-1.91171">
        <ele>13</ele>
        <time>2019-10-03T17:40:26Z</time>
      </trkpt>
      <trkpt lat="46.88456" lon="-1.91181">
        <ele>13</ele>
        <time>2019-10-03T17:40:28Z</time>
      </trkpt>
      <trkpt lat="46.88458" lon="-1.91191">
        <ele>13</ele>
        <time>2019-10-03T17:40:30Z</time>
      </trkpt>
      <trkpt lat="46.8846" lon="-1.91201">
        <ele>13</ele>
        <time>2019-10-03T17:40:32Z</time>
      </trkpt>
      <trkpt lat="46.88462" lon="-1.9121">
        <ele>13</ele>
        <time>2019-10-03T17:40:34Z</time>
      </trkpt>
      <trkpt lat="46.88463" lon="-1.9122">
        <ele>13</ele>
        <time>2019-10-03T17:40:36Z</time>
      </trkpt>
      <trkpt lat="46.88464" lon="-1.9123">
        <ele>13</ele>
        <time>2019-10-03T17:40:38Z</time>
      </trkpt>
      <trkpt lat="46.88466" lon="-1.91238">
        <ele>13</ele>
        <time>2019-10-03T17:40:40Z</time>
      </trkpt>
      <trkpt lat="46.88467" lon="-1.91246">
        <ele>13</ele>
        <time>2019-10-03T17:40:42Z</time>
      </trkpt>
      <trkpt lat="46.88468" lon="-1.91254">
        <ele>13</ele>
        <time>2019-10-03T17:40:45Z</time>
      </trkpt>
      <trkpt lat="46.88469" lon="-1.91262">
        <ele>13</ele>
        <time>2019-10-03T17:40:47Z</time>
      </trkpt>
      <trkpt lat="46.88469" lon="-1.91272">
        <ele>13</ele>
        <time>2019-10-03T17:40:49Z</time>
      </trkpt>
      <trkpt lat="46.88467" lon="-1.91281">
        <ele>13</ele>
        <time>2019-10-03T17:40:51Z</time>
      </trkpt>
      <trkpt lat="46.88464" lon="-1.91292">
        <ele>13</ele>
        <time>2019-10-03T17:40:53Z</time>
      </trkpt>
      <trkpt lat="46.88461" lon="-1.91304">
        <ele>13</ele>
        <time>2019-10-03T17:40:55Z</time>
      </trkpt>
      <trkpt lat="46.88458" lon="-1.91316">
        <ele>13</ele>
        <time>2019-10-03T17:40:57Z</time>
      </trkpt>
      <trkpt lat="46.88456" lon="-1.91322">
        <ele>13</ele>
        <time>2019-10-03T17:40:58Z</time>
      </trkpt>
      <trkpt lat="46.88455" lon="-1.91329">
        <ele>13</ele>
        <time>2019-10-03T17:40:59Z</time>
      </trkpt>
      <trkpt lat="46.88454" lon="-1.91335">
        <ele>13</ele>
        <time>2019-10-03T17:41:00Z</time>
      </trkpt>
      <trkpt lat="46.88452" lon="-1.91342">
        <ele>13</ele>
        <time>2019-10-03T17:41:01Z</time>
      </trkpt>
      <trkpt lat="46.88451" lon="-1.91349">
        <ele>13</ele>
        <time>2019-10-03T17:41:02Z</time>
      </trkpt>
      <trkpt lat="46.8845" lon="-1.91356">
        <ele>13</ele>
        <time>2019-10-03T17:41:03Z</time>
      </trkpt>
      <trkpt lat="46.88449" lon="-1.91363">
        <ele>13</ele>
        <time>2019-10-03T17:41:04Z</time>
      </trkpt>
      <trkpt lat="46.88448" lon="-1.9137">
        <ele>13</ele>
        <time>2019-10-03T17:41:05Z</time>
      </trkpt>
      <trkpt lat="46.88447" lon="-1.91377">
        <ele>13</ele>
        <time>2019-10-03T17:41:06Z</time>
      </trkpt>
      <trkpt lat="46.88446" lon="-1.91384">
        <ele>13</ele>
        <time>2019-10-03T17:41:07Z</time>
      </trkpt>
      <trkpt lat="46.88445" lon="-1.91391">
        <ele>13</ele>
        <time>2019-10-03T17:41:08Z</time>
      </trkpt>
      <trkpt lat="46.88444" lon="-1.91399">
        <ele>13</ele>
        <time>2019-10-03T17:41:09Z</time>
      </trkpt>
      <trkpt lat="46.88443" lon="-1.91406">
        <ele>13</ele>
        <time>2019-10-03T17:41:10Z</time>
      </trkpt>
      <trkpt lat="46.88443" lon="-1.91413">
        <ele>13</ele>
        <time>2019-10-03T17:41:11Z</time>
      </trkpt>
      <trkpt lat="46.88442" lon="-1.91421">
        <ele>13</ele>
        <time>2019-10-03T17:41:12Z</time>
      </trkpt>
      <trkpt lat="46.88442" lon="-1.91428">
        <ele>13</ele>
        <time>2019-10-03T17:41:13Z</time>
      </trkpt>
      <trkpt lat="46.88442" lon="-1.91436">
        <ele>13</ele>
        <time>2019-10-03T17:41:14Z</time>
      </trkpt>
      <trkpt lat="46.88442" lon="-1.91443">
        <ele>13</ele>
        <time>2019-10-03T17:41:15Z</time>
      </trkpt>
      <trkpt lat="46.88441" lon="-1.91451">
        <ele>13</ele>
        <time>2019-10-03T17:41:16Z</time>
      </trkpt>
      <trkpt lat="46.88441" lon="-1.91459">
        <ele>13</ele>
        <time>2019-10-03T17:41:17Z</time>
      </trkpt>
      <trkpt lat="46.88441" lon="-1.91467">
        <ele>13</ele>
        <time>2019-10-03T17:41:18Z</time>
      </trkpt>
      <trkpt lat="46.8844" lon="-1.91476">
        <ele>13</ele>
        <time>2019-10-03T17:41:19Z</time>
      </trkpt>
      <trkpt lat="46.8844" lon="-1.91484">
        <ele>13</ele>
        <time>2019-10-03T17:41:20Z</time>
      </trkpt>
      <trkpt lat="46.8844" lon="-1.91492">
        <ele>13</ele>
        <time>2019-10-03T17:41:21Z</time>
      </trkpt>
      <trkpt lat="46.88439" lon="-1.915">
        <ele>13</ele>
        <time>2019-10-03T17:41:22Z</time>
      </trkpt>
      <trkpt lat="46.88439" lon="-1.91508">
        <ele>13</ele>
        <time>2019-10-03T17:41:23Z</time>
      </trkpt>
      <trkpt lat="46.88438" lon="-1.91516">
        <ele>13</ele>
        <time>2019-10-03T17:41:24Z</time>
      </trkpt>
      <trkpt lat="46.88438" lon="-1.91524">
        <ele>13</ele>
        <time>2019-10-03T17:41:25Z</time>
      </trkpt>
      <trkpt lat="46.88438" lon="-1.91532">
        <ele>13</ele>
        <time>2019-10-03T17:41:26Z</time>
      </trkpt>
      <trkpt lat="46.88438" lon="-1.9154">
        <ele>13</ele>
        <time>2019-10-03T17:41:27Z</time>
      </trkpt>
      <trkpt lat="46.88437" lon="-1.91548">
        <ele>13</ele>
        <time>2019-10-03T17:41:28Z</time>
      </trkpt>
      <trkpt lat="46.88437" lon="-1.91556">
        <ele>13</ele>
        <time>2019-10-03T17:41:29Z</time>
      </trkpt>
      <trkpt lat="46.88437" lon="-1.91564">
        <ele>13</ele>
        <time>2019-10-03T17:41:30Z</time>
      </trkpt>
      <trkpt lat="46.88436" lon="-1.91572">
        <ele>13</ele>
        <time>2019-10-03T17:41:31Z</time>
      </trkpt>
      <trkpt lat="46.88435" lon="-1.9158">
        <ele>13</ele>
        <time>2019-10-03T17:41:32Z</time>
      </trkpt>
      <trkpt lat="46.88435" lon="-1.91588">
        <ele>13</ele>
        <time>2019-10-03T17:41:33Z</time>
      </trkpt>
      <trkpt lat="46.88434" lon="-1.91597">
        <ele>13</ele>
        <time>2019-10-03T17:41:34Z</time>
      </trkpt>
      <trkpt lat="46.88434" lon="-1.91605">
        <ele>13</ele>
        <time>2019-10-03T17:41:35Z</time>
      </trkpt>
      <trkpt lat="46.88434" lon="-1.91613">
        <ele>13</ele>
        <time>2019-10-03T17:41:36Z</time>
      </trkpt>
      <trkpt lat="46.88433" lon="-1.91621">
        <ele>13</ele>
        <time>2019-10-03T17:41:37Z</time>
      </trkpt>
      <trkpt lat="46.88433" lon="-1.91629">
        <ele>13</ele>
        <time>2019-10-03T17:41:38Z</time>
      </trkpt>
      <trkpt lat="46.88433" lon="-1.91638">
        <ele>13</ele>
        <time>2019-10-03T17:41:39Z</time>
      </trkpt>
      <trkpt lat="46.88432" lon="-1.91646">
        <ele>13</ele>
        <time>2019-10-03T17:41:40Z</time>
      </trkpt>
      <trkpt lat="46.88432" lon="-1.91654">
        <ele>13</ele>
        <time>2019-10-03T17:41:41Z</time>
      </trkpt>
      <trkpt lat="46.88431" lon="-1.91662">
        <ele>13</ele>
        <time>2019-10-03T17:41:42Z</time>
      </trkpt>
      <trkpt lat="46.88431" lon="-1.9167">
        <ele>13</ele>
        <time>2019-10-03T17:41:43Z</time>
      </trkpt>
      <trkpt lat="46.88431" lon="-1.91679">
        <ele>13</ele>
        <time>2019-10-03T17:41:44Z</time>
      </trkpt>
      <trkpt lat="46.8843" lon="-1.91687">
        <ele>13</ele>
        <time>2019-10-03T17:41:45Z</time>
      </trkpt>
      <trkpt lat="46.8843" lon="-1.91695">
        <ele>13</ele>
        <time>2019-10-03T17:41:46Z</time>
      </trkpt>
      <trkpt lat="46.8843" lon="-1.91703">
        <ele>13</ele>
        <time>2019-10-03T17:41:47Z</time>
      </trkpt>
      <trkpt lat="46.88429" lon="-1.91711">
        <ele>13</ele>
        <time>2019-10-03T17:41:48Z</time>
      </trkpt>
      <trkpt lat="46.88429" lon="-1.9172">
        <ele>13</ele>
        <time>2019-10-03T17:41:49Z</time>
      </trkpt>
      <trkpt lat="46.88428" lon="-1.91728">
        <ele>13</ele>
        <time>2019-10-03T17:41:50Z</time>
      </trkpt>
      <trkpt lat="46.88428" lon="-1.91736">
        <ele>13</ele>
        <time>2019-10-03T17:41:51Z</time>
      </trkpt>
      <trkpt lat="46.88427" lon="-1.91745">
        <ele>13</ele>
        <time>2019-10-03T17:41:52Z</time>
      </trkpt>
      <trkpt lat="46.88427" lon="-1.91753">
        <ele>13</ele>
        <time>2019-10-03T17:41:53Z</time>
      </trkpt>
      <trkpt lat="46.88427" lon="-1.91761">
        <ele>13</ele>
        <time>2019-10-03T17:41:54Z</time>
      </trkpt>
      <trkpt lat="46.88426" lon="-1.9177">
        <ele>13</ele>
        <time>2019-10-03T17:41:55Z</time>
      </trkpt>
      <trkpt lat="46.88426" lon="-1.91778">
        <ele>13</ele>
        <time>2019-10-03T17:41:56Z</time>
      </trkpt>
      <trkpt lat="46.88425" lon="-1.91787">
        <ele>13</ele>
        <time>2019-10-03T17:41:57Z</time>
      </trkpt>
      <trkpt lat="46.88425" lon="-1.91795">
        <ele>13</ele>
        <time>2019-10-03T17:41:58Z</time>
      </trkpt>
      <trkpt lat="46.88424" lon="-1.91804">
        <ele>13</ele>
        <time>2019-10-03T17:41:59Z</time>
      </trkpt>
      <trkpt lat="46.88424" lon="-1.91813">
        <ele>13</ele>
        <time>2019-10-03T17:42:00Z</time>
      </trkpt>
      <trkpt lat="46.88424" lon="-1.91821">
        <ele>13</ele>
        <time>2019-10-03T17:42:01Z</time>
      </trkpt>
      <trkpt lat="46.88423" lon="-1.91829">
        <ele>13</ele>
        <time>2019-10-03T17:42:02Z</time>
      </trkpt>
      <trkpt lat="46.88423" lon="-1.91838">
        <ele>13</ele>
        <time>2019-10-03T17:42:03Z</time>
      </trkpt>
      <trkpt lat="46.88422" lon="-1.91846">
        <ele>13</ele>
        <time>2019-10-03T17:42:04Z</time>
      </trkpt>
      <trkpt lat="46.88422" lon="-1.91855">
        <ele>13</ele>
        <time>2019-10-03T17:42:05Z</time>
      </trkpt>
      <trkpt lat="46.88421" lon="-1.91863">
        <ele>13</ele>
        <time>2019-10-03T17:42:06Z</time>
      </trkpt>
      <trkpt lat="46.88421" lon="-1.91872">
        <ele>13</ele>
        <time>2019-10-03T17:42:07Z</time>
      </trkpt>
      <trkpt lat="46.88421" lon="-1.9188">
        <ele>13</ele>
        <time>2019-10-03T17:42:08Z</time>
      </trkpt>
      <trkpt lat="46.88421" lon="-1.91889">
        <ele>13</ele>
        <time>2019-10-03T17:42:09Z</time>
      </trkpt>
      <trkpt lat="46.8842" lon="-1.91897">
        <ele>13</ele>
        <time>2019-10-03T17:42:10Z</time>
      </trkpt>
      <trkpt lat="46.8842" lon="-1.91906">
        <ele>13</ele>
        <time>2019-10-03T17:42:11Z</time>
      </trkpt>
      <trkpt lat="46.8842" lon="-1.91914">
        <ele>13</ele>
        <time>2019-10-03T17:42:12Z</time>
      </trkpt>
      <trkpt lat="46.88419" lon="-1.91923">
        <ele>13</ele>
        <time>2019-10-03T17:42:13Z</time>
      </trkpt>
      <trkpt lat="46.88419" lon="-1.91931">
        <ele>13</ele>
        <time>2019-10-03T17:42:14Z</time>
      </trkpt>
      <trkpt lat="46.88419" lon="-1.9194">
        <ele>13</ele>
        <time>2019-10-03T17:42:15Z</time>
      </trkpt>
      <trkpt lat="46.88419" lon="-1.91948">
        <ele>13</ele>
        <time>2019-10-03T17:42:16Z</time>
      </trkpt>
      <trkpt lat="46.8842" lon="-1.91956">
        <ele>13</ele>
        <time>2019-10-03T17:42:17Z</time>
      </trkpt>
      <trkpt lat="46.8842" lon="-1.91965">
        <ele>13</ele>
        <time>2019-10-03T17:42:18Z</time>
      </trkpt>
      <trkpt lat="46.8842" lon="-1.91973">
        <ele>13</ele>
        <time>2019-10-03T17:42:19Z</time>
      </trkpt>
      <trkpt lat="46.88421" lon="-1.91982">
        <ele>13</ele>
        <time>2019-10-03T17:42:20Z</time>
      </trkpt>
      <trkpt lat="46.88421" lon="-1.9199">
        <ele>13</ele>
        <time>2019-10-03T17:42:21Z</time>
      </trkpt>
      <trkpt lat="46.88422" lon="-1.91998">
        <ele>13</ele>
        <time>2019-10-03T17:42:22Z</time>
      </trkpt>
      <trkpt lat="46.88423" lon="-1.92006">
        <ele>13</ele>
        <time>2019-10-03T17:42:23Z</time>
      </trkpt>
      <trkpt lat="46.88424" lon="-1.92015">
        <ele>13</ele>
        <time>2019-10-03T17:42:24Z</time>
      </trkpt>
      <trkpt lat="46.88425" lon="-1.92023">
        <ele>13</ele>
        <time>2019-10-03T17:42:25Z</time>
      </trkpt>
      <trkpt lat="46.88425" lon="-1.92031">
        <ele>13</ele>
        <time>2019-10-03T17:42:26Z</time>
      </trkpt>
      <trkpt lat="46.88426" lon="-1.9204">
        <ele>13</ele>
        <time>2019-10-03T17:42:27Z</time>
      </trkpt>
      <trkpt lat="46.88427" lon="-1.92048">
        <ele>13</ele>
        <time>2019-10-03T17:42:28Z</time>
      </trkpt>
      <trkpt lat="46.88428" lon="-1.92056">
        <ele>13</ele>
        <time>2019-10-03T17:42:29Z</time>
      </trkpt>
      <trkpt lat="46.88429" lon="-1.92064">
        <ele>13</ele>
        <time>2019-10-03T17:42:30Z</time>
      </trkpt>
      <trkpt lat="46.8843" lon="-1.92072">
        <ele>13</ele>
        <time>2019-10-03T17:42:31Z</time>
      </trkpt>
      <trkpt lat="46.88431" lon="-1.92081">
        <ele>13</ele>
        <time>2019-10-03T17:42:32Z</time>
      </trkpt>
      <trkpt lat="46.88432" lon="-1.92089">
        <ele>13</ele>
        <time>2019-10-03T17:42:33Z</time>
      </trkpt>
      <trkpt lat="46.88433" lon="-1.92097">
        <ele>13</ele>
        <time>2019-10-03T17:42:34Z</time>
      </trkpt>
      <trkpt lat="46.88434" lon="-1.92105">
        <ele>13</ele>
        <time>2019-10-03T17:42:35Z</time>
      </trkpt>
      <trkpt lat="46.88435" lon="-1.92114">
        <ele>13</ele>
        <time>2019-10-03T17:42:36Z</time>
      </trkpt>
      <trkpt lat="46.88435" lon="-1.92122">
        <ele>13</ele>
        <time>2019-10-03T17:42:37Z</time>
      </trkpt>
      <trkpt lat="46.88436" lon="-1.9213">
        <ele>13</ele>
        <time>2019-10-03T17:42:38Z</time>
      </trkpt>
      <trkpt lat="46.88437" lon="-1.92138">
        <ele>13</ele>
        <time>2019-10-03T17:42:39Z</time>
      </trkpt>
      <trkpt lat="46.88438" lon="-1.92146">
        <ele>13</ele>
        <time>2019-10-03T17:42:40Z</time>
      </trkpt>
      <trkpt lat="46.88439" lon="-1.92154">
        <ele>13</ele>
        <time>2019-10-03T17:42:41Z</time>
      </trkpt>
      <trkpt lat="46.8844" lon="-1.92162">
        <ele>13</ele>
        <time>2019-10-03T17:42:42Z</time>
      </trkpt>
      <trkpt lat="46.88441" lon="-1.9217">
        <ele>13</ele>
        <time>2019-10-03T17:42:43Z</time>
      </trkpt>
      <trkpt lat="46.88442" lon="-1.92178">
        <ele>13</ele>
        <time>2019-10-03T17:42:44Z</time>
      </trkpt>
      <trkpt lat="46.88443" lon="-1.92185">
        <ele>13</ele>
        <time>2019-10-03T17:42:45Z</time>
      </trkpt>
      <trkpt lat="46.88443" lon="-1.92193">
        <ele>13</ele>
        <time>2019-10-03T17:42:46Z</time>
      </trkpt>
      <trkpt lat="46.88444" lon="-1.92201">
        <ele>13</ele>
        <time>2019-10-03T17:42:47Z</time>
      </trkpt>
      <trkpt lat="46.88445" lon="-1.92209">
        <ele>13</ele>
        <time>2019-10-03T17:42:48Z</time>
      </trkpt>
      <trkpt lat="46.88446" lon="-1.92216">
        <ele>13</ele>
        <time>2019-10-03T17:42:49Z</time>
      </trkpt>
      <trkpt lat="46.88447" lon="-1.92224">
        <ele>13</ele>
        <time>2019-10-03T17:42:50Z</time>
      </trkpt>
      <trkpt lat="46.88448" lon="-1.92232">
        <ele>13</ele>
        <time>2019-10-03T17:42:51Z</time>
      </trkpt>
      <trkpt lat="46.88448" lon="-1.9224">
        <ele>13</ele>
        <time>2019-10-03T17:42:52Z</time>
      </trkpt>
      <trkpt lat="46.8845" lon="-1.92248">
        <ele>13</ele>
        <time>2019-10-03T17:42:53Z</time>
      </trkpt>
      <trkpt lat="46.8845" lon="-1.92256">
        <ele>13</ele>
        <time>2019-10-03T17:42:54Z</time>
      </trkpt>
      <trkpt lat="46.88451" lon="-1.92264">
        <ele>13</ele>
        <time>2019-10-03T17:42:55Z</time>
      </trkpt>
      <trkpt lat="46.88452" lon="-1.92271">
        <ele>13</ele>
        <time>2019-10-03T17:42:56Z</time>
      </trkpt>
      <trkpt lat="46.88453" lon="-1.92279">
        <ele>13</ele>
        <time>2019-10-03T17:42:57Z</time>
      </trkpt>
      <trkpt lat="46.88453" lon="-1.92287">
        <ele>13</ele>
        <time>2019-10-03T17:42:58Z</time>
      </trkpt>
      <trkpt lat="46.88454" lon="-1.92295">
        <ele>13</ele>
        <time>2019-10-03T17:42:59Z</time>
      </trkpt>
      <trkpt lat="46.88455" lon="-1.92303">
        <ele>13</ele>
        <time>2019-10-03T17:43:00Z</time>
      </trkpt>
      <trkpt lat="46.88456" lon="-1.92311">
        <ele>13</ele>
        <time>2019-10-03T17:43:01Z</time>
      </trkpt>
      <trkpt lat="46.88457" lon="-1.92319">
        <ele>13</ele>
        <time>2019-10-03T17:43:02Z</time>
      </trkpt>
      <trkpt lat="46.88458" lon="-1.92327">
        <ele>13</ele>
        <time>2019-10-03T17:43:03Z</time>
      </trkpt>
      <trkpt lat="46.88459" lon="-1.92335">
        <ele>13</ele>
        <time>2019-10-03T17:43:04Z</time>
      </trkpt>
      <trkpt lat="46.88459" lon="-1.92343">
        <ele>13</ele>
        <time>2019-10-03T17:43:05Z</time>
      </trkpt>
      <trkpt lat="46.88461" lon="-1.92351">
        <ele>13</ele>
        <time>2019-10-03T17:43:06Z</time>
      </trkpt>
      <trkpt lat="46.88461" lon="-1.92359">
        <ele>13</ele>
        <time>2019-10-03T17:43:07Z</time>
      </trkpt>
      <trkpt lat="46.88462" lon="-1.92367">
        <ele>13</ele>
        <time>2019-10-03T17:43:08Z</time>
      </trkpt>
      <trkpt lat="46.88464" lon="-1.92375">
        <ele>13</ele>
        <time>2019-10-03T17:43:09Z</time>
      </trkpt>
      <trkpt lat="46.88464" lon="-1.92383">
        <ele>13</ele>
        <time>2019-10-03T17:43:10Z</time>
      </trkpt>
      <trkpt lat="46.88466" lon="-1.92391">
        <ele>13</ele>
        <time>2019-10-03T17:43:11Z</time>
      </trkpt>
      <trkpt lat="46.88466" lon="-1.92399">
        <ele>13</ele>
        <time>2019-10-03T17:43:12Z</time>
      </trkpt>
      <trkpt lat="46.88468" lon="-1.92406">
        <ele>13</ele>
        <time>2019-10-03T17:43:13Z</time>
      </trkpt>
      <trkpt lat="46.88469" lon="-1.92414">
        <ele>13</ele>
        <time>2019-10-03T17:43:14Z</time>
      </trkpt>
      <trkpt lat="46.8847" lon="-1.92422">
        <ele>13</ele>
        <time>2019-10-03T17:43:15Z</time>
      </trkpt>
      <trkpt lat="46.88471" lon="-1.92431">
        <ele>13</ele>
        <time>2019-10-03T17:43:16Z</time>
      </trkpt>
      <trkpt lat="46.88471" lon="-1.92439">
        <ele>13</ele>
        <time>2019-10-03T17:43:17Z</time>
      </trkpt>
      <trkpt lat="46.88473" lon="-1.92447">
        <ele>13</ele>
        <time>2019-10-03T17:43:18Z</time>
      </trkpt>
      <trkpt lat="46.88474" lon="-1.92455">
        <ele>13</ele>
        <time>2019-10-03T17:43:19Z</time>
      </trkpt>
      <trkpt lat="46.88475" lon="-1.92463">
        <ele>13</ele>
        <time>2019-10-03T17:43:20Z</time>
      </trkpt>
      <trkpt lat="46.88476" lon="-1.92471">
        <ele>13</ele>
        <time>2019-10-03T17:43:21Z</time>
      </trkpt>
      <trkpt lat="46.88477" lon="-1.92479">
        <ele>13</ele>
        <time>2019-10-03T17:43:22Z</time>
      </trkpt>
      <trkpt lat="46.88478" lon="-1.92487">
        <ele>13</ele>
        <time>2019-10-03T17:43:23Z</time>
      </trkpt>
      <trkpt lat="46.88479" lon="-1.92494">
        <ele>13</ele>
        <time>2019-10-03T17:43:24Z</time>
      </trkpt>
      <trkpt lat="46.88479" lon="-1.92503">
        <ele>13</ele>
        <time>2019-10-03T17:43:25Z</time>
      </trkpt>
      <trkpt lat="46.8848" lon="-1.9251">
        <ele>13</ele>
        <time>2019-10-03T17:43:26Z</time>
      </trkpt>
      <trkpt lat="46.88481" lon="-1.92518">
        <ele>13</ele>
        <time>2019-10-03T17:43:27Z</time>
      </trkpt>
      <trkpt lat="46.88482" lon="-1.92527">
        <ele>13</ele>
        <time>2019-10-03T17:43:28Z</time>
      </trkpt>
      <trkpt lat="46.88483" lon="-1.92535">
        <ele>13</ele>
        <time>2019-10-03T17:43:29Z</time>
      </trkpt>
      <trkpt lat="46.88484" lon="-1.92543">
        <ele>13</ele>
        <time>2019-10-03T17:43:30Z</time>
      </trkpt>
      <trkpt lat="46.88485" lon="-1.92551">
        <ele>13</ele>
        <time>2019-10-03T17:43:31Z</time>
      </trkpt>
      <trkpt lat="46.88485" lon="-1.92559">
        <ele>13</ele>
        <time>2019-10-03T17:43:32Z</time>
      </trkpt>
      <trkpt lat="46.88486" lon="-1.92567">
        <ele>13</ele>
        <time>2019-10-03T17:43:33Z</time>
      </trkpt>
      <trkpt lat="46.88487" lon="-1.92575">
        <ele>13</ele>
        <time>2019-10-03T17:43:34Z</time>
      </trkpt>
      <trkpt lat="46.88488" lon="-1.92583">
        <ele>13</ele>
        <time>2019-10-03T17:43:35Z</time>
      </trkpt>
      <trkpt lat="46.88488" lon="-1.92591">
        <ele>13</ele>
        <time>2019-10-03T17:43:36Z</time>
      </trkpt>
      <trkpt lat="46.88489" lon="-1.92599">
        <ele>13</ele>
        <time>2019-10-03T17:43:37Z</time>
      </trkpt>
      <trkpt lat="46.8849" lon="-1.92607">
        <ele>13</ele>
        <time>2019-10-03T17:43:38Z</time>
      </trkpt>
      <trkpt lat="46.8849" lon="-1.92615">
        <ele>13</ele>
        <time>2019-10-03T17:43:39Z</time>
      </trkpt>
      <trkpt lat="46.88491" lon="-1.92623">
        <ele>13</ele>
        <time>2019-10-03T17:43:40Z</time>
      </trkpt>
      <trkpt lat="46.88491" lon="-1.92631">
        <ele>13</ele>
        <time>2019-10-03T17:43:41Z</time>
      </trkpt>
      <trkpt lat="46.88491" lon="-1.9264">
        <ele>13</ele>
        <time>2019-10-03T17:43:42Z</time>
      </trkpt>
      <trkpt lat="46.88491" lon="-1.92648">
        <ele>13</ele>
        <time>2019-10-03T17:43:43Z</time>
      </trkpt>
      <trkpt lat="46.88491" lon="-1.92656">
        <ele>13</ele>
        <time>2019-10-03T17:43:44Z</time>
      </trkpt>
      <trkpt lat="46.88491" lon="-1.92664">
        <ele>13</ele>
        <time>2019-10-03T17:43:45Z</time>
      </trkpt>
      <trkpt lat="46.8849" lon="-1.92673">
        <ele>13</ele>
        <time>2019-10-03T17:43:46Z</time>
      </trkpt>
      <trkpt lat="46.8849" lon="-1.92681">
        <ele>13</ele>
        <time>2019-10-03T17:43:47Z</time>
      </trkpt>
      <trkpt lat="46.8849" lon="-1.92689">
        <ele>13</ele>
        <time>2019-10-03T17:43:48Z</time>
      </trkpt>
      <trkpt lat="46.88489" lon="-1.92697">
        <ele>13</ele>
        <time>2019-10-03T17:43:49Z</time>
      </trkpt>
      <trkpt lat="46.88488" lon="-1.92705">
        <ele>13</ele>
        <time>2019-10-03T17:43:50Z</time>
      </trkpt>
      <trkpt lat="46.88488" lon="-1.92713">
        <ele>13</ele>
        <time>2019-10-03T17:43:51Z</time>
      </trkpt>
      <trkpt lat="46.88487" lon="-1.92721">
        <ele>13</ele>
        <time>2019-10-03T17:43:52Z</time>
      </trkpt>
      <trkpt lat="46.88486" lon="-1.92729">
        <ele>13</ele>
        <time>2019-10-03T17:43:53Z</time>
      </trkpt>
      <trkpt lat="46.88485" lon="-1.92737">
        <ele>13</ele>
        <time>2019-10-03T17:43:54Z</time>
      </trkpt>
      <trkpt lat="46.88483" lon="-1.92745">
        <ele>13</ele>
        <time>2019-10-03T17:43:55Z</time>
      </trkpt>
      <trkpt lat="46.88482" lon="-1.92753">
        <ele>13</ele>
        <time>2019-10-03T17:43:56Z</time>
      </trkpt>
      <trkpt lat="46.88481" lon="-1.92761">
        <ele>13</ele>
        <time>2019-10-03T17:43:57Z</time>
      </trkpt>
      <trkpt lat="46.88479" lon="-1.92769">
        <ele>13</ele>
        <time>2019-10-03T17:43:58Z</time>
      </trkpt>
      <trkpt lat="46.88478" lon="-1.92777">
        <ele>13</ele>
        <time>2019-10-03T17:43:59Z</time>
      </trkpt>
      <trkpt lat="46.88477" lon="-1.92785">
        <ele>13</ele>
        <time>2019-10-03T17:44:00Z</time>
      </trkpt>
      <trkpt lat="46.88475" lon="-1.92793">
        <ele>13</ele>
        <time>2019-10-03T17:44:01Z</time>
      </trkpt>
      <trkpt lat="46.88474" lon="-1.92801">
        <ele>13</ele>
        <time>2019-10-03T17:44:02Z</time>
      </trkpt>
      <trkpt lat="46.88472" lon="-1.92809">
        <ele>13</ele>
        <time>2019-10-03T17:44:03Z</time>
      </trkpt>
      <trkpt lat="46.88471" lon="-1.92817">
        <ele>13</ele>
        <time>2019-10-03T17:44:04Z</time>
      </trkpt>
      <trkpt lat="46.88469" lon="-1.92825">
        <ele>13</ele>
        <time>2019-10-03T17:44:05Z</time>
      </trkpt>
      <trkpt lat="46.88468" lon="-1.92833">
        <ele>12</ele>
        <time>2019-10-03T17:44:06Z</time>
      </trkpt>
      <trkpt lat="46.88467" lon="-1.92841">
        <ele>12</ele>
        <time>2019-10-03T17:44:07Z</time>
      </trkpt>
      <trkpt lat="46.88465" lon="-1.92849">
        <ele>12</ele>
        <time>2019-10-03T17:44:08Z</time>
      </trkpt>
      <trkpt lat="46.88464" lon="-1.92857">
        <ele>12</ele>
        <time>2019-10-03T17:44:09Z</time>
      </trkpt>
      <trkpt lat="46.88462" lon="-1.92865">
        <ele>12</ele>
        <time>2019-10-03T17:44:10Z</time>
      </trkpt>
      <trkpt lat="46.88461" lon="-1.92873">
        <ele>12</ele>
        <time>2019-10-03T17:44:11Z</time>
      </trkpt>
      <trkpt lat="46.88459" lon="-1.92881">
        <ele>12</ele>
        <time>2019-10-03T17:44:12Z</time>
      </trkpt>
      <trkpt lat="46.88458" lon="-1.92889">
        <ele>12</ele>
        <time>2019-10-03T17:44:13Z</time>
      </trkpt>
      <trkpt lat="46.88456" lon="-1.92897">
        <ele>12</ele>
        <time>2019-10-03T17:44:14Z</time>
      </trkpt>
      <trkpt lat="46.88454" lon="-1.92905">
        <ele>12</ele>
        <time>2019-10-03T17:44:15Z</time>
      </trkpt>
      <trkpt lat="46.88453" lon="-1.92913">
        <ele>12</ele>
        <time>2019-10-03T17:44:16Z</time>
      </trkpt>
      <trkpt lat="46.88451" lon="-1.92921">
        <ele>12</ele>
        <time>2019-10-03T17:44:17Z</time>
      </trkpt>
      <trkpt lat="46.88449" lon="-1.92929">
        <ele>12</ele>
        <time>2019-10-03T17:44:18Z</time>
      </trkpt>
      <trkpt lat="46.88447" lon="-1.92936">
        <ele>12</ele>
        <time>2019-10-03T17:44:19Z</time>
      </trkpt>
      <trkpt lat="46.88445" lon="-1.92944">
        <ele>12</ele>
        <time>2019-10-03T17:44:20Z</time>
      </trkpt>
      <trkpt lat="46.88443" lon="-1.92952">
        <ele>12</ele>
        <time>2019-10-03T17:44:21Z</time>
      </trkpt>
      <trkpt lat="46.88442" lon="-1.9296">
        <ele>12</ele>
        <time>2019-10-03T17:44:22Z</time>
      </trkpt>
      <trkpt lat="46.8844" lon="-1.92968">
        <ele>12</ele>
        <time>2019-10-03T17:44:23Z</time>
      </trkpt>
      <trkpt lat="46.88438" lon="-1.92976">
        <ele>12</ele>
        <time>2019-10-03T17:44:24Z</time>
      </trkpt>
      <trkpt lat="46.88437" lon="-1.92984">
        <ele>12</ele>
        <time>2019-10-03T17:44:25Z</time>
      </trkpt>
      <trkpt lat="46.88435" lon="-1.92992">
        <ele>12</ele>
        <time>2019-10-03T17:44:26Z</time>
      </trkpt>
      <trkpt lat="46.88433" lon="-1.93">
        <ele>12</ele>
        <time>2019-10-03T17:44:27Z</time>
      </trkpt>
      <trkpt lat="46.88432" lon="-1.93008">
        <ele>12</ele>
        <time>2019-10-03T17:44:28Z</time>
      </trkpt>
      <trkpt lat="46.8843" lon="-1.93015">
        <ele>12</ele>
        <time>2019-10-03T17:44:29Z</time>
      </trkpt>
      <trkpt lat="46.88428" lon="-1.93023">
        <ele>12</ele>
        <time>2019-10-03T17:44:30Z</time>
      </trkpt>
      <trkpt lat="46.88426" lon="-1.9303">
        <ele>12</ele>
        <time>2019-10-03T17:44:31Z</time>
      </trkpt>
      <trkpt lat="46.88425" lon="-1.93037">
        <ele>12</ele>
        <time>2019-10-03T17:44:32Z</time>
      </trkpt>
      <trkpt lat="46.88424" lon="-1.93044">
        <ele>12</ele>
        <time>2019-10-03T17:44:33Z</time>
      </trkpt>
      <trkpt lat="46.88422" lon="-1.93051">
        <ele>12</ele>
        <time>2019-10-03T17:44:34Z</time>
      </trkpt>
      <trkpt lat="46.8842" lon="-1.93058">
        <ele>12</ele>
        <time>2019-10-03T17:44:35Z</time>
      </trkpt>
      <trkpt lat="46.88419" lon="-1.93065">
        <ele>12</ele>
        <time>2019-10-03T17:44:36Z</time>
      </trkpt>
      <trkpt lat="46.88417" lon="-1.93072">
        <ele>12</ele>
        <time>2019-10-03T17:44:37Z</time>
      </trkpt>
      <trkpt lat="46.88415" lon="-1.93079">
        <ele>12</ele>
        <time>2019-10-03T17:44:38Z</time>
      </trkpt>
      <trkpt lat="46.88414" lon="-1.93085">
        <ele>12</ele>
        <time>2019-10-03T17:44:39Z</time>
      </trkpt>
      <trkpt lat="46.88411" lon="-1.93096">
        <ele>12</ele>
        <time>2019-10-03T17:44:41Z</time>
      </trkpt>
      <trkpt lat="46.88408" lon="-1.93107">
        <ele>12</ele>
        <time>2019-10-03T17:44:43Z</time>
      </trkpt>
      <trkpt lat="46.88408" lon="-1.93117">
        <ele>12</ele>
        <time>2019-10-03T17:44:45Z</time>
      </trkpt>
      <trkpt lat="46.88414" lon="-1.9312">
        <ele>12</ele>
        <time>2019-10-03T17:44:47Z</time>
      </trkpt>
      <trkpt lat="46.88421" lon="-1.93114">
        <ele>12</ele>
        <time>2019-10-03T17:44:49Z</time>
      </trkpt>
      <trkpt lat="46.88425" lon="-1.93109">
        <ele>12</ele>
        <time>2019-10-03T17:44:50Z</time>
      </trkpt>
      <trkpt lat="46.88429" lon="-1.93105">
        <ele>12</ele>
        <time>2019-10-03T17:44:51Z</time>
      </trkpt>
      <trkpt lat="46.88433" lon="-1.93101">
        <ele>12</ele>
        <time>2019-10-03T17:44:52Z</time>
      </trkpt>
      <trkpt lat="46.88437" lon="-1.93097">
        <ele>12</ele>
        <time>2019-10-03T17:44:53Z</time>
      </trkpt>
      <trkpt lat="46.88441" lon="-1.93092">
        <ele>12</ele>
        <time>2019-10-03T17:44:54Z</time>
      </trkpt>
      <trkpt lat="46.88445" lon="-1.93088">
        <ele>12</ele>
        <time>2019-10-03T17:44:55Z</time>
      </trkpt>
      <trkpt lat="46.88449" lon="-1.93084">
        <ele>12</ele>
        <time>2019-10-03T17:44:56Z</time>
      </trkpt>
      <trkpt lat="46.88453" lon="-1.93079">
        <ele>12</ele>
        <time>2019-10-03T17:44:57Z</time>
      </trkpt>
      <trkpt lat="46.88457" lon="-1.93074">
        <ele>12</ele>
        <time>2019-10-03T17:44:58Z</time>
      </trkpt>
      <trkpt lat="46.88462" lon="-1.9307">
        <ele>12</ele>
        <time>2019-10-03T17:44:59Z</time>
      </trkpt>
      <trkpt lat="46.88466" lon="-1.93065">
        <ele>12</ele>
        <time>2019-10-03T17:45:00Z</time>
      </trkpt>
      <trkpt lat="46.88471" lon="-1.93061">
        <ele>12</ele>
        <time>2019-10-03T17:45:01Z</time>
      </trkpt>
      <trkpt lat="46.88475" lon="-1.93056">
        <ele>12</ele>
        <time>2019-10-03T17:45:02Z</time>
      </trkpt>
      <trkpt lat="46.8848" lon="-1.93051">
        <ele>12</ele>
        <time>2019-10-03T17:45:03Z</time>
      </trkpt>
      <trkpt lat="46.88485" lon="-1.93047">
        <ele>12</ele>
        <time>2019-10-03T17:45:04Z</time>
      </trkpt>
      <trkpt lat="46.8849" lon="-1.93042">
        <ele>12</ele>
        <time>2019-10-03T17:45:05Z</time>
      </trkpt>
      <trkpt lat="46.88494" lon="-1.93038">
        <ele>12</ele>
        <time>2019-10-03T17:45:06Z</time>
      </trkpt>
      <trkpt lat="46.88499" lon="-1.93033">
        <ele>12</ele>
        <time>2019-10-03T17:45:07Z</time>
      </trkpt>
      <trkpt lat="46.88504" lon="-1.93029">
        <ele>12</ele>
        <time>2019-10-03T17:45:08Z</time>
      </trkpt>
      <trkpt lat="46.88509" lon="-1.93025">
        <ele>12</ele>
        <time>2019-10-03T17:45:09Z</time>
      </trkpt>
      <trkpt lat="46.88514" lon="-1.9302">
        <ele>12</ele>
        <time>2019-10-03T17:45:10Z</time>
      </trkpt>
      <trkpt lat="46.88519" lon="-1.93016">
        <ele>12</ele>
        <time>2019-10-03T17:45:11Z</time>
      </trkpt>
      <trkpt lat="46.88524" lon="-1.93012">
        <ele>12</ele>
        <time>2019-10-03T17:45:12Z</time>
      </trkpt>
      <trkpt lat="46.88529" lon="-1.93008">
        <ele>12</ele>
        <time>2019-10-03T17:45:13Z</time>
      </trkpt>
      <trkpt lat="46.88535" lon="-1.93004">
        <ele>12</ele>
        <time>2019-10-03T17:45:14Z</time>
      </trkpt>
      <trkpt lat="46.8854" lon="-1.93">
        <ele>12</ele>
        <time>2019-10-03T17:45:15Z</time>
      </trkpt>
      <trkpt lat="46.88546" lon="-1.92996">
        <ele>12</ele>
        <time>2019-10-03T17:45:16Z</time>
      </trkpt>
      <trkpt lat="46.88551" lon="-1.92992">
        <ele>12</ele>
        <time>2019-10-03T17:45:17Z</time>
      </trkpt>
      <trkpt lat="46.88557" lon="-1.92988">
        <ele>12</ele>
        <time>2019-10-03T17:45:18Z</time>
      </trkpt>
      <trkpt lat="46.88562" lon="-1.92985">
        <ele>12</ele>
        <time>2019-10-03T17:45:19Z</time>
      </trkpt>
      <trkpt lat="46.88568" lon="-1.92981">
        <ele>12</ele>
        <time>2019-10-03T17:45:20Z</time>
      </trkpt>
      <trkpt lat="46.88574" lon="-1.92978">
        <ele>11</ele>
        <time>2019-10-03T17:45:21Z</time>
      </trkpt>
      <trkpt lat="46.8858" lon="-1.92974">
        <ele>11</ele>
        <time>2019-10-03T17:45:22Z</time>
      </trkpt>
      <trkpt lat="46.88586" lon="-1.9297">
        <ele>11</ele>
        <time>2019-10-03T17:45:23Z</time>
      </trkpt>
      <trkpt lat="46.88591" lon="-1.92967">
        <ele>11</ele>
        <time>2019-10-03T17:45:24Z</time>
      </trkpt>
      <trkpt lat="46.88598" lon="-1.92964">
        <ele>11</ele>
        <time>2019-10-03T17:45:25Z</time>
      </trkpt>
      <trkpt lat="46.88604" lon="-1.9296">
        <ele>11</ele>
        <time>2019-10-03T17:45:26Z</time>
      </trkpt>
      <trkpt lat="46.8861" lon="-1.92957">
        <ele>11</ele>
        <time>2019-10-03T17:45:27Z</time>
      </trkpt>
      <trkpt lat="46.88616" lon="-1.92953">
        <ele>11</ele>
        <time>2019-10-03T17:45:28Z</time>
      </trkpt>
      <trkpt lat="46.88622" lon="-1.92949">
        <ele>11</ele>
        <time>2019-10-03T17:45:29Z</time>
      </trkpt>
      <trkpt lat="46.88628" lon="-1.92945">
        <ele>11</ele>
        <time>2019-10-03T17:45:30Z</time>
      </trkpt>
      <trkpt lat="46.88634" lon="-1.92942">
        <ele>11</ele>
        <time>2019-10-03T17:45:31Z</time>
      </trkpt>
      <trkpt lat="46.88641" lon="-1.92938">
        <ele>11</ele>
        <time>2019-10-03T17:45:32Z</time>
      </trkpt>
      <trkpt lat="46.88647" lon="-1.92935">
        <ele>11</ele>
        <time>2019-10-03T17:45:33Z</time>
      </trkpt>
      <trkpt lat="46.88653" lon="-1.92931">
        <ele>11</ele>
        <time>2019-10-03T17:45:34Z</time>
      </trkpt>
      <trkpt lat="46.8866" lon="-1.92927">
        <ele>11</ele>
        <time>2019-10-03T17:45:35Z</time>
      </trkpt>
      <trkpt lat="46.88665" lon="-1.92922">
        <ele>11</ele>
        <time>2019-10-03T17:45:36Z</time>
      </trkpt>
      <trkpt lat="46.88672" lon="-1.92918">
        <ele>11</ele>
        <time>2019-10-03T17:45:37Z</time>
      </trkpt>
      <trkpt lat="46.88678" lon="-1.92913">
        <ele>11</ele>
        <time>2019-10-03T17:45:38Z</time>
      </trkpt>
      <trkpt lat="46.88683" lon="-1.92908">
        <ele>11</ele>
        <time>2019-10-03T17:45:39Z</time>
      </trkpt>
      <trkpt lat="46.88689" lon="-1.92903">
        <ele>11</ele>
        <time>2019-10-03T17:45:40Z</time>
      </trkpt>
      <trkpt lat="46.88695" lon="-1.92898">
        <ele>11</ele>
        <time>2019-10-03T17:45:41Z</time>
      </trkpt>
      <trkpt lat="46.88701" lon="-1.92893">
        <ele>11</ele>
        <time>2019-10-03T17:45:42Z</time>
      </trkpt>
      <trkpt lat="46.88706" lon="-1.92887">
        <ele>11</ele>
        <time>2019-10-03T17:45:43Z</time>
      </trkpt>
      <trkpt lat="46.88712" lon="-1.92881">
        <ele>11</ele>
        <time>2019-10-03T17:45:44Z</time>
      </trkpt>
      <trkpt lat="46.88718" lon="-1.92876">
        <ele>11</ele>
        <time>2019-10-03T17:45:45Z</time>
      </trkpt>
      <trkpt lat="46.88723" lon="-1.9287">
        <ele>11</ele>
        <time>2019-10-03T17:45:46Z</time>
      </trkpt>
      <trkpt lat="46.88729" lon="-1.92864">
        <ele>11</ele>
        <time>2019-10-03T17:45:47Z</time>
      </trkpt>
      <trkpt lat="46.88734" lon="-1.92858">
        <ele>11</ele>
        <time>2019-10-03T17:45:48Z</time>
      </trkpt>
      <trkpt lat="46.8874" lon="-1.92852">
        <ele>11</ele>
        <time>2019-10-03T17:45:49Z</time>
      </trkpt>
      <trkpt lat="46.88745" lon="-1.92846">
        <ele>11</ele>
        <time>2019-10-03T17:45:50Z</time>
      </trkpt>
      <trkpt lat="46.88751" lon="-1.92841">
        <ele>11</ele>
        <time>2019-10-03T17:45:51Z</time>
      </trkpt>
      <trkpt lat="46.88755" lon="-1.92835">
        <ele>11</ele>
        <time>2019-10-03T17:45:52Z</time>
      </trkpt>
      <trkpt lat="46.8876" lon="-1.92829">
        <ele>11</ele>
        <time>2019-10-03T17:45:53Z</time>
      </trkpt>
      <trkpt lat="46.88766" lon="-1.92823">
        <ele>11</ele>
        <time>2019-10-03T17:45:54Z</time>
      </trkpt>
      <trkpt lat="46.88771" lon="-1.92817">
        <ele>11</ele>
        <time>2019-10-03T17:45:55Z</time>
      </trkpt>
      <trkpt lat="46.88776" lon="-1.92811">
        <ele>11</ele>
        <time>2019-10-03T17:45:56Z</time>
      </trkpt>
      <trkpt lat="46.88781" lon="-1.92805">
        <ele>11</ele>
        <time>2019-10-03T17:45:57Z</time>
      </trkpt>
      <trkpt lat="46.88786" lon="-1.928">
        <ele>11</ele>
        <time>2019-10-03T17:45:58Z</time>
      </trkpt>
      <trkpt lat="46.8879" lon="-1.92794">
        <ele>11</ele>
        <time>2019-10-03T17:45:59Z</time>
      </trkpt>
      <trkpt lat="46.88795" lon="-1.92788">
        <ele>11</ele>
        <time>2019-10-03T17:46:00Z</time>
      </trkpt>
      <trkpt lat="46.888" lon="-1.92783">
        <ele>11</ele>
        <time>2019-10-03T17:46:01Z</time>
      </trkpt>
      <trkpt lat="46.88805" lon="-1.92777">
        <ele>10</ele>
        <time>2019-10-03T17:46:02Z</time>
      </trkpt>
      <trkpt lat="46.8881" lon="-1.92771">
        <ele>10</ele>
        <time>2019-10-03T17:46:03Z</time>
      </trkpt>
      <trkpt lat="46.88815" lon="-1.92765">
        <ele>10</ele>
        <time>2019-10-03T17:46:04Z</time>
      </trkpt>
      <trkpt lat="46.8882" lon="-1.9276">
        <ele>10</ele>
        <time>2019-10-03T17:46:05Z</time>
      </trkpt>
      <trkpt lat="46.88824" lon="-1.92754">
        <ele>10</ele>
        <time>2019-10-03T17:46:06Z</time>
      </trkpt>
      <trkpt lat="46.88829" lon="-1.92748">
        <ele>10</ele>
        <time>2019-10-03T17:46:07Z</time>
      </trkpt>
      <trkpt lat="46.88834" lon="-1.92742">
        <ele>10</ele>
        <time>2019-10-03T17:46:08Z</time>
      </trkpt>
      <trkpt lat="46.88839" lon="-1.92737">
        <ele>10</ele>
        <time>2019-10-03T17:46:09Z</time>
      </trkpt>
      <trkpt lat="46.88845" lon="-1.92732">
        <ele>10</ele>
        <time>2019-10-03T17:46:10Z</time>
      </trkpt>
      <trkpt lat="46.8885" lon="-1.92726">
        <ele>10</ele>
        <time>2019-10-03T17:46:11Z</time>
      </trkpt>
      <trkpt lat="46.88854" lon="-1.92721">
        <ele>10</ele>
        <time>2019-10-03T17:46:12Z</time>
      </trkpt>
      <trkpt lat="46.88858" lon="-1.92715">
        <ele>10</ele>
        <time>2019-10-03T17:46:13Z</time>
      </trkpt>
      <trkpt lat="46.88863" lon="-1.9271">
        <ele>10</ele>
        <time>2019-10-03T17:46:14Z</time>
      </trkpt>
      <trkpt lat="46.88867" lon="-1.92705">
        <ele>10</ele>
        <time>2019-10-03T17:46:15Z</time>
      </trkpt>
      <trkpt lat="46.88871" lon="-1.92699">
        <ele>10</ele>
        <time>2019-10-03T17:46:16Z</time>
      </trkpt>
      <trkpt lat="46.88874" lon="-1.92694">
        <ele>11</ele>
        <time>2019-10-03T17:46:17Z</time>
      </trkpt>
      <trkpt lat="46.88879" lon="-1.9269">
        <ele>11</ele>
        <time>2019-10-03T17:46:18Z</time>
      </trkpt>
      <trkpt lat="46.88885" lon="-1.92689">
        <ele>11</ele>
        <time>2019-10-03T17:46:19Z</time>
      </trkpt>
      <trkpt lat="46.88891" lon="-1.9269">
        <ele>11</ele>
        <time>2019-10-03T17:46:20Z</time>
      </trkpt>
      <trkpt lat="46.88897" lon="-1.92694">
        <ele>11</ele>
        <time>2019-10-03T17:46:21Z</time>
      </trkpt>
      <trkpt lat="46.88903" lon="-1.92699">
        <ele>11</ele>
        <time>2019-10-03T17:46:22Z</time>
      </trkpt>
      <trkpt lat="46.88908" lon="-1.92705">
        <ele>11</ele>
        <time>2019-10-03T17:46:23Z</time>
      </trkpt>
      <trkpt lat="46.88912" lon="-1.92712">
        <ele>11</ele>
        <time>2019-10-03T17:46:24Z</time>
      </trkpt>
      <trkpt lat="46.88916" lon="-1.92719">
        <ele>11</ele>
        <time>2019-10-03T17:46:25Z</time>
      </trkpt>
      <trkpt lat="46.8892" lon="-1.92727">
        <ele>11</ele>
        <time>2019-10-03T17:46:26Z</time>
      </trkpt>
      <trkpt lat="46.88923" lon="-1.92735">
        <ele>11</ele>
        <time>2019-10-03T17:46:27Z</time>
      </trkpt>
      <trkpt lat="46.88926" lon="-1.92743">
        <ele>11</ele>
        <time>2019-10-03T17:46:28Z</time>
      </trkpt>
      <trkpt lat="46.88929" lon="-1.9275">
        <ele>11</ele>
        <time>2019-10-03T17:46:29Z</time>
      </trkpt>
      <trkpt lat="46.88932" lon="-1.92758">
        <ele>11</ele>
        <time>2019-10-03T17:46:30Z</time>
      </trkpt>
      <trkpt lat="46.88935" lon="-1.92766">
        <ele>11</ele>
        <time>2019-10-03T17:46:31Z</time>
      </trkpt>
      <trkpt lat="46.88938" lon="-1.92774">
        <ele>11</ele>
        <time>2019-10-03T17:46:32Z</time>
      </trkpt>
      <trkpt lat="46.88941" lon="-1.92782">
        <ele>11</ele>
        <time>2019-10-03T17:46:33Z</time>
      </trkpt>
      <trkpt lat="46.88944" lon="-1.9279">
        <ele>11</ele>
        <time>2019-10-03T17:46:34Z</time>
      </trkpt>
      <trkpt lat="46.88947" lon="-1.92798">
        <ele>11</ele>
        <time>2019-10-03T17:46:35Z</time>
      </trkpt>
      <trkpt lat="46.8895" lon="-1.92806">
        <ele>11</ele>
        <time>2019-10-03T17:46:36Z</time>
      </trkpt>
      <trkpt lat="46.88953" lon="-1.92815">
        <ele>11</ele>
        <time>2019-10-03T17:46:37Z</time>
      </trkpt>
      <trkpt lat="46.88955" lon="-1.92823">
        <ele>11</ele>
        <time>2019-10-03T17:46:38Z</time>
      </trkpt>
      <trkpt lat="46.88958" lon="-1.92831">
        <ele>11</ele>
        <time>2019-10-03T17:46:39Z</time>
      </trkpt>
      <trkpt lat="46.88961" lon="-1.9284">
        <ele>11</ele>
        <time>2019-10-03T17:46:40Z</time>
      </trkpt>
      <trkpt lat="46.88963" lon="-1.92848">
        <ele>11</ele>
        <time>2019-10-03T17:46:41Z</time>
      </trkpt>
      <trkpt lat="46.88966" lon="-1.92857">
        <ele>11</ele>
        <time>2019-10-03T17:46:42Z</time>
      </trkpt>
      <trkpt lat="46.88969" lon="-1.92865">
        <ele>10</ele>
        <time>2019-10-03T17:46:43Z</time>
      </trkpt>
      <trkpt lat="46.88972" lon="-1.92874">
        <ele>10</ele>
        <time>2019-10-03T17:46:44Z</time>
      </trkpt>
      <trkpt lat="46.88975" lon="-1.92882">
        <ele>10</ele>
        <time>2019-10-03T17:46:45Z</time>
      </trkpt>
      <trkpt lat="46.88979" lon="-1.9289">
        <ele>10</ele>
        <time>2019-10-03T17:46:46Z</time>
      </trkpt>
      <trkpt lat="46.88982" lon="-1.92898">
        <ele>10</ele>
        <time>2019-10-03T17:46:47Z</time>
      </trkpt>
      <trkpt lat="46.88985" lon="-1.92906">
        <ele>10</ele>
        <time>2019-10-03T17:46:48Z</time>
      </trkpt>
      <trkpt lat="46.88989" lon="-1.92914">
        <ele>10</ele>
        <time>2019-10-03T17:46:49Z</time>
      </trkpt>
      <trkpt lat="46.88993" lon="-1.92922">
        <ele>10</ele>
        <time>2019-10-03T17:46:50Z</time>
      </trkpt>
      <trkpt lat="46.88996" lon="-1.9293">
        <ele>10</ele>
        <time>2019-10-03T17:46:51Z</time>
      </trkpt>
      <trkpt lat="46.89" lon="-1.92938">
        <ele>10</ele>
        <time>2019-10-03T17:46:52Z</time>
      </trkpt>
      <trkpt lat="46.89003" lon="-1.92946">
        <ele>10</ele>
        <time>2019-10-03T17:46:53Z</time>
      </trkpt>
      <trkpt lat="46.89006" lon="-1.92954">
        <ele>10</ele>
        <time>2019-10-03T17:46:54Z</time>
      </trkpt>
      <trkpt lat="46.8901" lon="-1.92962">
        <ele>9</ele>
        <time>2019-10-03T17:46:55Z</time>
      </trkpt>
      <trkpt lat="46.89013" lon="-1.9297">
        <ele>9</ele>
        <time>2019-10-03T17:46:56Z</time>
      </trkpt>
      <trkpt lat="46.89016" lon="-1.92978">
        <ele>9</ele>
        <time>2019-10-03T17:46:57Z</time>
      </trkpt>
      <trkpt lat="46.89019" lon="-1.92986">
        <ele>9</ele>
        <time>2019-10-03T17:46:58Z</time>
      </trkpt>
      <trkpt lat="46.89022" lon="-1.92994">
        <ele>9</ele>
        <time>2019-10-03T17:46:59Z</time>
      </trkpt>
      <trkpt lat="46.89026" lon="-1.93002">
        <ele>9</ele>
        <time>2019-10-03T17:47:00Z</time>
      </trkpt>
      <trkpt lat="46.89029" lon="-1.9301">
        <ele>9</ele>
        <time>2019-10-03T17:47:01Z</time>
      </trkpt>
      <trkpt lat="46.89031" lon="-1.93018">
        <ele>9</ele>
        <time>2019-10-03T17:47:02Z</time>
      </trkpt>
      <trkpt lat="46.89034" lon="-1.93026">
        <ele>9</ele>
        <time>2019-10-03T17:47:03Z</time>
      </trkpt>
      <trkpt lat="46.89037" lon="-1.93034">
        <ele>9</ele>
        <time>2019-10-03T17:47:04Z</time>
      </trkpt>
      <trkpt lat="46.89041" lon="-1.93042">
        <ele>9</ele>
        <time>2019-10-03T17:47:05Z</time>
      </trkpt>
      <trkpt lat="46.89044" lon="-1.9305">
        <ele>9</ele>
        <time>2019-10-03T17:47:06Z</time>
      </trkpt>
      <trkpt lat="46.89048" lon="-1.93058">
        <ele>9</ele>
        <time>2019-10-03T17:47:07Z</time>
      </trkpt>
      <trkpt lat="46.89051" lon="-1.93065">
        <ele>9</ele>
        <time>2019-10-03T17:47:08Z</time>
      </trkpt>
      <trkpt lat="46.89055" lon="-1.93073">
        <ele>9</ele>
        <time>2019-10-03T17:47:09Z</time>
      </trkpt>
      <trkpt lat="46.89058" lon="-1.93081">
        <ele>8</ele>
        <time>2019-10-03T17:47:10Z</time>
      </trkpt>
      <trkpt lat="46.89062" lon="-1.93088">
        <ele>8</ele>
        <time>2019-10-03T17:47:11Z</time>
      </trkpt>
      <trkpt lat="46.89066" lon="-1.93096">
        <ele>8</ele>
        <time>2019-10-03T17:47:12Z</time>
      </trkpt>
      <trkpt lat="46.89069" lon="-1.93104">
        <ele>8</ele>
        <time>2019-10-03T17:47:13Z</time>
      </trkpt>
      <trkpt lat="46.89072" lon="-1.93112">
        <ele>8</ele>
        <time>2019-10-03T17:47:14Z</time>
      </trkpt>
      <trkpt lat="46.89076" lon="-1.9312">
        <ele>8</ele>
        <time>2019-10-03T17:47:15Z</time>
      </trkpt>
      <trkpt lat="46.89079" lon="-1.93128">
        <ele>8</ele>
        <time>2019-10-03T17:47:16Z</time>
      </trkpt>
      <trkpt lat="46.89082" lon="-1.93136">
        <ele>8</ele>
        <time>2019-10-03T17:47:17Z</time>
      </trkpt>
      <trkpt lat="46.89084" lon="-1.93144">
        <ele>8</ele>
        <time>2019-10-03T17:47:18Z</time>
      </trkpt>
      <trkpt lat="46.89086" lon="-1.93153">
        <ele>8</ele>
        <time>2019-10-03T17:47:19Z</time>
      </trkpt>
      <trkpt lat="46.89088" lon="-1.93161">
        <ele>8</ele>
        <time>2019-10-03T17:47:20Z</time>
      </trkpt>
      <trkpt lat="46.8909" lon="-1.93169">
        <ele>8</ele>
        <time>2019-10-03T17:47:21Z</time>
      </trkpt>
      <trkpt lat="46.89093" lon="-1.93177">
        <ele>8</ele>
        <time>2019-10-03T17:47:22Z</time>
      </trkpt>
      <trkpt lat="46.89095" lon="-1.93185">
        <ele>8</ele>
        <time>2019-10-03T17:47:23Z</time>
      </trkpt>
      <trkpt lat="46.89098" lon="-1.93193">
        <ele>8</ele>
        <time>2019-10-03T17:47:24Z</time>
      </trkpt>
      <trkpt lat="46.89101" lon="-1.932">
        <ele>8</ele>
        <time>2019-10-03T17:47:25Z</time>
      </trkpt>
      <trkpt lat="46.89104" lon="-1.93207">
        <ele>8</ele>
        <time>2019-10-03T17:47:26Z</time>
      </trkpt>
      <trkpt lat="46.89107" lon="-1.93215">
        <ele>8</ele>
        <time>2019-10-03T17:47:27Z</time>
      </trkpt>
      <trkpt lat="46.89109" lon="-1.93222">
        <ele>8</ele>
        <time>2019-10-03T17:47:28Z</time>
      </trkpt>
      <trkpt lat="46.89112" lon="-1.93229">
        <ele>8</ele>
        <time>2019-10-03T17:47:29Z</time>
      </trkpt>
      <trkpt lat="46.89115" lon="-1.93235">
        <ele>8</ele>
        <time>2019-10-03T17:47:30Z</time>
      </trkpt>
      <trkpt lat="46.89118" lon="-1.93242">
        <ele>8</ele>
        <time>2019-10-03T17:47:31Z</time>
      </trkpt>
      <trkpt lat="46.89121" lon="-1.93248">
        <ele>8</ele>
        <time>2019-10-03T17:47:32Z</time>
      </trkpt>
      <trkpt lat="46.89123" lon="-1.93255">
        <ele>8</ele>
        <time>2019-10-03T17:47:33Z</time>
      </trkpt>
      <trkpt lat="46.89126" lon="-1.93261">
        <ele>8</ele>
        <time>2019-10-03T17:47:34Z</time>
      </trkpt>
      <trkpt lat="46.89128" lon="-1.93268">
        <ele>8</ele>
        <time>2019-10-03T17:47:35Z</time>
      </trkpt>
      <trkpt lat="46.8913" lon="-1.93274">
        <ele>8</ele>
        <time>2019-10-03T17:47:36Z</time>
      </trkpt>
      <trkpt lat="46.89133" lon="-1.9328">
        <ele>8</ele>
        <time>2019-10-03T17:47:37Z</time>
      </trkpt>
      <trkpt lat="46.89136" lon="-1.93287">
        <ele>8</ele>
        <time>2019-10-03T17:47:38Z</time>
      </trkpt>
      <trkpt lat="46.89139" lon="-1.93292">
        <ele>8</ele>
        <time>2019-10-03T17:47:39Z</time>
      </trkpt>
      <trkpt lat="46.89142" lon="-1.93297">
        <ele>8</ele>
        <time>2019-10-03T17:47:40Z</time>
      </trkpt>
      <trkpt lat="46.89146" lon="-1.93301">
        <ele>7</ele>
        <time>2019-10-03T17:47:41Z</time>
      </trkpt>
      <trkpt lat="46.8915" lon="-1.93306">
        <ele>7</ele>
        <time>2019-10-03T17:47:42Z</time>
      </trkpt>
      <trkpt lat="46.89154" lon="-1.93309">
        <ele>7</ele>
        <time>2019-10-03T17:47:43Z</time>
      </trkpt>
      <trkpt lat="46.89159" lon="-1.93308">
        <ele>7</ele>
        <time>2019-10-03T17:47:44Z</time>
      </trkpt>
      <trkpt lat="46.89163" lon="-1.93304">
        <ele>7</ele>
        <time>2019-10-03T17:47:45Z</time>
      </trkpt>
      <trkpt lat="46.89167" lon="-1.93299">
        <ele>7</ele>
        <time>2019-10-03T17:47:46Z</time>
      </trkpt>
      <trkpt lat="46.89171" lon="-1.93294">
        <ele>7</ele>
        <time>2019-10-03T17:47:47Z</time>
      </trkpt>
      <trkpt lat="46.89175" lon="-1.93288">
        <ele>7</ele>
        <time>2019-10-03T17:47:48Z</time>
      </trkpt>
      <trkpt lat="46.89178" lon="-1.93282">
        <ele>7</ele>
        <time>2019-10-03T17:47:49Z</time>
      </trkpt>
      <trkpt lat="46.89182" lon="-1.93277">
        <ele>7</ele>
        <time>2019-10-03T17:47:50Z</time>
      </trkpt>
      <trkpt lat="46.89185" lon="-1.93271">
        <ele>7</ele>
        <time>2019-10-03T17:47:51Z</time>
      </trkpt>
      <trkpt lat="46.89188" lon="-1.93265">
        <ele>7</ele>
        <time>2019-10-03T17:47:52Z</time>
      </trkpt>
      <trkpt lat="46.8919" lon="-1.93258">
        <ele>7</ele>
        <time>2019-10-03T17:47:53Z</time>
      </trkpt>
      <trkpt lat="46.89192" lon="-1.93251">
        <ele>7</ele>
        <time>2019-10-03T17:47:54Z</time>
      </trkpt>
      <trkpt lat="46.89194" lon="-1.93245">
        <ele>7</ele>
        <time>2019-10-03T17:47:55Z</time>
      </trkpt>
      <trkpt lat="46.89198" lon="-1.93234">
        <ele>6</ele>
        <time>2019-10-03T17:47:57Z</time>
      </trkpt>
      <trkpt lat="46.89199" lon="-1.93228">
        <ele>6</ele>
        <time>2019-10-03T17:47:58Z</time>
      </trkpt>
      <trkpt lat="46.89203" lon="-1.93217">
        <ele>6</ele>
        <time>2019-10-03T17:48:00Z</time>
      </trkpt>
      <trkpt lat="46.89208" lon="-1.93205">
        <ele>6</ele>
        <time>2019-10-03T17:48:02Z</time>
      </trkpt>
      <trkpt lat="46.8921" lon="-1.93199">
        <ele>6</ele>
        <time>2019-10-03T17:48:03Z</time>
      </trkpt>
      <trkpt lat="46.89214" lon="-1.93189">
        <ele>6</ele>
        <time>2019-10-03T17:48:05Z</time>
      </trkpt>
      <trkpt lat="46.89217" lon="-1.93184">
        <ele>6</ele>
        <time>2019-10-03T17:48:06Z</time>
      </trkpt>
      <trkpt lat="46.8922" lon="-1.93173">
        <ele>6</ele>
        <time>2019-10-03T17:48:08Z</time>
      </trkpt>
      <trkpt lat="46.89225" lon="-1.93165">
        <ele>6</ele>
        <time>2019-10-03T17:48:10Z</time>
      </trkpt>
      <trkpt lat="46.89228" lon="-1.93154">
        <ele>5</ele>
        <time>2019-10-03T17:48:12Z</time>
      </trkpt>
      <trkpt lat="46.89232" lon="-1.93145">
        <ele>5</ele>
        <time>2019-10-03T17:48:14Z</time>
      </trkpt>
      <trkpt lat="46.89235" lon="-1.93134">
        <ele>5</ele>
        <time>2019-10-03T17:48:16Z</time>
      </trkpt>
      <trkpt lat="46.89237" lon="-1.93127">
        <ele>5</ele>
        <time>2019-10-03T17:48:17Z</time>
      </trkpt>
      <trkpt lat="46.89239" lon="-1.93121">
        <ele>5</ele>
        <time>2019-10-03T17:48:18Z</time>
      </trkpt>
      <trkpt lat="46.89241" lon="-1.93114">
        <ele>6</ele>
        <time>2019-10-03T17:48:19Z</time>
      </trkpt>
      <trkpt lat="46.89242" lon="-1.93108">
        <ele>6</ele>
        <time>2019-10-03T17:48:20Z</time>
      </trkpt>
      <trkpt lat="46.89244" lon="-1.93101">
        <ele>6</ele>
        <time>2019-10-03T17:48:21Z</time>
      </trkpt>
      <trkpt lat="46.89246" lon="-1.93094">
        <ele>6</ele>
        <time>2019-10-03T17:48:22Z</time>
      </trkpt>
      <trkpt lat="46.89248" lon="-1.93087">
        <ele>6</ele>
        <time>2019-10-03T17:48:23Z</time>
      </trkpt>
      <trkpt lat="46.8925" lon="-1.93075">
        <ele>6</ele>
        <time>2019-10-03T17:48:25Z</time>
      </trkpt>
      <trkpt lat="46.89253" lon="-1.93063">
        <ele>6</ele>
        <time>2019-10-03T17:48:27Z</time>
      </trkpt>
      <trkpt lat="46.89255" lon="-1.9305">
        <ele>6</ele>
        <time>2019-10-03T17:48:29Z</time>
      </trkpt>
      <trkpt lat="46.89257" lon="-1.93038">
        <ele>6</ele>
        <time>2019-10-03T17:48:31Z</time>
      </trkpt>
      <trkpt lat="46.8926" lon="-1.93027">
        <ele>6</ele>
        <time>2019-10-03T17:48:33Z</time>
      </trkpt>
      <trkpt lat="46.89262" lon="-1.93017">
        <ele>6</ele>
        <time>2019-10-03T17:48:35Z</time>
      </trkpt>
      <trkpt lat="46.89265" lon="-1.93007">
        <ele>6</ele>
        <time>2019-10-03T17:48:37Z</time>
      </trkpt>
      <trkpt lat="46.89267" lon="-1.92995">
        <ele>6</ele>
        <time>2019-10-03T17:48:39Z</time>
      </trkpt>
      <trkpt lat="46.8927" lon="-1.92986">
        <ele>6</ele>
        <time>2019-10-03T17:48:41Z</time>
      </trkpt>
      <trkpt lat="46.89273" lon="-1.92976">
        <ele>6</ele>
        <time>2019-10-03T17:48:43Z</time>
      </trkpt>
      <trkpt lat="46.89276" lon="-1.92966">
        <ele>6</ele>
        <time>2019-10-03T17:48:45Z</time>
      </trkpt>
      <trkpt lat="46.89278" lon="-1.92953">
        <ele>6</ele>
        <time>2019-10-03T17:48:47Z</time>
      </trkpt>
      <trkpt lat="46.89279" lon="-1.92945">
        <ele>6</ele>
        <time>2019-10-03T17:48:48Z</time>
      </trkpt>
      <trkpt lat="46.89282" lon="-1.92932">
        <ele>6</ele>
        <time>2019-10-03T17:48:50Z</time>
      </trkpt>
      <trkpt lat="46.89284" lon="-1.92926">
        <ele>6</ele>
        <time>2019-10-03T17:48:51Z</time>
      </trkpt>
      <trkpt lat="46.8929" lon="-1.9292">
        <ele>6</ele>
        <time>2019-10-03T17:48:53Z</time>
      </trkpt>
      <trkpt lat="46.89298" lon="-1.92918">
        <ele>6</ele>
        <time>2019-10-03T17:48:55Z</time>
      </trkpt>
      <trkpt lat="46.89306" lon="-1.92916">
        <ele>6</ele>
        <time>2019-10-03T17:48:57Z</time>
      </trkpt>
      <trkpt lat="46.89314" lon="-1.92911">
        <ele>6</ele>
        <time>2019-10-03T17:48:59Z</time>
      </trkpt>
      <trkpt lat="46.89321" lon="-1.9291">
        <ele>6</ele>
        <time>2019-10-03T17:49:01Z</time>
      </trkpt>
      <trkpt lat="46.8933" lon="-1.92912">
        <ele>6</ele>
        <time>2019-10-03T17:49:03Z</time>
      </trkpt>
      <trkpt lat="46.89339" lon="-1.92911">
        <ele>6</ele>
        <time>2019-10-03T17:49:05Z</time>
      </trkpt>
      <trkpt lat="46.89348" lon="-1.92909">
        <ele>6</ele>
        <time>2019-10-03T17:49:07Z</time>
      </trkpt>
      <trkpt lat="46.89354" lon="-1.92908">
        <ele>6</ele>
        <time>2019-10-03T17:49:08Z</time>
      </trkpt>
      <trkpt lat="46.89359" lon="-1.92907">
        <ele>6</ele>
        <time>2019-10-03T17:49:09Z</time>
      </trkpt>
      <trkpt lat="46.89363" lon="-1.92906">
        <ele>6</ele>
        <time>2019-10-03T17:49:10Z</time>
      </trkpt>
      <trkpt lat="46.89368" lon="-1.92905">
        <ele>6</ele>
        <time>2019-10-03T17:49:11Z</time>
      </trkpt>
      <trkpt lat="46.89372" lon="-1.92904">
        <ele>6</ele>
        <time>2019-10-03T17:49:12Z</time>
      </trkpt>
      <trkpt lat="46.89376" lon="-1.92903">
        <ele>6</ele>
        <time>2019-10-03T17:49:13Z</time>
      </trkpt>
      <trkpt lat="46.89382" lon="-1.92902">
        <ele>6</ele>
        <time>2019-10-03T17:49:14Z</time>
      </trkpt>
      <trkpt lat="46.89387" lon="-1.92901">
        <ele>6</ele>
        <time>2019-10-03T17:49:15Z</time>
      </trkpt>
      <trkpt lat="46.89392" lon="-1.929">
        <ele>6</ele>
        <time>2019-10-03T17:49:16Z</time>
      </trkpt>
      <trkpt lat="46.89397" lon="-1.92899">
        <ele>6</ele>
        <time>2019-10-03T17:49:17Z</time>
      </trkpt>
      <trkpt lat="46.89401" lon="-1.92898">
        <ele>6</ele>
        <time>2019-10-03T17:49:18Z</time>
      </trkpt>
      <trkpt lat="46.89411" lon="-1.92896">
        <ele>6</ele>
        <time>2019-10-03T17:49:20Z</time>
      </trkpt>
      <trkpt lat="46.89416" lon="-1.92896">
        <ele>6</ele>
        <time>2019-10-03T17:49:21Z</time>
      </trkpt>
      <trkpt lat="46.8942" lon="-1.92895">
        <ele>6</ele>
        <time>2019-10-03T17:49:22Z</time>
      </trkpt>
      <trkpt lat="46.89425" lon="-1.92894">
        <ele>6</ele>
        <time>2019-10-03T17:49:23Z</time>
      </trkpt>
      <trkpt lat="46.8943" lon="-1.92893">
        <ele>6</ele>
        <time>2019-10-03T17:49:24Z</time>
      </trkpt>
      <trkpt lat="46.89439" lon="-1.92892">
        <ele>6</ele>
        <time>2019-10-03T17:49:26Z</time>
      </trkpt>
      <trkpt lat="46.89444" lon="-1.92891">
        <ele>6</ele>
        <time>2019-10-03T17:49:27Z</time>
      </trkpt>
      <trkpt lat="46.89452" lon="-1.92888">
        <ele>6</ele>
        <time>2019-10-03T17:49:29Z</time>
      </trkpt>
      <trkpt lat="46.8946" lon="-1.92884">
        <ele>6</ele>
        <time>2019-10-03T17:49:31Z</time>
      </trkpt>
      <trkpt lat="46.89468" lon="-1.92881">
        <ele>7</ele>
        <time>2019-10-03T17:49:33Z</time>
      </trkpt>
      <trkpt lat="46.89474" lon="-1.92876">
        <ele>7</ele>
        <time>2019-10-03T17:49:35Z</time>
      </trkpt>
      <trkpt lat="46.89481" lon="-1.92874">
        <ele>7</ele>
        <time>2019-10-03T17:49:37Z</time>
      </trkpt>
      <trkpt lat="46.89489" lon="-1.92872">
        <ele>7</ele>
        <time>2019-10-03T17:49:39Z</time>
      </trkpt>
      <trkpt lat="46.89497" lon="-1.92875">
        <ele>6</ele>
        <time>2019-10-03T17:49:41Z</time>
      </trkpt>
      <trkpt lat="46.89503" lon="-1.92876">
        <ele>6</ele>
        <time>2019-10-03T17:49:42Z</time>
      </trkpt>
      <trkpt lat="46.89508" lon="-1.92876">
        <ele>6</ele>
        <time>2019-10-03T17:49:43Z</time>
      </trkpt>
      <trkpt lat="46.89515" lon="-1.92878">
        <ele>6</ele>
        <time>2019-10-03T17:49:45Z</time>
      </trkpt>
      <trkpt lat="46.89522" lon="-1.92881">
        <ele>6</ele>
        <time>2019-10-03T17:49:47Z</time>
      </trkpt>
      <trkpt lat="46.89526" lon="-1.92883">
        <ele>6</ele>
        <time>2019-10-03T17:49:48Z</time>
      </trkpt>
      <trkpt lat="46.89531" lon="-1.92884">
        <ele>6</ele>
        <time>2019-10-03T17:49:49Z</time>
      </trkpt>
      <trkpt lat="46.89538" lon="-1.92882">
        <ele>6</ele>
        <time>2019-10-03T17:49:51Z</time>
      </trkpt>
      <trkpt lat="46.89543" lon="-1.92873">
        <ele>6</ele>
        <time>2019-10-03T17:49:53Z</time>
      </trkpt>
      <trkpt lat="46.89545" lon="-1.92867">
        <ele>6</ele>
        <time>2019-10-03T17:49:54Z</time>
      </trkpt>
      <trkpt lat="46.89547" lon="-1.9286">
        <ele>6</ele>
        <time>2019-10-03T17:49:55Z</time>
      </trkpt>
      <trkpt lat="46.89548" lon="-1.92854">
        <ele>6</ele>
        <time>2019-10-03T17:49:56Z</time>
      </trkpt>
      <trkpt lat="46.89549" lon="-1.92847">
        <ele>7</ele>
        <time>2019-10-03T17:49:57Z</time>
      </trkpt>
      <trkpt lat="46.89551" lon="-1.92841">
        <ele>7</ele>
        <time>2019-10-03T17:49:58Z</time>
      </trkpt>
      <trkpt lat="46.89554" lon="-1.9283">
        <ele>7</ele>
        <time>2019-10-03T17:50:00Z</time>
      </trkpt>
      <trkpt lat="46.8956" lon="-1.9282">
        <ele>7</ele>
        <time>2019-10-03T17:50:02Z</time>
      </trkpt>
      <trkpt lat="46.89564" lon="-1.92819">
        <ele>7</ele>
        <time>2019-10-03T17:50:03Z</time>
      </trkpt>
      <trkpt lat="46.89572" lon="-1.92817">
        <ele>7</ele>
        <time>2019-10-03T17:50:05Z</time>
      </trkpt>
      <trkpt lat="46.89581" lon="-1.92815">
        <ele>7</ele>
        <time>2019-10-03T17:50:07Z</time>
      </trkpt>
      <trkpt lat="46.89586" lon="-1.92814">
        <ele>7</ele>
        <time>2019-10-03T17:50:08Z</time>
      </trkpt>
      <trkpt lat="46.89591" lon="-1.92814">
        <ele>7</ele>
        <time>2019-10-03T17:50:09Z</time>
      </trkpt>
      <trkpt lat="46.89595" lon="-1.92813">
        <ele>7</ele>
        <time>2019-10-03T17:50:10Z</time>
      </trkpt>
      <trkpt lat="46.896" lon="-1.92813">
        <ele>7</ele>
        <time>2019-10-03T17:50:11Z</time>
      </trkpt>
      <trkpt lat="46.89606" lon="-1.92813">
        <ele>7</ele>
        <time>2019-10-03T17:50:12Z</time>
      </trkpt>
      <trkpt lat="46.89613" lon="-1.92811">
        <ele>7</ele>
        <time>2019-10-03T17:50:14Z</time>
      </trkpt>
      <trkpt lat="46.8962" lon="-1.9281">
        <ele>7</ele>
        <time>2019-10-03T17:50:16Z</time>
      </trkpt>
      <trkpt lat="46.89626" lon="-1.92807">
        <ele>7</ele>
        <time>2019-10-03T17:50:18Z</time>
      </trkpt>
      <trkpt lat="46.89635" lon="-1.92805">
        <ele>7</ele>
        <time>2019-10-03T17:50:20Z</time>
      </trkpt>
      <trkpt lat="46.89642" lon="-1.92802">
        <ele>7</ele>
        <time>2019-10-03T17:50:22Z</time>
      </trkpt>
      <trkpt lat="46.89649" lon="-1.92801">
        <ele>7</ele>
        <time>2019-10-03T17:50:24Z</time>
      </trkpt>
      <trkpt lat="46.89656" lon="-1.928">
        <ele>7</ele>
        <time>2019-10-03T17:50:26Z</time>
      </trkpt>
      <trkpt lat="46.89663" lon="-1.928">
        <ele>7</ele>
        <time>2019-10-03T17:50:28Z</time>
      </trkpt>
      <trkpt lat="46.89671" lon="-1.92798">
        <ele>7</ele>
        <time>2019-10-03T17:50:30Z</time>
      </trkpt>
      <trkpt lat="46.89679" lon="-1.92797">
        <ele>7</ele>
        <time>2019-10-03T17:50:32Z</time>
      </trkpt>
      <trkpt lat="46.89686" lon="-1.92796">
        <ele>7</ele>
        <time>2019-10-03T17:50:34Z</time>
      </trkpt>
      <trkpt lat="46.89692" lon="-1.92794">
        <ele>7</ele>
        <time>2019-10-03T17:50:36Z</time>
      </trkpt>
      <trkpt lat="46.89697" lon="-1.92792">
        <ele>7</ele>
        <time>2019-10-03T17:50:38Z</time>
      </trkpt>
      <trkpt lat="46.89703" lon="-1.9279">
        <ele>7</ele>
        <time>2019-10-03T17:50:40Z</time>
      </trkpt>
      <trkpt lat="46.89708" lon="-1.92789">
        <ele>7</ele>
        <time>2019-10-03T17:50:42Z</time>
      </trkpt>
      <trkpt lat="46.89713" lon="-1.92788">
        <ele>7</ele>
        <time>2019-10-03T17:50:44Z</time>
      </trkpt>
      <trkpt lat="46.89719" lon="-1.92786">
        <ele>7</ele>
        <time>2019-10-03T17:50:46Z</time>
      </trkpt>
      <trkpt lat="46.89725" lon="-1.92784">
        <ele>7</ele>
        <time>2019-10-03T17:50:48Z</time>
      </trkpt>
      <trkpt lat="46.89733" lon="-1.92783">
        <ele>7</ele>
        <time>2019-10-03T17:50:50Z</time>
      </trkpt>
      <trkpt lat="46.89737" lon="-1.92783">
        <ele>7</ele>
        <time>2019-10-03T17:50:51Z</time>
      </trkpt>
      <trkpt lat="46.89744" lon="-1.92781">
        <ele>8</ele>
        <time>2019-10-03T17:50:53Z</time>
      </trkpt>
      <trkpt lat="46.89752" lon="-1.9278">
        <ele>8</ele>
        <time>2019-10-03T17:50:55Z</time>
      </trkpt>
      <trkpt lat="46.89761" lon="-1.92779">
        <ele>8</ele>
        <time>2019-10-03T17:50:57Z</time>
      </trkpt>
      <trkpt lat="46.89767" lon="-1.9278">
        <ele>8</ele>
        <time>2019-10-03T17:50:58Z</time>
      </trkpt>
      <trkpt lat="46.89772" lon="-1.9278">
        <ele>8</ele>
        <time>2019-10-03T17:50:59Z</time>
      </trkpt>
      <trkpt lat="46.89778" lon="-1.92781">
        <ele>8</ele>
        <time>2019-10-03T17:51:00Z</time>
      </trkpt>
      <trkpt lat="46.89785" lon="-1.9278">
        <ele>8</ele>
        <time>2019-10-03T17:51:02Z</time>
      </trkpt>
      <trkpt lat="46.89788" lon="-1.92785">
        <ele>8</ele>
        <time>2019-10-03T17:51:05Z</time>
      </trkpt>
      <trkpt lat="46.89789" lon="-1.92792">
        <ele>8</ele>
        <time>2019-10-03T17:51:07Z</time>
      </trkpt>
      <trkpt lat="46.89789" lon="-1.92802">
        <ele>8</ele>
        <time>2019-10-03T17:51:09Z</time>
      </trkpt>
      <trkpt lat="46.89788" lon="-1.92814">
        <ele>8</ele>
        <time>2019-10-03T17:51:11Z</time>
      </trkpt>
      <trkpt lat="46.89786" lon="-1.9282">
        <ele>8</ele>
        <time>2019-10-03T17:51:12Z</time>
      </trkpt>
      <trkpt lat="46.89785" lon="-1.92832">
        <ele>8</ele>
        <time>2019-10-03T17:51:14Z</time>
      </trkpt>
      <trkpt lat="46.89784" lon="-1.92839">
        <ele>9</ele>
        <time>2019-10-03T17:51:15Z</time>
      </trkpt>
      <trkpt lat="46.89782" lon="-1.92846">
        <ele>9</ele>
        <time>2019-10-03T17:51:16Z</time>
      </trkpt>
      <trkpt lat="46.89781" lon="-1.92852">
        <ele>9</ele>
        <time>2019-10-03T17:51:17Z</time>
      </trkpt>
      <trkpt lat="46.8978" lon="-1.92866">
        <ele>9</ele>
        <time>2019-10-03T17:51:19Z</time>
      </trkpt>
      <trkpt lat="46.89779" lon="-1.92873">
        <ele>9</ele>
        <time>2019-10-03T17:51:20Z</time>
      </trkpt>
      <trkpt lat="46.89778" lon="-1.9288">
        <ele>9</ele>
        <time>2019-10-03T17:51:21Z</time>
      </trkpt>
      <trkpt lat="46.89777" lon="-1.92886">
        <ele>9</ele>
        <time>2019-10-03T17:51:22Z</time>
      </trkpt>
      <trkpt lat="46.89776" lon="-1.92893">
        <ele>10</ele>
        <time>2019-10-03T17:51:23Z</time>
      </trkpt>
      <trkpt lat="46.89775" lon="-1.929">
        <ele>10</ele>
        <time>2019-10-03T17:51:24Z</time>
      </trkpt>
      <trkpt lat="46.89774" lon="-1.92907">
        <ele>10</ele>
        <time>2019-10-03T17:51:25Z</time>
      </trkpt>
      <trkpt lat="46.89772" lon="-1.92919">
        <ele>10</ele>
        <time>2019-10-03T17:51:27Z</time>
      </trkpt>
      <trkpt lat="46.89772" lon="-1.92927">
        <ele>10</ele>
        <time>2019-10-03T17:51:28Z</time>
      </trkpt>
      <trkpt lat="46.89771" lon="-1.92933">
        <ele>10</ele>
        <time>2019-10-03T17:51:29Z</time>
      </trkpt>
      <trkpt lat="46.8977" lon="-1.9294">
        <ele>10</ele>
        <time>2019-10-03T17:51:30Z</time>
      </trkpt>
      <trkpt lat="46.89769" lon="-1.92947">
        <ele>10</ele>
        <time>2019-10-03T17:51:31Z</time>
      </trkpt>
      <trkpt lat="46.89767" lon="-1.92955">
        <ele>10</ele>
        <time>2019-10-03T17:51:32Z</time>
      </trkpt>
      <trkpt lat="46.89767" lon="-1.92961">
        <ele>10</ele>
        <time>2019-10-03T17:51:33Z</time>
      </trkpt>
      <trkpt lat="46.89765" lon="-1.92969">
        <ele>10</ele>
        <time>2019-10-03T17:51:34Z</time>
      </trkpt>
      <trkpt lat="46.89764" lon="-1.92976">
        <ele>10</ele>
        <time>2019-10-03T17:51:35Z</time>
      </trkpt>
      <trkpt lat="46.89763" lon="-1.92983">
        <ele>10</ele>
        <time>2019-10-03T17:51:36Z</time>
      </trkpt>
      <trkpt lat="46.89761" lon="-1.9299">
        <ele>10</ele>
        <time>2019-10-03T17:51:37Z</time>
      </trkpt>
      <trkpt lat="46.8976" lon="-1.92997">
        <ele>10</ele>
        <time>2019-10-03T17:51:38Z</time>
      </trkpt>
      <trkpt lat="46.89759" lon="-1.93004">
        <ele>10</ele>
        <time>2019-10-03T17:51:39Z</time>
      </trkpt>
      <trkpt lat="46.89758" lon="-1.93012">
        <ele>10</ele>
        <time>2019-10-03T17:51:40Z</time>
      </trkpt>
      <trkpt lat="46.89758" lon="-1.93018">
        <ele>10</ele>
        <time>2019-10-03T17:51:41Z</time>
      </trkpt>
      <trkpt lat="46.89756" lon="-1.93025">
        <ele>10</ele>
        <time>2019-10-03T17:51:42Z</time>
      </trkpt>
      <trkpt lat="46.89755" lon="-1.93032">
        <ele>10</ele>
        <time>2019-10-03T17:51:43Z</time>
      </trkpt>
      <trkpt lat="46.89754" lon="-1.93039">
        <ele>10</ele>
        <time>2019-10-03T17:51:44Z</time>
      </trkpt>
      <trkpt lat="46.89753" lon="-1.93046">
        <ele>10</ele>
        <time>2019-10-03T17:51:45Z</time>
      </trkpt>
      <trkpt lat="46.89751" lon="-1.93053">
        <ele>10</ele>
        <time>2019-10-03T17:51:46Z</time>
      </trkpt>
      <trkpt lat="46.89751" lon="-1.9306">
        <ele>10</ele>
        <time>2019-10-03T17:51:47Z</time>
      </trkpt>
      <trkpt lat="46.8975" lon="-1.93067">
        <ele>10</ele>
        <time>2019-10-03T17:51:48Z</time>
      </trkpt>
      <trkpt lat="46.89748" lon="-1.93074">
        <ele>10</ele>
        <time>2019-10-03T17:51:49Z</time>
      </trkpt>
      <trkpt lat="46.89747" lon="-1.93081">
        <ele>10</ele>
        <time>2019-10-03T17:51:50Z</time>
      </trkpt>
      <trkpt lat="46.89746" lon="-1.93089">
        <ele>10</ele>
        <time>2019-10-03T17:51:51Z</time>
      </trkpt>
      <trkpt lat="46.89744" lon="-1.93096">
        <ele>10</ele>
        <time>2019-10-03T17:51:52Z</time>
      </trkpt>
      <trkpt lat="46.89743" lon="-1.93103">
        <ele>10</ele>
        <time>2019-10-03T17:51:53Z</time>
      </trkpt>
      <trkpt lat="46.8974" lon="-1.93115">
        <ele>10</ele>
        <time>2019-10-03T17:51:55Z</time>
      </trkpt>
      <trkpt lat="46.89739" lon="-1.93122">
        <ele>10</ele>
        <time>2019-10-03T17:51:56Z</time>
      </trkpt>
      <trkpt lat="46.89737" lon="-1.93135">
        <ele>10</ele>
        <time>2019-10-03T17:51:58Z</time>
      </trkpt>
      <trkpt lat="46.89736" lon="-1.93142">
        <ele>10</ele>
        <time>2019-10-03T17:51:59Z</time>
      </trkpt>
      <trkpt lat="46.89735" lon="-1.93149">
        <ele>10</ele>
        <time>2019-10-03T17:52:00Z</time>
      </trkpt>
      <trkpt lat="46.89734" lon="-1.93155">
        <ele>10</ele>
        <time>2019-10-03T17:52:01Z</time>
      </trkpt>
      <trkpt lat="46.89733" lon="-1.93168">
        <ele>10</ele>
        <time>2019-10-03T17:52:03Z</time>
      </trkpt>
      <trkpt lat="46.89731" lon="-1.93177">
        <ele>10</ele>
        <time>2019-10-03T17:52:05Z</time>
      </trkpt>
      <trkpt lat="46.89732" lon="-1.93184">
        <ele>10</ele>
        <time>2019-10-03T17:52:07Z</time>
      </trkpt>
      <trkpt lat="46.89738" lon="-1.93182">
        <ele>10</ele>
        <time>2019-10-03T17:52:09Z</time>
      </trkpt>
      <trkpt lat="46.89743" lon="-1.93178">
        <ele>10</ele>
        <time>2019-10-03T17:52:11Z</time>
      </trkpt>
      <trkpt lat="46.8975" lon="-1.93173">
        <ele>10</ele>
        <time>2019-10-03T17:52:13Z</time>
      </trkpt>
      <trkpt lat="46.89755" lon="-1.93169">
        <ele>10</ele>
        <time>2019-10-03T17:52:14Z</time>
      </trkpt>
      <trkpt lat="46.89759" lon="-1.93166">
        <ele>11</ele>
        <time>2019-10-03T17:52:15Z</time>
      </trkpt>
      <trkpt lat="46.89763" lon="-1.93164">
        <ele>11</ele>
        <time>2019-10-03T17:52:16Z</time>
      </trkpt>
      <trkpt lat="46.89768" lon="-1.93161">
        <ele>11</ele>
        <time>2019-10-03T17:52:17Z</time>
      </trkpt>
      <trkpt lat="46.89774" lon="-1.93157">
        <ele>11</ele>
        <time>2019-10-03T17:52:19Z</time>
      </trkpt>
      <trkpt lat="46.8978" lon="-1.93153">
        <ele>11</ele>
        <time>2019-10-03T17:52:21Z</time>
      </trkpt>
      <trkpt lat="46.89785" lon="-1.93151">
        <ele>11</ele>
        <time>2019-10-03T17:52:22Z</time>
      </trkpt>
      <trkpt lat="46.8979" lon="-1.93149">
        <ele>11</ele>
        <time>2019-10-03T17:52:23Z</time>
      </trkpt>
      <trkpt lat="46.89798" lon="-1.93144">
        <ele>11</ele>
        <time>2019-10-03T17:52:25Z</time>
      </trkpt>
      <trkpt lat="46.89803" lon="-1.93138">
        <ele>11</ele>
        <time>2019-10-03T17:52:27Z</time>
      </trkpt>
      <trkpt lat="46.89809" lon="-1.9313">
        <ele>10</ele>
        <time>2019-10-03T17:52:29Z</time>
      </trkpt>
      <trkpt lat="46.89813" lon="-1.93126">
        <ele>10</ele>
        <time>2019-10-03T17:52:30Z</time>
      </trkpt>
      <trkpt lat="46.89818" lon="-1.9312">
        <ele>10</ele>
        <time>2019-10-03T17:52:31Z</time>
      </trkpt>
      <trkpt lat="46.89823" lon="-1.93116">
        <ele>10</ele>
        <time>2019-10-03T17:52:32Z</time>
      </trkpt>
      <trkpt lat="46.89828" lon="-1.93112">
        <ele>10</ele>
        <time>2019-10-03T17:52:33Z</time>
      </trkpt>
      <trkpt lat="46.89832" lon="-1.93106">
        <ele>10</ele>
        <time>2019-10-03T17:52:34Z</time>
      </trkpt>
      <trkpt lat="46.89837" lon="-1.93101">
        <ele>10</ele>
        <time>2019-10-03T17:52:35Z</time>
      </trkpt>
      <trkpt lat="46.89842" lon="-1.93093">
        <ele>10</ele>
        <time>2019-10-03T17:52:37Z</time>
      </trkpt>
      <trkpt lat="46.89848" lon="-1.93089">
        <ele>10</ele>
        <time>2019-10-03T17:52:38Z</time>
      </trkpt>
      <trkpt lat="46.89851" lon="-1.93083">
        <ele>10</ele>
        <time>2019-10-03T17:52:39Z</time>
      </trkpt>
      <trkpt lat="46.89858" lon="-1.93077">
        <ele>10</ele>
        <time>2019-10-03T17:52:41Z</time>
      </trkpt>
      <trkpt lat="46.89862" lon="-1.93074">
        <ele>10</ele>
        <time>2019-10-03T17:52:42Z</time>
      </trkpt>
      <trkpt lat="46.89866" lon="-1.9307">
        <ele>10</ele>
        <time>2019-10-03T17:52:43Z</time>
      </trkpt>
      <trkpt lat="46.89872" lon="-1.93065">
        <ele>10</ele>
        <time>2019-10-03T17:52:45Z</time>
      </trkpt>
      <trkpt lat="46.89877" lon="-1.9306">
        <ele>10</ele>
        <time>2019-10-03T17:52:46Z</time>
      </trkpt>
      <trkpt lat="46.89882" lon="-1.93058">
        <ele>10</ele>
        <time>2019-10-03T17:52:47Z</time>
      </trkpt>
      <trkpt lat="46.89889" lon="-1.93054">
        <ele>10</ele>
        <time>2019-10-03T17:52:48Z</time>
      </trkpt>
      <trkpt lat="46.89893" lon="-1.93052">
        <ele>10</ele>
        <time>2019-10-03T17:52:49Z</time>
      </trkpt>
      <trkpt lat="46.89899" lon="-1.93052">
        <ele>10</ele>
        <time>2019-10-03T17:52:50Z</time>
      </trkpt>
      <trkpt lat="46.89905" lon="-1.9305">
        <ele>10</ele>
        <time>2019-10-03T17:52:51Z</time>
      </trkpt>
      <trkpt lat="46.89914" lon="-1.93048">
        <ele>10</ele>
        <time>2019-10-03T17:52:53Z</time>
      </trkpt>
      <trkpt lat="46.89923" lon="-1.93045">
        <ele>10</ele>
        <time>2019-10-03T17:52:55Z</time>
      </trkpt>
      <trkpt lat="46.89934" lon="-1.93042">
        <ele>10</ele>
        <time>2019-10-03T17:52:57Z</time>
      </trkpt>
      <trkpt lat="46.89939" lon="-1.9304">
        <ele>10</ele>
        <time>2019-10-03T17:52:58Z</time>
      </trkpt>
      <trkpt lat="46.89945" lon="-1.9304">
        <ele>10</ele>
        <time>2019-10-03T17:53:00Z</time>
      </trkpt>
      <trkpt lat="46.8995" lon="-1.93039">
        <ele>10</ele>
        <time>2019-10-03T17:53:01Z</time>
      </trkpt>
      <trkpt lat="46.89959" lon="-1.93038">
        <ele>10</ele>
        <time>2019-10-03T17:53:03Z</time>
      </trkpt>
      <trkpt lat="46.89967" lon="-1.93034">
        <ele>10</ele>
        <time>2019-10-03T17:53:05Z</time>
      </trkpt>
      <trkpt lat="46.89973" lon="-1.93032">
        <ele>10</ele>
        <time>2019-10-03T17:53:06Z</time>
      </trkpt>
      <trkpt lat="46.89977" lon="-1.9303">
        <ele>10</ele>
        <time>2019-10-03T17:53:07Z</time>
      </trkpt>
      <trkpt lat="46.89983" lon="-1.9303">
        <ele>10</ele>
        <time>2019-10-03T17:53:08Z</time>
      </trkpt>
      <trkpt lat="46.89988" lon="-1.93029">
        <ele>10</ele>
        <time>2019-10-03T17:53:09Z</time>
      </trkpt>
      <trkpt lat="46.89995" lon="-1.9303">
        <ele>10</ele>
        <time>2019-10-03T17:53:11Z</time>
      </trkpt>
      <trkpt lat="46.9" lon="-1.93029">
        <ele>10</ele>
        <time>2019-10-03T17:53:12Z</time>
      </trkpt>
      <trkpt lat="46.90008" lon="-1.93028">
        <ele>10</ele>
        <time>2019-10-03T17:53:14Z</time>
      </trkpt>
      <trkpt lat="46.90013" lon="-1.93027">
        <ele>10</ele>
        <time>2019-10-03T17:53:15Z</time>
      </trkpt>
      <trkpt lat="46.90019" lon="-1.93027">
        <ele>10</ele>
        <time>2019-10-03T17:53:16Z</time>
      </trkpt>
      <trkpt lat="46.90026" lon="-1.93026">
        <ele>10</ele>
        <time>2019-10-03T17:53:18Z</time>
      </trkpt>
      <trkpt lat="46.90031" lon="-1.93025">
        <ele>10</ele>
        <time>2019-10-03T17:53:19Z</time>
      </trkpt>
      <trkpt lat="46.9004" lon="-1.93024">
        <ele>10</ele>
        <time>2019-10-03T17:53:21Z</time>
      </trkpt>
      <trkpt lat="46.90046" lon="-1.93024">
        <ele>10</ele>
        <time>2019-10-03T17:53:22Z</time>
      </trkpt>
      <trkpt lat="46.90051" lon="-1.93022">
        <ele>10</ele>
        <time>2019-10-03T17:53:23Z</time>
      </trkpt>
      <trkpt lat="46.90057" lon="-1.93022">
        <ele>10</ele>
        <time>2019-10-03T17:53:24Z</time>
      </trkpt>
      <trkpt lat="46.90063" lon="-1.93022">
        <ele>10</ele>
        <time>2019-10-03T17:53:25Z</time>
      </trkpt>
      <trkpt lat="46.90071" lon="-1.93021">
        <ele>10</ele>
        <time>2019-10-03T17:53:26Z</time>
      </trkpt>
      <trkpt lat="46.90076" lon="-1.9302">
        <ele>10</ele>
        <time>2019-10-03T17:53:27Z</time>
      </trkpt>
      <trkpt lat="46.90081" lon="-1.93018">
        <ele>10</ele>
        <time>2019-10-03T17:53:28Z</time>
      </trkpt>
      <trkpt lat="46.90086" lon="-1.93016">
        <ele>10</ele>
        <time>2019-10-03T17:53:29Z</time>
      </trkpt>
      <trkpt lat="46.90094" lon="-1.93012">
        <ele>10</ele>
        <time>2019-10-03T17:53:31Z</time>
      </trkpt>
      <trkpt lat="46.90099" lon="-1.9301">
        <ele>10</ele>
        <time>2019-10-03T17:53:32Z</time>
      </trkpt>
      <trkpt lat="46.90104" lon="-1.93007">
        <ele>10</ele>
        <time>2019-10-03T17:53:33Z</time>
      </trkpt>
      <trkpt lat="46.90109" lon="-1.93004">
        <ele>10</ele>
        <time>2019-10-03T17:53:34Z</time>
      </trkpt>
      <trkpt lat="46.90116" lon="-1.93">
        <ele>10</ele>
        <time>2019-10-03T17:53:36Z</time>
      </trkpt>
      <trkpt lat="46.90123" lon="-1.92996">
        <ele>10</ele>
        <time>2019-10-03T17:53:38Z</time>
      </trkpt>
      <trkpt lat="46.90131" lon="-1.92992">
        <ele>10</ele>
        <time>2019-10-03T17:53:40Z</time>
      </trkpt>
      <trkpt lat="46.90141" lon="-1.92991">
        <ele>10</ele>
        <time>2019-10-03T17:53:42Z</time>
      </trkpt>
      <trkpt lat="46.90146" lon="-1.92991">
        <ele>10</ele>
        <time>2019-10-03T17:53:43Z</time>
      </trkpt>
      <trkpt lat="46.90151" lon="-1.92991">
        <ele>10</ele>
        <time>2019-10-03T17:53:44Z</time>
      </trkpt>
      <trkpt lat="46.90155" lon="-1.92991">
        <ele>10</ele>
        <time>2019-10-03T17:53:45Z</time>
      </trkpt>
      <trkpt lat="46.9016" lon="-1.92992">
        <ele>10</ele>
        <time>2019-10-03T17:53:46Z</time>
      </trkpt>
      <trkpt lat="46.90166" lon="-1.92993">
        <ele>10</ele>
        <time>2019-10-03T17:53:47Z</time>
      </trkpt>
      <trkpt lat="46.90173" lon="-1.92995">
        <ele>10</ele>
        <time>2019-10-03T17:53:48Z</time>
      </trkpt>
      <trkpt lat="46.9018" lon="-1.92996">
        <ele>10</ele>
        <time>2019-10-03T17:53:49Z</time>
      </trkpt>
      <trkpt lat="46.90186" lon="-1.92997">
        <ele>10</ele>
        <time>2019-10-03T17:53:50Z</time>
      </trkpt>
      <trkpt lat="46.90192" lon="-1.92998">
        <ele>10</ele>
        <time>2019-10-03T17:53:51Z</time>
      </trkpt>
      <trkpt lat="46.90199" lon="-1.92999">
        <ele>10</ele>
        <time>2019-10-03T17:53:52Z</time>
      </trkpt>
      <trkpt lat="46.90204" lon="-1.93">
        <ele>10</ele>
        <time>2019-10-03T17:53:53Z</time>
      </trkpt>
      <trkpt lat="46.90209" lon="-1.93001">
        <ele>10</ele>
        <time>2019-10-03T17:53:54Z</time>
      </trkpt>
      <trkpt lat="46.90215" lon="-1.93002">
        <ele>10</ele>
        <time>2019-10-03T17:53:55Z</time>
      </trkpt>
      <trkpt lat="46.9022" lon="-1.93003">
        <ele>10</ele>
        <time>2019-10-03T17:53:56Z</time>
      </trkpt>
      <trkpt lat="46.90225" lon="-1.93003">
        <ele>10</ele>
        <time>2019-10-03T17:53:57Z</time>
      </trkpt>
      <trkpt lat="46.9023" lon="-1.93004">
        <ele>11</ele>
        <time>2019-10-03T17:53:58Z</time>
      </trkpt>
      <trkpt lat="46.90236" lon="-1.93004">
        <ele>11</ele>
        <time>2019-10-03T17:53:59Z</time>
      </trkpt>
      <trkpt lat="46.90241" lon="-1.93005">
        <ele>11</ele>
        <time>2019-10-03T17:54:00Z</time>
      </trkpt>
      <trkpt lat="46.90247" lon="-1.93005">
        <ele>11</ele>
        <time>2019-10-03T17:54:01Z</time>
      </trkpt>
      <trkpt lat="46.90252" lon="-1.93006">
        <ele>11</ele>
        <time>2019-10-03T17:54:02Z</time>
      </trkpt>
      <trkpt lat="46.9026" lon="-1.93008">
        <ele>11</ele>
        <time>2019-10-03T17:54:04Z</time>
      </trkpt>
      <trkpt lat="46.90265" lon="-1.93008">
        <ele>11</ele>
        <time>2019-10-03T17:54:05Z</time>
      </trkpt>
      <trkpt lat="46.90273" lon="-1.93009">
        <ele>11</ele>
        <time>2019-10-03T17:54:07Z</time>
      </trkpt>
      <trkpt lat="46.9028" lon="-1.9301">
        <ele>11</ele>
        <time>2019-10-03T17:54:09Z</time>
      </trkpt>
      <trkpt lat="46.9029" lon="-1.93012">
        <ele>11</ele>
        <time>2019-10-03T17:54:11Z</time>
      </trkpt>
      <trkpt lat="46.90295" lon="-1.93012">
        <ele>11</ele>
        <time>2019-10-03T17:54:12Z</time>
      </trkpt>
      <trkpt lat="46.90303" lon="-1.93014">
        <ele>11</ele>
        <time>2019-10-03T17:54:14Z</time>
      </trkpt>
      <trkpt lat="46.90309" lon="-1.93014">
        <ele>11</ele>
        <time>2019-10-03T17:54:15Z</time>
      </trkpt>
      <trkpt lat="46.90314" lon="-1.93015">
        <ele>11</ele>
        <time>2019-10-03T17:54:16Z</time>
      </trkpt>
      <trkpt lat="46.90318" lon="-1.93016">
        <ele>11</ele>
        <time>2019-10-03T17:54:17Z</time>
      </trkpt>
      <trkpt lat="46.90323" lon="-1.93017">
        <ele>11</ele>
        <time>2019-10-03T17:54:18Z</time>
      </trkpt>
      <trkpt lat="46.9033" lon="-1.93018">
        <ele>11</ele>
        <time>2019-10-03T17:54:20Z</time>
      </trkpt>
      <trkpt lat="46.90338" lon="-1.93021">
        <ele>12</ele>
        <time>2019-10-03T17:54:22Z</time>
      </trkpt>
      <trkpt lat="46.90344" lon="-1.93022">
        <ele>12</ele>
        <time>2019-10-03T17:54:24Z</time>
      </trkpt>
      <trkpt lat="46.9035" lon="-1.93023">
        <ele>12</ele>
        <time>2019-10-03T17:54:26Z</time>
      </trkpt>
      <trkpt lat="46.90358" lon="-1.93024">
        <ele>12</ele>
        <time>2019-10-03T17:54:28Z</time>
      </trkpt>
      <trkpt lat="46.90365" lon="-1.93025">
        <ele>12</ele>
        <time>2019-10-03T17:54:30Z</time>
      </trkpt>
      <trkpt lat="46.90372" lon="-1.93025">
        <ele>12</ele>
        <time>2019-10-03T17:54:32Z</time>
      </trkpt>
      <trkpt lat="46.90377" lon="-1.9303">
        <ele>12</ele>
        <time>2019-10-03T17:54:34Z</time>
      </trkpt>
      <trkpt lat="46.90379" lon="-1.93039">
        <ele>12</ele>
        <time>2019-10-03T17:54:36Z</time>
      </trkpt>
      <trkpt lat="46.90379" lon="-1.93049">
        <ele>12</ele>
        <time>2019-10-03T17:54:38Z</time>
      </trkpt>
      <trkpt lat="46.9038" lon="-1.93061">
        <ele>12</ele>
        <time>2019-10-03T17:54:40Z</time>
      </trkpt>
      <trkpt lat="46.90381" lon="-1.93073">
        <ele>12</ele>
        <time>2019-10-03T17:54:42Z</time>
      </trkpt>
      <trkpt lat="46.90382" lon="-1.93086">
        <ele>12</ele>
        <time>2019-10-03T17:54:44Z</time>
      </trkpt>
      <trkpt lat="46.90382" lon="-1.93099">
        <ele>13</ele>
        <time>2019-10-03T17:54:46Z</time>
      </trkpt>
      <trkpt lat="46.90383" lon="-1.93111">
        <ele>13</ele>
        <time>2019-10-03T17:54:48Z</time>
      </trkpt>
      <trkpt lat="46.90384" lon="-1.93121">
        <ele>13</ele>
        <time>2019-10-03T17:54:50Z</time>
      </trkpt>
      <trkpt lat="46.90384" lon="-1.93134">
        <ele>13</ele>
        <time>2019-10-03T17:54:52Z</time>
      </trkpt>
      <trkpt lat="46.90385" lon="-1.93147">
        <ele>13</ele>
        <time>2019-10-03T17:54:54Z</time>
      </trkpt>
      <trkpt lat="46.90388" lon="-1.93159">
        <ele>13</ele>
        <time>2019-10-03T17:54:56Z</time>
      </trkpt>
      <trkpt lat="46.90392" lon="-1.9317">
        <ele>14</ele>
        <time>2019-10-03T17:54:58Z</time>
      </trkpt>
      <trkpt lat="46.90395" lon="-1.9318">
        <ele>14</ele>
        <time>2019-10-03T17:55:00Z</time>
      </trkpt>
      <trkpt lat="46.90397" lon="-1.93192">
        <ele>14</ele>
        <time>2019-10-03T17:55:02Z</time>
      </trkpt>
      <trkpt lat="46.90398" lon="-1.93199">
        <ele>14</ele>
        <time>2019-10-03T17:55:03Z</time>
      </trkpt>
      <trkpt lat="46.90399" lon="-1.93211">
        <ele>14</ele>
        <time>2019-10-03T17:55:05Z</time>
      </trkpt>
      <trkpt lat="46.90399" lon="-1.93218">
        <ele>14</ele>
        <time>2019-10-03T17:55:06Z</time>
      </trkpt>
      <trkpt lat="46.90398" lon="-1.9323">
        <ele>14</ele>
        <time>2019-10-03T17:55:08Z</time>
      </trkpt>
      <trkpt lat="46.90395" lon="-1.93242">
        <ele>14</ele>
        <time>2019-10-03T17:55:10Z</time>
      </trkpt>
      <trkpt lat="46.90393" lon="-1.93248">
        <ele>14</ele>
        <time>2019-10-03T17:55:11Z</time>
      </trkpt>
      <trkpt lat="46.9039" lon="-1.93254">
        <ele>14</ele>
        <time>2019-10-03T17:55:12Z</time>
      </trkpt>
      <trkpt lat="46.90387" lon="-1.9326">
        <ele>14</ele>
        <time>2019-10-03T17:55:13Z</time>
      </trkpt>
      <trkpt lat="46.90385" lon="-1.93267">
        <ele>14</ele>
        <time>2019-10-03T17:55:14Z</time>
      </trkpt>
      <trkpt lat="46.90383" lon="-1.93274">
        <ele>14</ele>
        <time>2019-10-03T17:55:15Z</time>
      </trkpt>
      <trkpt lat="46.90381" lon="-1.9328">
        <ele>14</ele>
        <time>2019-10-03T17:55:16Z</time>
      </trkpt>
      <trkpt lat="46.9038" lon="-1.93287">
        <ele>14</ele>
        <time>2019-10-03T17:55:17Z</time>
      </trkpt>
      <trkpt lat="46.90379" lon="-1.93294">
        <ele>14</ele>
        <time>2019-10-03T17:55:18Z</time>
      </trkpt>
      <trkpt lat="46.90377" lon="-1.93301">
        <ele>14</ele>
        <time>2019-10-03T17:55:19Z</time>
      </trkpt>
      <trkpt lat="46.90377" lon="-1.93309">
        <ele>14</ele>
        <time>2019-10-03T17:55:20Z</time>
      </trkpt>
      <trkpt lat="46.90377" lon="-1.93316">
        <ele>14</ele>
        <time>2019-10-03T17:55:21Z</time>
      </trkpt>
      <trkpt lat="46.90377" lon="-1.93323">
        <ele>15</ele>
        <time>2019-10-03T17:55:22Z</time>
      </trkpt>
      <trkpt lat="46.90377" lon="-1.9333">
        <ele>15</ele>
        <time>2019-10-03T17:55:23Z</time>
      </trkpt>
      <trkpt lat="46.90377" lon="-1.93338">
        <ele>15</ele>
        <time>2019-10-03T17:55:24Z</time>
      </trkpt>
      <trkpt lat="46.90378" lon="-1.93345">
        <ele>15</ele>
        <time>2019-10-03T17:55:25Z</time>
      </trkpt>
      <trkpt lat="46.90378" lon="-1.93352">
        <ele>15</ele>
        <time>2019-10-03T17:55:26Z</time>
      </trkpt>
      <trkpt lat="46.90379" lon="-1.93359">
        <ele>15</ele>
        <time>2019-10-03T17:55:27Z</time>
      </trkpt>
      <trkpt lat="46.90379" lon="-1.93367">
        <ele>15</ele>
        <time>2019-10-03T17:55:28Z</time>
      </trkpt>
      <trkpt lat="46.9038" lon="-1.93374">
        <ele>15</ele>
        <time>2019-10-03T17:55:29Z</time>
      </trkpt>
      <trkpt lat="46.9038" lon="-1.93381">
        <ele>15</ele>
        <time>2019-10-03T17:55:30Z</time>
      </trkpt>
      <trkpt lat="46.9038" lon="-1.93388">
        <ele>15</ele>
        <time>2019-10-03T17:55:31Z</time>
      </trkpt>
      <trkpt lat="46.9038" lon="-1.93396">
        <ele>15</ele>
        <time>2019-10-03T17:55:32Z</time>
      </trkpt>
      <trkpt lat="46.9038" lon="-1.93403">
        <ele>15</ele>
        <time>2019-10-03T17:55:33Z</time>
      </trkpt>
      <trkpt lat="46.90379" lon="-1.9341">
        <ele>15</ele>
        <time>2019-10-03T17:55:34Z</time>
      </trkpt>
      <trkpt lat="46.90379" lon="-1.93417">
        <ele>15</ele>
        <time>2019-10-03T17:55:35Z</time>
      </trkpt>
      <trkpt lat="46.90379" lon="-1.93425">
        <ele>15</ele>
        <time>2019-10-03T17:55:36Z</time>
      </trkpt>
      <trkpt lat="46.90378" lon="-1.93432">
        <ele>15</ele>
        <time>2019-10-03T17:55:37Z</time>
      </trkpt>
      <trkpt lat="46.90377" lon="-1.9344">
        <ele>15</ele>
        <time>2019-10-03T17:55:38Z</time>
      </trkpt>
      <trkpt lat="46.90377" lon="-1.93447">
        <ele>15</ele>
        <time>2019-10-03T17:55:39Z</time>
      </trkpt>
      <trkpt lat="46.90377" lon="-1.93454">
        <ele>15</ele>
        <time>2019-10-03T17:55:40Z</time>
      </trkpt>
      <trkpt lat="46.90376" lon="-1.93462">
        <ele>15</ele>
        <time>2019-10-03T17:55:41Z</time>
      </trkpt>
      <trkpt lat="46.90376" lon="-1.9347">
        <ele>15</ele>
        <time>2019-10-03T17:55:42Z</time>
      </trkpt>
      <trkpt lat="46.90374" lon="-1.93477">
        <ele>15</ele>
        <time>2019-10-03T17:55:43Z</time>
      </trkpt>
      <trkpt lat="46.90374" lon="-1.93484">
        <ele>15</ele>
        <time>2019-10-03T17:55:44Z</time>
      </trkpt>
      <trkpt lat="46.90373" lon="-1.93492">
        <ele>15</ele>
        <time>2019-10-03T17:55:45Z</time>
      </trkpt>
      <trkpt lat="46.90372" lon="-1.935">
        <ele>15</ele>
        <time>2019-10-03T17:55:46Z</time>
      </trkpt>
      <trkpt lat="46.90371" lon="-1.93508">
        <ele>15</ele>
        <time>2019-10-03T17:55:47Z</time>
      </trkpt>
      <trkpt lat="46.90371" lon="-1.93515">
        <ele>15</ele>
        <time>2019-10-03T17:55:48Z</time>
      </trkpt>
      <trkpt lat="46.90371" lon="-1.93523">
        <ele>15</ele>
        <time>2019-10-03T17:55:49Z</time>
      </trkpt>
      <trkpt lat="46.9037" lon="-1.93531">
        <ele>15</ele>
        <time>2019-10-03T17:55:50Z</time>
      </trkpt>
      <trkpt lat="46.9037" lon="-1.93538">
        <ele>15</ele>
        <time>2019-10-03T17:55:51Z</time>
      </trkpt>
      <trkpt lat="46.9037" lon="-1.93546">
        <ele>15</ele>
        <time>2019-10-03T17:55:52Z</time>
      </trkpt>
      <trkpt lat="46.90371" lon="-1.93554">
        <ele>15</ele>
        <time>2019-10-03T17:55:53Z</time>
      </trkpt>
      <trkpt lat="46.90372" lon="-1.93562">
        <ele>15</ele>
        <time>2019-10-03T17:55:54Z</time>
      </trkpt>
      <trkpt lat="46.90373" lon="-1.9357">
        <ele>15</ele>
        <time>2019-10-03T17:55:55Z</time>
      </trkpt>
      <trkpt lat="46.90376" lon="-1.93576">
        <ele>15</ele>
        <time>2019-10-03T17:55:56Z</time>
      </trkpt>
      <trkpt lat="46.90379" lon="-1.93582">
        <ele>15</ele>
        <time>2019-10-03T17:55:57Z</time>
      </trkpt>
      <trkpt lat="46.90382" lon="-1.93587">
        <ele>15</ele>
        <time>2019-10-03T17:55:58Z</time>
      </trkpt>
      <trkpt lat="46.90386" lon="-1.93591">
        <ele>15</ele>
        <time>2019-10-03T17:55:59Z</time>
      </trkpt>
      <trkpt lat="46.9039" lon="-1.93595">
        <ele>15</ele>
        <time>2019-10-03T17:56:00Z</time>
      </trkpt>
      <trkpt lat="46.90398" lon="-1.936">
        <ele>15</ele>
        <time>2019-10-03T17:56:02Z</time>
      </trkpt>
      <trkpt lat="46.90403" lon="-1.93603">
        <ele>15</ele>
        <time>2019-10-03T17:56:03Z</time>
      </trkpt>
      <trkpt lat="46.90407" lon="-1.93605">
        <ele>15</ele>
        <time>2019-10-03T17:56:04Z</time>
      </trkpt>
      <trkpt lat="46.90411" lon="-1.93608">
        <ele>15</ele>
        <time>2019-10-03T17:56:05Z</time>
      </trkpt>
      <trkpt lat="46.90419" lon="-1.93612">
        <ele>15</ele>
        <time>2019-10-03T17:56:07Z</time>
      </trkpt>
      <trkpt lat="46.90427" lon="-1.93617">
        <ele>15</ele>
        <time>2019-10-03T17:56:09Z</time>
      </trkpt>
      <trkpt lat="46.90431" lon="-1.93621">
        <ele>15</ele>
        <time>2019-10-03T17:56:10Z</time>
      </trkpt>
      <trkpt lat="46.90439" lon="-1.93629">
        <ele>15</ele>
        <time>2019-10-03T17:56:12Z</time>
      </trkpt>
      <trkpt lat="46.90442" lon="-1.93634">
        <ele>15</ele>
        <time>2019-10-03T17:56:13Z</time>
      </trkpt>
      <trkpt lat="46.90444" lon="-1.9364">
        <ele>15</ele>
        <time>2019-10-03T17:56:14Z</time>
      </trkpt>
      <trkpt lat="46.90447" lon="-1.93646">
        <ele>15</ele>
        <time>2019-10-03T17:56:15Z</time>
      </trkpt>
      <trkpt lat="46.90449" lon="-1.93652">
        <ele>15</ele>
        <time>2019-10-03T17:56:16Z</time>
      </trkpt>
      <trkpt lat="46.90451" lon="-1.93658">
        <ele>15</ele>
        <time>2019-10-03T17:56:17Z</time>
      </trkpt>
      <trkpt lat="46.90454" lon="-1.93664">
        <ele>15</ele>
        <time>2019-10-03T17:56:18Z</time>
      </trkpt>
      <trkpt lat="46.90456" lon="-1.93671">
        <ele>15</ele>
        <time>2019-10-03T17:56:19Z</time>
      </trkpt>
      <trkpt lat="46.90458" lon="-1.93677">
        <ele>15</ele>
        <time>2019-10-03T17:56:20Z</time>
      </trkpt>
      <trkpt lat="46.90461" lon="-1.93683">
        <ele>15</ele>
        <time>2019-10-03T17:56:21Z</time>
      </trkpt>
      <trkpt lat="46.90463" lon="-1.93689">
        <ele>15</ele>
        <time>2019-10-03T17:56:22Z</time>
      </trkpt>
      <trkpt lat="46.90465" lon="-1.93695">
        <ele>15</ele>
        <time>2019-10-03T17:56:23Z</time>
      </trkpt>
      <trkpt lat="46.90468" lon="-1.93701">
        <ele>15</ele>
        <time>2019-10-03T17:56:24Z</time>
      </trkpt>
      <trkpt lat="46.9047" lon="-1.93707">
        <ele>15</ele>
        <time>2019-10-03T17:56:25Z</time>
      </trkpt>
      <trkpt lat="46.90473" lon="-1.93712">
        <ele>15</ele>
        <time>2019-10-03T17:56:26Z</time>
      </trkpt>
      <trkpt lat="46.90478" lon="-1.93723">
        <ele>15</ele>
        <time>2019-10-03T17:56:28Z</time>
      </trkpt>
      <trkpt lat="46.90482" lon="-1.93734">
        <ele>15</ele>
        <time>2019-10-03T17:56:30Z</time>
      </trkpt>
      <trkpt lat="46.90485" lon="-1.93744">
        <ele>15</ele>
        <time>2019-10-03T17:56:32Z</time>
      </trkpt>
      <trkpt lat="46.90485" lon="-1.93755">
        <ele>15</ele>
        <time>2019-10-03T17:56:34Z</time>
      </trkpt>
      <trkpt lat="46.90485" lon="-1.93762">
        <ele>15</ele>
        <time>2019-10-03T17:56:35Z</time>
      </trkpt>
      <trkpt lat="46.90486" lon="-1.93768">
        <ele>15</ele>
        <time>2019-10-03T17:56:36Z</time>
      </trkpt>
      <trkpt lat="46.90486" lon="-1.9378">
        <ele>15</ele>
        <time>2019-10-03T17:56:38Z</time>
      </trkpt>
      <trkpt lat="46.90486" lon="-1.93792">
        <ele>15</ele>
        <time>2019-10-03T17:56:40Z</time>
      </trkpt>
      <trkpt lat="46.90485" lon="-1.93803">
        <ele>15</ele>
        <time>2019-10-03T17:56:42Z</time>
      </trkpt>
      <trkpt lat="46.90482" lon="-1.93815">
        <ele>15</ele>
        <time>2019-10-03T17:56:44Z</time>
      </trkpt>
      <trkpt lat="46.90478" lon="-1.93826">
        <ele>15</ele>
        <time>2019-10-03T17:56:46Z</time>
      </trkpt>
      <trkpt lat="46.90475" lon="-1.93833">
        <ele>15</ele>
        <time>2019-10-03T17:56:47Z</time>
      </trkpt>
      <trkpt lat="46.90472" lon="-1.93839">
        <ele>15</ele>
        <time>2019-10-03T17:56:48Z</time>
      </trkpt>
      <trkpt lat="46.90469" lon="-1.93845">
        <ele>15</ele>
        <time>2019-10-03T17:56:49Z</time>
      </trkpt>
      <trkpt lat="46.90466" lon="-1.93853">
        <ele>15</ele>
        <time>2019-10-03T17:56:50Z</time>
      </trkpt>
      <trkpt lat="46.90464" lon="-1.9386">
        <ele>16</ele>
        <time>2019-10-03T17:56:51Z</time>
      </trkpt>
      <trkpt lat="46.90461" lon="-1.93866">
        <ele>16</ele>
        <time>2019-10-03T17:56:52Z</time>
      </trkpt>
      <trkpt lat="46.90459" lon="-1.93873">
        <ele>16</ele>
        <time>2019-10-03T17:56:53Z</time>
      </trkpt>
      <trkpt lat="46.90457" lon="-1.9388">
        <ele>16</ele>
        <time>2019-10-03T17:56:54Z</time>
      </trkpt>
      <trkpt lat="46.90455" lon="-1.93887">
        <ele>16</ele>
        <time>2019-10-03T17:56:55Z</time>
      </trkpt>
      <trkpt lat="46.90452" lon="-1.93894">
        <ele>16</ele>
        <time>2019-10-03T17:56:56Z</time>
      </trkpt>
      <trkpt lat="46.9045" lon="-1.93901">
        <ele>16</ele>
        <time>2019-10-03T17:56:57Z</time>
      </trkpt>
      <trkpt lat="46.90447" lon="-1.93908">
        <ele>16</ele>
        <time>2019-10-03T17:56:58Z</time>
      </trkpt>
      <trkpt lat="46.90444" lon="-1.93916">
        <ele>16</ele>
        <time>2019-10-03T17:56:59Z</time>
      </trkpt>
      <trkpt lat="46.90442" lon="-1.93923">
        <ele>16</ele>
        <time>2019-10-03T17:57:00Z</time>
      </trkpt>
      <trkpt lat="46.90439" lon="-1.9393">
        <ele>16</ele>
        <time>2019-10-03T17:57:01Z</time>
      </trkpt>
      <trkpt lat="46.90437" lon="-1.93937">
        <ele>16</ele>
        <time>2019-10-03T17:57:02Z</time>
      </trkpt>
      <trkpt lat="46.90434" lon="-1.93945">
        <ele>16</ele>
        <time>2019-10-03T17:57:03Z</time>
      </trkpt>
      <trkpt lat="46.90432" lon="-1.93952">
        <ele>16</ele>
        <time>2019-10-03T17:57:04Z</time>
      </trkpt>
      <trkpt lat="46.90429" lon="-1.9396">
        <ele>16</ele>
        <time>2019-10-03T17:57:05Z</time>
      </trkpt>
      <trkpt lat="46.90427" lon="-1.93967">
        <ele>16</ele>
        <time>2019-10-03T17:57:06Z</time>
      </trkpt>
      <trkpt lat="46.90424" lon="-1.93974">
        <ele>16</ele>
        <time>2019-10-03T17:57:07Z</time>
      </trkpt>
      <trkpt lat="46.90422" lon="-1.93981">
        <ele>16</ele>
        <time>2019-10-03T17:57:08Z</time>
      </trkpt>
      <trkpt lat="46.90419" lon="-1.93989">
        <ele>16</ele>
        <time>2019-10-03T17:57:09Z</time>
      </trkpt>
      <trkpt lat="46.90416" lon="-1.93997">
        <ele>16</ele>
        <time>2019-10-03T17:57:10Z</time>
      </trkpt>
      <trkpt lat="46.90414" lon="-1.94004">
        <ele>16</ele>
        <time>2019-10-03T17:57:11Z</time>
      </trkpt>
      <trkpt lat="46.90411" lon="-1.94012">
        <ele>16</ele>
        <time>2019-10-03T17:57:12Z</time>
      </trkpt>
      <trkpt lat="46.90408" lon="-1.9402">
        <ele>16</ele>
        <time>2019-10-03T17:57:13Z</time>
      </trkpt>
      <trkpt lat="46.90405" lon="-1.94027">
        <ele>16</ele>
        <time>2019-10-03T17:57:14Z</time>
      </trkpt>
      <trkpt lat="46.90403" lon="-1.94035">
        <ele>16</ele>
        <time>2019-10-03T17:57:15Z</time>
      </trkpt>
      <trkpt lat="46.904" lon="-1.94043">
        <ele>16</ele>
        <time>2019-10-03T17:57:16Z</time>
      </trkpt>
      <trkpt lat="46.90398" lon="-1.9405">
        <ele>16</ele>
        <time>2019-10-03T17:57:17Z</time>
      </trkpt>
      <trkpt lat="46.90395" lon="-1.94059">
        <ele>16</ele>
        <time>2019-10-03T17:57:18Z</time>
      </trkpt>
      <trkpt lat="46.90392" lon="-1.94068">
        <ele>16</ele>
        <time>2019-10-03T17:57:19Z</time>
      </trkpt>
      <trkpt lat="46.90389" lon="-1.94076">
        <ele>16</ele>
        <time>2019-10-03T17:57:20Z</time>
      </trkpt>
      <trkpt lat="46.90386" lon="-1.94085">
        <ele>16</ele>
        <time>2019-10-03T17:57:21Z</time>
      </trkpt>
      <trkpt lat="46.90383" lon="-1.94094">
        <ele>16</ele>
        <time>2019-10-03T17:57:22Z</time>
      </trkpt>
      <trkpt lat="46.90381" lon="-1.94102">
        <ele>16</ele>
        <time>2019-10-03T17:57:23Z</time>
      </trkpt>
      <trkpt lat="46.90378" lon="-1.9411">
        <ele>16</ele>
        <time>2019-10-03T17:57:24Z</time>
      </trkpt>
      <trkpt lat="46.90375" lon="-1.94118">
        <ele>16</ele>
        <time>2019-10-03T17:57:25Z</time>
      </trkpt>
      <trkpt lat="46.90372" lon="-1.94127">
        <ele>16</ele>
        <time>2019-10-03T17:57:26Z</time>
      </trkpt>
      <trkpt lat="46.90369" lon="-1.94135">
        <ele>16</ele>
        <time>2019-10-03T17:57:27Z</time>
      </trkpt>
      <trkpt lat="46.90365" lon="-1.94144">
        <ele>16</ele>
        <time>2019-10-03T17:57:28Z</time>
      </trkpt>
      <trkpt lat="46.90362" lon="-1.94151">
        <ele>16</ele>
        <time>2019-10-03T17:57:29Z</time>
      </trkpt>
      <trkpt lat="46.90361" lon="-1.94158">
        <ele>16</ele>
        <time>2019-10-03T17:57:30Z</time>
      </trkpt>
      <trkpt lat="46.9036" lon="-1.94166">
        <ele>16</ele>
        <time>2019-10-03T17:57:31Z</time>
      </trkpt>
      <trkpt lat="46.90358" lon="-1.94174">
        <ele>16</ele>
        <time>2019-10-03T17:57:32Z</time>
      </trkpt>
      <trkpt lat="46.90356" lon="-1.94183">
        <ele>16</ele>
        <time>2019-10-03T17:57:33Z</time>
      </trkpt>
      <trkpt lat="46.90355" lon="-1.94192">
        <ele>16</ele>
        <time>2019-10-03T17:57:34Z</time>
      </trkpt>
      <trkpt lat="46.90354" lon="-1.942">
        <ele>16</ele>
        <time>2019-10-03T17:57:35Z</time>
      </trkpt>
      <trkpt lat="46.90352" lon="-1.94209">
        <ele>16</ele>
        <time>2019-10-03T17:57:36Z</time>
      </trkpt>
      <trkpt lat="46.90351" lon="-1.94218">
        <ele>16</ele>
        <time>2019-10-03T17:57:37Z</time>
      </trkpt>
      <trkpt lat="46.9035" lon="-1.94226">
        <ele>16</ele>
        <time>2019-10-03T17:57:38Z</time>
      </trkpt>
      <trkpt lat="46.90348" lon="-1.94234">
        <ele>16</ele>
        <time>2019-10-03T17:57:39Z</time>
      </trkpt>
      <trkpt lat="46.90347" lon="-1.94243">
        <ele>16</ele>
        <time>2019-10-03T17:57:40Z</time>
      </trkpt>
      <trkpt lat="46.90346" lon="-1.94251">
        <ele>16</ele>
        <time>2019-10-03T17:57:41Z</time>
      </trkpt>
      <trkpt lat="46.90345" lon="-1.9426">
        <ele>16</ele>
        <time>2019-10-03T17:57:42Z</time>
      </trkpt>
      <trkpt lat="46.90344" lon="-1.94269">
        <ele>17</ele>
        <time>2019-10-03T17:57:43Z</time>
      </trkpt>
      <trkpt lat="46.90342" lon="-1.94278">
        <ele>17</ele>
        <time>2019-10-03T17:57:44Z</time>
      </trkpt>
      <trkpt lat="46.90341" lon="-1.94286">
        <ele>17</ele>
        <time>2019-10-03T17:57:45Z</time>
      </trkpt>
      <trkpt lat="46.90339" lon="-1.94295">
        <ele>17</ele>
        <time>2019-10-03T17:57:46Z</time>
      </trkpt>
      <trkpt lat="46.90337" lon="-1.94303">
        <ele>17</ele>
        <time>2019-10-03T17:57:47Z</time>
      </trkpt>
      <trkpt lat="46.90336" lon="-1.94312">
        <ele>17</ele>
        <time>2019-10-03T17:57:48Z</time>
      </trkpt>
      <trkpt lat="46.90334" lon="-1.9432">
        <ele>18</ele>
        <time>2019-10-03T17:57:49Z</time>
      </trkpt>
      <trkpt lat="46.90332" lon="-1.94329">
        <ele>18</ele>
        <time>2019-10-03T17:57:50Z</time>
      </trkpt>
      <trkpt lat="46.90331" lon="-1.94337">
        <ele>18</ele>
        <time>2019-10-03T17:57:51Z</time>
      </trkpt>
      <trkpt lat="46.90331" lon="-1.94346">
        <ele>18</ele>
        <time>2019-10-03T17:57:52Z</time>
      </trkpt>
      <trkpt lat="46.90329" lon="-1.94355">
        <ele>18</ele>
        <time>2019-10-03T17:57:53Z</time>
      </trkpt>
      <trkpt lat="46.90329" lon="-1.94364">
        <ele>18</ele>
        <time>2019-10-03T17:57:54Z</time>
      </trkpt>
      <trkpt lat="46.90328" lon="-1.94374">
        <ele>18</ele>
        <time>2019-10-03T17:57:55Z</time>
      </trkpt>
      <trkpt lat="46.90328" lon="-1.94384">
        <ele>18</ele>
        <time>2019-10-03T17:57:56Z</time>
      </trkpt>
      <trkpt lat="46.90328" lon="-1.94392">
        <ele>18</ele>
        <time>2019-10-03T17:57:57Z</time>
      </trkpt>
      <trkpt lat="46.90328" lon="-1.94401">
        <ele>18</ele>
        <time>2019-10-03T17:57:58Z</time>
      </trkpt>
      <trkpt lat="46.90328" lon="-1.94408">
        <ele>18</ele>
        <time>2019-10-03T17:57:59Z</time>
      </trkpt>
      <trkpt lat="46.90328" lon="-1.94417">
        <ele>18</ele>
        <time>2019-10-03T17:58:00Z</time>
      </trkpt>
      <trkpt lat="46.90328" lon="-1.94425">
        <ele>18</ele>
        <time>2019-10-03T17:58:01Z</time>
      </trkpt>
      <trkpt lat="46.90326" lon="-1.94433">
        <ele>18</ele>
        <time>2019-10-03T17:58:02Z</time>
      </trkpt>
      <trkpt lat="46.90324" lon="-1.94442">
        <ele>18</ele>
        <time>2019-10-03T17:58:03Z</time>
      </trkpt>
      <trkpt lat="46.90322" lon="-1.94449">
        <ele>18</ele>
        <time>2019-10-03T17:58:04Z</time>
      </trkpt>
      <trkpt lat="46.90319" lon="-1.94457">
        <ele>18</ele>
        <time>2019-10-03T17:58:05Z</time>
      </trkpt>
      <trkpt lat="46.90316" lon="-1.94464">
        <ele>18</ele>
        <time>2019-10-03T17:58:06Z</time>
      </trkpt>
      <trkpt lat="46.90312" lon="-1.94471">
        <ele>18</ele>
        <time>2019-10-03T17:58:07Z</time>
      </trkpt>
      <trkpt lat="46.90308" lon="-1.94478">
        <ele>18</ele>
        <time>2019-10-03T17:58:08Z</time>
      </trkpt>
      <trkpt lat="46.90305" lon="-1.94484">
        <ele>18</ele>
        <time>2019-10-03T17:58:09Z</time>
      </trkpt>
      <trkpt lat="46.90301" lon="-1.9449">
        <ele>17</ele>
        <time>2019-10-03T17:58:10Z</time>
      </trkpt>
      <trkpt lat="46.90299" lon="-1.94497">
        <ele>17</ele>
        <time>2019-10-03T17:58:11Z</time>
      </trkpt>
      <trkpt lat="46.90296" lon="-1.94503">
        <ele>17</ele>
        <time>2019-10-03T17:58:12Z</time>
      </trkpt>
      <trkpt lat="46.90294" lon="-1.9451">
        <ele>17</ele>
        <time>2019-10-03T17:58:13Z</time>
      </trkpt>
      <trkpt lat="46.90293" lon="-1.94517">
        <ele>17</ele>
        <time>2019-10-03T17:58:14Z</time>
      </trkpt>
      <trkpt lat="46.90292" lon="-1.94526">
        <ele>17</ele>
        <time>2019-10-03T17:58:15Z</time>
      </trkpt>
      <trkpt lat="46.9029" lon="-1.94535">
        <ele>17</ele>
        <time>2019-10-03T17:58:16Z</time>
      </trkpt>
      <trkpt lat="46.90288" lon="-1.94544">
        <ele>17</ele>
        <time>2019-10-03T17:58:17Z</time>
      </trkpt>
      <trkpt lat="46.90287" lon="-1.94553">
        <ele>17</ele>
        <time>2019-10-03T17:58:18Z</time>
      </trkpt>
      <trkpt lat="46.90286" lon="-1.94562">
        <ele>17</ele>
        <time>2019-10-03T17:58:19Z</time>
      </trkpt>
      <trkpt lat="46.90285" lon="-1.94572">
        <ele>17</ele>
        <time>2019-10-03T17:58:20Z</time>
      </trkpt>
      <trkpt lat="46.90283" lon="-1.9458">
        <ele>17</ele>
        <time>2019-10-03T17:58:21Z</time>
      </trkpt>
      <trkpt lat="46.90282" lon="-1.94589">
        <ele>17</ele>
        <time>2019-10-03T17:58:22Z</time>
      </trkpt>
      <trkpt lat="46.90281" lon="-1.94598">
        <ele>17</ele>
        <time>2019-10-03T17:58:23Z</time>
      </trkpt>
      <trkpt lat="46.90279" lon="-1.94607">
        <ele>17</ele>
        <time>2019-10-03T17:58:24Z</time>
      </trkpt>
      <trkpt lat="46.90278" lon="-1.94616">
        <ele>17</ele>
        <time>2019-10-03T17:58:25Z</time>
      </trkpt>
      <trkpt lat="46.90276" lon="-1.94624">
        <ele>16</ele>
        <time>2019-10-03T17:58:26Z</time>
      </trkpt>
      <trkpt lat="46.90274" lon="-1.94633">
        <ele>16</ele>
        <time>2019-10-03T17:58:27Z</time>
      </trkpt>
      <trkpt lat="46.90271" lon="-1.94642">
        <ele>16</ele>
        <time>2019-10-03T17:58:28Z</time>
      </trkpt>
      <trkpt lat="46.90269" lon="-1.94651">
        <ele>17</ele>
        <time>2019-10-03T17:58:29Z</time>
      </trkpt>
      <trkpt lat="46.90267" lon="-1.9466">
        <ele>17</ele>
        <time>2019-10-03T17:58:30Z</time>
      </trkpt>
      <trkpt lat="46.90263" lon="-1.9467">
        <ele>17</ele>
        <time>2019-10-03T17:58:31Z</time>
      </trkpt>
      <trkpt lat="46.90261" lon="-1.9468">
        <ele>17</ele>
        <time>2019-10-03T17:58:32Z</time>
      </trkpt>
      <trkpt lat="46.90258" lon="-1.9469">
        <ele>16</ele>
        <time>2019-10-03T17:58:33Z</time>
      </trkpt>
      <trkpt lat="46.90256" lon="-1.947">
        <ele>16</ele>
        <time>2019-10-03T17:58:34Z</time>
      </trkpt>
      <trkpt lat="46.90253" lon="-1.9471">
        <ele>16</ele>
        <time>2019-10-03T17:58:35Z</time>
      </trkpt>
      <trkpt lat="46.90251" lon="-1.9472">
        <ele>16</ele>
        <time>2019-10-03T17:58:36Z</time>
      </trkpt>
      <trkpt lat="46.90249" lon="-1.94729">
        <ele>16</ele>
        <time>2019-10-03T17:58:37Z</time>
      </trkpt>
      <trkpt lat="46.90246" lon="-1.94738">
        <ele>16</ele>
        <time>2019-10-03T17:58:38Z</time>
      </trkpt>
      <trkpt lat="46.90244" lon="-1.94748">
        <ele>16</ele>
        <time>2019-10-03T17:58:39Z</time>
      </trkpt>
      <trkpt lat="46.90242" lon="-1.94757">
        <ele>16</ele>
        <time>2019-10-03T17:58:40Z</time>
      </trkpt>
      <trkpt lat="46.90239" lon="-1.94767">
        <ele>16</ele>
        <time>2019-10-03T17:58:41Z</time>
      </trkpt>
      <trkpt lat="46.90236" lon="-1.94776">
        <ele>16</ele>
        <time>2019-10-03T17:58:42Z</time>
      </trkpt>
      <trkpt lat="46.90233" lon="-1.94786">
        <ele>16</ele>
        <time>2019-10-03T17:58:43Z</time>
      </trkpt>
      <trkpt lat="46.90229" lon="-1.94795">
        <ele>16</ele>
        <time>2019-10-03T17:58:44Z</time>
      </trkpt>
      <trkpt lat="46.90226" lon="-1.94803">
        <ele>16</ele>
        <time>2019-10-03T17:58:45Z</time>
      </trkpt>
      <trkpt lat="46.90223" lon="-1.9481">
        <ele>15</ele>
        <time>2019-10-03T17:58:46Z</time>
      </trkpt>
      <trkpt lat="46.9022" lon="-1.94818">
        <ele>15</ele>
        <time>2019-10-03T17:58:47Z</time>
      </trkpt>
      <trkpt lat="46.90216" lon="-1.94826">
        <ele>15</ele>
        <time>2019-10-03T17:58:48Z</time>
      </trkpt>
      <trkpt lat="46.90213" lon="-1.94832">
        <ele>15</ele>
        <time>2019-10-03T17:58:49Z</time>
      </trkpt>
      <trkpt lat="46.9021" lon="-1.94839">
        <ele>15</ele>
        <time>2019-10-03T17:58:50Z</time>
      </trkpt>
      <trkpt lat="46.90205" lon="-1.94846">
        <ele>15</ele>
        <time>2019-10-03T17:58:51Z</time>
      </trkpt>
      <trkpt lat="46.90201" lon="-1.94854">
        <ele>15</ele>
        <time>2019-10-03T17:58:52Z</time>
      </trkpt>
      <trkpt lat="46.90196" lon="-1.94862">
        <ele>15</ele>
        <time>2019-10-03T17:58:53Z</time>
      </trkpt>
      <trkpt lat="46.90191" lon="-1.94869">
        <ele>15</ele>
        <time>2019-10-03T17:58:54Z</time>
      </trkpt>
      <trkpt lat="46.90188" lon="-1.94877">
        <ele>15</ele>
        <time>2019-10-03T17:58:55Z</time>
      </trkpt>
      <trkpt lat="46.90182" lon="-1.94889">
        <ele>15</ele>
        <time>2019-10-03T17:58:57Z</time>
      </trkpt>
      <trkpt lat="46.90178" lon="-1.94896">
        <ele>15</ele>
        <time>2019-10-03T17:58:58Z</time>
      </trkpt>
      <trkpt lat="46.90175" lon="-1.94903">
        <ele>15</ele>
        <time>2019-10-03T17:58:59Z</time>
      </trkpt>
      <trkpt lat="46.90172" lon="-1.9491">
        <ele>15</ele>
        <time>2019-10-03T17:59:00Z</time>
      </trkpt>
      <trkpt lat="46.90169" lon="-1.94916">
        <ele>15</ele>
        <time>2019-10-03T17:59:01Z</time>
      </trkpt>
      <trkpt lat="46.90167" lon="-1.94924">
        <ele>15</ele>
        <time>2019-10-03T17:59:02Z</time>
      </trkpt>
      <trkpt lat="46.9017" lon="-1.94929">
        <ele>15</ele>
        <time>2019-10-03T17:59:05Z</time>
      </trkpt>
      <trkpt lat="46.90174" lon="-1.94926">
        <ele>15</ele>
        <time>2019-10-03T17:59:07Z</time>
      </trkpt>
      <trkpt lat="46.90179" lon="-1.94922">
        <ele>15</ele>
        <time>2019-10-03T17:59:09Z</time>
      </trkpt>
      <trkpt lat="46.90187" lon="-1.94918">
        <ele>15</ele>
        <time>2019-10-03T17:59:11Z</time>
      </trkpt>
      <trkpt lat="46.90195" lon="-1.94915">
        <ele>15</ele>
        <time>2019-10-03T17:59:13Z</time>
      </trkpt>
      <trkpt lat="46.90199" lon="-1.94913">
        <ele>15</ele>
        <time>2019-10-03T17:59:14Z</time>
      </trkpt>
      <trkpt lat="46.90204" lon="-1.9491">
        <ele>15</ele>
        <time>2019-10-03T17:59:15Z</time>
      </trkpt>
      <trkpt lat="46.90208" lon="-1.94907">
        <ele>15</ele>
        <time>2019-10-03T17:59:16Z</time>
      </trkpt>
      <trkpt lat="46.90213" lon="-1.94905">
        <ele>15</ele>
        <time>2019-10-03T17:59:17Z</time>
      </trkpt>
      <trkpt lat="46.90218" lon="-1.94903">
        <ele>15</ele>
        <time>2019-10-03T17:59:18Z</time>
      </trkpt>
      <trkpt lat="46.90222" lon="-1.949">
        <ele>15</ele>
        <time>2019-10-03T17:59:19Z</time>
      </trkpt>
      <trkpt lat="46.90226" lon="-1.94898">
        <ele>15</ele>
        <time>2019-10-03T17:59:20Z</time>
      </trkpt>
      <trkpt lat="46.90231" lon="-1.94895">
        <ele>15</ele>
        <time>2019-10-03T17:59:21Z</time>
      </trkpt>
      <trkpt lat="46.90236" lon="-1.94893">
        <ele>15</ele>
        <time>2019-10-03T17:59:22Z</time>
      </trkpt>
      <trkpt lat="46.90241" lon="-1.94891">
        <ele>15</ele>
        <time>2019-10-03T17:59:23Z</time>
      </trkpt>
      <trkpt lat="46.90245" lon="-1.94888">
        <ele>15</ele>
        <time>2019-10-03T17:59:24Z</time>
      </trkpt>
      <trkpt lat="46.9025" lon="-1.94886">
        <ele>15</ele>
        <time>2019-10-03T17:59:25Z</time>
      </trkpt>
      <trkpt lat="46.90254" lon="-1.94883">
        <ele>15</ele>
        <time>2019-10-03T17:59:26Z</time>
      </trkpt>
      <trkpt lat="46.90259" lon="-1.94881">
        <ele>15</ele>
        <time>2019-10-03T17:59:27Z</time>
      </trkpt>
      <trkpt lat="46.90264" lon="-1.94878">
        <ele>15</ele>
        <time>2019-10-03T17:59:28Z</time>
      </trkpt>
      <trkpt lat="46.90269" lon="-1.94876">
        <ele>15</ele>
        <time>2019-10-03T17:59:29Z</time>
      </trkpt>
      <trkpt lat="46.90273" lon="-1.94874">
        <ele>15</ele>
        <time>2019-10-03T17:59:30Z</time>
      </trkpt>
      <trkpt lat="46.90278" lon="-1.94871">
        <ele>15</ele>
        <time>2019-10-03T17:59:31Z</time>
      </trkpt>
      <trkpt lat="46.90283" lon="-1.94869">
        <ele>15</ele>
        <time>2019-10-03T17:59:32Z</time>
      </trkpt>
      <trkpt lat="46.90288" lon="-1.94867">
        <ele>15</ele>
        <time>2019-10-03T17:59:33Z</time>
      </trkpt>
      <trkpt lat="46.90293" lon="-1.94864">
        <ele>15</ele>
        <time>2019-10-03T17:59:34Z</time>
      </trkpt>
      <trkpt lat="46.90297" lon="-1.94862">
        <ele>15</ele>
        <time>2019-10-03T17:59:35Z</time>
      </trkpt>
      <trkpt lat="46.90302" lon="-1.9486">
        <ele>15</ele>
        <time>2019-10-03T17:59:36Z</time>
      </trkpt>
      <trkpt lat="46.90306" lon="-1.94857">
        <ele>15</ele>
        <time>2019-10-03T17:59:37Z</time>
      </trkpt>
      <trkpt lat="46.9031" lon="-1.94855">
        <ele>15</ele>
        <time>2019-10-03T17:59:38Z</time>
      </trkpt>
      <trkpt lat="46.90315" lon="-1.94853">
        <ele>15</ele>
        <time>2019-10-03T17:59:39Z</time>
      </trkpt>
      <trkpt lat="46.90319" lon="-1.9485">
        <ele>15</ele>
        <time>2019-10-03T17:59:40Z</time>
      </trkpt>
      <trkpt lat="46.90324" lon="-1.94848">
        <ele>15</ele>
        <time>2019-10-03T17:59:41Z</time>
      </trkpt>
      <trkpt lat="46.90328" lon="-1.94846">
        <ele>15</ele>
        <time>2019-10-03T17:59:42Z</time>
      </trkpt>
      <trkpt lat="46.90333" lon="-1.94843">
        <ele>15</ele>
        <time>2019-10-03T17:59:43Z</time>
      </trkpt>
      <trkpt lat="46.90337" lon="-1.94841">
        <ele>15</ele>
        <time>2019-10-03T17:59:44Z</time>
      </trkpt>
      <trkpt lat="46.90342" lon="-1.94839">
        <ele>15</ele>
        <time>2019-10-03T17:59:45Z</time>
      </trkpt>
      <trkpt lat="46.90346" lon="-1.94836">
        <ele>15</ele>
        <time>2019-10-03T17:59:46Z</time>
      </trkpt>
      <trkpt lat="46.9035" lon="-1.94834">
        <ele>15</ele>
        <time>2019-10-03T17:59:47Z</time>
      </trkpt>
      <trkpt lat="46.90355" lon="-1.94832">
        <ele>15</ele>
        <time>2019-10-03T17:59:48Z</time>
      </trkpt>
      <trkpt lat="46.90363" lon="-1.94827">
        <ele>15</ele>
        <time>2019-10-03T17:59:50Z</time>
      </trkpt>
      <trkpt lat="46.90372" lon="-1.94823">
        <ele>15</ele>
        <time>2019-10-03T17:59:52Z</time>
      </trkpt>
      <trkpt lat="46.90376" lon="-1.94821">
        <ele>15</ele>
        <time>2019-10-03T17:59:53Z</time>
      </trkpt>
      <trkpt lat="46.90384" lon="-1.94817">
        <ele>15</ele>
        <time>2019-10-03T17:59:55Z</time>
      </trkpt>
      <trkpt lat="46.90393" lon="-1.94813">
        <ele>15</ele>
        <time>2019-10-03T17:59:57Z</time>
      </trkpt>
      <trkpt lat="46.90401" lon="-1.94809">
        <ele>15</ele>
        <time>2019-10-03T17:59:59Z</time>
      </trkpt>
      <trkpt lat="46.9041" lon="-1.94804">
        <ele>15</ele>
        <time>2019-10-03T18:00:01Z</time>
      </trkpt>
      <trkpt lat="46.90417" lon="-1.948">
        <ele>15</ele>
        <time>2019-10-03T18:00:03Z</time>
      </trkpt>
      <trkpt lat="46.90424" lon="-1.94796">
        <ele>15</ele>
        <time>2019-10-03T18:00:05Z</time>
      </trkpt>
      <trkpt lat="46.90432" lon="-1.94792">
        <ele>15</ele>
        <time>2019-10-03T18:00:07Z</time>
      </trkpt>
      <trkpt lat="46.90439" lon="-1.94788">
        <ele>15</ele>
        <time>2019-10-03T18:00:09Z</time>
      </trkpt>
      <trkpt lat="46.90445" lon="-1.94784">
        <ele>15</ele>
        <time>2019-10-03T18:00:11Z</time>
      </trkpt>
      <trkpt lat="46.90453" lon="-1.9478">
        <ele>15</ele>
        <time>2019-10-03T18:00:13Z</time>
      </trkpt>
      <trkpt lat="46.9046" lon="-1.94776">
        <ele>15</ele>
        <time>2019-10-03T18:00:15Z</time>
      </trkpt>
      <trkpt lat="46.90466" lon="-1.94773">
        <ele>15</ele>
        <time>2019-10-03T18:00:17Z</time>
      </trkpt>
      <trkpt lat="46.90474" lon="-1.9477">
        <ele>15</ele>
        <time>2019-10-03T18:00:19Z</time>
      </trkpt>
      <trkpt lat="46.90481" lon="-1.94765">
        <ele>15</ele>
        <time>2019-10-03T18:00:21Z</time>
      </trkpt>
      <trkpt lat="46.90488" lon="-1.94762">
        <ele>15</ele>
        <time>2019-10-03T18:00:23Z</time>
      </trkpt>
      <trkpt lat="46.90496" lon="-1.94757">
        <ele>15</ele>
        <time>2019-10-03T18:00:25Z</time>
      </trkpt>
      <trkpt lat="46.90504" lon="-1.94753">
        <ele>15</ele>
        <time>2019-10-03T18:00:27Z</time>
      </trkpt>
      <trkpt lat="46.90512" lon="-1.9475">
        <ele>15</ele>
        <time>2019-10-03T18:00:29Z</time>
      </trkpt>
      <trkpt lat="46.9052" lon="-1.94746">
        <ele>15</ele>
        <time>2019-10-03T18:00:31Z</time>
      </trkpt>
      <trkpt lat="46.90527" lon="-1.94742">
        <ele>15</ele>
        <time>2019-10-03T18:00:33Z</time>
      </trkpt>
      <trkpt lat="46.90535" lon="-1.94739">
        <ele>15</ele>
        <time>2019-10-03T18:00:35Z</time>
      </trkpt>
      <trkpt lat="46.90542" lon="-1.94735">
        <ele>15</ele>
        <time>2019-10-03T18:00:37Z</time>
      </trkpt>
      <trkpt lat="46.90549" lon="-1.94731">
        <ele>15</ele>
        <time>2019-10-03T18:00:39Z</time>
      </trkpt>
      <trkpt lat="46.90556" lon="-1.94728">
        <ele>15</ele>
        <time>2019-10-03T18:00:41Z</time>
      </trkpt>
      <trkpt lat="46.90564" lon="-1.94726">
        <ele>15</ele>
        <time>2019-10-03T18:00:43Z</time>
      </trkpt>
      <trkpt lat="46.9057" lon="-1.94722">
        <ele>15</ele>
        <time>2019-10-03T18:00:45Z</time>
      </trkpt>
      <trkpt lat="46.90575" lon="-1.94721">
        <ele>15</ele>
        <time>2019-10-03T18:00:46Z</time>
      </trkpt>
      <trkpt lat="46.9058" lon="-1.9472">
        <ele>15</ele>
        <time>2019-10-03T18:00:47Z</time>
      </trkpt>
      <trkpt lat="46.90585" lon="-1.94719">
        <ele>15</ele>
        <time>2019-10-03T18:00:48Z</time>
      </trkpt>
      <trkpt lat="46.9059" lon="-1.94718">
        <ele>15</ele>
        <time>2019-10-03T18:00:49Z</time>
      </trkpt>
      <trkpt lat="46.90595" lon="-1.94717">
        <ele>15</ele>
        <time>2019-10-03T18:00:50Z</time>
      </trkpt>
      <trkpt lat="46.906" lon="-1.94716">
        <ele>15</ele>
        <time>2019-10-03T18:00:51Z</time>
      </trkpt>
      <trkpt lat="46.90604" lon="-1.94715">
        <ele>15</ele>
        <time>2019-10-03T18:00:52Z</time>
      </trkpt>
      <trkpt lat="46.90609" lon="-1.94715">
        <ele>16</ele>
        <time>2019-10-03T18:00:53Z</time>
      </trkpt>
      <trkpt lat="46.90614" lon="-1.94714">
        <ele>16</ele>
        <time>2019-10-03T18:00:54Z</time>
      </trkpt>
      <trkpt lat="46.90619" lon="-1.94713">
        <ele>16</ele>
        <time>2019-10-03T18:00:55Z</time>
      </trkpt>
      <trkpt lat="46.90624" lon="-1.94712">
        <ele>16</ele>
        <time>2019-10-03T18:00:56Z</time>
      </trkpt>
      <trkpt lat="46.9063" lon="-1.94712">
        <ele>16</ele>
        <time>2019-10-03T18:00:57Z</time>
      </trkpt>
      <trkpt lat="46.90636" lon="-1.94711">
        <ele>16</ele>
        <time>2019-10-03T18:00:58Z</time>
      </trkpt>
      <trkpt lat="46.90641" lon="-1.9471">
        <ele>16</ele>
        <time>2019-10-03T18:00:59Z</time>
      </trkpt>
      <trkpt lat="46.90646" lon="-1.94709">
        <ele>16</ele>
        <time>2019-10-03T18:01:00Z</time>
      </trkpt>
      <trkpt lat="46.90651" lon="-1.94708">
        <ele>16</ele>
        <time>2019-10-03T18:01:01Z</time>
      </trkpt>
      <trkpt lat="46.90656" lon="-1.94707">
        <ele>16</ele>
        <time>2019-10-03T18:01:02Z</time>
      </trkpt>
      <trkpt lat="46.90662" lon="-1.94705">
        <ele>16</ele>
        <time>2019-10-03T18:01:03Z</time>
      </trkpt>
      <trkpt lat="46.90668" lon="-1.94703">
        <ele>16</ele>
        <time>2019-10-03T18:01:04Z</time>
      </trkpt>
      <trkpt lat="46.90673" lon="-1.94701">
        <ele>16</ele>
        <time>2019-10-03T18:01:05Z</time>
      </trkpt>
      <trkpt lat="46.90679" lon="-1.94699">
        <ele>16</ele>
        <time>2019-10-03T18:01:06Z</time>
      </trkpt>
      <trkpt lat="46.90685" lon="-1.94696">
        <ele>16</ele>
        <time>2019-10-03T18:01:07Z</time>
      </trkpt>
      <trkpt lat="46.90691" lon="-1.94695">
        <ele>16</ele>
        <time>2019-10-03T18:01:08Z</time>
      </trkpt>
      <trkpt lat="46.90696" lon="-1.94692">
        <ele>16</ele>
        <time>2019-10-03T18:01:09Z</time>
      </trkpt>
      <trkpt lat="46.90701" lon="-1.94688">
        <ele>16</ele>
        <time>2019-10-03T18:01:10Z</time>
      </trkpt>
      <trkpt lat="46.90707" lon="-1.94685">
        <ele>16</ele>
        <time>2019-10-03T18:01:11Z</time>
      </trkpt>
      <trkpt lat="46.90713" lon="-1.94683">
        <ele>16</ele>
        <time>2019-10-03T18:01:12Z</time>
      </trkpt>
      <trkpt lat="46.90718" lon="-1.9468">
        <ele>16</ele>
        <time>2019-10-03T18:01:13Z</time>
      </trkpt>
      <trkpt lat="46.90724" lon="-1.94678">
        <ele>16</ele>
        <time>2019-10-03T18:01:14Z</time>
      </trkpt>
      <trkpt lat="46.9073" lon="-1.94676">
        <ele>16</ele>
        <time>2019-10-03T18:01:15Z</time>
      </trkpt>
      <trkpt lat="46.90735" lon="-1.94675">
        <ele>16</ele>
        <time>2019-10-03T18:01:16Z</time>
      </trkpt>
      <trkpt lat="46.90741" lon="-1.94675">
        <ele>16</ele>
        <time>2019-10-03T18:01:17Z</time>
      </trkpt>
      <trkpt lat="46.90748" lon="-1.94676">
        <ele>16</ele>
        <time>2019-10-03T18:01:18Z</time>
      </trkpt>
      <trkpt lat="46.90754" lon="-1.94677">
        <ele>16</ele>
        <time>2019-10-03T18:01:19Z</time>
      </trkpt>
      <trkpt lat="46.9076" lon="-1.9468">
        <ele>16</ele>
        <time>2019-10-03T18:01:20Z</time>
      </trkpt>
      <trkpt lat="46.90765" lon="-1.94683">
        <ele>16</ele>
        <time>2019-10-03T18:01:21Z</time>
      </trkpt>
      <trkpt lat="46.90771" lon="-1.94687">
        <ele>16</ele>
        <time>2019-10-03T18:01:22Z</time>
      </trkpt>
      <trkpt lat="46.90777" lon="-1.94691">
        <ele>16</ele>
        <time>2019-10-03T18:01:23Z</time>
      </trkpt>
      <trkpt lat="46.90783" lon="-1.94696">
        <ele>16</ele>
        <time>2019-10-03T18:01:24Z</time>
      </trkpt>
      <trkpt lat="46.90788" lon="-1.947">
        <ele>16</ele>
        <time>2019-10-03T18:01:25Z</time>
      </trkpt>
      <trkpt lat="46.90794" lon="-1.94705">
        <ele>16</ele>
        <time>2019-10-03T18:01:26Z</time>
      </trkpt>
      <trkpt lat="46.908" lon="-1.94709">
        <ele>16</ele>
        <time>2019-10-03T18:01:27Z</time>
      </trkpt>
      <trkpt lat="46.90806" lon="-1.94714">
        <ele>16</ele>
        <time>2019-10-03T18:01:28Z</time>
      </trkpt>
      <trkpt lat="46.90812" lon="-1.94718">
        <ele>16</ele>
        <time>2019-10-03T18:01:29Z</time>
      </trkpt>
      <trkpt lat="46.90817" lon="-1.94722">
        <ele>16</ele>
        <time>2019-10-03T18:01:30Z</time>
      </trkpt>
      <trkpt lat="46.90823" lon="-1.94727">
        <ele>16</ele>
        <time>2019-10-03T18:01:31Z</time>
      </trkpt>
      <trkpt lat="46.90829" lon="-1.94732">
        <ele>16</ele>
        <time>2019-10-03T18:01:32Z</time>
      </trkpt>
      <trkpt lat="46.90834" lon="-1.94736">
        <ele>16</ele>
        <time>2019-10-03T18:01:33Z</time>
      </trkpt>
      <trkpt lat="46.90839" lon="-1.94739">
        <ele>16</ele>
        <time>2019-10-03T18:01:34Z</time>
      </trkpt>
      <trkpt lat="46.90846" lon="-1.94743">
        <ele>16</ele>
        <time>2019-10-03T18:01:35Z</time>
      </trkpt>
      <trkpt lat="46.90851" lon="-1.94748">
        <ele>16</ele>
        <time>2019-10-03T18:01:36Z</time>
      </trkpt>
      <trkpt lat="46.90855" lon="-1.94751">
        <ele>16</ele>
        <time>2019-10-03T18:01:37Z</time>
      </trkpt>
      <trkpt lat="46.90859" lon="-1.94755">
        <ele>16</ele>
        <time>2019-10-03T18:01:38Z</time>
      </trkpt>
      <trkpt lat="46.90862" lon="-1.94761">
        <ele>16</ele>
        <time>2019-10-03T18:01:39Z</time>
      </trkpt>
      <trkpt lat="46.90865" lon="-1.94768">
        <ele>16</ele>
        <time>2019-10-03T18:01:40Z</time>
      </trkpt>
      <trkpt lat="46.90865" lon="-1.94775">
        <ele>16</ele>
        <time>2019-10-03T18:01:41Z</time>
      </trkpt>
      <trkpt lat="46.90863" lon="-1.94787">
        <ele>16</ele>
        <time>2019-10-03T18:01:43Z</time>
      </trkpt>
      <trkpt lat="46.9086" lon="-1.94795">
        <ele>16</ele>
        <time>2019-10-03T18:01:44Z</time>
      </trkpt>
      <trkpt lat="46.90858" lon="-1.94803">
        <ele>17</ele>
        <time>2019-10-03T18:01:45Z</time>
      </trkpt>
      <trkpt lat="46.90856" lon="-1.94812">
        <ele>17</ele>
        <time>2019-10-03T18:01:46Z</time>
      </trkpt>
      <trkpt lat="46.90855" lon="-1.9482">
        <ele>17</ele>
        <time>2019-10-03T18:01:47Z</time>
      </trkpt>
      <trkpt lat="46.90854" lon="-1.94827">
        <ele>17</ele>
        <time>2019-10-03T18:01:48Z</time>
      </trkpt>
      <trkpt lat="46.90853" lon="-1.94835">
        <ele>17</ele>
        <time>2019-10-03T18:01:49Z</time>
      </trkpt>
      <trkpt lat="46.90852" lon="-1.94848">
        <ele>17</ele>
        <time>2019-10-03T18:01:51Z</time>
      </trkpt>
      <trkpt lat="46.9085" lon="-1.94855">
        <ele>17</ele>
        <time>2019-10-03T18:01:52Z</time>
      </trkpt>
      <trkpt lat="46.9085" lon="-1.94863">
        <ele>17</ele>
        <time>2019-10-03T18:01:53Z</time>
      </trkpt>
      <trkpt lat="46.9085" lon="-1.94871">
        <ele>18</ele>
        <time>2019-10-03T18:01:54Z</time>
      </trkpt>
      <trkpt lat="46.9085" lon="-1.94879">
        <ele>18</ele>
        <time>2019-10-03T18:01:55Z</time>
      </trkpt>
      <trkpt lat="46.90849" lon="-1.94886">
        <ele>18</ele>
        <time>2019-10-03T18:01:56Z</time>
      </trkpt>
      <trkpt lat="46.90847" lon="-1.94894">
        <ele>18</ele>
        <time>2019-10-03T18:01:57Z</time>
      </trkpt>
      <trkpt lat="46.90846" lon="-1.94901">
        <ele>19</ele>
        <time>2019-10-03T18:01:58Z</time>
      </trkpt>
      <trkpt lat="46.90845" lon="-1.94909">
        <ele>19</ele>
        <time>2019-10-03T18:01:59Z</time>
      </trkpt>
      <trkpt lat="46.90844" lon="-1.94917">
        <ele>19</ele>
        <time>2019-10-03T18:02:00Z</time>
      </trkpt>
      <trkpt lat="46.90843" lon="-1.94924">
        <ele>19</ele>
        <time>2019-10-03T18:02:01Z</time>
      </trkpt>
      <trkpt lat="46.90841" lon="-1.94931">
        <ele>19</ele>
        <time>2019-10-03T18:02:02Z</time>
      </trkpt>
      <trkpt lat="46.9084" lon="-1.94938">
        <ele>20</ele>
        <time>2019-10-03T18:02:03Z</time>
      </trkpt>
      <trkpt lat="46.90838" lon="-1.94945">
        <ele>20</ele>
        <time>2019-10-03T18:02:04Z</time>
      </trkpt>
      <trkpt lat="46.90837" lon="-1.94955">
        <ele>20</ele>
        <time>2019-10-03T18:02:06Z</time>
      </trkpt>
      <trkpt lat="46.90836" lon="-1.94968">
        <ele>20</ele>
        <time>2019-10-03T18:02:08Z</time>
      </trkpt>
      <trkpt lat="46.90834" lon="-1.94976">
        <ele>21</ele>
        <time>2019-10-03T18:02:09Z</time>
      </trkpt>
      <trkpt lat="46.90832" lon="-1.94982">
        <ele>21</ele>
        <time>2019-10-03T18:02:10Z</time>
      </trkpt>
      <trkpt lat="46.9083" lon="-1.9499">
        <ele>21</ele>
        <time>2019-10-03T18:02:11Z</time>
      </trkpt>
      <trkpt lat="46.90825" lon="-1.95002">
        <ele>22</ele>
        <time>2019-10-03T18:02:13Z</time>
      </trkpt>
      <trkpt lat="46.90821" lon="-1.9501">
        <ele>22</ele>
        <time>2019-10-03T18:02:14Z</time>
      </trkpt>
      <trkpt lat="46.9082" lon="-1.95017">
        <ele>22</ele>
        <time>2019-10-03T18:02:15Z</time>
      </trkpt>
      <trkpt lat="46.90821" lon="-1.9503">
        <ele>23</ele>
        <time>2019-10-03T18:02:17Z</time>
      </trkpt>
      <trkpt lat="46.9082" lon="-1.95037">
        <ele>23</ele>
        <time>2019-10-03T18:02:18Z</time>
      </trkpt>
      <trkpt lat="46.90819" lon="-1.9505">
        <ele>23</ele>
        <time>2019-10-03T18:02:20Z</time>
      </trkpt>
      <trkpt lat="46.90819" lon="-1.95056">
        <ele>23</ele>
        <time>2019-10-03T18:02:21Z</time>
      </trkpt>
      <trkpt lat="46.90817" lon="-1.95067">
        <ele>23</ele>
        <time>2019-10-03T18:02:23Z</time>
      </trkpt>
      <trkpt lat="46.90818" lon="-1.95074">
        <ele>23</ele>
        <time>2019-10-03T18:02:25Z</time>
      </trkpt>
      <trkpt lat="46.90817" lon="-1.95083">
        <ele>23</ele>
        <time>2019-10-03T18:02:27Z</time>
      </trkpt>
      <trkpt lat="46.90818" lon="-1.95094">
        <ele>23</ele>
        <time>2019-10-03T18:02:29Z</time>
      </trkpt>
      <trkpt lat="46.90818" lon="-1.95105">
        <ele>23</ele>
        <time>2019-10-03T18:02:31Z</time>
      </trkpt>
      <trkpt lat="46.9082" lon="-1.95115">
        <ele>23</ele>
        <time>2019-10-03T18:02:33Z</time>
      </trkpt>
      <trkpt lat="46.90823" lon="-1.95128">
        <ele>23</ele>
        <time>2019-10-03T18:02:35Z</time>
      </trkpt>
      <trkpt lat="46.90824" lon="-1.9514">
        <ele>23</ele>
        <time>2019-10-03T18:02:37Z</time>
      </trkpt>
      <trkpt lat="46.90825" lon="-1.9515">
        <ele>23</ele>
        <time>2019-10-03T18:02:39Z</time>
      </trkpt>
      <trkpt lat="46.90825" lon="-1.95161">
        <ele>23</ele>
        <time>2019-10-03T18:02:41Z</time>
      </trkpt>
      <trkpt lat="46.90824" lon="-1.95172">
        <ele>23</ele>
        <time>2019-10-03T18:02:43Z</time>
      </trkpt>
      <trkpt lat="46.90823" lon="-1.9518">
        <ele>23</ele>
        <time>2019-10-03T18:02:45Z</time>
      </trkpt>
      <trkpt lat="46.90821" lon="-1.9519">
        <ele>23</ele>
        <time>2019-10-03T18:02:47Z</time>
      </trkpt>
      <trkpt lat="46.90818" lon="-1.95201">
        <ele>23</ele>
        <time>2019-10-03T18:02:49Z</time>
      </trkpt>
      <trkpt lat="46.90814" lon="-1.95211">
        <ele>23</ele>
        <time>2019-10-03T18:02:51Z</time>
      </trkpt>
      <trkpt lat="46.9081" lon="-1.9522">
        <ele>23</ele>
        <time>2019-10-03T18:02:53Z</time>
      </trkpt>
      <trkpt lat="46.90807" lon="-1.95229">
        <ele>23</ele>
        <time>2019-10-03T18:02:55Z</time>
      </trkpt>
      <trkpt lat="46.90804" lon="-1.95238">
        <ele>23</ele>
        <time>2019-10-03T18:02:57Z</time>
      </trkpt>
      <trkpt lat="46.90801" lon="-1.95248">
        <ele>23</ele>
        <time>2019-10-03T18:02:59Z</time>
      </trkpt>
      <trkpt lat="46.90799" lon="-1.95256">
        <ele>23</ele>
        <time>2019-10-03T18:03:01Z</time>
      </trkpt>
      <trkpt lat="46.90795" lon="-1.95266">
        <ele>23</ele>
        <time>2019-10-03T18:03:03Z</time>
      </trkpt>
      <trkpt lat="46.90793" lon="-1.95275">
        <ele>23</ele>
        <time>2019-10-03T18:03:05Z</time>
      </trkpt>
      <trkpt lat="46.90791" lon="-1.95284">
        <ele>23</ele>
        <time>2019-10-03T18:03:07Z</time>
      </trkpt>
      <trkpt lat="46.90788" lon="-1.95293">
        <ele>23</ele>
        <time>2019-10-03T18:03:09Z</time>
      </trkpt>
      <trkpt lat="46.90786" lon="-1.95303">
        <ele>23</ele>
        <time>2019-10-03T18:03:11Z</time>
      </trkpt>
      <trkpt lat="46.90781" lon="-1.95313">
        <ele>23</ele>
        <time>2019-10-03T18:03:13Z</time>
      </trkpt>
      <trkpt lat="46.90779" lon="-1.95319">
        <ele>23</ele>
        <time>2019-10-03T18:03:14Z</time>
      </trkpt>
      <trkpt lat="46.90776" lon="-1.95329">
        <ele>23</ele>
        <time>2019-10-03T18:03:16Z</time>
      </trkpt>
      <trkpt lat="46.90774" lon="-1.95338">
        <ele>23</ele>
        <time>2019-10-03T18:03:18Z</time>
      </trkpt>
      <trkpt lat="46.9077" lon="-1.95347">
        <ele>23</ele>
        <time>2019-10-03T18:03:20Z</time>
      </trkpt>
      <trkpt lat="46.90768" lon="-1.95357">
        <ele>23</ele>
        <time>2019-10-03T18:03:22Z</time>
      </trkpt>
      <trkpt lat="46.90764" lon="-1.95368">
        <ele>23</ele>
        <time>2019-10-03T18:03:24Z</time>
      </trkpt>
      <trkpt lat="46.90762" lon="-1.95374">
        <ele>23</ele>
        <time>2019-10-03T18:03:25Z</time>
      </trkpt>
      <trkpt lat="46.90759" lon="-1.95384">
        <ele>23</ele>
        <time>2019-10-03T18:03:27Z</time>
      </trkpt>
      <trkpt lat="46.90757" lon="-1.95392">
        <ele>23</ele>
        <time>2019-10-03T18:03:29Z</time>
      </trkpt>
      <trkpt lat="46.90756" lon="-1.954">
        <ele>23</ele>
        <time>2019-10-03T18:03:31Z</time>
      </trkpt>
      <trkpt lat="46.90754" lon="-1.95411">
        <ele>23</ele>
        <time>2019-10-03T18:03:33Z</time>
      </trkpt>
      <trkpt lat="46.90751" lon="-1.95422">
        <ele>23</ele>
        <time>2019-10-03T18:03:35Z</time>
      </trkpt>
      <trkpt lat="46.9075" lon="-1.95434">
        <ele>23</ele>
        <time>2019-10-03T18:03:37Z</time>
      </trkpt>
      <trkpt lat="46.90751" lon="-1.95445">
        <ele>23</ele>
        <time>2019-10-03T18:03:39Z</time>
      </trkpt>
      <trkpt lat="46.90753" lon="-1.95456">
        <ele>23</ele>
        <time>2019-10-03T18:03:41Z</time>
      </trkpt>
      <trkpt lat="46.90755" lon="-1.95466">
        <ele>23</ele>
        <time>2019-10-03T18:03:43Z</time>
      </trkpt>
      <trkpt lat="46.90756" lon="-1.95475">
        <ele>23</ele>
        <time>2019-10-03T18:03:45Z</time>
      </trkpt>
      <trkpt lat="46.90757" lon="-1.95485">
        <ele>23</ele>
        <time>2019-10-03T18:03:47Z</time>
      </trkpt>
      <trkpt lat="46.90759" lon="-1.95495">
        <ele>23</ele>
        <time>2019-10-03T18:03:49Z</time>
      </trkpt>
      <trkpt lat="46.9076" lon="-1.95505">
        <ele>23</ele>
        <time>2019-10-03T18:03:51Z</time>
      </trkpt>
      <trkpt lat="46.90762" lon="-1.95515">
        <ele>23</ele>
        <time>2019-10-03T18:03:53Z</time>
      </trkpt>
      <trkpt lat="46.90763" lon="-1.95525">
        <ele>24</ele>
        <time>2019-10-03T18:03:55Z</time>
      </trkpt>
      <trkpt lat="46.90762" lon="-1.95536">
        <ele>24</ele>
        <time>2019-10-03T18:03:57Z</time>
      </trkpt>
      <trkpt lat="46.90762" lon="-1.95545">
        <ele>24</ele>
        <time>2019-10-03T18:03:59Z</time>
      </trkpt>
      <trkpt lat="46.90762" lon="-1.95556">
        <ele>24</ele>
        <time>2019-10-03T18:04:01Z</time>
      </trkpt>
      <trkpt lat="46.90761" lon="-1.95565">
        <ele>24</ele>
        <time>2019-10-03T18:04:03Z</time>
      </trkpt>
      <trkpt lat="46.90761" lon="-1.95576">
        <ele>24</ele>
        <time>2019-10-03T18:04:05Z</time>
      </trkpt>
      <trkpt lat="46.90762" lon="-1.95585">
        <ele>24</ele>
        <time>2019-10-03T18:04:07Z</time>
      </trkpt>
      <trkpt lat="46.90763" lon="-1.95595">
        <ele>24</ele>
        <time>2019-10-03T18:04:09Z</time>
      </trkpt>
      <trkpt lat="46.90763" lon="-1.95604">
        <ele>24</ele>
        <time>2019-10-03T18:04:11Z</time>
      </trkpt>
      <trkpt lat="46.90764" lon="-1.95611">
        <ele>24</ele>
        <time>2019-10-03T18:04:13Z</time>
      </trkpt>
      <trkpt lat="46.90764" lon="-1.95619">
        <ele>24</ele>
        <time>2019-10-03T18:04:15Z</time>
      </trkpt>
      <trkpt lat="46.90764" lon="-1.95628">
        <ele>24</ele>
        <time>2019-10-03T18:04:17Z</time>
      </trkpt>
      <trkpt lat="46.90765" lon="-1.95634">
        <ele>24</ele>
        <time>2019-10-03T18:04:19Z</time>
      </trkpt>
      <trkpt lat="46.90766" lon="-1.95641">
        <ele>24</ele>
        <time>2019-10-03T18:04:21Z</time>
      </trkpt>
      <trkpt lat="46.90765" lon="-1.95648">
        <ele>24</ele>
        <time>2019-10-03T18:04:24Z</time>
      </trkpt>
      <trkpt lat="46.9076" lon="-1.95651">
        <ele>24</ele>
        <time>2019-10-03T18:04:27Z</time>
      </trkpt>
      <trkpt lat="46.90755" lon="-1.95653">
        <ele>24</ele>
        <time>2019-10-03T18:04:29Z</time>
      </trkpt>
      <trkpt lat="46.9075" lon="-1.95653">
        <ele>25</ele>
        <time>2019-10-03T18:04:31Z</time>
      </trkpt>
      <trkpt lat="46.90746" lon="-1.95652">
        <ele>25</ele>
        <time>2019-10-03T18:04:33Z</time>
      </trkpt>
      <trkpt lat="46.90741" lon="-1.95653">
        <ele>25</ele>
        <time>2019-10-03T18:04:35Z</time>
      </trkpt>
      <trkpt lat="46.90736" lon="-1.95655">
        <ele>25</ele>
        <time>2019-10-03T18:04:37Z</time>
      </trkpt>
      <trkpt lat="46.90731" lon="-1.95655">
        <ele>25</ele>
        <time>2019-10-03T18:04:39Z</time>
      </trkpt>
      <trkpt lat="46.90724" lon="-1.95658">
        <ele>25</ele>
        <time>2019-10-03T18:04:41Z</time>
      </trkpt>
      <trkpt lat="46.90717" lon="-1.95659">
        <ele>25</ele>
        <time>2019-10-03T18:04:43Z</time>
      </trkpt>
      <trkpt lat="46.9071" lon="-1.95659">
        <ele>25</ele>
        <time>2019-10-03T18:04:45Z</time>
      </trkpt>
      <trkpt lat="46.90704" lon="-1.9566">
        <ele>25</ele>
        <time>2019-10-03T18:04:47Z</time>
      </trkpt>
      <trkpt lat="46.90698" lon="-1.95659">
        <ele>25</ele>
        <time>2019-10-03T18:04:49Z</time>
      </trkpt>
      <trkpt lat="46.90692" lon="-1.9566">
        <ele>25</ele>
        <time>2019-10-03T18:04:51Z</time>
      </trkpt>
      <trkpt lat="46.9069" lon="-1.95669">
        <ele>25</ele>
        <time>2019-10-03T18:04:55Z</time>
      </trkpt>
      <trkpt lat="46.90689" lon="-1.95676">
        <ele>26</ele>
        <time>2019-10-03T18:04:58Z</time>
      </trkpt>
      <trkpt lat="46.9069" lon="-1.95684">
        <ele>26</ele>
        <time>2019-10-03T18:05:01Z</time>
      </trkpt>
      <trkpt lat="46.90691" lon="-1.95691">
        <ele>26</ele>
        <time>2019-10-03T18:05:03Z</time>
      </trkpt>
      <trkpt lat="46.9069" lon="-1.95694">
        <ele>26</ele>
        <time>2019-10-03T18:05:28Z</time>
      </trkpt>
      <trkpt lat="46.9069" lon="-1.95694">
        <ele>26</ele>
        <time>2019-10-03T18:05:29Z</time>
      </trkpt>
      <trkpt lat="46.90684" lon="-1.95696">
        <ele>26</ele>
        <time>2019-10-03T18:05:40Z</time>
      </trkpt>
      <trkpt lat="46.90679" lon="-1.95698">
        <ele>26</ele>
        <time>2019-10-03T18:05:41Z</time>
      </trkpt>
      <trkpt lat="46.90674" lon="-1.957">
        <ele>26</ele>
        <time>2019-10-03T18:05:45Z</time>
      </trkpt>
      <trkpt lat="46.90669" lon="-1.95704">
        <ele>26</ele>
        <time>2019-10-03T18:06:03Z</time>
      </trkpt>
      <trkpt lat="46.90669" lon="-1.95705">
        <ele>26</ele>
        <time>2019-10-03T18:06:28Z</time>
      </trkpt>
      <trkpt lat="46.90669" lon="-1.95705">
        <ele>26</ele>
        <time>2019-10-03T18:06:29Z</time>
      </trkpt>
      <trkpt lat="46.90669" lon="-1.95705">
        <ele>26</ele>
        <time>2019-10-03T18:06:58Z</time>
      </trkpt>
      <trkpt lat="46.90669" lon="-1.95705">
        <ele>26</ele>
        <time>2019-10-03T18:06:59Z</time>
      </trkpt>
      <trkpt lat="46.90672" lon="-1.95713">
        <ele>26</ele>
        <time>2019-10-03T18:07:13Z</time>
      </trkpt>
      <trkpt lat="46.90672" lon="-1.95722">
        <ele>26</ele>
        <time>2019-10-03T18:07:15Z</time>
      </trkpt>
      <trkpt lat="46.90672" lon="-1.95731">
        <ele>26</ele>
        <time>2019-10-03T18:07:17Z</time>
      </trkpt>
      <trkpt lat="46.90672" lon="-1.95742">
        <ele>26</ele>
        <time>2019-10-03T18:07:19Z</time>
      </trkpt>
      <trkpt lat="46.90673" lon="-1.95753">
        <ele>26</ele>
        <time>2019-10-03T18:07:21Z</time>
      </trkpt>
      <trkpt lat="46.90672" lon="-1.95761">
        <ele>26</ele>
        <time>2019-10-03T18:07:22Z</time>
      </trkpt>
      <trkpt lat="46.90672" lon="-1.95768">
        <ele>26</ele>
        <time>2019-10-03T18:07:23Z</time>
      </trkpt>
      <trkpt lat="46.90673" lon="-1.95781">
        <ele>26</ele>
        <time>2019-10-03T18:07:25Z</time>
      </trkpt>
      <trkpt lat="46.90673" lon="-1.95788">
        <ele>26</ele>
        <time>2019-10-03T18:07:26Z</time>
      </trkpt>
      <trkpt lat="46.90672" lon="-1.95796">
        <ele>26</ele>
        <time>2019-10-03T18:07:27Z</time>
      </trkpt>
      <trkpt lat="46.9067" lon="-1.95803">
        <ele>26</ele>
        <time>2019-10-03T18:07:28Z</time>
      </trkpt>
      <trkpt lat="46.90672" lon="-1.95816">
        <ele>26</ele>
        <time>2019-10-03T18:07:30Z</time>
      </trkpt>
      <trkpt lat="46.90671" lon="-1.95825">
        <ele>26</ele>
        <time>2019-10-03T18:07:31Z</time>
      </trkpt>
      <trkpt lat="46.90671" lon="-1.95832">
        <ele>26</ele>
        <time>2019-10-03T18:07:32Z</time>
      </trkpt>
      <trkpt lat="46.90671" lon="-1.95838">
        <ele>26</ele>
        <time>2019-10-03T18:07:33Z</time>
      </trkpt>
      <trkpt lat="46.90672" lon="-1.95851">
        <ele>26</ele>
        <time>2019-10-03T18:07:35Z</time>
      </trkpt>
      <trkpt lat="46.9067" lon="-1.95857">
        <ele>26</ele>
        <time>2019-10-03T18:07:36Z</time>
      </trkpt>
      <trkpt lat="46.90671" lon="-1.95865">
        <ele>26</ele>
        <time>2019-10-03T18:07:37Z</time>
      </trkpt>
      <trkpt lat="46.9067" lon="-1.95874">
        <ele>26</ele>
        <time>2019-10-03T18:07:38Z</time>
      </trkpt>
      <trkpt lat="46.9067" lon="-1.95881">
        <ele>26</ele>
        <time>2019-10-03T18:07:39Z</time>
      </trkpt>
      <trkpt lat="46.9067" lon="-1.95889">
        <ele>26</ele>
        <time>2019-10-03T18:07:40Z</time>
      </trkpt>
      <trkpt lat="46.90669" lon="-1.95896">
        <ele>26</ele>
        <time>2019-10-03T18:07:41Z</time>
      </trkpt>
      <trkpt lat="46.90669" lon="-1.95904">
        <ele>26</ele>
        <time>2019-10-03T18:07:42Z</time>
      </trkpt>
      <trkpt lat="46.90669" lon="-1.95911">
        <ele>26</ele>
        <time>2019-10-03T18:07:43Z</time>
      </trkpt>
      <trkpt lat="46.90668" lon="-1.95919">
        <ele>26</ele>
        <time>2019-10-03T18:07:44Z</time>
      </trkpt>
      <trkpt lat="46.90667" lon="-1.95926">
        <ele>26</ele>
        <time>2019-10-03T18:07:45Z</time>
      </trkpt>
      <trkpt lat="46.90668" lon="-1.95933">
        <ele>26</ele>
        <time>2019-10-03T18:07:46Z</time>
      </trkpt>
      <trkpt lat="46.90669" lon="-1.9594">
        <ele>26</ele>
        <time>2019-10-03T18:07:47Z</time>
      </trkpt>
      <trkpt lat="46.90669" lon="-1.95952">
        <ele>26</ele>
        <time>2019-10-03T18:07:49Z</time>
      </trkpt>
      <trkpt lat="46.90672" lon="-1.95962">
        <ele>26</ele>
        <time>2019-10-03T18:07:51Z</time>
      </trkpt>
      <trkpt lat="46.90673" lon="-1.95969">
        <ele>26</ele>
        <time>2019-10-03T18:07:52Z</time>
      </trkpt>
      <trkpt lat="46.90675" lon="-1.95976">
        <ele>26</ele>
        <time>2019-10-03T18:07:53Z</time>
      </trkpt>
      <trkpt lat="46.90676" lon="-1.95983">
        <ele>26</ele>
        <time>2019-10-03T18:07:54Z</time>
      </trkpt>
      <trkpt lat="46.90678" lon="-1.9599">
        <ele>26</ele>
        <time>2019-10-03T18:07:55Z</time>
      </trkpt>
      <trkpt lat="46.90679" lon="-1.95998">
        <ele>26</ele>
        <time>2019-10-03T18:07:56Z</time>
      </trkpt>
      <trkpt lat="46.90677" lon="-1.96005">
        <ele>26</ele>
        <time>2019-10-03T18:07:57Z</time>
      </trkpt>
      <trkpt lat="46.90677" lon="-1.96012">
        <ele>26</ele>
        <time>2019-10-03T18:07:58Z</time>
      </trkpt>
      <trkpt lat="46.90678" lon="-1.9602">
        <ele>26</ele>
        <time>2019-10-03T18:07:59Z</time>
      </trkpt>
      <trkpt lat="46.90679" lon="-1.96029">
        <ele>26</ele>
        <time>2019-10-03T18:08:00Z</time>
      </trkpt>
      <trkpt lat="46.9068" lon="-1.96037">
        <ele>26</ele>
        <time>2019-10-03T18:08:01Z</time>
      </trkpt>
      <trkpt lat="46.90681" lon="-1.96046">
        <ele>26</ele>
        <time>2019-10-03T18:08:02Z</time>
      </trkpt>
      <trkpt lat="46.90683" lon="-1.96053">
        <ele>26</ele>
        <time>2019-10-03T18:08:03Z</time>
      </trkpt>
      <trkpt lat="46.90685" lon="-1.96061">
        <ele>26</ele>
        <time>2019-10-03T18:08:04Z</time>
      </trkpt>
      <trkpt lat="46.90686" lon="-1.9607">
        <ele>26</ele>
        <time>2019-10-03T18:08:05Z</time>
      </trkpt>
      <trkpt lat="46.90688" lon="-1.96079">
        <ele>26</ele>
        <time>2019-10-03T18:08:06Z</time>
      </trkpt>
      <trkpt lat="46.90687" lon="-1.96087">
        <ele>26</ele>
        <time>2019-10-03T18:08:07Z</time>
      </trkpt>
      <trkpt lat="46.90689" lon="-1.96093">
        <ele>26</ele>
        <time>2019-10-03T18:08:08Z</time>
      </trkpt>
      <trkpt lat="46.9069" lon="-1.961">
        <ele>26</ele>
        <time>2019-10-03T18:08:09Z</time>
      </trkpt>
      <trkpt lat="46.9069" lon="-1.96113">
        <ele>26</ele>
        <time>2019-10-03T18:08:11Z</time>
      </trkpt>
      <trkpt lat="46.90691" lon="-1.9612">
        <ele>26</ele>
        <time>2019-10-03T18:08:12Z</time>
      </trkpt>
      <trkpt lat="46.9069" lon="-1.96127">
        <ele>26</ele>
        <time>2019-10-03T18:08:13Z</time>
      </trkpt>
      <trkpt lat="46.9069" lon="-1.96135">
        <ele>26</ele>
        <time>2019-10-03T18:08:14Z</time>
      </trkpt>
      <trkpt lat="46.90691" lon="-1.96141">
        <ele>26</ele>
        <time>2019-10-03T18:08:15Z</time>
      </trkpt>
      <trkpt lat="46.9069" lon="-1.96155">
        <ele>26</ele>
        <time>2019-10-03T18:08:17Z</time>
      </trkpt>
      <trkpt lat="46.90689" lon="-1.96168">
        <ele>26</ele>
        <time>2019-10-03T18:08:19Z</time>
      </trkpt>
      <trkpt lat="46.90689" lon="-1.96175">
        <ele>26</ele>
        <time>2019-10-03T18:08:20Z</time>
      </trkpt>
      <trkpt lat="46.9069" lon="-1.96187">
        <ele>26</ele>
        <time>2019-10-03T18:08:22Z</time>
      </trkpt>
      <trkpt lat="46.9069" lon="-1.96199">
        <ele>26</ele>
        <time>2019-10-03T18:08:24Z</time>
      </trkpt>
      <trkpt lat="46.90688" lon="-1.96209">
        <ele>26</ele>
        <time>2019-10-03T18:08:26Z</time>
      </trkpt>
      <trkpt lat="46.90688" lon="-1.96221">
        <ele>26</ele>
        <time>2019-10-03T18:08:28Z</time>
      </trkpt>
      <trkpt lat="46.90687" lon="-1.96234">
        <ele>26</ele>
        <time>2019-10-03T18:08:30Z</time>
      </trkpt>
      <trkpt lat="46.90686" lon="-1.96245">
        <ele>26</ele>
        <time>2019-10-03T18:08:32Z</time>
      </trkpt>
      <trkpt lat="46.90685" lon="-1.96257">
        <ele>26</ele>
        <time>2019-10-03T18:08:34Z</time>
      </trkpt>
      <trkpt lat="46.90684" lon="-1.96268">
        <ele>26</ele>
        <time>2019-10-03T18:08:36Z</time>
      </trkpt>
      <trkpt lat="46.90684" lon="-1.96278">
        <ele>26</ele>
        <time>2019-10-03T18:08:38Z</time>
      </trkpt>
      <trkpt lat="46.90684" lon="-1.96289">
        <ele>26</ele>
        <time>2019-10-03T18:08:40Z</time>
      </trkpt>
      <trkpt lat="46.90684" lon="-1.96297">
        <ele>26</ele>
        <time>2019-10-03T18:08:41Z</time>
      </trkpt>
      <trkpt lat="46.90684" lon="-1.96308">
        <ele>26</ele>
        <time>2019-10-03T18:08:43Z</time>
      </trkpt>
      <trkpt lat="46.90683" lon="-1.96316">
        <ele>26</ele>
        <time>2019-10-03T18:08:45Z</time>
      </trkpt>
      <trkpt lat="46.90682" lon="-1.96325">
        <ele>26</ele>
        <time>2019-10-03T18:08:47Z</time>
      </trkpt>
      <trkpt lat="46.9068" lon="-1.96335">
        <ele>26</ele>
        <time>2019-10-03T18:08:49Z</time>
      </trkpt>
      <trkpt lat="46.90678" lon="-1.96345">
        <ele>26</ele>
        <time>2019-10-03T18:08:51Z</time>
      </trkpt>
      <trkpt lat="46.90675" lon="-1.96355">
        <ele>26</ele>
        <time>2019-10-03T18:08:53Z</time>
      </trkpt>
      <trkpt lat="46.90674" lon="-1.96365">
        <ele>26</ele>
        <time>2019-10-03T18:08:55Z</time>
      </trkpt>
      <trkpt lat="46.90671" lon="-1.96376">
        <ele>26</ele>
        <time>2019-10-03T18:08:57Z</time>
      </trkpt>
      <trkpt lat="46.9067" lon="-1.96387">
        <ele>26</ele>
        <time>2019-10-03T18:08:59Z</time>
      </trkpt>
      <trkpt lat="46.90669" lon="-1.96399">
        <ele>27</ele>
        <time>2019-10-03T18:09:01Z</time>
      </trkpt>
      <trkpt lat="46.90669" lon="-1.96412">
        <ele>26</ele>
        <time>2019-10-03T18:09:03Z</time>
      </trkpt>
      <trkpt lat="46.90669" lon="-1.96423">
        <ele>26</ele>
        <time>2019-10-03T18:09:05Z</time>
      </trkpt>
      <trkpt lat="46.90669" lon="-1.96434">
        <ele>26</ele>
        <time>2019-10-03T18:09:07Z</time>
      </trkpt>
      <trkpt lat="46.90668" lon="-1.96445">
        <ele>26</ele>
        <time>2019-10-03T18:09:09Z</time>
      </trkpt>
      <trkpt lat="46.90666" lon="-1.96456">
        <ele>26</ele>
        <time>2019-10-03T18:09:11Z</time>
      </trkpt>
      <trkpt lat="46.90665" lon="-1.96466">
        <ele>26</ele>
        <time>2019-10-03T18:09:13Z</time>
      </trkpt>
      <trkpt lat="46.90666" lon="-1.96475">
        <ele>26</ele>
        <time>2019-10-03T18:09:15Z</time>
      </trkpt>
      <trkpt lat="46.90667" lon="-1.96485">
        <ele>26</ele>
        <time>2019-10-03T18:09:17Z</time>
      </trkpt>
      <trkpt lat="46.9067" lon="-1.96494">
        <ele>26</ele>
        <time>2019-10-03T18:09:19Z</time>
      </trkpt>
      <trkpt lat="46.90672" lon="-1.96503">
        <ele>26</ele>
        <time>2019-10-03T18:09:21Z</time>
      </trkpt>
      <trkpt lat="46.90673" lon="-1.96512">
        <ele>26</ele>
        <time>2019-10-03T18:09:23Z</time>
      </trkpt>
      <trkpt lat="46.90674" lon="-1.96522">
        <ele>26</ele>
        <time>2019-10-03T18:09:25Z</time>
      </trkpt>
      <trkpt lat="46.90675" lon="-1.96534">
        <ele>26</ele>
        <time>2019-10-03T18:09:27Z</time>
      </trkpt>
      <trkpt lat="46.90678" lon="-1.96544">
        <ele>26</ele>
        <time>2019-10-03T18:09:29Z</time>
      </trkpt>
      <trkpt lat="46.9068" lon="-1.96556">
        <ele>26</ele>
        <time>2019-10-03T18:09:31Z</time>
      </trkpt>
      <trkpt lat="46.90682" lon="-1.96566">
        <ele>26</ele>
        <time>2019-10-03T18:09:33Z</time>
      </trkpt>
      <trkpt lat="46.90684" lon="-1.96577">
        <ele>26</ele>
        <time>2019-10-03T18:09:35Z</time>
      </trkpt>
      <trkpt lat="46.90687" lon="-1.96587">
        <ele>26</ele>
        <time>2019-10-03T18:09:37Z</time>
      </trkpt>
      <trkpt lat="46.90689" lon="-1.96597">
        <ele>26</ele>
        <time>2019-10-03T18:09:39Z</time>
      </trkpt>
      <trkpt lat="46.90692" lon="-1.96607">
        <ele>26</ele>
        <time>2019-10-03T18:09:41Z</time>
      </trkpt>
      <trkpt lat="46.90694" lon="-1.96618">
        <ele>26</ele>
        <time>2019-10-03T18:09:43Z</time>
      </trkpt>
      <trkpt lat="46.90696" lon="-1.96627">
        <ele>26</ele>
        <time>2019-10-03T18:09:45Z</time>
      </trkpt>
      <trkpt lat="46.90697" lon="-1.96637">
        <ele>26</ele>
        <time>2019-10-03T18:09:47Z</time>
      </trkpt>
      <trkpt lat="46.90696" lon="-1.96647">
        <ele>26</ele>
        <time>2019-10-03T18:09:49Z</time>
      </trkpt>
      <trkpt lat="46.90691" lon="-1.96653">
        <ele>26</ele>
        <time>2019-10-03T18:09:51Z</time>
      </trkpt>
      <trkpt lat="46.90683" lon="-1.96656">
        <ele>26</ele>
        <time>2019-10-03T18:09:53Z</time>
      </trkpt>
      <trkpt lat="46.90676" lon="-1.96659">
        <ele>26</ele>
        <time>2019-10-03T18:09:55Z</time>
      </trkpt>
      <trkpt lat="46.90669" lon="-1.96666">
        <ele>26</ele>
        <time>2019-10-03T18:09:57Z</time>
      </trkpt>
      <trkpt lat="46.90667" lon="-1.96676">
        <ele>26</ele>
        <time>2019-10-03T18:09:59Z</time>
      </trkpt>
      <trkpt lat="46.9067" lon="-1.96687">
        <ele>26</ele>
        <time>2019-10-03T18:10:01Z</time>
      </trkpt>
      <trkpt lat="46.90673" lon="-1.96699">
        <ele>26</ele>
        <time>2019-10-03T18:10:03Z</time>
      </trkpt>
      <trkpt lat="46.90673" lon="-1.9671">
        <ele>26</ele>
        <time>2019-10-03T18:10:05Z</time>
      </trkpt>
      <trkpt lat="46.90676" lon="-1.96721">
        <ele>26</ele>
        <time>2019-10-03T18:10:07Z</time>
      </trkpt>
      <trkpt lat="46.90678" lon="-1.96733">
        <ele>26</ele>
        <time>2019-10-03T18:10:09Z</time>
      </trkpt>
      <trkpt lat="46.9068" lon="-1.96745">
        <ele>26</ele>
        <time>2019-10-03T18:10:11Z</time>
      </trkpt>
      <trkpt lat="46.90682" lon="-1.96757">
        <ele>26</ele>
        <time>2019-10-03T18:10:13Z</time>
      </trkpt>
      <trkpt lat="46.90684" lon="-1.96768">
        <ele>26</ele>
        <time>2019-10-03T18:10:15Z</time>
      </trkpt>
      <trkpt lat="46.90686" lon="-1.96779">
        <ele>26</ele>
        <time>2019-10-03T18:10:17Z</time>
      </trkpt>
      <trkpt lat="46.9069" lon="-1.96791">
        <ele>26</ele>
        <time>2019-10-03T18:10:19Z</time>
      </trkpt>
      <trkpt lat="46.90691" lon="-1.96797">
        <ele>26</ele>
        <time>2019-10-03T18:10:20Z</time>
      </trkpt>
      <trkpt lat="46.90696" lon="-1.96808">
        <ele>26</ele>
        <time>2019-10-03T18:10:22Z</time>
      </trkpt>
      <trkpt lat="46.90699" lon="-1.96819">
        <ele>26</ele>
        <time>2019-10-03T18:10:24Z</time>
      </trkpt>
      <trkpt lat="46.907" lon="-1.96825">
        <ele>27</ele>
        <time>2019-10-03T18:10:25Z</time>
      </trkpt>
      <trkpt lat="46.90702" lon="-1.96837">
        <ele>27</ele>
        <time>2019-10-03T18:10:27Z</time>
      </trkpt>
      <trkpt lat="46.90705" lon="-1.9685">
        <ele>27</ele>
        <time>2019-10-03T18:10:29Z</time>
      </trkpt>
      <trkpt lat="46.90707" lon="-1.96857">
        <ele>27</ele>
        <time>2019-10-03T18:10:30Z</time>
      </trkpt>
      <trkpt lat="46.90708" lon="-1.9687">
        <ele>27</ele>
        <time>2019-10-03T18:10:32Z</time>
      </trkpt>
      <trkpt lat="46.9071" lon="-1.96882">
        <ele>27</ele>
        <time>2019-10-03T18:10:34Z</time>
      </trkpt>
      <trkpt lat="46.90712" lon="-1.96895">
        <ele>27</ele>
        <time>2019-10-03T18:10:36Z</time>
      </trkpt>
      <trkpt lat="46.90715" lon="-1.96901">
        <ele>27</ele>
        <time>2019-10-03T18:10:37Z</time>
      </trkpt>
      <trkpt lat="46.90717" lon="-1.96913">
        <ele>27</ele>
        <time>2019-10-03T18:10:39Z</time>
      </trkpt>
      <trkpt lat="46.90719" lon="-1.96923">
        <ele>27</ele>
        <time>2019-10-03T18:10:41Z</time>
      </trkpt>
      <trkpt lat="46.90723" lon="-1.9693">
        <ele>27</ele>
        <time>2019-10-03T18:10:43Z</time>
      </trkpt>
      <trkpt lat="46.90731" lon="-1.9693">
        <ele>27</ele>
        <time>2019-10-03T18:10:45Z</time>
      </trkpt>
      <trkpt lat="46.9074" lon="-1.96929">
        <ele>27</ele>
        <time>2019-10-03T18:10:47Z</time>
      </trkpt>
      <trkpt lat="46.90744" lon="-1.96928">
        <ele>27</ele>
        <time>2019-10-03T18:10:48Z</time>
      </trkpt>
      <trkpt lat="46.90749" lon="-1.96926">
        <ele>27</ele>
        <time>2019-10-03T18:10:49Z</time>
      </trkpt>
      <trkpt lat="46.90753" lon="-1.96925">
        <ele>27</ele>
        <time>2019-10-03T18:10:50Z</time>
      </trkpt>
      <trkpt lat="46.90758" lon="-1.96923">
        <ele>27</ele>
        <time>2019-10-03T18:10:51Z</time>
      </trkpt>
      <trkpt lat="46.90763" lon="-1.96921">
        <ele>27</ele>
        <time>2019-10-03T18:10:52Z</time>
      </trkpt>
      <trkpt lat="46.90767" lon="-1.96919">
        <ele>27</ele>
        <time>2019-10-03T18:10:53Z</time>
      </trkpt>
      <trkpt lat="46.90772" lon="-1.96917">
        <ele>27</ele>
        <time>2019-10-03T18:10:54Z</time>
      </trkpt>
      <trkpt lat="46.9078" lon="-1.96912">
        <ele>27</ele>
        <time>2019-10-03T18:10:56Z</time>
      </trkpt>
      <trkpt lat="46.90785" lon="-1.9691">
        <ele>27</ele>
        <time>2019-10-03T18:10:57Z</time>
      </trkpt>
      <trkpt lat="46.9079" lon="-1.96908">
        <ele>27</ele>
        <time>2019-10-03T18:10:58Z</time>
      </trkpt>
      <trkpt lat="46.90794" lon="-1.96906">
        <ele>27</ele>
        <time>2019-10-03T18:10:59Z</time>
      </trkpt>
      <trkpt lat="46.90799" lon="-1.96904">
        <ele>27</ele>
        <time>2019-10-03T18:11:00Z</time>
      </trkpt>
      <trkpt lat="46.90803" lon="-1.96902">
        <ele>27</ele>
        <time>2019-10-03T18:11:01Z</time>
      </trkpt>
      <trkpt lat="46.90811" lon="-1.96898">
        <ele>27</ele>
        <time>2019-10-03T18:11:03Z</time>
      </trkpt>
      <trkpt lat="46.9082" lon="-1.96894">
        <ele>28</ele>
        <time>2019-10-03T18:11:05Z</time>
      </trkpt>
      <trkpt lat="46.90825" lon="-1.96892">
        <ele>28</ele>
        <time>2019-10-03T18:11:06Z</time>
      </trkpt>
      <trkpt lat="46.9083" lon="-1.9689">
        <ele>28</ele>
        <time>2019-10-03T18:11:07Z</time>
      </trkpt>
      <trkpt lat="46.90834" lon="-1.96887">
        <ele>28</ele>
        <time>2019-10-03T18:11:08Z</time>
      </trkpt>
      <trkpt lat="46.90839" lon="-1.96884">
        <ele>28</ele>
        <time>2019-10-03T18:11:09Z</time>
      </trkpt>
      <trkpt lat="46.90844" lon="-1.96881">
        <ele>28</ele>
        <time>2019-10-03T18:11:10Z</time>
      </trkpt>
      <trkpt lat="46.90849" lon="-1.96878">
        <ele>28</ele>
        <time>2019-10-03T18:11:11Z</time>
      </trkpt>
      <trkpt lat="46.90854" lon="-1.96875">
        <ele>28</ele>
        <time>2019-10-03T18:11:12Z</time>
      </trkpt>
      <trkpt lat="46.90859" lon="-1.96873">
        <ele>28</ele>
        <time>2019-10-03T18:11:13Z</time>
      </trkpt>
      <trkpt lat="46.90864" lon="-1.9687">
        <ele>28</ele>
        <time>2019-10-03T18:11:14Z</time>
      </trkpt>
      <trkpt lat="46.90868" lon="-1.96867">
        <ele>28</ele>
        <time>2019-10-03T18:11:15Z</time>
      </trkpt>
      <trkpt lat="46.90873" lon="-1.96864">
        <ele>28</ele>
        <time>2019-10-03T18:11:16Z</time>
      </trkpt>
      <trkpt lat="46.90878" lon="-1.96862">
        <ele>28</ele>
        <time>2019-10-03T18:11:17Z</time>
      </trkpt>
      <trkpt lat="46.90882" lon="-1.9686">
        <ele>28</ele>
        <time>2019-10-03T18:11:18Z</time>
      </trkpt>
      <trkpt lat="46.90886" lon="-1.96857">
        <ele>28</ele>
        <time>2019-10-03T18:11:19Z</time>
      </trkpt>
      <trkpt lat="46.90891" lon="-1.96854">
        <ele>28</ele>
        <time>2019-10-03T18:11:20Z</time>
      </trkpt>
      <trkpt lat="46.90896" lon="-1.96852">
        <ele>28</ele>
        <time>2019-10-03T18:11:21Z</time>
      </trkpt>
      <trkpt lat="46.90901" lon="-1.96849">
        <ele>28</ele>
        <time>2019-10-03T18:11:22Z</time>
      </trkpt>
      <trkpt lat="46.90907" lon="-1.96847">
        <ele>28</ele>
        <time>2019-10-03T18:11:23Z</time>
      </trkpt>
      <trkpt lat="46.90912" lon="-1.96843">
        <ele>28</ele>
        <time>2019-10-03T18:11:24Z</time>
      </trkpt>
      <trkpt lat="46.90916" lon="-1.96841">
        <ele>28</ele>
        <time>2019-10-03T18:11:25Z</time>
      </trkpt>
      <trkpt lat="46.90921" lon="-1.96837">
        <ele>28</ele>
        <time>2019-10-03T18:11:26Z</time>
      </trkpt>
      <trkpt lat="46.90926" lon="-1.96835">
        <ele>28</ele>
        <time>2019-10-03T18:11:27Z</time>
      </trkpt>
      <trkpt lat="46.90931" lon="-1.96831">
        <ele>28</ele>
        <time>2019-10-03T18:11:28Z</time>
      </trkpt>
      <trkpt lat="46.90936" lon="-1.96828">
        <ele>28</ele>
        <time>2019-10-03T18:11:29Z</time>
      </trkpt>
      <trkpt lat="46.90941" lon="-1.96824">
        <ele>28</ele>
        <time>2019-10-03T18:11:30Z</time>
      </trkpt>
      <trkpt lat="46.90945" lon="-1.96821">
        <ele>28</ele>
        <time>2019-10-03T18:11:31Z</time>
      </trkpt>
      <trkpt lat="46.9095" lon="-1.96818">
        <ele>28</ele>
        <time>2019-10-03T18:11:32Z</time>
      </trkpt>
      <trkpt lat="46.90955" lon="-1.96814">
        <ele>28</ele>
        <time>2019-10-03T18:11:33Z</time>
      </trkpt>
      <trkpt lat="46.9096" lon="-1.96811">
        <ele>28</ele>
        <time>2019-10-03T18:11:34Z</time>
      </trkpt>
      <trkpt lat="46.90966" lon="-1.96808">
        <ele>28</ele>
        <time>2019-10-03T18:11:35Z</time>
      </trkpt>
      <trkpt lat="46.90971" lon="-1.96805">
        <ele>28</ele>
        <time>2019-10-03T18:11:36Z</time>
      </trkpt>
      <trkpt lat="46.90976" lon="-1.96801">
        <ele>28</ele>
        <time>2019-10-03T18:11:37Z</time>
      </trkpt>
      <trkpt lat="46.90981" lon="-1.96798">
        <ele>28</ele>
        <time>2019-10-03T18:11:38Z</time>
      </trkpt>
      <trkpt lat="46.90987" lon="-1.96795">
        <ele>28</ele>
        <time>2019-10-03T18:11:39Z</time>
      </trkpt>
      <trkpt lat="46.90992" lon="-1.96791">
        <ele>28</ele>
        <time>2019-10-03T18:11:40Z</time>
      </trkpt>
      <trkpt lat="46.90997" lon="-1.96788">
        <ele>28</ele>
        <time>2019-10-03T18:11:41Z</time>
      </trkpt>
      <trkpt lat="46.91002" lon="-1.96785">
        <ele>28</ele>
        <time>2019-10-03T18:11:42Z</time>
      </trkpt>
      <trkpt lat="46.91007" lon="-1.96782">
        <ele>28</ele>
        <time>2019-10-03T18:11:43Z</time>
      </trkpt>
      <trkpt lat="46.91011" lon="-1.96779">
        <ele>28</ele>
        <time>2019-10-03T18:11:44Z</time>
      </trkpt>
      <trkpt lat="46.91016" lon="-1.96777">
        <ele>28</ele>
        <time>2019-10-03T18:11:45Z</time>
      </trkpt>
      <trkpt lat="46.91021" lon="-1.96777">
        <ele>28</ele>
        <time>2019-10-03T18:11:46Z</time>
      </trkpt>
      <trkpt lat="46.91026" lon="-1.96777">
        <ele>28</ele>
        <time>2019-10-03T18:11:47Z</time>
      </trkpt>
      <trkpt lat="46.91031" lon="-1.96778">
        <ele>28</ele>
        <time>2019-10-03T18:11:48Z</time>
      </trkpt>
      <trkpt lat="46.91038" lon="-1.96781">
        <ele>28</ele>
        <time>2019-10-03T18:11:50Z</time>
      </trkpt>
      <trkpt lat="46.91045" lon="-1.96785">
        <ele>28</ele>
        <time>2019-10-03T18:11:52Z</time>
      </trkpt>
      <trkpt lat="46.91053" lon="-1.96792">
        <ele>28</ele>
        <time>2019-10-03T18:11:54Z</time>
      </trkpt>
      <trkpt lat="46.91058" lon="-1.96797">
        <ele>28</ele>
        <time>2019-10-03T18:11:55Z</time>
      </trkpt>
      <trkpt lat="46.91062" lon="-1.96802">
        <ele>28</ele>
        <time>2019-10-03T18:11:56Z</time>
      </trkpt>
      <trkpt lat="46.91066" lon="-1.96808">
        <ele>27</ele>
        <time>2019-10-03T18:11:57Z</time>
      </trkpt>
      <trkpt lat="46.91069" lon="-1.96814">
        <ele>27</ele>
        <time>2019-10-03T18:11:58Z</time>
      </trkpt>
      <trkpt lat="46.91072" lon="-1.96821">
        <ele>27</ele>
        <time>2019-10-03T18:11:59Z</time>
      </trkpt>
      <trkpt lat="46.91074" lon="-1.96827">
        <ele>27</ele>
        <time>2019-10-03T18:12:00Z</time>
      </trkpt>
      <trkpt lat="46.91077" lon="-1.96833">
        <ele>27</ele>
        <time>2019-10-03T18:12:01Z</time>
      </trkpt>
      <trkpt lat="46.9108" lon="-1.9684">
        <ele>27</ele>
        <time>2019-10-03T18:12:02Z</time>
      </trkpt>
      <trkpt lat="46.91083" lon="-1.96846">
        <ele>27</ele>
        <time>2019-10-03T18:12:03Z</time>
      </trkpt>
      <trkpt lat="46.91085" lon="-1.96853">
        <ele>27</ele>
        <time>2019-10-03T18:12:04Z</time>
      </trkpt>
      <trkpt lat="46.91089" lon="-1.96859">
        <ele>27</ele>
        <time>2019-10-03T18:12:05Z</time>
      </trkpt>
      <trkpt lat="46.91092" lon="-1.96865">
        <ele>27</ele>
        <time>2019-10-03T18:12:06Z</time>
      </trkpt>
      <trkpt lat="46.91095" lon="-1.96872">
        <ele>27</ele>
        <time>2019-10-03T18:12:07Z</time>
      </trkpt>
      <trkpt lat="46.91098" lon="-1.96877">
        <ele>27</ele>
        <time>2019-10-03T18:12:08Z</time>
      </trkpt>
      <trkpt lat="46.91102" lon="-1.96883">
        <ele>28</ele>
        <time>2019-10-03T18:12:09Z</time>
      </trkpt>
      <trkpt lat="46.91105" lon="-1.96888">
        <ele>28</ele>
        <time>2019-10-03T18:12:10Z</time>
      </trkpt>
      <trkpt lat="46.91109" lon="-1.96894">
        <ele>28</ele>
        <time>2019-10-03T18:12:11Z</time>
      </trkpt>
      <trkpt lat="46.91113" lon="-1.96899">
        <ele>27</ele>
        <time>2019-10-03T18:12:12Z</time>
      </trkpt>
      <trkpt lat="46.91118" lon="-1.96903">
        <ele>27</ele>
        <time>2019-10-03T18:12:13Z</time>
      </trkpt>
      <trkpt lat="46.91122" lon="-1.96908">
        <ele>27</ele>
        <time>2019-10-03T18:12:14Z</time>
      </trkpt>
      <trkpt lat="46.91126" lon="-1.96913">
        <ele>27</ele>
        <time>2019-10-03T18:12:15Z</time>
      </trkpt>
      <trkpt lat="46.91131" lon="-1.96917">
        <ele>27</ele>
        <time>2019-10-03T18:12:16Z</time>
      </trkpt>
      <trkpt lat="46.91136" lon="-1.96921">
        <ele>27</ele>
        <time>2019-10-03T18:12:17Z</time>
      </trkpt>
      <trkpt lat="46.9114" lon="-1.96925">
        <ele>27</ele>
        <time>2019-10-03T18:12:18Z</time>
      </trkpt>
      <trkpt lat="46.91145" lon="-1.9693">
        <ele>27</ele>
        <time>2019-10-03T18:12:19Z</time>
      </trkpt>
      <trkpt lat="46.9115" lon="-1.96934">
        <ele>27</ele>
        <time>2019-10-03T18:12:20Z</time>
      </trkpt>
      <trkpt lat="46.91155" lon="-1.96939">
        <ele>27</ele>
        <time>2019-10-03T18:12:21Z</time>
      </trkpt>
      <trkpt lat="46.9116" lon="-1.96943">
        <ele>27</ele>
        <time>2019-10-03T18:12:22Z</time>
      </trkpt>
      <trkpt lat="46.91165" lon="-1.96947">
        <ele>27</ele>
        <time>2019-10-03T18:12:23Z</time>
      </trkpt>
      <trkpt lat="46.9117" lon="-1.96952">
        <ele>27</ele>
        <time>2019-10-03T18:12:24Z</time>
      </trkpt>
      <trkpt lat="46.91175" lon="-1.96956">
        <ele>27</ele>
        <time>2019-10-03T18:12:25Z</time>
      </trkpt>
      <trkpt lat="46.9118" lon="-1.9696">
        <ele>27</ele>
        <time>2019-10-03T18:12:26Z</time>
      </trkpt>
      <trkpt lat="46.91185" lon="-1.96965">
        <ele>27</ele>
        <time>2019-10-03T18:12:27Z</time>
      </trkpt>
      <trkpt lat="46.9119" lon="-1.96969">
        <ele>27</ele>
        <time>2019-10-03T18:12:28Z</time>
      </trkpt>
      <trkpt lat="46.91195" lon="-1.96973">
        <ele>27</ele>
        <time>2019-10-03T18:12:29Z</time>
      </trkpt>
      <trkpt lat="46.912" lon="-1.96978">
        <ele>27</ele>
        <time>2019-10-03T18:12:30Z</time>
      </trkpt>
      <trkpt lat="46.91205" lon="-1.96982">
        <ele>27</ele>
        <time>2019-10-03T18:12:31Z</time>
      </trkpt>
      <trkpt lat="46.9121" lon="-1.96987">
        <ele>27</ele>
        <time>2019-10-03T18:12:32Z</time>
      </trkpt>
      <trkpt lat="46.91215" lon="-1.96991">
        <ele>27</ele>
        <time>2019-10-03T18:12:33Z</time>
      </trkpt>
      <trkpt lat="46.9122" lon="-1.96996">
        <ele>27</ele>
        <time>2019-10-03T18:12:34Z</time>
      </trkpt>
      <trkpt lat="46.91225" lon="-1.97">
        <ele>27</ele>
        <time>2019-10-03T18:12:35Z</time>
      </trkpt>
      <trkpt lat="46.9123" lon="-1.97005">
        <ele>27</ele>
        <time>2019-10-03T18:12:36Z</time>
      </trkpt>
      <trkpt lat="46.91235" lon="-1.97009">
        <ele>27</ele>
        <time>2019-10-03T18:12:37Z</time>
      </trkpt>
      <trkpt lat="46.91241" lon="-1.97014">
        <ele>27</ele>
        <time>2019-10-03T18:12:38Z</time>
      </trkpt>
      <trkpt lat="46.91246" lon="-1.97019">
        <ele>27</ele>
        <time>2019-10-03T18:12:39Z</time>
      </trkpt>
      <trkpt lat="46.91251" lon="-1.97023">
        <ele>27</ele>
        <time>2019-10-03T18:12:40Z</time>
      </trkpt>
      <trkpt lat="46.91256" lon="-1.97028">
        <ele>27</ele>
        <time>2019-10-03T18:12:41Z</time>
      </trkpt>
      <trkpt lat="46.91261" lon="-1.97033">
        <ele>27</ele>
        <time>2019-10-03T18:12:42Z</time>
      </trkpt>
      <trkpt lat="46.91266" lon="-1.97038">
        <ele>27</ele>
        <time>2019-10-03T18:12:43Z</time>
      </trkpt>
      <trkpt lat="46.91271" lon="-1.97043">
        <ele>27</ele>
        <time>2019-10-03T18:12:44Z</time>
      </trkpt>
      <trkpt lat="46.91276" lon="-1.97049">
        <ele>27</ele>
        <time>2019-10-03T18:12:45Z</time>
      </trkpt>
      <trkpt lat="46.9128" lon="-1.97054">
        <ele>27</ele>
        <time>2019-10-03T18:12:46Z</time>
      </trkpt>
      <trkpt lat="46.91286" lon="-1.9706">
        <ele>27</ele>
        <time>2019-10-03T18:12:47Z</time>
      </trkpt>
      <trkpt lat="46.9129" lon="-1.97064">
        <ele>27</ele>
        <time>2019-10-03T18:12:48Z</time>
      </trkpt>
      <trkpt lat="46.91295" lon="-1.97069">
        <ele>27</ele>
        <time>2019-10-03T18:12:49Z</time>
      </trkpt>
      <trkpt lat="46.91299" lon="-1.97074">
        <ele>27</ele>
        <time>2019-10-03T18:12:50Z</time>
      </trkpt>
      <trkpt lat="46.91304" lon="-1.97079">
        <ele>27</ele>
        <time>2019-10-03T18:12:51Z</time>
      </trkpt>
      <trkpt lat="46.91309" lon="-1.97084">
        <ele>27</ele>
        <time>2019-10-03T18:12:52Z</time>
      </trkpt>
      <trkpt lat="46.91314" lon="-1.97089">
        <ele>27</ele>
        <time>2019-10-03T18:12:53Z</time>
      </trkpt>
      <trkpt lat="46.91318" lon="-1.97093">
        <ele>27</ele>
        <time>2019-10-03T18:12:54Z</time>
      </trkpt>
      <trkpt lat="46.91322" lon="-1.97098">
        <ele>27</ele>
        <time>2019-10-03T18:12:55Z</time>
      </trkpt>
      <trkpt lat="46.91327" lon="-1.97103">
        <ele>27</ele>
        <time>2019-10-03T18:12:56Z</time>
      </trkpt>
      <trkpt lat="46.91332" lon="-1.97108">
        <ele>26</ele>
        <time>2019-10-03T18:12:57Z</time>
      </trkpt>
      <trkpt lat="46.91336" lon="-1.97113">
        <ele>26</ele>
        <time>2019-10-03T18:12:57Z</time>
      </trkpt>
      <trkpt lat="46.91341" lon="-1.97119">
        <ele>26</ele>
        <time>2019-10-03T18:12:58Z</time>
      </trkpt>
      <trkpt lat="46.91345" lon="-1.97125">
        <ele>26</ele>
        <time>2019-10-03T18:12:59Z</time>
      </trkpt>
      <trkpt lat="46.9135" lon="-1.97131">
        <ele>26</ele>
        <time>2019-10-03T18:13:00Z</time>
      </trkpt>
      <trkpt lat="46.91355" lon="-1.97138">
        <ele>26</ele>
        <time>2019-10-03T18:13:01Z</time>
      </trkpt>
      <trkpt lat="46.91359" lon="-1.97145">
        <ele>26</ele>
        <time>2019-10-03T18:13:02Z</time>
      </trkpt>
      <trkpt lat="46.91362" lon="-1.97151">
        <ele>26</ele>
        <time>2019-10-03T18:13:03Z</time>
      </trkpt>
      <trkpt lat="46.91366" lon="-1.97158">
        <ele>26</ele>
        <time>2019-10-03T18:13:04Z</time>
      </trkpt>
      <trkpt lat="46.91369" lon="-1.97166">
        <ele>26</ele>
        <time>2019-10-03T18:13:05Z</time>
      </trkpt>
      <trkpt lat="46.91372" lon="-1.97173">
        <ele>26</ele>
        <time>2019-10-03T18:13:06Z</time>
      </trkpt>
      <trkpt lat="46.91375" lon="-1.9718">
        <ele>26</ele>
        <time>2019-10-03T18:13:07Z</time>
      </trkpt>
      <trkpt lat="46.91378" lon="-1.97187">
        <ele>26</ele>
        <time>2019-10-03T18:13:08Z</time>
      </trkpt>
      <trkpt lat="46.91381" lon="-1.97193">
        <ele>26</ele>
        <time>2019-10-03T18:13:09Z</time>
      </trkpt>
      <trkpt lat="46.91384" lon="-1.97199">
        <ele>26</ele>
        <time>2019-10-03T18:13:10Z</time>
      </trkpt>
      <trkpt lat="46.91387" lon="-1.97206">
        <ele>26</ele>
        <time>2019-10-03T18:13:11Z</time>
      </trkpt>
      <trkpt lat="46.9139" lon="-1.97212">
        <ele>26</ele>
        <time>2019-10-03T18:13:12Z</time>
      </trkpt>
      <trkpt lat="46.91393" lon="-1.97219">
        <ele>26</ele>
        <time>2019-10-03T18:13:13Z</time>
      </trkpt>
      <trkpt lat="46.91396" lon="-1.97225">
        <ele>26</ele>
        <time>2019-10-03T18:13:14Z</time>
      </trkpt>
      <trkpt lat="46.91399" lon="-1.97232">
        <ele>26</ele>
        <time>2019-10-03T18:13:15Z</time>
      </trkpt>
      <trkpt lat="46.91403" lon="-1.97238">
        <ele>26</ele>
        <time>2019-10-03T18:13:16Z</time>
      </trkpt>
      <trkpt lat="46.91406" lon="-1.97245">
        <ele>26</ele>
        <time>2019-10-03T18:13:17Z</time>
      </trkpt>
      <trkpt lat="46.91409" lon="-1.97251">
        <ele>26</ele>
        <time>2019-10-03T18:13:18Z</time>
      </trkpt>
      <trkpt lat="46.91412" lon="-1.97258">
        <ele>26</ele>
        <time>2019-10-03T18:13:19Z</time>
      </trkpt>
      <trkpt lat="46.91415" lon="-1.97264">
        <ele>26</ele>
        <time>2019-10-03T18:13:20Z</time>
      </trkpt>
      <trkpt lat="46.91418" lon="-1.9727">
        <ele>26</ele>
        <time>2019-10-03T18:13:21Z</time>
      </trkpt>
      <trkpt lat="46.91421" lon="-1.97276">
        <ele>25</ele>
        <time>2019-10-03T18:13:22Z</time>
      </trkpt>
      <trkpt lat="46.91425" lon="-1.97283">
        <ele>25</ele>
        <time>2019-10-03T18:13:23Z</time>
      </trkpt>
      <trkpt lat="46.91428" lon="-1.97289">
        <ele>25</ele>
        <time>2019-10-03T18:13:24Z</time>
      </trkpt>
      <trkpt lat="46.9143" lon="-1.97295">
        <ele>25</ele>
        <time>2019-10-03T18:13:25Z</time>
      </trkpt>
      <trkpt lat="46.91435" lon="-1.97301">
        <ele>25</ele>
        <time>2019-10-03T18:13:27Z</time>
      </trkpt>
      <trkpt lat="46.91443" lon="-1.97298">
        <ele>25</ele>
        <time>2019-10-03T18:13:29Z</time>
      </trkpt>
      <trkpt lat="46.9145" lon="-1.97294">
        <ele>25</ele>
        <time>2019-10-03T18:13:31Z</time>
      </trkpt>
      <trkpt lat="46.91459" lon="-1.97293">
        <ele>25</ele>
        <time>2019-10-03T18:13:33Z</time>
      </trkpt>
      <trkpt lat="46.91465" lon="-1.97294">
        <ele>25</ele>
        <time>2019-10-03T18:13:34Z</time>
      </trkpt>
      <trkpt lat="46.91469" lon="-1.97295">
        <ele>25</ele>
        <time>2019-10-03T18:13:35Z</time>
      </trkpt>
      <trkpt lat="46.91478" lon="-1.97297">
        <ele>24</ele>
        <time>2019-10-03T18:13:37Z</time>
      </trkpt>
      <trkpt lat="46.91482" lon="-1.973">
        <ele>24</ele>
        <time>2019-10-03T18:13:38Z</time>
      </trkpt>
      <trkpt lat="46.91486" lon="-1.97303">
        <ele>24</ele>
        <time>2019-10-03T18:13:39Z</time>
      </trkpt>
      <trkpt lat="46.91494" lon="-1.97306">
        <ele>24</ele>
        <time>2019-10-03T18:13:41Z</time>
      </trkpt>
      <trkpt lat="46.91499" lon="-1.97308">
        <ele>24</ele>
        <time>2019-10-03T18:13:42Z</time>
      </trkpt>
      <trkpt lat="46.91504" lon="-1.9731">
        <ele>24</ele>
        <time>2019-10-03T18:13:43Z</time>
      </trkpt>
      <trkpt lat="46.91513" lon="-1.97314">
        <ele>24</ele>
        <time>2019-10-03T18:13:45Z</time>
      </trkpt>
      <trkpt lat="46.91518" lon="-1.97316">
        <ele>24</ele>
        <time>2019-10-03T18:13:46Z</time>
      </trkpt>
      <trkpt lat="46.91523" lon="-1.97317">
        <ele>24</ele>
        <time>2019-10-03T18:13:47Z</time>
      </trkpt>
      <trkpt lat="46.91527" lon="-1.97316">
        <ele>24</ele>
        <time>2019-10-03T18:13:49Z</time>
      </trkpt>
      <trkpt lat="46.9153" lon="-1.97309">
        <ele>24</ele>
        <time>2019-10-03T18:13:51Z</time>
      </trkpt>
      <trkpt lat="46.91531" lon="-1.97301">
        <ele>24</ele>
        <time>2019-10-03T18:13:53Z</time>
      </trkpt>
      <trkpt lat="46.91531" lon="-1.97293">
        <ele>24</ele>
        <time>2019-10-03T18:13:55Z</time>
      </trkpt>
      <trkpt lat="46.91532" lon="-1.97284">
        <ele>24</ele>
        <time>2019-10-03T18:13:57Z</time>
      </trkpt>
      <trkpt lat="46.91532" lon="-1.97274">
        <ele>24</ele>
        <time>2019-10-03T18:13:59Z</time>
      </trkpt>
      <trkpt lat="46.91535" lon="-1.97262">
        <ele>24</ele>
        <time>2019-10-03T18:14:01Z</time>
      </trkpt>
      <trkpt lat="46.91537" lon="-1.97252">
        <ele>24</ele>
        <time>2019-10-03T18:14:03Z</time>
      </trkpt>
      <trkpt lat="46.91539" lon="-1.97245">
        <ele>24</ele>
        <time>2019-10-03T18:14:04Z</time>
      </trkpt>
      <trkpt lat="46.9154" lon="-1.97238">
        <ele>24</ele>
        <time>2019-10-03T18:14:05Z</time>
      </trkpt>
      <trkpt lat="46.91541" lon="-1.97231">
        <ele>24</ele>
        <time>2019-10-03T18:14:06Z</time>
      </trkpt>
      <trkpt lat="46.91543" lon="-1.97223">
        <ele>24</ele>
        <time>2019-10-03T18:14:07Z</time>
      </trkpt>
      <trkpt lat="46.91546" lon="-1.97216">
        <ele>24</ele>
        <time>2019-10-03T18:14:08Z</time>
      </trkpt>
      <trkpt lat="46.91548" lon="-1.97209">
        <ele>24</ele>
        <time>2019-10-03T18:14:09Z</time>
      </trkpt>
      <trkpt lat="46.9155" lon="-1.97198">
        <ele>24</ele>
        <time>2019-10-03T18:14:11Z</time>
      </trkpt>
      <trkpt lat="46.91552" lon="-1.97187">
        <ele>24</ele>
        <time>2019-10-03T18:14:13Z</time>
      </trkpt>
      <trkpt lat="46.91552" lon="-1.97176">
        <ele>24</ele>
        <time>2019-10-03T18:14:15Z</time>
      </trkpt>
      <trkpt lat="46.91554" lon="-1.97168">
        <ele>24</ele>
        <time>2019-10-03T18:14:17Z</time>
      </trkpt>
      <trkpt lat="46.91555" lon="-1.97157">
        <ele>24</ele>
        <time>2019-10-03T18:14:19Z</time>
      </trkpt>
      <trkpt lat="46.91557" lon="-1.97146">
        <ele>24</ele>
        <time>2019-10-03T18:14:21Z</time>
      </trkpt>
      <trkpt lat="46.91559" lon="-1.9714">
        <ele>24</ele>
        <time>2019-10-03T18:14:22Z</time>
      </trkpt>
      <trkpt lat="46.9156" lon="-1.97133">
        <ele>24</ele>
        <time>2019-10-03T18:14:23Z</time>
      </trkpt>
      <trkpt lat="46.91563" lon="-1.97123">
        <ele>24</ele>
        <time>2019-10-03T18:14:25Z</time>
      </trkpt>
      <trkpt lat="46.91562" lon="-1.97113">
        <ele>24</ele>
        <time>2019-10-03T18:14:27Z</time>
      </trkpt>
      <trkpt lat="46.9156" lon="-1.97103">
        <ele>24</ele>
        <time>2019-10-03T18:14:29Z</time>
      </trkpt>
      <trkpt lat="46.91561" lon="-1.97094">
        <ele>24</ele>
        <time>2019-10-03T18:14:31Z</time>
      </trkpt>
      <trkpt lat="46.91563" lon="-1.97083">
        <ele>24</ele>
        <time>2019-10-03T18:14:33Z</time>
      </trkpt>
      <trkpt lat="46.91565" lon="-1.97071">
        <ele>24</ele>
        <time>2019-10-03T18:14:35Z</time>
      </trkpt>
      <trkpt lat="46.91565" lon="-1.97065">
        <ele>24</ele>
        <time>2019-10-03T18:14:36Z</time>
      </trkpt>
      <trkpt lat="46.91565" lon="-1.97056">
        <ele>24</ele>
        <time>2019-10-03T18:14:38Z</time>
      </trkpt>
      <trkpt lat="46.91564" lon="-1.97045">
        <ele>24</ele>
        <time>2019-10-03T18:14:40Z</time>
      </trkpt>
      <trkpt lat="46.91562" lon="-1.97037">
        <ele>24</ele>
        <time>2019-10-03T18:14:42Z</time>
      </trkpt>
      <trkpt lat="46.91557" lon="-1.9703">
        <ele>24</ele>
        <time>2019-10-03T18:14:44Z</time>
      </trkpt>
      <trkpt lat="46.91552" lon="-1.97024">
        <ele>24</ele>
        <time>2019-10-03T18:14:46Z</time>
      </trkpt>
      <trkpt lat="46.91551" lon="-1.97013">
        <ele>24</ele>
        <time>2019-10-03T18:14:48Z</time>
      </trkpt>
      <trkpt lat="46.91554" lon="-1.97004">
        <ele>24</ele>
        <time>2019-10-03T18:14:50Z</time>
      </trkpt>
      <trkpt lat="46.91557" lon="-1.96993">
        <ele>24</ele>
        <time>2019-10-03T18:14:52Z</time>
      </trkpt>
      <trkpt lat="46.91559" lon="-1.96984">
        <ele>24</ele>
        <time>2019-10-03T18:14:54Z</time>
      </trkpt>
      <trkpt lat="46.91562" lon="-1.96975">
        <ele>24</ele>
        <time>2019-10-03T18:14:56Z</time>
      </trkpt>
      <trkpt lat="46.91563" lon="-1.96964">
        <ele>24</ele>
        <time>2019-10-03T18:14:58Z</time>
      </trkpt>
      <trkpt lat="46.91565" lon="-1.96958">
        <ele>24</ele>
        <time>2019-10-03T18:14:59Z</time>
      </trkpt>
      <trkpt lat="46.91566" lon="-1.96949">
        <ele>24</ele>
        <time>2019-10-03T18:15:01Z</time>
      </trkpt>
      <trkpt lat="46.91569" lon="-1.96937">
        <ele>24</ele>
        <time>2019-10-03T18:15:03Z</time>
      </trkpt>
      <trkpt lat="46.91568" lon="-1.96925">
        <ele>24</ele>
        <time>2019-10-03T18:15:05Z</time>
      </trkpt>
      <trkpt lat="46.91566" lon="-1.96912">
        <ele>24</ele>
        <time>2019-10-03T18:15:07Z</time>
      </trkpt>
      <trkpt lat="46.91562" lon="-1.969">
        <ele>24</ele>
        <time>2019-10-03T18:15:09Z</time>
      </trkpt>
      <trkpt lat="46.91561" lon="-1.96894">
        <ele>24</ele>
        <time>2019-10-03T18:15:10Z</time>
      </trkpt>
      <trkpt lat="46.9156" lon="-1.96887">
        <ele>24</ele>
        <time>2019-10-03T18:15:11Z</time>
      </trkpt>
      <trkpt lat="46.91558" lon="-1.96875">
        <ele>24</ele>
        <time>2019-10-03T18:15:13Z</time>
      </trkpt>
      <trkpt lat="46.91556" lon="-1.96863">
        <ele>24</ele>
        <time>2019-10-03T18:15:15Z</time>
      </trkpt>
      <trkpt lat="46.91552" lon="-1.96852">
        <ele>24</ele>
        <time>2019-10-03T18:15:17Z</time>
      </trkpt>
      <trkpt lat="46.91547" lon="-1.96841">
        <ele>24</ele>
        <time>2019-10-03T18:15:19Z</time>
      </trkpt>
      <trkpt lat="46.91544" lon="-1.96836">
        <ele>24</ele>
        <time>2019-10-03T18:15:20Z</time>
      </trkpt>
      <trkpt lat="46.91539" lon="-1.96825">
        <ele>24</ele>
        <time>2019-10-03T18:15:22Z</time>
      </trkpt>
      <trkpt lat="46.91533" lon="-1.96815">
        <ele>24</ele>
        <time>2019-10-03T18:15:24Z</time>
      </trkpt>
      <trkpt lat="46.91528" lon="-1.96805">
        <ele>24</ele>
        <time>2019-10-03T18:15:26Z</time>
      </trkpt>
      <trkpt lat="46.91524" lon="-1.96795">
        <ele>24</ele>
        <time>2019-10-03T18:15:28Z</time>
      </trkpt>
      <trkpt lat="46.91519" lon="-1.96784">
        <ele>24</ele>
        <time>2019-10-03T18:15:30Z</time>
      </trkpt>
      <trkpt lat="46.91514" lon="-1.96774">
        <ele>24</ele>
        <time>2019-10-03T18:15:32Z</time>
      </trkpt>
      <trkpt lat="46.91509" lon="-1.96764">
        <ele>24</ele>
        <time>2019-10-03T18:15:34Z</time>
      </trkpt>
      <trkpt lat="46.91507" lon="-1.96758">
        <ele>24</ele>
        <time>2019-10-03T18:15:35Z</time>
      </trkpt>
      <trkpt lat="46.91502" lon="-1.96747">
        <ele>24</ele>
        <time>2019-10-03T18:15:37Z</time>
      </trkpt>
      <trkpt lat="46.91496" lon="-1.96738">
        <ele>24</ele>
        <time>2019-10-03T18:15:39Z</time>
      </trkpt>
      <trkpt lat="46.91491" lon="-1.96731">
        <ele>24</ele>
        <time>2019-10-03T18:15:41Z</time>
      </trkpt>
      <trkpt lat="46.91485" lon="-1.96726">
        <ele>24</ele>
        <time>2019-10-03T18:15:43Z</time>
      </trkpt>
      <trkpt lat="46.91481" lon="-1.96721">
        <ele>24</ele>
        <time>2019-10-03T18:15:45Z</time>
      </trkpt>
      <trkpt lat="46.91478" lon="-1.96715">
        <ele>24</ele>
        <time>2019-10-03T18:15:47Z</time>
      </trkpt>
      <trkpt lat="46.91474" lon="-1.96707">
        <ele>24</ele>
        <time>2019-10-03T18:15:49Z</time>
      </trkpt>
      <trkpt lat="46.9147" lon="-1.96698">
        <ele>24</ele>
        <time>2019-10-03T18:15:51Z</time>
      </trkpt>
      <trkpt lat="46.91465" lon="-1.96689">
        <ele>24</ele>
        <time>2019-10-03T18:15:53Z</time>
      </trkpt>
      <trkpt lat="46.9146" lon="-1.9668">
        <ele>24</ele>
        <time>2019-10-03T18:15:55Z</time>
      </trkpt>
      <trkpt lat="46.91456" lon="-1.96672">
        <ele>24</ele>
        <time>2019-10-03T18:15:57Z</time>
      </trkpt>
      <trkpt lat="46.91451" lon="-1.96663">
        <ele>24</ele>
        <time>2019-10-03T18:15:59Z</time>
      </trkpt>
      <trkpt lat="46.91449" lon="-1.96657">
        <ele>24</ele>
        <time>2019-10-03T18:16:00Z</time>
      </trkpt>
      <trkpt lat="46.91444" lon="-1.96648">
        <ele>24</ele>
        <time>2019-10-03T18:16:02Z</time>
      </trkpt>
      <trkpt lat="46.9144" lon="-1.96639">
        <ele>24</ele>
        <time>2019-10-03T18:16:04Z</time>
      </trkpt>
      <trkpt lat="46.91436" lon="-1.9663">
        <ele>24</ele>
        <time>2019-10-03T18:16:06Z</time>
      </trkpt>
      <trkpt lat="46.91432" lon="-1.9662">
        <ele>24</ele>
        <time>2019-10-03T18:16:08Z</time>
      </trkpt>
      <trkpt lat="46.91429" lon="-1.96609">
        <ele>24</ele>
        <time>2019-10-03T18:16:10Z</time>
      </trkpt>
      <trkpt lat="46.91426" lon="-1.96597">
        <ele>25</ele>
        <time>2019-10-03T18:16:12Z</time>
      </trkpt>
      <trkpt lat="46.91423" lon="-1.96586">
        <ele>25</ele>
        <time>2019-10-03T18:16:14Z</time>
      </trkpt>
      <trkpt lat="46.9142" lon="-1.96573">
        <ele>25</ele>
        <time>2019-10-03T18:16:16Z</time>
      </trkpt>
      <trkpt lat="46.91419" lon="-1.96567">
        <ele>25</ele>
        <time>2019-10-03T18:16:17Z</time>
      </trkpt>
      <trkpt lat="46.91415" lon="-1.96555">
        <ele>25</ele>
        <time>2019-10-03T18:16:19Z</time>
      </trkpt>
      <trkpt lat="46.9141" lon="-1.96545">
        <ele>25</ele>
        <time>2019-10-03T18:16:21Z</time>
      </trkpt>
      <trkpt lat="46.91405" lon="-1.96534">
        <ele>25</ele>
        <time>2019-10-03T18:16:23Z</time>
      </trkpt>
      <trkpt lat="46.91401" lon="-1.96525">
        <ele>25</ele>
        <time>2019-10-03T18:16:25Z</time>
      </trkpt>
      <trkpt lat="46.91402" lon="-1.96515">
        <ele>25</ele>
        <time>2019-10-03T18:16:27Z</time>
      </trkpt>
      <trkpt lat="46.9141" lon="-1.96508">
        <ele>25</ele>
        <time>2019-10-03T18:16:29Z</time>
      </trkpt>
      <trkpt lat="46.91414" lon="-1.96505">
        <ele>25</ele>
        <time>2019-10-03T18:16:30Z</time>
      </trkpt>
      <trkpt lat="46.91419" lon="-1.96502">
        <ele>25</ele>
        <time>2019-10-03T18:16:31Z</time>
      </trkpt>
      <trkpt lat="46.91423" lon="-1.965">
        <ele>25</ele>
        <time>2019-10-03T18:16:32Z</time>
      </trkpt>
      <trkpt lat="46.91428" lon="-1.96498">
        <ele>25</ele>
        <time>2019-10-03T18:16:33Z</time>
      </trkpt>
      <trkpt lat="46.91433" lon="-1.96495">
        <ele>25</ele>
        <time>2019-10-03T18:16:34Z</time>
      </trkpt>
      <trkpt lat="46.91437" lon="-1.96492">
        <ele>25</ele>
        <time>2019-10-03T18:16:35Z</time>
      </trkpt>
      <trkpt lat="46.91441" lon="-1.9649">
        <ele>25</ele>
        <time>2019-10-03T18:16:36Z</time>
      </trkpt>
      <trkpt lat="46.91446" lon="-1.96486">
        <ele>25</ele>
        <time>2019-10-03T18:16:37Z</time>
      </trkpt>
      <trkpt lat="46.91451" lon="-1.96482">
        <ele>25</ele>
        <time>2019-10-03T18:16:38Z</time>
      </trkpt>
      <trkpt lat="46.91455" lon="-1.96477">
        <ele>25</ele>
        <time>2019-10-03T18:16:39Z</time>
      </trkpt>
      <trkpt lat="46.91459" lon="-1.96473">
        <ele>25</ele>
        <time>2019-10-03T18:16:40Z</time>
      </trkpt>
      <trkpt lat="46.91464" lon="-1.96469">
        <ele>25</ele>
        <time>2019-10-03T18:16:41Z</time>
      </trkpt>
      <trkpt lat="46.91468" lon="-1.96465">
        <ele>25</ele>
        <time>2019-10-03T18:16:42Z</time>
      </trkpt>
      <trkpt lat="46.91473" lon="-1.96462">
        <ele>25</ele>
        <time>2019-10-03T18:16:43Z</time>
      </trkpt>
      <trkpt lat="46.91479" lon="-1.9646">
        <ele>25</ele>
        <time>2019-10-03T18:16:44Z</time>
      </trkpt>
      <trkpt lat="46.91485" lon="-1.96457">
        <ele>25</ele>
        <time>2019-10-03T18:16:45Z</time>
      </trkpt>
      <trkpt lat="46.9149" lon="-1.96456">
        <ele>25</ele>
        <time>2019-10-03T18:16:46Z</time>
      </trkpt>
      <trkpt lat="46.91495" lon="-1.96453">
        <ele>25</ele>
        <time>2019-10-03T18:16:47Z</time>
      </trkpt>
      <trkpt lat="46.915" lon="-1.96451">
        <ele>25</ele>
        <time>2019-10-03T18:16:48Z</time>
      </trkpt>
      <trkpt lat="46.91505" lon="-1.96449">
        <ele>25</ele>
        <time>2019-10-03T18:16:49Z</time>
      </trkpt>
      <trkpt lat="46.91511" lon="-1.96447">
        <ele>25</ele>
        <time>2019-10-03T18:16:50Z</time>
      </trkpt>
      <trkpt lat="46.91516" lon="-1.96445">
        <ele>25</ele>
        <time>2019-10-03T18:16:51Z</time>
      </trkpt>
      <trkpt lat="46.91521" lon="-1.96444">
        <ele>25</ele>
        <time>2019-10-03T18:16:52Z</time>
      </trkpt>
      <trkpt lat="46.91526" lon="-1.96442">
        <ele>25</ele>
        <time>2019-10-03T18:16:53Z</time>
      </trkpt>
      <trkpt lat="46.91531" lon="-1.9644">
        <ele>25</ele>
        <time>2019-10-03T18:16:54Z</time>
      </trkpt>
      <trkpt lat="46.91536" lon="-1.96438">
        <ele>25</ele>
        <time>2019-10-03T18:16:55Z</time>
      </trkpt>
      <trkpt lat="46.91541" lon="-1.96437">
        <ele>25</ele>
        <time>2019-10-03T18:16:56Z</time>
      </trkpt>
      <trkpt lat="46.91547" lon="-1.96435">
        <ele>25</ele>
        <time>2019-10-03T18:16:57Z</time>
      </trkpt>
      <trkpt lat="46.91552" lon="-1.96433">
        <ele>25</ele>
        <time>2019-10-03T18:16:58Z</time>
      </trkpt>
      <trkpt lat="46.91556" lon="-1.9643">
        <ele>25</ele>
        <time>2019-10-03T18:16:59Z</time>
      </trkpt>
      <trkpt lat="46.91566" lon="-1.96428">
        <ele>25</ele>
        <time>2019-10-03T18:17:01Z</time>
      </trkpt>
      <trkpt lat="46.91571" lon="-1.96426">
        <ele>25</ele>
        <time>2019-10-03T18:17:02Z</time>
      </trkpt>
      <trkpt lat="46.91576" lon="-1.96425">
        <ele>25</ele>
        <time>2019-10-03T18:17:03Z</time>
      </trkpt>
      <trkpt lat="46.91581" lon="-1.96423">
        <ele>25</ele>
        <time>2019-10-03T18:17:04Z</time>
      </trkpt>
      <trkpt lat="46.91587" lon="-1.96421">
        <ele>25</ele>
        <time>2019-10-03T18:17:05Z</time>
      </trkpt>
      <trkpt lat="46.91592" lon="-1.96419">
        <ele>25</ele>
        <time>2019-10-03T18:17:06Z</time>
      </trkpt>
      <trkpt lat="46.91597" lon="-1.96417">
        <ele>25</ele>
        <time>2019-10-03T18:17:07Z</time>
      </trkpt>
      <trkpt lat="46.91603" lon="-1.96415">
        <ele>25</ele>
        <time>2019-10-03T18:17:08Z</time>
      </trkpt>
      <trkpt lat="46.91607" lon="-1.96413">
        <ele>25</ele>
        <time>2019-10-03T18:17:09Z</time>
      </trkpt>
      <trkpt lat="46.91613" lon="-1.96412">
        <ele>25</ele>
        <time>2019-10-03T18:17:10Z</time>
      </trkpt>
      <trkpt lat="46.91618" lon="-1.9641">
        <ele>25</ele>
        <time>2019-10-03T18:17:11Z</time>
      </trkpt>
      <trkpt lat="46.91623" lon="-1.96409">
        <ele>25</ele>
        <time>2019-10-03T18:17:12Z</time>
      </trkpt>
      <trkpt lat="46.91628" lon="-1.96407">
        <ele>25</ele>
        <time>2019-10-03T18:17:13Z</time>
      </trkpt>
      <trkpt lat="46.91633" lon="-1.96405">
        <ele>25</ele>
        <time>2019-10-03T18:17:14Z</time>
      </trkpt>
      <trkpt lat="46.91637" lon="-1.96404">
        <ele>25</ele>
        <time>2019-10-03T18:17:15Z</time>
      </trkpt>
      <trkpt lat="46.91643" lon="-1.96402">
        <ele>25</ele>
        <time>2019-10-03T18:17:16Z</time>
      </trkpt>
      <trkpt lat="46.91648" lon="-1.96399">
        <ele>25</ele>
        <time>2019-10-03T18:17:17Z</time>
      </trkpt>
      <trkpt lat="46.91653" lon="-1.96397">
        <ele>25</ele>
        <time>2019-10-03T18:17:18Z</time>
      </trkpt>
      <trkpt lat="46.91659" lon="-1.96395">
        <ele>25</ele>
        <time>2019-10-03T18:17:19Z</time>
      </trkpt>
      <trkpt lat="46.91665" lon="-1.96393">
        <ele>25</ele>
        <time>2019-10-03T18:17:20Z</time>
      </trkpt>
      <trkpt lat="46.9167" lon="-1.96391">
        <ele>25</ele>
        <time>2019-10-03T18:17:21Z</time>
      </trkpt>
      <trkpt lat="46.91675" lon="-1.96388">
        <ele>25</ele>
        <time>2019-10-03T18:17:22Z</time>
      </trkpt>
      <trkpt lat="46.9168" lon="-1.96386">
        <ele>25</ele>
        <time>2019-10-03T18:17:23Z</time>
      </trkpt>
      <trkpt lat="46.91685" lon="-1.96384">
        <ele>25</ele>
        <time>2019-10-03T18:17:24Z</time>
      </trkpt>
      <trkpt lat="46.9169" lon="-1.96382">
        <ele>25</ele>
        <time>2019-10-03T18:17:25Z</time>
      </trkpt>
      <trkpt lat="46.91694" lon="-1.96381">
        <ele>25</ele>
        <time>2019-10-03T18:17:26Z</time>
      </trkpt>
      <trkpt lat="46.91699" lon="-1.96379">
        <ele>25</ele>
        <time>2019-10-03T18:17:27Z</time>
      </trkpt>
      <trkpt lat="46.91704" lon="-1.96377">
        <ele>25</ele>
        <time>2019-10-03T18:17:28Z</time>
      </trkpt>
      <trkpt lat="46.91709" lon="-1.96374">
        <ele>25</ele>
        <time>2019-10-03T18:17:29Z</time>
      </trkpt>
      <trkpt lat="46.91713" lon="-1.96371">
        <ele>25</ele>
        <time>2019-10-03T18:17:30Z</time>
      </trkpt>
      <trkpt lat="46.91718" lon="-1.96369">
        <ele>25</ele>
        <time>2019-10-03T18:17:31Z</time>
      </trkpt>
      <trkpt lat="46.91722" lon="-1.96367">
        <ele>25</ele>
        <time>2019-10-03T18:17:32Z</time>
      </trkpt>
      <trkpt lat="46.9173" lon="-1.96362">
        <ele>25</ele>
        <time>2019-10-03T18:17:34Z</time>
      </trkpt>
      <trkpt lat="46.91734" lon="-1.9636">
        <ele>25</ele>
        <time>2019-10-03T18:17:35Z</time>
      </trkpt>
      <trkpt lat="46.91743" lon="-1.96356">
        <ele>25</ele>
        <time>2019-10-03T18:17:37Z</time>
      </trkpt>
      <trkpt lat="46.9175" lon="-1.96348">
        <ele>25</ele>
        <time>2019-10-03T18:17:39Z</time>
      </trkpt>
      <trkpt lat="46.91757" lon="-1.9634">
        <ele>25</ele>
        <time>2019-10-03T18:17:41Z</time>
      </trkpt>
      <trkpt lat="46.91761" lon="-1.96336">
        <ele>25</ele>
        <time>2019-10-03T18:17:42Z</time>
      </trkpt>
      <trkpt lat="46.91764" lon="-1.96331">
        <ele>25</ele>
        <time>2019-10-03T18:17:43Z</time>
      </trkpt>
      <trkpt lat="46.91768" lon="-1.96327">
        <ele>25</ele>
        <time>2019-10-03T18:17:44Z</time>
      </trkpt>
      <trkpt lat="46.91774" lon="-1.96318">
        <ele>25</ele>
        <time>2019-10-03T18:17:46Z</time>
      </trkpt>
      <trkpt lat="46.9178" lon="-1.9631">
        <ele>25</ele>
        <time>2019-10-03T18:17:48Z</time>
      </trkpt>
      <trkpt lat="46.91783" lon="-1.96305">
        <ele>25</ele>
        <time>2019-10-03T18:17:49Z</time>
      </trkpt>
      <trkpt lat="46.91786" lon="-1.963">
        <ele>25</ele>
        <time>2019-10-03T18:17:50Z</time>
      </trkpt>
      <trkpt lat="46.91791" lon="-1.96291">
        <ele>25</ele>
        <time>2019-10-03T18:17:52Z</time>
      </trkpt>
      <trkpt lat="46.91797" lon="-1.96284">
        <ele>25</ele>
        <time>2019-10-03T18:17:54Z</time>
      </trkpt>
      <trkpt lat="46.91804" lon="-1.96278">
        <ele>25</ele>
        <time>2019-10-03T18:17:56Z</time>
      </trkpt>
      <trkpt lat="46.91811" lon="-1.96274">
        <ele>25</ele>
        <time>2019-10-03T18:17:58Z</time>
      </trkpt>
      <trkpt lat="46.91818" lon="-1.96269">
        <ele>25</ele>
        <time>2019-10-03T18:18:00Z</time>
      </trkpt>
      <trkpt lat="46.91825" lon="-1.96265">
        <ele>25</ele>
        <time>2019-10-03T18:18:02Z</time>
      </trkpt>
      <trkpt lat="46.91833" lon="-1.96261">
        <ele>25</ele>
        <time>2019-10-03T18:18:04Z</time>
      </trkpt>
      <trkpt lat="46.9184" lon="-1.96259">
        <ele>25</ele>
        <time>2019-10-03T18:18:06Z</time>
      </trkpt>
      <trkpt lat="46.91845" lon="-1.96258">
        <ele>25</ele>
        <time>2019-10-03T18:18:07Z</time>
      </trkpt>
      <trkpt lat="46.9185" lon="-1.96257">
        <ele>25</ele>
        <time>2019-10-03T18:18:08Z</time>
      </trkpt>
      <trkpt lat="46.91859" lon="-1.96255">
        <ele>25</ele>
        <time>2019-10-03T18:18:10Z</time>
      </trkpt>
      <trkpt lat="46.91866" lon="-1.96251">
        <ele>25</ele>
        <time>2019-10-03T18:18:12Z</time>
      </trkpt>
      <trkpt lat="46.91874" lon="-1.96248">
        <ele>25</ele>
        <time>2019-10-03T18:18:14Z</time>
      </trkpt>
      <trkpt lat="46.91882" lon="-1.96246">
        <ele>25</ele>
        <time>2019-10-03T18:18:16Z</time>
      </trkpt>
      <trkpt lat="46.91886" lon="-1.96244">
        <ele>25</ele>
        <time>2019-10-03T18:18:17Z</time>
      </trkpt>
      <trkpt lat="46.9189" lon="-1.96243">
        <ele>25</ele>
        <time>2019-10-03T18:18:18Z</time>
      </trkpt>
      <trkpt lat="46.919" lon="-1.96242">
        <ele>25</ele>
        <time>2019-10-03T18:18:20Z</time>
      </trkpt>
      <trkpt lat="46.91908" lon="-1.9624">
        <ele>25</ele>
        <time>2019-10-03T18:18:22Z</time>
      </trkpt>
      <trkpt lat="46.91915" lon="-1.9624">
        <ele>25</ele>
        <time>2019-10-03T18:18:24Z</time>
      </trkpt>
      <trkpt lat="46.91923" lon="-1.9624">
        <ele>25</ele>
        <time>2019-10-03T18:18:26Z</time>
      </trkpt>
      <trkpt lat="46.91932" lon="-1.96241">
        <ele>25</ele>
        <time>2019-10-03T18:18:28Z</time>
      </trkpt>
      <trkpt lat="46.91937" lon="-1.96239">
        <ele>25</ele>
        <time>2019-10-03T18:18:30Z</time>
      </trkpt>
      <trkpt lat="46.9194" lon="-1.96232">
        <ele>25</ele>
        <time>2019-10-03T18:18:32Z</time>
      </trkpt>
      <trkpt lat="46.91938" lon="-1.96221">
        <ele>25</ele>
        <time>2019-10-03T18:18:34Z</time>
      </trkpt>
      <trkpt lat="46.91936" lon="-1.96211">
        <ele>25</ele>
        <time>2019-10-03T18:18:36Z</time>
      </trkpt>
      <trkpt lat="46.91933" lon="-1.96199">
        <ele>25</ele>
        <time>2019-10-03T18:18:38Z</time>
      </trkpt>
      <trkpt lat="46.91931" lon="-1.96193">
        <ele>25</ele>
        <time>2019-10-03T18:18:39Z</time>
      </trkpt>
      <trkpt lat="46.91929" lon="-1.96183">
        <ele>25</ele>
        <time>2019-10-03T18:18:41Z</time>
      </trkpt>
      <trkpt lat="46.91932" lon="-1.96173">
        <ele>25</ele>
        <time>2019-10-03T18:18:43Z</time>
      </trkpt>
      <trkpt lat="46.91938" lon="-1.96163">
        <ele>25</ele>
        <time>2019-10-03T18:18:45Z</time>
      </trkpt>
      <trkpt lat="46.91942" lon="-1.96159">
        <ele>25</ele>
        <time>2019-10-03T18:18:46Z</time>
      </trkpt>
      <trkpt lat="46.91946" lon="-1.96155">
        <ele>26</ele>
        <time>2019-10-03T18:18:47Z</time>
      </trkpt>
      <trkpt lat="46.91953" lon="-1.96147">
        <ele>26</ele>
        <time>2019-10-03T18:18:49Z</time>
      </trkpt>
      <trkpt lat="46.91957" lon="-1.96143">
        <ele>26</ele>
        <time>2019-10-03T18:18:50Z</time>
      </trkpt>
      <trkpt lat="46.91961" lon="-1.96138">
        <ele>26</ele>
        <time>2019-10-03T18:18:51Z</time>
      </trkpt>
      <trkpt lat="46.91964" lon="-1.9613">
        <ele>26</ele>
        <time>2019-10-03T18:18:52Z</time>
      </trkpt>
      <trkpt lat="46.91969" lon="-1.96127">
        <ele>26</ele>
        <time>2019-10-03T18:18:53Z</time>
      </trkpt>
      <trkpt lat="46.91974" lon="-1.96122">
        <ele>26</ele>
        <time>2019-10-03T18:18:54Z</time>
      </trkpt>
      <trkpt lat="46.91978" lon="-1.9612">
        <ele>26</ele>
        <time>2019-10-03T18:18:55Z</time>
      </trkpt>
      <trkpt lat="46.91982" lon="-1.96115">
        <ele>26</ele>
        <time>2019-10-03T18:18:56Z</time>
      </trkpt>
      <trkpt lat="46.91986" lon="-1.96108">
        <ele>26</ele>
        <time>2019-10-03T18:18:57Z</time>
      </trkpt>
      <trkpt lat="46.9199" lon="-1.96101">
        <ele>26</ele>
        <time>2019-10-03T18:18:58Z</time>
      </trkpt>
      <trkpt lat="46.91994" lon="-1.96093">
        <ele>26</ele>
        <time>2019-10-03T18:18:59Z</time>
      </trkpt>
      <trkpt lat="46.91998" lon="-1.96086">
        <ele>26</ele>
        <time>2019-10-03T18:19:00Z</time>
      </trkpt>
      <trkpt lat="46.92002" lon="-1.96079">
        <ele>26</ele>
        <time>2019-10-03T18:19:01Z</time>
      </trkpt>
      <trkpt lat="46.92005" lon="-1.96072">
        <ele>26</ele>
        <time>2019-10-03T18:19:02Z</time>
      </trkpt>
      <trkpt lat="46.92009" lon="-1.96064">
        <ele>26</ele>
        <time>2019-10-03T18:19:03Z</time>
      </trkpt>
      <trkpt lat="46.92014" lon="-1.96056">
        <ele>26</ele>
        <time>2019-10-03T18:19:04Z</time>
      </trkpt>
      <trkpt lat="46.92018" lon="-1.9605">
        <ele>26</ele>
        <time>2019-10-03T18:19:05Z</time>
      </trkpt>
      <trkpt lat="46.92022" lon="-1.96042">
        <ele>25</ele>
        <time>2019-10-03T18:19:06Z</time>
      </trkpt>
      <trkpt lat="46.92026" lon="-1.96035">
        <ele>25</ele>
        <time>2019-10-03T18:19:07Z</time>
      </trkpt>
      <trkpt lat="46.92031" lon="-1.96028">
        <ele>25</ele>
        <time>2019-10-03T18:19:08Z</time>
      </trkpt>
      <trkpt lat="46.92035" lon="-1.96021">
        <ele>25</ele>
        <time>2019-10-03T18:19:09Z</time>
      </trkpt>
      <trkpt lat="46.92039" lon="-1.96014">
        <ele>25</ele>
        <time>2019-10-03T18:19:10Z</time>
      </trkpt>
      <trkpt lat="46.92043" lon="-1.96007">
        <ele>25</ele>
        <time>2019-10-03T18:19:11Z</time>
      </trkpt>
      <trkpt lat="46.92048" lon="-1.96">
        <ele>25</ele>
        <time>2019-10-03T18:19:12Z</time>
      </trkpt>
      <trkpt lat="46.92052" lon="-1.95993">
        <ele>25</ele>
        <time>2019-10-03T18:19:13Z</time>
      </trkpt>
      <trkpt lat="46.92056" lon="-1.95987">
        <ele>25</ele>
        <time>2019-10-03T18:19:14Z</time>
      </trkpt>
      <trkpt lat="46.9206" lon="-1.9598">
        <ele>25</ele>
        <time>2019-10-03T18:19:15Z</time>
      </trkpt>
      <trkpt lat="46.92064" lon="-1.95973">
        <ele>25</ele>
        <time>2019-10-03T18:19:16Z</time>
      </trkpt>
      <trkpt lat="46.92069" lon="-1.95966">
        <ele>25</ele>
        <time>2019-10-03T18:19:17Z</time>
      </trkpt>
      <trkpt lat="46.92072" lon="-1.95959">
        <ele>25</ele>
        <time>2019-10-03T18:19:18Z</time>
      </trkpt>
      <trkpt lat="46.92077" lon="-1.95952">
        <ele>25</ele>
        <time>2019-10-03T18:19:19Z</time>
      </trkpt>
      <trkpt lat="46.92081" lon="-1.95945">
        <ele>25</ele>
        <time>2019-10-03T18:19:20Z</time>
      </trkpt>
      <trkpt lat="46.92085" lon="-1.95937">
        <ele>25</ele>
        <time>2019-10-03T18:19:21Z</time>
      </trkpt>
      <trkpt lat="46.9209" lon="-1.9593">
        <ele>25</ele>
        <time>2019-10-03T18:19:22Z</time>
      </trkpt>
      <trkpt lat="46.92093" lon="-1.95923">
        <ele>25</ele>
        <time>2019-10-03T18:19:23Z</time>
      </trkpt>
      <trkpt lat="46.92097" lon="-1.95916">
        <ele>25</ele>
        <time>2019-10-03T18:19:24Z</time>
      </trkpt>
      <trkpt lat="46.92101" lon="-1.95908">
        <ele>25</ele>
        <time>2019-10-03T18:19:25Z</time>
      </trkpt>
      <trkpt lat="46.92104" lon="-1.95901">
        <ele>25</ele>
        <time>2019-10-03T18:19:26Z</time>
      </trkpt>
      <trkpt lat="46.92108" lon="-1.95893">
        <ele>25</ele>
        <time>2019-10-03T18:19:27Z</time>
      </trkpt>
      <trkpt lat="46.92112" lon="-1.95886">
        <ele>25</ele>
        <time>2019-10-03T18:19:28Z</time>
      </trkpt>
      <trkpt lat="46.92116" lon="-1.95878">
        <ele>25</ele>
        <time>2019-10-03T18:19:29Z</time>
      </trkpt>
      <trkpt lat="46.92119" lon="-1.95871">
        <ele>24</ele>
        <time>2019-10-03T18:19:30Z</time>
      </trkpt>
      <trkpt lat="46.92123" lon="-1.95864">
        <ele>24</ele>
        <time>2019-10-03T18:19:31Z</time>
      </trkpt>
      <trkpt lat="46.92126" lon="-1.95857">
        <ele>24</ele>
        <time>2019-10-03T18:19:32Z</time>
      </trkpt>
      <trkpt lat="46.9213" lon="-1.95849">
        <ele>24</ele>
        <time>2019-10-03T18:19:33Z</time>
      </trkpt>
      <trkpt lat="46.92133" lon="-1.95842">
        <ele>24</ele>
        <time>2019-10-03T18:19:34Z</time>
      </trkpt>
      <trkpt lat="46.92138" lon="-1.95835">
        <ele>24</ele>
        <time>2019-10-03T18:19:35Z</time>
      </trkpt>
      <trkpt lat="46.92142" lon="-1.95828">
        <ele>24</ele>
        <time>2019-10-03T18:19:36Z</time>
      </trkpt>
      <trkpt lat="46.92146" lon="-1.9582">
        <ele>24</ele>
        <time>2019-10-03T18:19:37Z</time>
      </trkpt>
      <trkpt lat="46.9215" lon="-1.95813">
        <ele>24</ele>
        <time>2019-10-03T18:19:38Z</time>
      </trkpt>
      <trkpt lat="46.92154" lon="-1.95807">
        <ele>24</ele>
        <time>2019-10-03T18:19:39Z</time>
      </trkpt>
      <trkpt lat="46.92158" lon="-1.95801">
        <ele>24</ele>
        <time>2019-10-03T18:19:40Z</time>
      </trkpt>
      <trkpt lat="46.92162" lon="-1.95794">
        <ele>23</ele>
        <time>2019-10-03T18:19:41Z</time>
      </trkpt>
      <trkpt lat="46.92166" lon="-1.95787">
        <ele>23</ele>
        <time>2019-10-03T18:19:42Z</time>
      </trkpt>
      <trkpt lat="46.9217" lon="-1.9578">
        <ele>23</ele>
        <time>2019-10-03T18:19:43Z</time>
      </trkpt>
      <trkpt lat="46.92175" lon="-1.95773">
        <ele>23</ele>
        <time>2019-10-03T18:19:44Z</time>
      </trkpt>
      <trkpt lat="46.9218" lon="-1.95765">
        <ele>23</ele>
        <time>2019-10-03T18:19:45Z</time>
      </trkpt>
      <trkpt lat="46.92184" lon="-1.95758">
        <ele>23</ele>
        <time>2019-10-03T18:19:46Z</time>
      </trkpt>
      <trkpt lat="46.92189" lon="-1.95751">
        <ele>23</ele>
        <time>2019-10-03T18:19:47Z</time>
      </trkpt>
      <trkpt lat="46.92194" lon="-1.95745">
        <ele>22</ele>
        <time>2019-10-03T18:19:48Z</time>
      </trkpt>
      <trkpt lat="46.92199" lon="-1.95739">
        <ele>22</ele>
        <time>2019-10-03T18:19:49Z</time>
      </trkpt>
      <trkpt lat="46.92204" lon="-1.95733">
        <ele>22</ele>
        <time>2019-10-03T18:19:50Z</time>
      </trkpt>
      <trkpt lat="46.92209" lon="-1.95728">
        <ele>22</ele>
        <time>2019-10-03T18:19:51Z</time>
      </trkpt>
      <trkpt lat="46.92214" lon="-1.95722">
        <ele>22</ele>
        <time>2019-10-03T18:19:52Z</time>
      </trkpt>
      <trkpt lat="46.92219" lon="-1.95716">
        <ele>22</ele>
        <time>2019-10-03T18:19:53Z</time>
      </trkpt>
      <trkpt lat="46.92224" lon="-1.95709">
        <ele>22</ele>
        <time>2019-10-03T18:19:54Z</time>
      </trkpt>
      <trkpt lat="46.92229" lon="-1.95702">
        <ele>22</ele>
        <time>2019-10-03T18:19:55Z</time>
      </trkpt>
      <trkpt lat="46.92234" lon="-1.95696">
        <ele>22</ele>
        <time>2019-10-03T18:19:56Z</time>
      </trkpt>
      <trkpt lat="46.9224" lon="-1.9569">
        <ele>22</ele>
        <time>2019-10-03T18:19:57Z</time>
      </trkpt>
      <trkpt lat="46.92244" lon="-1.95682">
        <ele>22</ele>
        <time>2019-10-03T18:19:58Z</time>
      </trkpt>
      <trkpt lat="46.92249" lon="-1.95675">
        <ele>22</ele>
        <time>2019-10-03T18:19:59Z</time>
      </trkpt>
      <trkpt lat="46.92253" lon="-1.95667">
        <ele>21</ele>
        <time>2019-10-03T18:20:00Z</time>
      </trkpt>
      <trkpt lat="46.92258" lon="-1.95661">
        <ele>21</ele>
        <time>2019-10-03T18:20:01Z</time>
      </trkpt>
      <trkpt lat="46.92263" lon="-1.95654">
        <ele>21</ele>
        <time>2019-10-03T18:20:02Z</time>
      </trkpt>
      <trkpt lat="46.92267" lon="-1.95647">
        <ele>21</ele>
        <time>2019-10-03T18:20:03Z</time>
      </trkpt>
      <trkpt lat="46.92273" lon="-1.95641">
        <ele>21</ele>
        <time>2019-10-03T18:20:04Z</time>
      </trkpt>
      <trkpt lat="46.92278" lon="-1.95634">
        <ele>21</ele>
        <time>2019-10-03T18:20:05Z</time>
      </trkpt>
      <trkpt lat="46.92282" lon="-1.95628">
        <ele>21</ele>
        <time>2019-10-03T18:20:06Z</time>
      </trkpt>
      <trkpt lat="46.92287" lon="-1.95622">
        <ele>21</ele>
        <time>2019-10-03T18:20:07Z</time>
      </trkpt>
      <trkpt lat="46.92292" lon="-1.95616">
        <ele>21</ele>
        <time>2019-10-03T18:20:08Z</time>
      </trkpt>
      <trkpt lat="46.92297" lon="-1.9561">
        <ele>21</ele>
        <time>2019-10-03T18:20:09Z</time>
      </trkpt>
      <trkpt lat="46.92302" lon="-1.95604">
        <ele>21</ele>
        <time>2019-10-03T18:20:10Z</time>
      </trkpt>
      <trkpt lat="46.92307" lon="-1.95598">
        <ele>21</ele>
        <time>2019-10-03T18:20:11Z</time>
      </trkpt>
      <trkpt lat="46.92312" lon="-1.95593">
        <ele>21</ele>
        <time>2019-10-03T18:20:12Z</time>
      </trkpt>
      <trkpt lat="46.92318" lon="-1.95589">
        <ele>20</ele>
        <time>2019-10-03T18:20:13Z</time>
      </trkpt>
      <trkpt lat="46.92323" lon="-1.95584">
        <ele>20</ele>
        <time>2019-10-03T18:20:14Z</time>
      </trkpt>
      <trkpt lat="46.92327" lon="-1.95578">
        <ele>20</ele>
        <time>2019-10-03T18:20:15Z</time>
      </trkpt>
      <trkpt lat="46.92332" lon="-1.95572">
        <ele>20</ele>
        <time>2019-10-03T18:20:16Z</time>
      </trkpt>
      <trkpt lat="46.92337" lon="-1.95566">
        <ele>20</ele>
        <time>2019-10-03T18:20:17Z</time>
      </trkpt>
      <trkpt lat="46.92342" lon="-1.9556">
        <ele>20</ele>
        <time>2019-10-03T18:20:18Z</time>
      </trkpt>
      <trkpt lat="46.92347" lon="-1.95554">
        <ele>20</ele>
        <time>2019-10-03T18:20:19Z</time>
      </trkpt>
      <trkpt lat="46.92352" lon="-1.95548">
        <ele>20</ele>
        <time>2019-10-03T18:20:20Z</time>
      </trkpt>
      <trkpt lat="46.92356" lon="-1.95543">
        <ele>20</ele>
        <time>2019-10-03T18:20:21Z</time>
      </trkpt>
      <trkpt lat="46.92361" lon="-1.95537">
        <ele>20</ele>
        <time>2019-10-03T18:20:22Z</time>
      </trkpt>
      <trkpt lat="46.92366" lon="-1.95531">
        <ele>19</ele>
        <time>2019-10-03T18:20:23Z</time>
      </trkpt>
      <trkpt lat="46.9237" lon="-1.95526">
        <ele>19</ele>
        <time>2019-10-03T18:20:24Z</time>
      </trkpt>
      <trkpt lat="46.92375" lon="-1.9552">
        <ele>19</ele>
        <time>2019-10-03T18:20:25Z</time>
      </trkpt>
      <trkpt lat="46.92378" lon="-1.95513">
        <ele>19</ele>
        <time>2019-10-03T18:20:26Z</time>
      </trkpt>
      <trkpt lat="46.92379" lon="-1.95505">
        <ele>19</ele>
        <time>2019-10-03T18:20:27Z</time>
      </trkpt>
      <trkpt lat="46.92379" lon="-1.95495">
        <ele>18</ele>
        <time>2019-10-03T18:20:28Z</time>
      </trkpt>
      <trkpt lat="46.92379" lon="-1.95486">
        <ele>18</ele>
        <time>2019-10-03T18:20:29Z</time>
      </trkpt>
      <trkpt lat="46.92378" lon="-1.95476">
        <ele>18</ele>
        <time>2019-10-03T18:20:30Z</time>
      </trkpt>
      <trkpt lat="46.92376" lon="-1.95466">
        <ele>18</ele>
        <time>2019-10-03T18:20:31Z</time>
      </trkpt>
      <trkpt lat="46.92374" lon="-1.95456">
        <ele>18</ele>
        <time>2019-10-03T18:20:32Z</time>
      </trkpt>
      <trkpt lat="46.92373" lon="-1.95447">
        <ele>18</ele>
        <time>2019-10-03T18:20:33Z</time>
      </trkpt>
      <trkpt lat="46.92372" lon="-1.95437">
        <ele>17</ele>
        <time>2019-10-03T18:20:34Z</time>
      </trkpt>
      <trkpt lat="46.92371" lon="-1.95429">
        <ele>17</ele>
        <time>2019-10-03T18:20:35Z</time>
      </trkpt>
      <trkpt lat="46.9237" lon="-1.95421">
        <ele>17</ele>
        <time>2019-10-03T18:20:36Z</time>
      </trkpt>
      <trkpt lat="46.9237" lon="-1.95413">
        <ele>17</ele>
        <time>2019-10-03T18:20:37Z</time>
      </trkpt>
      <trkpt lat="46.92368" lon="-1.95404">
        <ele>17</ele>
        <time>2019-10-03T18:20:38Z</time>
      </trkpt>
      <trkpt lat="46.92368" lon="-1.95395">
        <ele>17</ele>
        <time>2019-10-03T18:20:39Z</time>
      </trkpt>
      <trkpt lat="46.92367" lon="-1.95387">
        <ele>17</ele>
        <time>2019-10-03T18:20:40Z</time>
      </trkpt>
      <trkpt lat="46.92366" lon="-1.95379">
        <ele>17</ele>
        <time>2019-10-03T18:20:41Z</time>
      </trkpt>
      <trkpt lat="46.92363" lon="-1.95372">
        <ele>17</ele>
        <time>2019-10-03T18:20:42Z</time>
      </trkpt>
      <trkpt lat="46.92359" lon="-1.95366">
        <ele>17</ele>
        <time>2019-10-03T18:20:43Z</time>
      </trkpt>
      <trkpt lat="46.92355" lon="-1.95361">
        <ele>17</ele>
        <time>2019-10-03T18:20:44Z</time>
      </trkpt>
      <trkpt lat="46.92352" lon="-1.95357">
        <ele>17</ele>
        <time>2019-10-03T18:20:45Z</time>
      </trkpt>
      <trkpt lat="46.92347" lon="-1.95355">
        <ele>17</ele>
        <time>2019-10-03T18:20:46Z</time>
      </trkpt>
      <trkpt lat="46.92342" lon="-1.95355">
        <ele>17</ele>
        <time>2019-10-03T18:20:47Z</time>
      </trkpt>
      <trkpt lat="46.92336" lon="-1.95355">
        <ele>17</ele>
        <time>2019-10-03T18:20:48Z</time>
      </trkpt>
      <trkpt lat="46.92331" lon="-1.95356">
        <ele>16</ele>
        <time>2019-10-03T18:20:49Z</time>
      </trkpt>
      <trkpt lat="46.92326" lon="-1.95358">
        <ele>16</ele>
        <time>2019-10-03T18:20:50Z</time>
      </trkpt>
      <trkpt lat="46.92436" lon="-1.95205">
        <ele>13.7</ele>
      </trkpt>
      <trkpt lat="46.92366" lon="-1.94879">
        <ele>13</ele>
      </trkpt>
      <trkpt lat="46.92712" lon="-1.946">
        <ele>8.4</ele>
      </trkpt>
      <trkpt lat="46.92764" lon="-1.94716">
        <ele>9.4</ele>
      </trkpt>
      <trkpt lat="46.93019" lon="-1.94518">
        <ele>6</ele>
      </trkpt>
      <trkpt lat="46.92972" lon="-1.94239">
        <ele>4</ele>
      </trkpt>
      <trkpt lat="46.92852" lon="-1.93866">
        <ele>5.4</ele>
      </trkpt>
      <trkpt lat="46.93037" lon="-1.93617">
        <ele>3</ele>
      </trkpt>
      <trkpt lat="46.93224" lon="-1.93531">
        <ele>2.9</ele>
      </trkpt>
      <trkpt lat="46.93227" lon="-1.93454">
        <ele>2.9</ele>
      </trkpt>
      <trkpt lat="46.93576" lon="-1.93029">
        <ele>3.4</ele>
      </trkpt>
      <trkpt lat="46.93588" lon="-1.92973">
        <ele>2.9</ele>
      </trkpt>
      <trkpt lat="46.93851" lon="-1.92883">
        <ele>3</ele>
      </trkpt>
      <trkpt lat="46.93814" lon="-1.9263">
        <ele>2.7</ele>
      </trkpt>
      <trkpt lat="46.9377" lon="-1.92531">
        <ele>2.7</ele>
      </trkpt>
      <trkpt lat="46.93811" lon="-1.92518">
        <ele>2.9</ele>
      </trkpt>
      <trkpt lat="46.93893" lon="-1.92484">
        <ele>2.9</ele>
      </trkpt>
      <trkpt lat="46.93852" lon="-1.92407">
        <ele>2.4</ele>
      </trkpt>
      <trkpt lat="46.93787" lon="-1.92299">
        <ele>2.7</ele>
      </trkpt>
      <trkpt lat="46.93799" lon="-1.92098">
        <ele>2.8</ele>
      </trkpt>
      <trkpt lat="46.9377" lon="-1.91776">
        <ele>2.7</ele>
      </trkpt>
      <trkpt lat="46.93679" lon="-1.91724">
        <ele>2</ele>
      </trkpt>
      <trkpt lat="46.93679" lon="-1.91591">
        <ele>2.9</ele>
      </trkpt>
      <trkpt lat="46.93623" lon="-1.91458">
        <ele>2.2</ele>
      </trkpt>
      <trkpt lat="46.93609" lon="-1.91196">
        <ele>2</ele>
      </trkpt>
      <trkpt lat="46.93477" lon="-1.91205">
        <ele>3</ele>
      </trkpt>
      <trkpt lat="46.93424" lon="-1.91278">
        <ele>3</ele>
      </trkpt>
      <trkpt lat="46.93345" lon="-1.91111">
        <ele>3</ele>
      </trkpt>
      <trkpt lat="46.93389" lon="-1.91029">
        <ele>3</ele>
      </trkpt>
      <trkpt lat="46.93392" lon="-1.90879">
        <ele>3</ele>
      </trkpt>
      <trkpt lat="46.93456" lon="-1.90918">
        <ele>2.6</ele>
      </trkpt>
      <trkpt lat="46.93755" lon="-1.90518">
        <ele>2.7</ele>
      </trkpt>
      <trkpt lat="46.94107" lon="-1.90879">
        <ele>3</ele>
      </trkpt>
      <trkpt lat="46.94247" lon="-1.91424">
        <ele>3</ele>
      </trkpt>
      <trkpt lat="46.94306" lon="-1.91802">
        <ele>3</ele>
      </trkpt>
      <trkpt lat="46.94353" lon="-1.91819">
        <ele>2.8</ele>
      </trkpt>
      <trkpt lat="46.94376" lon="-1.91922">
        <ele>2.5</ele>
      </trkpt>
      <trkpt lat="46.94493" lon="-1.91883">
        <ele>3</ele>
      </trkpt>
      <trkpt lat="46.94581" lon="-1.92295">
        <ele>3</ele>
      </trkpt>
      <trkpt lat="46.94774" lon="-1.92789">
        <ele>2.9</ele>
      </trkpt>
      <trkpt lat="46.94813" lon="-1.92789">
        <ele>2.5</ele>
      </trkpt>
      <trkpt lat="46.9502" lon="-1.92475">
        <ele>2.9</ele>
      </trkpt>
      <trkpt lat="46.94956" lon="-1.92218">
        <ele>2.9</ele>
      </trkpt>
      <trkpt lat="46.95006" lon="-1.9187">
        <ele>2.1</ele>
      </trkpt>
      <trkpt lat="46.94968" lon="-1.91518">
        <ele>2.4</ele>
      </trkpt>
      <trkpt lat="46.94892" lon="-1.91158">
        <ele>2.7</ele>
      </trkpt>
      <trkpt lat="46.94751" lon="-1.90793">
        <ele>3</ele>
      </trkpt>
      <trkpt lat="46.95012" lon="-1.90767">
        <ele>2.4</ele>
      </trkpt>
      <trkpt lat="46.95067" lon="-1.90527">
        <ele>3</ele>
      </trkpt>
      <trkpt lat="46.95091" lon="-1.90428">
        <ele>3</ele>
      </trkpt>
      <trkpt lat="46.9522" lon="-1.90321">
        <ele>3</ele>
      </trkpt>
      <trkpt lat="46.9582" lon="-1.90651">
        <ele>2.8</ele>
      </trkpt>
      <trkpt lat="46.96101" lon="-1.90793">
        <ele>3</ele>
      </trkpt>
      <trkpt lat="46.96201" lon="-1.90772">
        <ele>3</ele>
      </trkpt>
      <trkpt lat="46.96157" lon="-1.90883">
        <ele>2.5</ele>
      </trkpt>
      <trkpt lat="46.96209" lon="-1.91008">
        <ele>3</ele>
      </trkpt>
      <trkpt lat="46.9647" lon="-1.91342">
        <ele>2.4</ele>
      </trkpt>
      <trkpt lat="46.96587" lon="-1.91626">
        <ele>2.1</ele>
      </trkpt>
      <trkpt lat="46.96651" lon="-1.92016">
        <ele>2.5</ele>
      </trkpt>
      <trkpt lat="46.96423" lon="-1.91999">
        <ele>3</ele>
      </trkpt>
      <trkpt lat="46.96104" lon="-1.91673">
        <ele>2.8</ele>
      </trkpt>
      <trkpt lat="46.95937" lon="-1.91166">
        <ele>2.7</ele>
      </trkpt>
      <trkpt lat="46.95811" lon="-1.9078">
        <ele>3</ele>
      </trkpt>
      <trkpt lat="46.95811" lon="-1.9051">
        <ele>3</ele>
      </trkpt>
      <trkpt lat="46.95887" lon="-1.90342">
        <ele>2.7</ele>
      </trkpt>
      <trkpt lat="46.95835" lon="-1.89815">
        <ele>3</ele>
      </trkpt>
      <trkpt lat="46.9563" lon="-1.89132">
        <ele>2</ele>
      </trkpt>
      <trkpt lat="46.95501" lon="-1.88613">
        <ele>2</ele>
      </trkpt>
      <trkpt lat="46.95615" lon="-1.88154">
        <ele>2.5</ele>
      </trkpt>
      <trkpt lat="46.95858" lon="-1.87828">
        <ele>2.9</ele>
      </trkpt>
      <trkpt lat="46.95867" lon="-1.87682">
        <ele>3</ele>
      </trkpt>
      <trkpt lat="46.9577" lon="-1.87145">
        <ele>2.2</ele>
      </trkpt>
      <trkpt lat="46.95653" lon="-1.86896">
        <ele>2</ele>
      </trkpt>
      <trkpt lat="46.95591" lon="-1.86429">
        <ele>3</ele>
      </trkpt>
      <trkpt lat="46.95609" lon="-1.8633">
        <ele>3.9</ele>
      </trkpt>
      <trkpt lat="46.95553" lon="-1.86214">
        <ele>3</ele>
      </trkpt>
      <trkpt lat="46.95498" lon="-1.86214">
        <ele>3</ele>
      </trkpt>
      <trkpt lat="46.95419" lon="-1.86012">
        <ele>4</ele>
      </trkpt>
      <trkpt lat="46.95309" lon="-1.85499">
        <ele>5.9</ele>
      </trkpt>
      <trkpt lat="46.95442" lon="-1.84916">
        <ele>8</ele>
      </trkpt>
      <trkpt lat="46.95403" lon="-1.84798">
        <ele>8.9</ele>
      </trkpt>
      <trkpt lat="46.95433" lon="-1.84568">
        <ele>9</ele>
      </trkpt>
      <trkpt lat="46.95381" lon="-1.84276">
        <ele>10</ele>
      </trkpt>
      <trkpt lat="46.95018" lon="-1.84152">
        <ele>14.7</ele>
      </trkpt>
      <trkpt lat="46.9508" lon="-1.83961">
        <ele>16.1</ele>
      </trkpt>
      <trkpt lat="46.95012" lon="-1.83901">
        <ele>17.3</ele>
      </trkpt>
      <trkpt lat="46.94993" lon="-1.84055">
        <ele>16.3</ele>
      </trkpt>
      <trkpt lat="46.95061" lon="-1.84064">
        <ele>16</ele>
      </trkpt>
      <trkpt lat="46.9486" lon="-1.84489">
        <ele>19</ele>
      </trkpt>
      <trkpt lat="46.9454" lon="-1.84407">
        <ele>24.4</ele>
      </trkpt>
      <trkpt lat="46.9404" lon="-1.84527">
        <ele>32</ele>
      </trkpt>
      <trkpt lat="46.93881" lon="-1.84635">
        <ele>33.4</ele>
      </trkpt>
      <trkpt lat="46.93659" lon="-1.84596">
        <ele>34.7</ele>
      </trkpt>
      <trkpt lat="46.93465" lon="-1.84618">
        <ele>28.7</ele>
      </trkpt>
      <trkpt lat="46.93468" lon="-1.84952">
        <ele>24.5</ele>
      </trkpt>
      <trkpt lat="46.93374" lon="-1.84982">
        <ele>27.1</ele>
      </trkpt>
      <trkpt lat="46.93242" lon="-1.84987">
        <ele>31.1</ele>
      </trkpt>
      <trkpt lat="46.93183" lon="-1.85072">
        <ele>27.4</ele>
      </trkpt>
      <trkpt lat="46.93013" lon="-1.85064">
        <ele>24.8</ele>
      </trkpt>
      <trkpt lat="46.92931" lon="-1.85094">
        <ele>24</ele>
      </trkpt>
      <trkpt lat="46.92791" lon="-1.85244">
        <ele>27.5</ele>
      </trkpt>
      <trkpt lat="46.92756" lon="-1.85021">
        <ele>29.6</ele>
      </trkpt>
      <trkpt lat="46.92741" lon="-1.84592">
        <ele>28.6</ele>
      </trkpt>
      <trkpt lat="46.92641" lon="-1.84223">
        <ele>33.9</ele>
      </trkpt>
      <trkpt lat="46.92641" lon="-1.84017">
        <ele>34.8</ele>
      </trkpt>
      <trkpt lat="46.92548" lon="-1.83553">
        <ele>35.9</ele>
      </trkpt>
      <trkpt lat="46.92553" lon="-1.83167">
        <ele>34.1</ele>
      </trkpt>
      <trkpt lat="46.92477" lon="-1.83098">
        <ele>36</ele>
      </trkpt>
      <trkpt lat="46.92477" lon="-1.83047">
        <ele>35.8</ele>
      </trkpt>
      <trkpt lat="46.92252" lon="-1.83111">
        <ele>39</ele>
      </trkpt>
      <trkpt lat="46.91938" lon="-1.83124">
        <ele>35</ele>
      </trkpt>
      <trkpt lat="46.91748" lon="-1.83167">
        <ele>32</ele>
      </trkpt>
      <trkpt lat="46.91745" lon="-1.83077">
        <ele>32</ele>
      </trkpt>
      <trkpt lat="46.918" lon="-1.82982">
        <ele>33.8</ele>
      </trkpt>
      <trkpt lat="46.91815" lon="-1.82656">
        <ele>34.6</ele>
      </trkpt>
      <trkpt lat="46.91812" lon="-1.82549">
        <ele>33</ele>
      </trkpt>
      <trkpt lat="46.919" lon="-1.82334">
        <ele>35</ele>
      </trkpt>
      <trkpt lat="46.9173" lon="-1.82206">
        <ele>33</ele>
      </trkpt>
      <trkpt lat="46.91721" lon="-1.82081">
        <ele>35</ele>
      </trkpt>
      <trkpt lat="46.91686" lon="-1.82111">
        <ele>34</ele>
      </trkpt>
      <trkpt lat="46.91622" lon="-1.81764">
        <ele>40</ele>
      </trkpt>
      <trkpt lat="46.9163" lon="-1.81476">
        <ele>40</ele>
      </trkpt>
      <trkpt lat="46.90865" lon="-1.82051">
        <ele>46</ele>
      </trkpt>
      <trkpt lat="46.90654" lon="-1.82206">
        <ele>43</ele>
      </trkpt>
      <trkpt lat="46.90616" lon="-1.82304">
        <ele>43</ele>
      </trkpt>
      <trkpt lat="46.90613" lon="-1.83339">
        <ele>32</ele>
      </trkpt>
      <trkpt lat="46.89945" lon="-1.83257">
        <ele>36.7</ele>
      </trkpt>
      <trkpt lat="46.89919" lon="-1.83442">
        <ele>33</ele>
      </trkpt>
      <trkpt lat="46.90164" lon="-1.83862">
        <ele>30</ele>
      </trkpt>
      <trkpt lat="46.89859" lon="-1.83982">
        <ele>27.6</ele>
      </trkpt>
      <trkpt lat="46.89736" lon="-1.84094">
        <ele>24.1</ele>
      </trkpt>
      <trkpt lat="46.90117" lon="-1.84592">
        <ele>26.9</ele>
      </trkpt>
      <trkpt lat="46.8954" lon="-1.85184">
        <ele>28</ele>
      </trkpt>
      <trkpt lat="46.8939" lon="-1.85218">
        <ele>27.2</ele>
      </trkpt>
      <trkpt lat="46.89141" lon="-1.85377">
        <ele>23</ele>
      </trkpt>
      <trkpt lat="46.89238" lon="-1.85622">
        <ele>24.3</ele>
      </trkpt>
      <trkpt lat="46.8922" lon="-1.85639">
        <ele>24</ele>
      </trkpt>
      <trkpt lat="46.89173" lon="-1.85637">
        <ele>24</ele>
        <time>2019-10-03T17:22:29Z</time>
      </trkpt>
    </trkseg>
  </trk>
</gpx>